# Wetter Temperatur Luftdruck Luftfeuchtigkeit Sichtweite Windgeschwindigkeit Windrichtung Zeit
1 Clouds -8 1011 95 0 1.75 27.079 19:57 17.10.2019
2 Clouds -8 1011 95 0 1.75 27.079 19:38 17.10.2019
3 Clouds -8 1011 95 0 1.75 27.079 19:19 17.10.2019
4 Clouds -8 1011 95 0 1.75 27.079 18:43 17.10.2019
5 Clouds -7 1009 93 0 1.58 51.312 18:21 17.10.2019
6 Clouds -7 1009 93 0 1.58 51.312 17:58 17.10.2019
7 Clouds -8 1009 95 0 1.348 59 17:40 17.10.2019
8 Clouds -8 1009 95 0 1.348 59 17:22 17.10.2019
9 Clouds -8 1009 95 0 1.348 59 16:56 17.10.2019
10 Clouds -8 1009 95 0 1.348 59 16:37 17.10.2019
11 Clouds -8 1009 95 0 1.348 59 16:37 17.10.2019
12 Clouds -8 1009 95 0 1.348 59 16:18 17.10.2019
13 Clouds -8 1009 95 0 1.348 59 15:55 17.10.2019
14 Clouds -8 1009 95 0 1.348 59 15:55 17.10.2019
15 Clouds -8 1009 95 0 1.348 59 15:37 17.10.2019
16 Clouds -6 1008 92 0 1.253 83 15:19 17.10.2019
17 Clouds -5 1007 95 0 1.623 101 14:42 17.10.2019
18 Clouds -5 1007 95 0 1.623 101 14:23 17.10.2019
19 Clouds -5 1007 95 0 1.623 101 13:56 17.10.2019
20 Clouds -5 1007 95 0 1.623 101 13:38 17.10.2019
21 Clouds -5 1007 95 0 1.623 101 13:18 17.10.2019
22 Clouds -5 1007 95 0 1.623 101 12:41 17.10.2019
23 Clouds -5 1006 91 0 1.625 128 12:21 17.10.2019
24 Clouds -5 1006 91 0 1.625 128 11:59 17.10.2019
25 Clouds -5 1006 91 0 1.625 128 11:59 17.10.2019
26 Clouds -5 1006 91 0 1.625 128 11:59 17.10.2019
27 Clouds -5 1006 91 0 1.625 128 11:41 17.10.2019
28 Clouds -5 1006 91 0 1.625 128 11:19 17.10.2019
29 Clouds -5 1006 91 0 1.625 128 11:19 17.10.2019
30 Clouds -5 1006 91 0 1.625 128 10:56 17.10.2019
31 Clouds -5 1006 91 0 1.625 128 10:38 17.10.2019
32 Clouds -5 1006 91 0 1.625 128 10:18 17.10.2019
33 Clouds -5 1006 91 0 1.625 128 09:54 17.10.2019
34 Clouds -6 1006 89 0 1.711 123 09:36 17.10.2019
35 Clouds -3 1005 85 0 1.953 130 09:18 17.10.2019
36 Clouds -3 1005 85 0 1.953 130 09:18 17.10.2019
37 Clouds -3 1005 85 0 1.953 130 08:42 17.10.2019
38 Clouds -3 1005 85 0 1.953 130 08:24 17.10.2019
39 Clouds -3 1005 85 0 1.953 130 07:56 17.10.2019
40 Clouds -3 1005 85 0 1.953 130 07:38 17.10.2019
41 Clouds -3 1005 85 0 1.953 130 07:18 17.10.2019
42 Clouds -3 1005 85 0 1.953 130 06:40 17.10.2019
43 Clouds -3 1005 84 0 2.312 155 06:21 17.10.2019
44 Clouds -3 1005 84 0 2.312 155 05:57 17.10.2019
45 Clouds -3 1005 84 0 2.312 155 05:32 17.10.2019
46 Clouds -3 1005 84 0 2.312 155 04:56 17.10.2019
47 Clouds -3 1005 84 0 2.312 155 03:55 17.10.2019
48 Clouds -6 1005 87 0 2.205 143 02:53 17.10.2019
49 Clouds -6 1005 88 0 2.354 142 01:55 17.10.2019
50 Clouds -6 1005 88 0 2.354 142 00:41 17.10.2019
51 Snow -7 1005 91 0 2.582 142 00:20 17.10.2019
52 Snow -7 1005 91 0 2.582 142 00:20 17.10.2019
53 Snow -7 1005 91 0 2.582 142 23:42 16.10.2019
54 Snow -7 1005 91 0 2.582 142 23:21 16.10.2019
55 Snow -7 1005 91 0 2.582 142 22:56 16.10.2019
56 Snow -7 1005 91 0 2.582 142 22:38 16.10.2019
57 Snow -7 1005 91 0 2.582 142 22:38 16.10.2019
58 Snow -7 1005 91 0 2.582 142 22:19 16.10.2019
59 Snow -7 1005 91 0 2.582 142 22:19 16.10.2019
60 Snow -7 1005 91 0 2.582 142 21:58 16.10.2019
61 Clouds -7 1005 91 0 2.564 139 21:38 16.10.2019
62 Snow -7 1005 91 0 2.582 142 21:38 16.10.2019
63 Snow -8 1006 95 0 2.491 141 21:20 16.10.2019
64 Snow -8 1006 95 0 2.491 141 20:58 16.10.2019
65 Snow -8 1006 95 0 2.491 141 20:40 16.10.2019
66 Snow -8 1006 95 0 2.491 141 20:21 16.10.2019
67 -273 0 0 0 0 0 19:59 16.10.2019
68 Snow -8 1006 95 0 2.491 141 19:40 16.10.2019
69 Snow -8 1006 95 0 2.491 141 19:21 16.10.2019
70 Snow -8 1006 95 0 2.491 141 18:56 16.10.2019
71 Snow -8 1006 95 0 2.491 141 18:56 16.10.2019
72 Snow -8 1006 95 0 2.491 141 18:56 16.10.2019
73 Snow -8 1006 95 0 2.491 141 18:37 16.10.2019
74 Clouds -9 1009 82 0 2.282 129 18:18 16.10.2019
75 Clouds -9 1009 82 0 2.282 129 18:18 16.10.2019
76 Clouds -9 1009 82 0 2.282 129 18:18 16.10.2019
77 Clouds -9 1009 82 0 2.282 129 17:55 16.10.2019
78 Clouds -9 1009 82 0 2.282 129 17:36 16.10.2019
79 Clouds -9 1009 82 0 2.282 129 17:18 16.10.2019
80 Clouds -9 1009 82 0 2.282 129 16:43 16.10.2019
81 Clouds -9 1009 82 0 2.282 129 16:23 16.10.2019
82 Clouds -9 1009 82 0 2.282 129 15:59 16.10.2019
83 Clouds -9 1009 82 0 2.282 129 15:39 16.10.2019
84 Clouds -9 1009 82 0 2.282 129 15:39 16.10.2019
85 Clouds -11 1011 86 0 1.958 122 15:19 16.10.2019
86 Clouds -11 1011 86 0 1.958 122 14:58 16.10.2019
87 Clouds -11 1011 86 0 1.958 122 14:39 16.10.2019
88 Clouds -11 1011 86 0 1.901 121 14:20 16.10.2019
89 Clouds -11 1011 86 0 1.901 121 13:57 16.10.2019
90 Clouds -11 1011 86 0 1.901 121 13:39 16.10.2019
91 Clouds -11 1011 86 0 1.901 121 13:21 16.10.2019
92 Clouds -11 1011 86 0 1.901 121 12:42 16.10.2019
93 Clouds -10 1012 86 0 1.627 119 12:20 16.10.2019
94 -273 0 0 0 0 0 11:55 16.10.2019
95 Clouds -10 1012 86 0 1.627 119 11:37 16.10.2019
96 Clouds -10 1012 86 0 1.627 119 11:18 16.10.2019
97 Clouds -10 1012 86 0 1.627 119 10:36 16.10.2019
98 Clouds -10 1012 86 0 1.627 119 10:18 16.10.2019
99 Clouds -10 1012 86 0 1.627 119 09:41 16.10.2019
100 Clouds -10 1012 86 0 1.627 119 09:40 16.10.2019
101 Clouds -9 1014 85 0 1.45 114 09:22 16.10.2019
102 Clouds -9 1014 85 0 1.45 114 08:57 16.10.2019
103 Clouds -9 1014 85 0 1.45 114 08:38 16.10.2019
104 Clouds -9 1014 85 0 1.45 114 08:19 16.10.2019
105 Clouds -9 1014 85 0 1.45 114 07:42 16.10.2019
106 Clouds -9 1014 85 0 1.45 114 07:23 16.10.2019
107 Clouds -9 1014 85 0 1.45 114 06:51 16.10.2019
108 Clouds -9 1014 85 0 1.45 114 06:30 16.10.2019
109 Clouds -9 1014 80 0 1.7 130 04:48 16.10.2019
110 Clouds -12 1015 87 0 1.427 141 02:51 16.10.2019
111 Clouds -12 1015 87 0 1.411 140 01:38 16.10.2019
112 Clouds -12 1015 87 0 1.411 140 01:18 16.10.2019
113 Clouds -12 1015 87 0 1.411 140 00:42 16.10.2019
114 Clouds -13 1015 88 0 1.608 144 23:59 15.10.2019
115 Clouds -13 1015 88 0 1.608 144 23:39 15.10.2019
116 Clouds -13 1015 88 0 1.608 144 23:21 15.10.2019
117 Clouds -13 1015 88 0 1.608 144 23:21 15.10.2019
118 Clouds -13 1015 88 0 1.608 144 22:55 15.10.2019
119 Clouds -13 1015 88 0 1.608 144 22:55 15.10.2019
120 Clouds -13 1015 88 0 1.608 144 22:37 15.10.2019
121 Clouds -13 1015 88 0 1.608 144 22:19 15.10.2019
122 -273 0 0 0 0 0 21:55 15.10.2019
123 -273 0 0 0 0 0 21:55 15.10.2019
124 Clouds -14 1015 80 0 1.428 144 21:37 15.10.2019
125 Clouds -13 1014 76 0 1.598 171 21:19 15.10.2019
126 Clouds -13 1014 76 0 1.598 171 20:57 15.10.2019
127 Clouds -13 1014 76 0 1.598 171 20:38 15.10.2019
128 Clouds -13 1014 76 0 1.598 171 20:19 15.10.2019
129 Clouds -13 1014 76 0 1.598 171 19:56 15.10.2019
130 Clouds -13 1014 76 0 1.598 171 19:56 15.10.2019
131 Clouds -13 1014 76 0 1.598 171 19:37 15.10.2019
132 Clouds -13 1014 76 0 1.598 171 19:19 15.10.2019
133 Clouds -13 1014 76 0 1.598 171 18:44 15.10.2019
134 Clouds -13 1014 76 0 1.598 171 18:26 15.10.2019
135 Clouds -13 1013 75 0 1.781 183 17:57 15.10.2019
136 Clouds -13 1013 75 0 1.781 183 17:38 15.10.2019
137 Clouds -13 1013 75 0 1.781 183 17:19 15.10.2019
138 Clouds -13 1013 75 0 1.781 183 16:45 15.10.2019
139 Clouds -13 1013 75 0 1.781 183 16:22 15.10.2019
140 Clouds -13 1013 75 0 1.781 183 15:58 15.10.2019
141 Clouds -13 1013 75 0 1.781 183 15:40 15.10.2019
142 Clouds -13 1013 75 0 1.781 183 15:40 15.10.2019
143 Clouds -12 1013 77 0 1.306 175 15:20 15.10.2019
144 Clouds -12 1013 77 0 1.306 175 14:57 15.10.2019
145 Clouds -12 1013 75 0 1.462 179 14:37 15.10.2019
146 Clouds -12 1013 75 0 1.462 179 14:19 15.10.2019
147 Clouds -12 1013 75 0 1.462 179 13:44 15.10.2019
148 Clouds -12 1013 75 0 1.462 179 13:21 15.10.2019
149 Clouds -12 1013 75 0 1.462 179 12:59 15.10.2019
150 Clouds -12 1013 75 0 1.462 179 12:39 15.10.2019
151 Clouds -11 1011 77 0 0.975 176 12:20 15.10.2019
152 Clouds -11 1011 77 0 0.975 176 11:55 15.10.2019
153 Clouds -11 1011 77 0 0.975 176 11:37 15.10.2019
154 Clouds -11 1011 77 0 0.975 176 11:18 15.10.2019
155 Clouds -11 1011 77 0 0.975 176 10:42 15.10.2019
156 Clouds -10 1011 72 0 0.97 161.714 10:19 15.10.2019
157 Clouds -10 1011 72 0 0.97 161.714 09:57 15.10.2019
158 Clouds -10 1011 72 0 0.97 161.714 09:37 15.10.2019
159 Clouds -9 1010 68 0 1.36 184.82 09:19 15.10.2019
160 Clouds -9 1010 66 0 1.42 181.697 08:42 15.10.2019
161 Clouds -9 1010 66 0 1.42 181.697 08:22 15.10.2019
162 Clouds -9 1010 66 0 1.42 181.697 08:22 15.10.2019
163 Clouds -9 1010 66 0 1.42 181.697 07:56 15.10.2019
164 Clouds -9 1010 66 0 1.42 181.697 07:56 15.10.2019
165 Clouds -9 1010 66 0 1.42 181.697 07:56 15.10.2019
166 Clouds -9 1010 66 0 1.42 181.697 07:38 15.10.2019
167 Clouds -9 1010 66 0 1.42 181.697 07:19 15.10.2019
168 Clouds -9 1010 66 0 1.42 181.697 06:44 15.10.2019
169 Clouds -9 1010 66 0 1.42 181.697 06:25 15.10.2019
170 Clouds -10 1009 66 0 1.64 182.095 05:41 15.10.2019
171 Clouds -10 1009 66 0 1.64 182.095 05:23 15.10.2019
172 Clouds -10 1009 66 0 1.64 182.095 04:25 15.10.2019
173 Clouds -10 1009 66 0 1.64 182.095 03:37 15.10.2019
174 Clouds -10 1009 66 0 1.64 182.095 03:37 15.10.2019
175 Clouds -12 1010 77 0 1.6 179.713 02:24 15.10.2019
176 Clouds -12 1010 77 0 1.6 179.713 01:47 15.10.2019
177 Clouds -12 1010 78 0 1.66 177.379 01:19 15.10.2019
178 Clouds -12 1010 78 0 1.66 177.379 00:49 15.10.2019
179 Clouds -13 1009 84 0 1.65 172.426 00:21 15.10.2019
180 Clouds -13 1009 84 0 1.65 172.426 23:44 14.10.2019
181 Clouds -13 1009 84 0 1.65 172.426 23:20 14.10.2019
182 Clouds -13 1009 84 0 1.65 172.426 22:57 14.10.2019
183 Clouds -13 1009 84 0 1.65 172.426 22:38 14.10.2019
184 Clouds -13 1009 84 0 1.65 172.426 22:18 14.10.2019
185 Clouds -13 1009 84 0 1.65 172.426 21:55 14.10.2019
186 Clouds -13 1009 84 0 1.65 172.426 21:36 14.10.2019
187 -273 0 0 0 0 0 21:18 14.10.2019
188 Clouds -13 1009 83 0 1.37 180.795 20:40 14.10.2019
189 Clouds -13 1009 83 0 1.37 180.795 20:22 14.10.2019
190 Clouds -13 1009 83 0 1.37 180.795 19:59 14.10.2019
191 Clouds -14 1009 82 0 1.285 191 19:41 14.10.2019
192 Clouds -14 1009 82 0 1.285 191 19:41 14.10.2019
193 Clouds -14 1009 82 0 1.285 191 19:23 14.10.2019
194 Clouds -13 1009 83 0 1.37 180.795 18:58 14.10.2019
195 Clouds -13 1009 83 0 1.37 180.795 18:39 14.10.2019
196 Clouds -14 1009 83 0 1.12 156.99 18:19 14.10.2019
197 Clouds -14 1009 83 0 1.12 156.99 17:57 14.10.2019
198 Clouds -14 1009 83 0 1.12 156.99 17:38 14.10.2019
199 Clouds -14 1009 83 0 1.12 156.99 17:38 14.10.2019
200 Clouds -14 1009 83 0 1.12 156.99 17:19 14.10.2019
201 Clouds -14 1009 83 0 1.12 156.99 16:43 14.10.2019
202 Clouds -14 1009 83 0 1.12 156.99 16:21 14.10.2019
203 Clouds -14 1009 83 0 1.12 156.99 15:43 14.10.2019
204 -273 0 0 0 0 0 15:24 14.10.2019
205 Clouds -13 1009 82 0 1.14 156.511 14:58 14.10.2019
206 Clouds -13 1009 82 0 1.14 156.511 14:39 14.10.2019
207 Clouds -13 1009 82 0 1.14 156.511 14:20 14.10.2019
208 Clouds -13 1009 82 0 1.14 156.511 13:44 14.10.2019
209 Clouds -14 1009 81 0 1.15 155.507 13:21 14.10.2019
210 Clouds -14 1009 81 0 1.15 155.507 12:56 14.10.2019
211 Clouds -14 1009 81 0 1.15 155.507 12:56 14.10.2019
212 Clouds -14 1009 81 0 1.15 155.507 12:37 14.10.2019
213 Clouds -13 1009 81 0 1.27 162.352 12:18 14.10.2019
214 Clouds -13 1009 81 0 1.27 162.352 11:45 14.10.2019
215 Clouds -13 1009 81 0 1.27 162.352 11:26 14.10.2019
216 Clouds -13 1009 81 0 1.27 162.352 10:57 14.10.2019
217 Clouds -13 1009 81 0 1.27 162.352 10:38 14.10.2019
218 Clouds -13 1009 81 0 1.27 162.352 10:20 14.10.2019
219 Clouds -13 1009 81 0 1.27 162.352 09:54 14.10.2019
220 Clouds -13 1009 81 0 1.27 162.352 09:36 14.10.2019
221 Clear -10 1010 76 0 1.42 172.299 09:18 14.10.2019
222 Clear -10 1010 76 0 1.42 172.299 08:42 14.10.2019
223 Clear -10 1010 76 0 1.42 172.299 08:20 14.10.2019
224 -273 0 0 0 0 0 07:41 14.10.2019
225 Clear -10 1010 76 0 1.42 172.299 07:41 14.10.2019
226 Clear -10 1010 76 0 1.42 172.299 07:18 14.10.2019
227 Clear -10 1010 76 0 1.42 172.299 06:37 14.10.2019
228 Clear -10 1011 69 0 1.82 182.106 06:18 14.10.2019
229 Clear -10 1011 69 0 1.82 182.106 05:42 14.10.2019
230 Clear -10 1011 69 0 1.82 182.106 04:42 14.10.2019
231 Clear -10 1011 69 0 1.82 182.106 03:27 14.10.2019
232 Clear -12 1014 80 0 1.99 191.185 02:42 14.10.2019
233 Clear -12 1013 80 0 2.07 181.245 01:23 14.10.2019
234 Clear -12 1013 80 0 2.07 181.245 00:56 14.10.2019
235 Clear -13 1014 85 0 2.03 196.87 00:19 14.10.2019
236 Clear -13 1014 85 0 2.03 196.87 23:45 13.10.2019
237 Clear -13 1014 85 0 2.03 196.87 23:20 13.10.2019
238 Clear -13 1014 85 0 2.03 196.87 22:58 13.10.2019
239 Clear -13 1014 85 0 2.03 196.87 22:58 13.10.2019
240 Clear -13 1014 85 0 2.03 196.87 22:40 13.10.2019
241 Clear -13 1014 85 0 2.03 196.87 22:21 13.10.2019
242 Clear -13 1014 85 0 2.03 196.87 21:58 13.10.2019
243 Clear -13 1014 85 0 2.03 196.87 21:37 13.10.2019
244 Clear -12 1016 83 0 1.63 205.053 21:19 13.10.2019
245 Clear -12 1016 83 0 1.63 205.053 20:57 13.10.2019
246 Clear -12 1016 83 0 1.63 205.053 20:57 13.10.2019
247 Clear -12 1016 82 0 1.43 212.644 20:39 13.10.2019
248 Clear -12 1016 82 0 1.43 212.644 20:20 13.10.2019
249 Clear -12 1016 82 0 1.43 212.644 19:58 13.10.2019
250 Clear -12 1016 82 0 1.43 212.644 19:39 13.10.2019
251 Clear -12 1016 82 0 1.43 212.644 19:39 13.10.2019
252 Clear -12 1016 82 0 1.43 212.644 19:21 13.10.2019
253 Clear -12 1016 82 0 1.43 212.644 18:57 13.10.2019
254 Clear -12 1016 82 0 1.43 212.644 18:37 13.10.2019
255 Clear -11 1017 82 0 0.94 252.318 18:19 13.10.2019
256 Clear -11 1017 82 0 0.94 252.318 18:19 13.10.2019
257 Clear -11 1017 82 0 0.94 252.318 17:57 13.10.2019
258 Clear -11 1017 82 0 0.94 252.318 17:39 13.10.2019
259 Clear -11 1017 82 0 0.94 252.318 17:21 13.10.2019
260 Clear -11 1017 82 0 0.94 252.318 16:43 13.10.2019
261 Clear -11 1017 82 0 0.94 252.318 16:19 13.10.2019
262 Clear -11 1017 82 0 0.94 252.318 15:57 13.10.2019
263 Clear -11 1017 82 0 0.94 252.318 15:57 13.10.2019
264 Clear -11 1017 82 0 0.94 252.318 15:57 13.10.2019
265 Clear -11 1017 82 0 0.94 252.318 15:38 13.10.2019
266 Clear -10 1019 82 0 0.75 272.744 15:19 13.10.2019
267 Clear -10 1019 82 0 0.75 272.744 14:57 13.10.2019
268 Clear -10 1019 82 0 0.75 272.744 14:38 13.10.2019
269 Clear -10 1019 82 0 0.75 272.744 14:19 13.10.2019
270 Clear -10 1019 82 0 0.75 272.744 13:42 13.10.2019
271 Clear -10 1019 82 0 0.75 272.744 13:42 13.10.2019
272 Clear -10 1018 83 0 0.4 249.107 13:23 13.10.2019
273 Clear -10 1018 83 0 0.4 249.107 12:59 13.10.2019
274 Clear -10 1018 83 0 0.4 249.107 12:39 13.10.2019
275 Clear -9 1019 83 0 1.04 295.824 12:21 13.10.2019
276 Clear -9 1019 83 0 1.04 295.824 11:59 13.10.2019
277 Clear -9 1019 83 0 1.04 295.824 11:39 13.10.2019
278 Clear -9 1019 83 0 1.04 295.824 11:21 13.10.2019
279 Clear -9 1019 83 0 1.04 295.824 10:59 13.10.2019
280 Clear -9 1019 83 0 1.04 295.824 10:39 13.10.2019
281 Clear -9 1019 83 0 1.04 295.824 10:39 13.10.2019
282 Clear -9 1019 83 0 1.04 295.824 10:20 13.10.2019
283 Clear -9 1019 83 0 1.04 295.824 09:39 13.10.2019
284 Clouds -6 1019 76 0 1.79 310.501 09:21 13.10.2019
285 Clouds -6 1019 76 0 1.8 306.048 08:51 13.10.2019
286 Clouds -6 1019 76 0 1.8 306.048 08:27 13.10.2019
287 -273 0 0 0 0 0 07:55 13.10.2019
288 Clouds -6 1019 76 0 1.8 306.048 07:35 13.10.2019
289 Clouds -6 1019 76 0 1.8 306.048 06:54 13.10.2019
290 Clouds -6 1019 76 0 1.8 306.048 06:54 13.10.2019
291 Clouds -6 1019 76 0 1.8 306.048 06:26 13.10.2019
292 Clouds -6 1019 71 0 2.54 331.929 05:29 13.10.2019
293 Clouds -6 1019 71 0 2.54 331.929 04:35 13.10.2019
294 Clouds -6 1019 71 0 2.54 331.929 03:35 13.10.2019
295 Clouds -9 1020 84 0 2.17 325.418 02:32 13.10.2019
296 Clouds -9 1020 84 0 2.17 325.418 01:47 13.10.2019
297 Clouds -9 1020 85 0 2 317.823 01:21 13.10.2019
298 Clouds -9 1020 85 0 2 317.823 01:21 13.10.2019
299 Clouds -9 1020 85 0 2 317.823 00:43 13.10.2019
300 Clouds -9 1020 88 0 2.55 324.883 00:19 13.10.2019
301 Clouds -9 1020 88 0 2.55 324.883 23:54 12.10.2019
302 Clouds -9 1020 88 0 2.55 324.883 23:54 12.10.2019
303 Clouds -9 1020 88 0 2.55 324.883 23:36 12.10.2019
304 Clouds -9 1020 88 0 2.55 324.883 23:18 12.10.2019
305 Clouds -9 1020 88 0 2.55 324.883 22:54 12.10.2019
306 Clouds -9 1020 88 0 2.55 324.883 22:36 12.10.2019
307 Clouds -9 1020 88 0 2.55 324.883 22:18 12.10.2019
308 Clouds -9 1020 88 0 2.55 324.883 21:41 12.10.2019
309 Clouds -8 1019 87 0 3.14 326.765 21:23 12.10.2019
310 Clouds -7 1018 88 0 3.21 325.829 20:56 12.10.2019
311 Clouds -7 1018 88 0 3.21 325.829 20:38 12.10.2019
312 Clouds -7 1018 88 0 3.21 325.829 20:20 12.10.2019
313 Clouds -7 1018 88 0 3.21 325.829 19:37 12.10.2019
314 Clouds -7 1018 88 0 3.21 325.829 19:18 12.10.2019
315 Clouds -7 1018 88 0 3.21 325.829 18:44 12.10.2019
316 Clouds -7 1018 88 0 3.57 327.962 18:26 12.10.2019
317 Clouds -7 1018 88 0 3.57 327.962 17:58 12.10.2019
318 Clouds -7 1018 88 0 3.57 327.962 17:40 12.10.2019
319 Clouds -7 1018 88 0 3.57 327.962 17:18 12.10.2019
320 Clouds -7 1018 88 0 3.57 327.962 16:41 12.10.2019
321 Clouds -7 1018 88 0 3.57 327.962 16:21 12.10.2019
322 Clouds -7 1018 88 0 3.57 327.962 15:58 12.10.2019
323 Clouds -7 1018 88 0 3.57 327.962 15:39 12.10.2019
324 Clouds -6 1017 88 0 3.59 333.578 15:21 12.10.2019
325 Clouds -6 1017 88 0 3.59 333.578 14:41 12.10.2019
326 Clouds -6 1017 88 0 3.59 333.578 14:21 12.10.2019
327 Clouds -6 1017 88 0 3.59 333.578 13:53 12.10.2019
328 Clouds -6 1017 88 0 3.59 333.578 13:53 12.10.2019
329 Clouds -6 1017 88 0 3.59 333.578 13:33 12.10.2019
330 -273 0 0 0 0 0 12:59 12.10.2019
331 Clouds -6 1017 89 0 3.54 332.827 12:38 12.10.2019
332 Clouds -6 1016 87 0 3.97 340.67 12:20 12.10.2019
333 Clouds -6 1016 87 0 3.97 340.67 11:56 12.10.2019
334 Clouds -6 1016 87 0 3.97 340.67 11:38 12.10.2019
335 Clouds -6 1016 87 0 3.97 340.67 11:18 12.10.2019
336 Clouds -6 1016 87 0 3.97 340.67 10:40 12.10.2019
337 Clouds -6 1016 87 0 3.97 340.67 10:22 12.10.2019
338 Clouds -6 1016 87 0 3.97 340.67 09:57 12.10.2019
339 Clouds -6 1016 87 0 3.97 340.67 09:39 12.10.2019
340 Clouds -4 1014 78 0 7.32 2.961 09:20 12.10.2019
341 Clouds -4 1014 80 0 8.58 9.346 08:56 12.10.2019
342 Clouds -4 1014 80 0 8.58 9.346 08:55 12.10.2019
343 Clouds -4 1014 80 0 8.58 9.346 08:36 12.10.2019
344 Clouds -4 1014 80 0 8.58 9.346 08:18 12.10.2019
345 Clouds -4 1014 80 0 8.58 9.346 07:33 12.10.2019
346 Clouds -4 1014 80 0 8.58 9.346 06:44 12.10.2019
347 Clouds -4 1013 72 0 9.51 12.078 05:46 12.10.2019
348 Clouds -4 1013 72 0 9.51 12.078 04:47 12.10.2019
349 Clouds -4 1013 72 0 9.51 12.078 03:57 12.10.2019
350 Clouds -7 1013 82 0 5.14 353.772 02:57 12.10.2019
351 Clouds -7 1013 83 0 5.03 352.02 01:36 12.10.2019
352 Clouds -7 1013 83 0 5.03 352.02 00:59 12.10.2019
353 Clouds -7 1013 83 0 5.03 352.02 00:39 12.10.2019
354 Clouds -9 1013 91 0 3 328.197 23:57 11.10.2019
355 Clouds -9 1013 91 0 3 328.197 23:39 11.10.2019
356 Clouds -9 1013 91 0 3 328.197 23:20 11.10.2019
357 Clouds -9 1013 91 0 3 328.197 22:40 11.10.2019
358 Clouds -9 1013 91 0 3 328.197 22:21 11.10.2019
359 Clouds -9 1013 91 0 3 328.197 21:56 11.10.2019
360 Clouds -9 1013 91 0 3 328.197 21:38 11.10.2019
361 Clouds -9 1014 91 0 2.66 330.705 21:19 11.10.2019
362 Clouds -9 1013 91 0 2.78 331.454 20:44 11.10.2019
363 Clouds -9 1013 91 0 2.78 331.454 20:25 11.10.2019
364 Clouds -9 1013 91 0 2.78 331.454 19:56 11.10.2019
365 Clouds -9 1013 91 0 2.78 331.454 19:38 11.10.2019
366 Clouds -9 1013 91 0 2.78 331.454 19:18 11.10.2019
367 Clouds -9 1013 91 0 2.78 331.454 18:58 11.10.2019
368 Clouds -9 1013 91 0 2.78 331.454 18:38 11.10.2019
369 Clouds -9 1015 91 0 3.09 343.416 18:19 11.10.2019
370 Clouds -9 1015 91 0 3.09 343.416 17:58 11.10.2019
371 Clouds -9 1015 91 0 3.09 343.416 17:37 11.10.2019
372 Clouds -9 1015 91 0 3.09 343.416 17:19 11.10.2019
373 Clouds -9 1015 91 0 3.09 343.416 16:56 11.10.2019
374 Clouds -9 1015 91 0 3.09 343.416 16:37 11.10.2019
375 Clouds -9 1015 91 0 3.09 343.416 16:18 11.10.2019
376 Clouds -9 1015 91 0 3.09 343.416 16:18 11.10.2019
377 Clouds -9 1015 91 0 3.09 343.416 15:41 11.10.2019
378 Clouds -10 1016 93 0 1.91 338.788 15:19 11.10.2019
379 Clouds -10 1016 93 0 1.91 338.788 14:58 11.10.2019
380 Clouds -10 1016 93 0 1.91 338.788 14:37 11.10.2019
381 Clouds -10 1016 93 0 1.91 338.788 14:19 11.10.2019
382 Clouds -10 1016 93 0 1.91 338.788 13:43 11.10.2019
383 Clouds -10 1016 92 0 1.86 347.107 13:24 11.10.2019
384 Clouds -10 1016 92 0 1.86 347.107 12:56 11.10.2019
385 Clouds -10 1016 92 0 1.86 347.107 12:38 11.10.2019
386 Clouds -10 1017 90 0 2 12.715 12:20 11.10.2019
387 Clouds -10 1017 90 0 2 12.715 11:57 11.10.2019
388 Clouds -10 1017 90 0 2 12.715 11:38 11.10.2019
389 Clouds -10 1017 90 0 2 12.715 11:20 11.10.2019
390 Clouds -10 1017 90 0 2 12.715 10:54 11.10.2019
391 Clouds -10 1017 90 0 2 12.715 10:36 11.10.2019
392 Clouds -10 1017 90 0 2 12.715 10:18 11.10.2019
393 Clouds -10 1017 93 0 1.84 13.303 09:41 11.10.2019
394 Clouds -9 1017 74 0 2.34 349.866 09:20 11.10.2019
395 Clouds -9 1017 74 0 2.34 349.866 09:20 11.10.2019
396 Clouds -9 1017 74 0 2.34 349.866 08:56 11.10.2019
397 Clouds -9 1017 74 0 2.34 349.866 08:38 11.10.2019
398 Clouds -9 1017 74 0 2.34 349.866 08:20 11.10.2019
399 Clouds -9 1017 74 0 2.34 349.866 07:51 11.10.2019
400 Clouds -9 1017 74 0 2.34 349.866 07:33 11.10.2019
401 Clouds -9 1017 74 0 2.34 349.866 06:49 11.10.2019
402 Clouds -9 1017 74 0 2.34 349.866 06:25 11.10.2019
403 Clouds -10 1019 73 0 1.35 321.724 05:46 11.10.2019
404 Clouds -10 1019 73 0 1.35 321.724 05:27 11.10.2019
405 Clouds -10 1019 73 0 1.35 321.724 04:47 11.10.2019
406 Clouds -11 1020 72 0 1.02 309.187 03:20 11.10.2019
407 Clouds -11 1020 74 0 0.84 304.505 01:18 11.10.2019
408 Clouds -11 1020 74 0 0.84 304.505 00:31 11.10.2019
409 Clouds -12 1020 80 0 0.77 316.431 23:58 10.10.2019
410 Clouds -12 1020 80 0 0.77 316.431 23:40 10.10.2019
411 Clouds -12 1020 80 0 0.77 316.431 23:19 10.10.2019
412 Clouds -12 1020 80 0 0.77 316.431 22:55 10.10.2019
413 Clouds -12 1020 80 0 0.77 316.431 22:36 10.10.2019
414 Clouds -12 1020 80 0 0.77 316.431 22:18 10.10.2019
415 Clouds -12 1020 80 0 0.77 316.431 21:42 10.10.2019
416 Clouds -12 1021 79 0 0.8 309.723 21:22 10.10.2019
417 Clouds -12 1021 75 0 1.14 320.059 20:58 10.10.2019
418 Clouds -12 1021 75 0 1.14 320.059 20:39 10.10.2019
419 Clouds -12 1021 75 0 1.14 320.059 20:20 10.10.2019
420 Clouds -12 1021 75 0 1.14 320.059 19:57 10.10.2019
421 Clouds -12 1021 75 0 1.14 320.059 19:39 10.10.2019
422 Clouds -12 1021 75 0 1.14 320.059 19:19 10.10.2019
423 Clouds -12 1021 75 0 1.14 320.059 18:42 10.10.2019
424 Clouds -12 1021 74 0 1.45 318.982 18:21 10.10.2019
425 Clouds -12 1021 74 0 1.45 318.982 17:59 10.10.2019
426 Clouds -12 1021 74 0 1.45 318.982 17:40 10.10.2019
427 Clouds -12 1021 74 0 1.45 318.982 17:40 10.10.2019
428 Clouds -12 1021 74 0 1.45 318.982 17:19 10.10.2019
429 Clouds -12 1021 74 0 1.45 318.982 16:56 10.10.2019
430 Clouds -12 1021 74 0 1.45 318.982 16:37 10.10.2019
431 Clouds -12 1021 74 0 1.45 318.982 16:19 10.10.2019
432 Clouds -12 1021 74 0 1.45 318.982 15:40 10.10.2019
433 Clouds -12 1022 70 0 1.4 351.244 15:22 10.10.2019
434 Clouds -12 1022 70 0 1.4 351.244 14:58 10.10.2019
435 Clouds -12 1022 70 0 1.4 351.244 14:37 10.10.2019
436 Clouds -12 1022 70 0 1.4 351.244 14:19 10.10.2019
437 Clouds -12 1022 70 0 1.4 351.244 13:58 10.10.2019
438 Clouds -12 1022 70 0 1.4 351.244 13:39 10.10.2019
439 Clouds -12 1022 70 0 1.16 358.573 13:18 10.10.2019
440 Clouds -12 1022 70 0 1.16 358.573 12:42 10.10.2019
441 Clouds -12 1022 70 0 1.16 358.573 12:42 10.10.2019
442 Clouds -12 1021 68 0 2.04 15.598 12:21 10.10.2019
443 Clouds -12 1021 68 0 2.04 15.598 11:58 10.10.2019
444 Clouds -12 1021 68 0 2.04 15.598 11:40 10.10.2019
445 Clouds -12 1021 68 0 2.04 15.598 11:19 10.10.2019
446 Clouds -12 1021 68 0 2.04 15.598 10:57 10.10.2019
447 Clouds -12 1021 68 0 2.04 15.598 10:39 10.10.2019
448 Clouds -12 1021 68 0 2.04 15.598 10:20 10.10.2019
449 Clouds -12 1021 68 0 2.04 15.598 09:41 10.10.2019
450 Clouds -10 1019 62 0 3.16 15.215 09:23 10.10.2019
451 Clouds -10 1019 57 0 3.19 15.676 08:59 10.10.2019
452 Clouds -10 1019 57 0 3.19 15.676 08:40 10.10.2019
453 Clouds -10 1019 57 0 3.19 15.676 08:21 10.10.2019
454 Clouds -10 1019 57 0 3.19 15.676 07:57 10.10.2019
455 Clouds -10 1019 57 0 3.19 15.676 07:36 10.10.2019
456 Clouds -10 1019 57 0 3.19 15.676 07:18 10.10.2019
457 Clouds -10 1019 57 0 3.19 15.676 06:39 10.10.2019
458 Clouds -10 1018 61 0 4 24.625 05:56 10.10.2019
459 Clouds -10 1018 61 0 4 24.625 05:21 10.10.2019
460 Clouds -10 1018 61 0 4 24.625 04:36 10.10.2019
461 Clouds -11 1018 67 0 4.14 24.078 02:46 10.10.2019
462 Clouds -11 1018 67 0 4.14 24.078 01:39 10.10.2019
463 Clouds -11 1018 67 0 3.93 28.066 01:21 10.10.2019
464 Clouds -11 1018 67 0 3.93 28.066 00:41 10.10.2019
465 Clouds -11 1017 65 0 5.2 19.645 23:57 09.10.2019
466 Clouds -11 1017 65 0 5.2 19.645 23:36 09.10.2019
467 Clouds -11 1017 65 0 5.2 19.645 23:18 09.10.2019
468 Clouds -11 1017 65 0 5.2 19.645 22:42 09.10.2019
469 Clouds -11 1017 65 0 5.2 19.645 22:23 09.10.2019
470 Clouds -11 1017 65 0 5.2 19.645 21:59 09.10.2019
471 Clouds -11 1017 65 0 5.2 19.645 21:39 09.10.2019
472 Clouds -11 1017 71 0 3.37 5.262 21:19 09.10.2019
473 Clouds -12 1017 74 0 3.05 359.23 20:56 09.10.2019
474 Clouds -12 1017 74 0 3.05 359.23 20:37 09.10.2019
475 Clouds -12 1017 74 0 3.05 359.23 20:18 09.10.2019
476 Clouds -12 1017 74 0 3.05 359.23 19:45 09.10.2019
477 Clouds -12 1017 74 0 3.05 359.23 19:24 09.10.2019
478 Clouds -12 1017 74 0 3.05 359.23 18:58 09.10.2019
479 Clouds -12 1017 74 0 3.05 359.23 18:37 09.10.2019
480 Clouds -12 1018 76 0 2.42 356.137 18:18 09.10.2019
481 Clouds -12 1018 76 0 2.42 356.137 17:55 09.10.2019
482 Clouds -12 1018 76 0 2.42 356.137 17:36 09.10.2019
483 Clouds -12 1018 76 0 2.42 356.137 17:18 09.10.2019
484 Clouds -12 1018 76 0 2.42 356.137 16:40 09.10.2019
485 Clouds -12 1018 76 0 2.42 356.137 16:22 09.10.2019
486 Clouds -12 1018 76 0 2.42 356.137 15:58 09.10.2019
487 Clouds -12 1018 76 0 2.42 356.137 15:39 09.10.2019
488 Clouds -12 1018 76 0 2.42 356.137 15:39 09.10.2019
489 Clouds -11 1020 72 0 2.43 0.943 15:20 09.10.2019
490 Clouds -11 1020 72 0 2.43 0.943 14:58 09.10.2019
491 Clouds -11 1020 72 0 2.43 0.943 14:39 09.10.2019
492 Clouds -11 1020 72 0 2.43 0.943 14:18 09.10.2019
493 Clouds -11 1020 72 0 2.43 0.943 13:40 09.10.2019
494 Clouds -11 1019 73 0 2.62 359.279 13:21 09.10.2019
495 Clouds -11 1019 73 0 2.62 359.279 12:59 09.10.2019
496 Clouds -11 1019 73 0 2.62 359.279 12:59 09.10.2019
497 Clouds -11 1019 73 0 2.62 359.279 12:40 09.10.2019
498 Clouds -9 1020 68 0 3.44 7.567 12:21 09.10.2019
499 Clouds -9 1020 68 0 3.44 7.567 11:55 09.10.2019
500 Clouds -9 1020 68 0 3.44 7.567 11:37 09.10.2019
501 Clouds -9 1020 68 0 3.44 7.567 11:37 09.10.2019
502 Clouds -9 1020 68 0 3.44 7.567 11:19 09.10.2019
503 Clouds -9 1020 68 0 3.44 7.567 10:44 09.10.2019
504 Clouds -9 1020 68 0 3.44 7.567 10:22 09.10.2019
505 Clouds -9 1020 68 0 3.44 7.567 09:59 09.10.2019
506 Clouds -9 1020 68 0 3.44 7.567 09:40 09.10.2019
507 Clouds -7 1019 56 0 4.77 23.88 09:19 09.10.2019
508 Clouds -7 1019 54 0 4.41 27.559 08:43 09.10.2019
509 Clouds -7 1019 54 0 4.41 27.559 08:23 09.10.2019
510 Clouds -7 1019 54 0 4.41 27.559 07:59 09.10.2019
511 Clouds -7 1019 54 0 4.41 27.559 07:39 09.10.2019
512 Clouds -7 1019 54 0 4.41 27.559 07:21 09.10.2019
513 Clouds -7 1019 54 0 4.41 27.559 06:52 09.10.2019
514 Clouds -7 1020 59 0 2.99 15.05 06:19 09.10.2019
515 Clouds -7 1020 59 0 2.99 15.05 05:44 09.10.2019
516 Clouds -7 1020 59 0 2.99 15.05 04:26 09.10.2019
517 Clouds -9 1020 73 0 2.53 16.337 02:53 09.10.2019
518 Clouds -9 1020 73 0 2.53 16.337 01:43 09.10.2019
519 Clouds -9 1019 73 0 2.39 17.874 01:21 09.10.2019
520 Clouds -9 1019 73 0 2.39 17.874 00:57 09.10.2019
521 Clouds -9 1019 73 0 2.39 17.874 00:38 09.10.2019
522 Clouds -10 1019 80 0 2.14 14.57 00:20 09.10.2019
523 Clouds -10 1019 80 0 2.14 14.57 23:39 08.10.2019
524 Clouds -10 1019 80 0 2.14 14.57 23:19 08.10.2019
525 Clouds -10 1019 80 0 2.14 14.57 22:58 08.10.2019
526 Clouds -10 1019 80 0 2.14 14.57 22:39 08.10.2019
527 Clouds -10 1019 80 0 2.14 14.57 22:20 08.10.2019
528 Clouds -10 1019 80 0 2.14 14.57 21:57 08.10.2019
529 Clouds -10 1019 80 0 2.14 14.57 21:39 08.10.2019
530 Clouds -9 1018 75 0 1.85 21.026 21:19 08.10.2019
531 Clouds -9 1018 75 0 1.85 21.026 20:56 08.10.2019
532 Clouds -10 1017 76 0 1.87 15.541 20:38 08.10.2019
533 Clouds -10 1017 76 0 1.87 15.541 20:20 08.10.2019
534 Clouds -10 1017 76 0 1.87 15.541 19:58 08.10.2019
535 Clouds -10 1017 76 0 1.87 15.541 19:58 08.10.2019
536 Clouds -10 1017 76 0 1.87 15.541 19:40 08.10.2019
537 Clouds -10 1017 76 0 1.87 15.541 19:21 08.10.2019
538 Clouds -10 1017 76 0 1.87 15.541 18:55 08.10.2019
539 Clouds -10 1017 76 0 1.87 15.541 18:36 08.10.2019
540 Clouds -10 1017 73 0 1.95 21.349 18:18 08.10.2019
541 Clouds -10 1017 73 0 1.95 21.349 17:40 08.10.2019
542 Clouds -10 1017 73 0 1.95 21.349 17:21 08.10.2019
543 Clouds -10 1017 73 0 1.95 21.349 16:59 08.10.2019
544 Clouds -10 1017 73 0 1.95 21.349 16:40 08.10.2019
545 Clouds -10 1017 73 0 1.95 21.349 16:21 08.10.2019
546 Clouds -10 1017 73 0 1.95 21.349 15:41 08.10.2019
547 Clouds -8 1016 67 0 1.97 22.407 15:22 08.10.2019
548 Clouds -8 1016 67 0 1.97 22.407 15:22 08.10.2019
549 Clouds -8 1016 67 0 1.97 22.407 14:59 08.10.2019
550 Clouds -8 1016 67 0 1.97 22.407 14:41 08.10.2019
551 Clouds -8 1016 67 0 1.97 22.407 14:21 08.10.2019
552 Clouds -8 1016 67 0 1.97 22.407 13:57 08.10.2019
553 Clouds -8 1016 67 0 1.97 22.407 13:39 08.10.2019
554 Clouds -8 1016 67 0 1.97 22.407 13:19 08.10.2019
555 Clouds -9 1016 69 0 2.12 20.781 12:59 08.10.2019
556 Clouds -9 1016 69 0 2.12 20.781 12:38 08.10.2019
557 Clouds -7 1015 58 0 1.89 40.375 12:18 08.10.2019
558 Clouds -7 1015 58 0 1.89 40.375 11:43 08.10.2019
559 Clouds -7 1015 58 0 1.89 40.375 11:24 08.10.2019
560 Clouds -7 1015 58 0 1.89 40.375 10:59 08.10.2019
561 Clouds -7 1015 58 0 1.89 40.375 10:38 08.10.2019
562 Clouds -7 1015 58 0 1.89 40.375 10:20 08.10.2019
563 Clouds -7 1015 58 0 1.89 40.375 09:57 08.10.2019
564 Clouds -7 1015 58 0 1.89 40.375 09:39 08.10.2019
565 Clouds -4 1013 43 0 2.37 67.503 09:19 08.10.2019
566 Clouds -4 1013 42 0 2.31 72.689 08:42 08.10.2019
567 Clouds -4 1013 42 0 2.31 72.689 08:24 08.10.2019
568 Clouds -4 1013 42 0 2.31 72.689 07:45 08.10.2019
569 Clouds -4 1013 42 0 2.31 72.689 07:21 08.10.2019
570 Clouds -4 1013 42 0 2.31 72.689 06:56 08.10.2019
571 Clouds -4 1013 42 0 2.31 72.689 06:32 08.10.2019
572 Clouds -5 1012 44 0 2.07 53.501 05:57 08.10.2019
573 Clouds -5 1012 44 0 2.07 53.501 05:36 08.10.2019
574 Clouds -5 1012 44 0 2.07 53.501 05:36 08.10.2019
575 Clouds -5 1012 44 0 2.07 53.501 04:36 08.10.2019
576 Clouds -5 1012 44 0 2.07 53.501 03:29 08.10.2019
577 Clouds -7 1013 52 0 1.56 39.129 02:39 08.10.2019
578 Clouds -7 1013 52 0 1.56 39.129 01:49 08.10.2019
579 Clouds -7 1013 52 0 1.56 39.129 01:31 08.10.2019
580 Clouds -6 1012 52 0 1.37 41.249 00:50 08.10.2019
581 Clouds -7 1012 55 0 1.72 48.015 00:21 08.10.2019
582 Clouds -7 1012 55 0 1.72 48.015 23:41 07.10.2019
583 Clouds -7 1012 55 0 1.72 48.015 23:20 07.10.2019
584 Clouds -7 1012 55 0 1.72 48.015 22:58 07.10.2019
585 Clouds -7 1012 55 0 1.72 48.015 22:40 07.10.2019
586 Clouds -7 1012 55 0 1.72 48.015 22:20 07.10.2019
587 Clouds -7 1012 55 0 1.72 48.015 21:57 07.10.2019
588 Clouds -7 1012 55 0 1.72 48.015 21:39 07.10.2019
589 Clouds -7 1012 54 0 1.71 44.598 21:20 07.10.2019
590 Clouds -7 1012 54 0 1.71 44.598 21:20 07.10.2019
591 Clouds -7 1012 52 0 1.57 46.343 20:58 07.10.2019
592 Clouds -7 1012 52 0 1.57 46.343 20:39 07.10.2019
593 Clouds -7 1012 52 0 1.57 46.343 20:20 07.10.2019
594 Clouds -7 1012 52 0 1.57 46.343 19:58 07.10.2019
595 Clouds -7 1012 52 0 1.57 46.343 19:40 07.10.2019
596 Clouds -7 1012 52 0 1.57 46.343 19:20 07.10.2019
597 Clouds -7 1012 52 0 1.57 46.343 18:58 07.10.2019
598 Clouds -7 1012 52 0 1.57 46.343 18:38 07.10.2019
599 Clouds -7 1013 55 0 1.71 53.805 18:18 07.10.2019
600 Clouds -7 1013 55 0 1.71 53.805 17:43 07.10.2019
601 Clouds -7 1013 55 0 1.71 53.805 17:43 07.10.2019
602 Clouds -7 1013 55 0 1.71 53.805 17:23 07.10.2019
603 Clouds -7 1013 55 0 1.71 53.805 16:58 07.10.2019
604 Clouds -7 1013 55 0 1.71 53.805 16:58 07.10.2019
605 Clouds -7 1013 55 0 1.71 53.805 16:39 07.10.2019
606 Clouds -7 1013 55 0 1.71 53.805 16:39 07.10.2019
607 Clouds -7 1013 55 0 1.71 53.805 16:20 07.10.2019
608 Clouds -7 1013 55 0 1.71 53.805 15:46 07.10.2019
609 Clouds -7 1013 55 0 1.71 53.805 15:26 07.10.2019
610 Clouds -7 1013 55 0 1.71 53.805 15:26 07.10.2019
611 Clouds -7 1013 55 0 1.71 53.805 15:26 07.10.2019
612 Clouds -6 1013 54 0 1.44 47.592 14:58 07.10.2019
613 Clouds -6 1013 54 0 1.44 47.592 14:40 07.10.2019
614 Clouds -6 1013 54 0 1.44 47.592 14:21 07.10.2019
615 Clouds -6 1013 54 0 1.44 47.592 13:43 07.10.2019
616 Clouds -6 1014 54 0 1.32 55.299 13:21 07.10.2019
617 Clouds -6 1014 54 0 1.32 55.299 12:57 07.10.2019
618 Clouds -6 1014 54 0 1.32 55.299 12:39 07.10.2019
619 Clouds -6 1014 55 0 1.27 58.384 12:19 07.10.2019
620 Clouds -6 1014 55 0 1.27 58.384 11:58 07.10.2019
621 Clouds -6 1014 55 0 1.27 58.384 11:38 07.10.2019
622 Clouds -6 1014 55 0 1.27 58.384 11:20 07.10.2019
623 Clouds -6 1014 55 0 1.27 58.384 10:42 07.10.2019
624 Clouds -6 1014 55 0 1.27 58.384 10:21 07.10.2019
625 Clouds -6 1014 55 0 1.27 58.384 09:55 07.10.2019
626 Clouds -6 1014 55 0 1.27 58.384 09:54 07.10.2019
627 Clouds -6 1014 55 0 1.27 58.384 09:54 07.10.2019
628 Clouds -6 1014 55 0 1.27 58.384 09:36 07.10.2019
629 Clouds -5 1014 47 0 1.37 76.41 09:18 07.10.2019
630 Clouds -5 1014 45 0 1.28 77.364 08:41 07.10.2019
631 Clouds -5 1014 45 0 1.28 77.364 08:20 07.10.2019
632 Clouds -5 1014 45 0 1.28 77.364 07:46 07.10.2019
633 Clouds -5 1014 45 0 1.28 77.364 07:27 07.10.2019
634 Clouds -5 1014 45 0 1.28 77.364 06:56 07.10.2019
635 Clouds -5 1014 45 0 1.28 77.364 06:37 07.10.2019
636 Clouds -5 1015 47 0 1.03 76.693 05:56 07.10.2019
637 Clouds -5 1015 47 0 1.03 76.693 05:25 07.10.2019
638 Clouds -5 1015 47 0 1.03 76.693 04:47 07.10.2019
639 Clouds -5 1015 47 0 1.03 76.693 03:45 07.10.2019
640 Clouds -5 1015 47 0 1.03 76.693 03:27 07.10.2019
641 Clouds -7 1016 53 0 1.05 69.335 02:37 07.10.2019
642 Clouds -7 1016 53 0 1.05 69.335 02:18 07.10.2019
643 Clouds -7 1015 54 0 1.09 71.148 01:23 07.10.2019
644 Clouds -7 1015 54 0 1.09 71.148 00:49 07.10.2019
645 Clouds -8 1015 61 0 1.02 61.928 00:23 07.10.2019
646 Clouds -8 1015 61 0 1.02 61.928 23:59 06.10.2019
647 Clouds -8 1015 61 0 1.02 61.928 23:40 06.10.2019
648 Clouds -8 1015 61 0 1.02 61.928 23:19 06.10.2019
649 Clouds -8 1015 61 0 1.02 61.928 22:55 06.10.2019
650 Clouds -8 1015 61 0 1.02 61.928 22:55 06.10.2019
651 Clouds -8 1015 61 0 1.02 61.928 22:37 06.10.2019
652 Clouds -8 1015 61 0 1.02 61.928 22:18 06.10.2019
653 Clouds -8 1015 61 0 1.02 61.928 21:55 06.10.2019
654 Clouds -8 1015 61 0 1.02 61.928 21:55 06.10.2019
655 Clouds -8 1015 61 0 1.02 61.928 21:36 06.10.2019
656 Clouds -8 1016 63 0 1.12 70.999 21:18 06.10.2019
657 Clouds -8 1016 63 0 1.12 70.999 20:54 06.10.2019
658 Clouds -8 1016 60 0 1.07 72.41 20:36 06.10.2019
659 Clouds -8 1016 60 0 1.07 72.41 20:36 06.10.2019
660 Clouds -8 1016 60 0 1.07 72.41 20:18 06.10.2019
661 Clouds -8 1016 60 0 1.07 72.41 19:55 06.10.2019
662 Clouds -8 1016 60 0 1.07 72.41 19:55 06.10.2019
663 Clouds -8 1016 60 0 1.07 72.41 19:36 06.10.2019
664 Clouds -8 1016 60 0 1.07 72.41 19:18 06.10.2019
665 Clouds -8 1016 60 0 1.07 72.41 18:55 06.10.2019
666 Clouds -8 1016 60 0 1.07 72.41 18:55 06.10.2019
667 Clouds -8 1016 60 0 1.07 72.41 18:36 06.10.2019
668 Clouds -8 1016 60 0 1.31 66.882 18:18 06.10.2019
669 Clouds -8 1016 60 0 1.31 66.882 18:18 06.10.2019
670 Clouds -8 1016 60 0 1.31 66.882 17:42 06.10.2019
671 Clouds -8 1016 60 0 1.31 66.882 17:20 06.10.2019
672 Clouds -8 1016 60 0 1.31 66.882 17:20 06.10.2019
673 Clouds -8 1016 60 0 1.31 66.882 16:55 06.10.2019
674 Clouds -8 1016 60 0 1.31 66.882 16:37 06.10.2019
675 Clouds -8 1016 60 0 1.31 66.882 16:18 06.10.2019
676 Clouds -8 1016 60 0 1.31 66.882 15:42 06.10.2019
677 Clouds -7 1016 57 0 1.12 68.596 15:21 06.10.2019
678 Clouds -7 1016 57 0 1.12 68.596 14:44 06.10.2019
679 Clouds -7 1016 57 0 1.12 68.596 14:26 06.10.2019
680 Clouds -7 1016 57 0 1.12 68.596 13:59 06.10.2019
681 Clouds -7 1016 57 0 1.12 68.596 13:40 06.10.2019
682 Clouds -7 1016 60 0 1.22 70.375 13:22 06.10.2019
683 Clouds -7 1016 60 0 1.22 70.375 12:59 06.10.2019
684 Clouds -7 1016 60 0 1.22 70.375 12:40 06.10.2019
685 Clouds -6 1016 56 0 1.32 92.524 12:21 06.10.2019
686 Clouds -6 1016 56 0 1.32 92.524 11:59 06.10.2019
687 Clouds -6 1016 56 0 1.32 92.524 11:40 06.10.2019
688 Clouds -6 1016 56 0 1.32 92.524 11:21 06.10.2019
689 Clouds -6 1016 56 0 1.32 92.524 10:55 06.10.2019
690 Clouds -6 1016 56 0 1.32 92.524 10:37 06.10.2019
691 Clouds -6 1016 56 0 1.32 92.524 10:19 06.10.2019
692 Clouds -6 1016 56 0 1.32 92.524 09:41 06.10.2019
693 Clouds -5 1015 49 0 1.8 136.558 09:19 06.10.2019
694 Clouds -5 1015 49 0 1.8 136.558 08:48 06.10.2019
695 Clouds -5 1015 47 0 1.52 138.583 08:22 06.10.2019
696 Clouds -5 1015 47 0 1.52 138.583 07:58 06.10.2019
697 Clouds -5 1015 47 0 1.52 138.583 07:39 06.10.2019
698 Clouds -5 1015 47 0 1.52 138.583 06:50 06.10.2019
699 Clouds -6 1015 50 0 1.35 141.453 05:41 06.10.2019
700 Clouds -6 1015 50 0 1.35 141.453 04:32 06.10.2019
701 Clouds -7 1016 56 0 1.11 154.733 02:53 06.10.2019
702 Clouds -7 1016 56 0 1.11 154.733 02:30 06.10.2019
703 Clouds -7 1016 56 0 1.11 154.733 01:48 06.10.2019
704 Clouds -7 1016 57 0 1.11 157.968 01:30 06.10.2019
705 Clouds -7 1016 57 0 1.11 157.968 00:59 06.10.2019
706 Clouds -7 1016 57 0 1.11 157.968 00:59 06.10.2019
707 Clouds -7 1016 57 0 1.11 157.968 00:33 06.10.2019
708 Clouds -10 1016 69 0 1.13 151.954 23:58 05.10.2019
709 Clouds -10 1016 69 0 1.13 151.954 23:40 05.10.2019
710 Clouds -10 1016 69 0 1.13 151.954 23:40 05.10.2019
711 Clouds -10 1016 69 0 1.13 151.954 23:19 05.10.2019
712 Clouds -10 1016 69 0 1.13 151.954 22:54 05.10.2019
713 Clouds -10 1016 69 0 1.13 151.954 22:36 05.10.2019
714 Clouds -10 1016 69 0 1.13 151.954 22:18 05.10.2019
715 Clouds -10 1016 69 0 1.13 151.954 21:41 05.10.2019
716 Clouds -10 1016 69 0 1.13 151.954 21:41 05.10.2019
717 Clouds -9 1015 67 0 1.26 169.797 21:22 05.10.2019
718 Clouds -9 1015 67 0 1.26 169.797 20:57 05.10.2019
719 Clouds -9 1015 66 0 1.27 171.588 20:39 05.10.2019
720 Clouds -9 1015 66 0 1.27 171.588 20:19 05.10.2019
721 Clouds -9 1015 66 0 1.27 171.588 19:55 05.10.2019
722 Clouds -9 1015 66 0 1.27 171.588 19:36 05.10.2019
723 Clouds -9 1015 66 0 1.27 171.588 19:18 05.10.2019
724 Clouds -9 1015 66 0 1.27 171.588 18:54 05.10.2019
725 Clouds -9 1015 66 0 1.27 171.588 18:36 05.10.2019
726 Clouds -9 1015 63 0 1.3 156.987 18:18 05.10.2019
727 Clouds -9 1015 63 0 1.3 156.987 18:18 05.10.2019
728 Clouds -9 1015 63 0 1.3 156.987 17:41 05.10.2019
729 Clouds -9 1015 63 0 1.3 156.987 17:21 05.10.2019
730 Clouds -9 1015 63 0 1.3 156.987 16:55 05.10.2019
731 Clouds -9 1015 63 0 1.3 156.987 16:36 05.10.2019
732 Clouds -9 1015 63 0 1.3 156.987 16:18 05.10.2019
733 Clouds -9 1015 63 0 1.3 156.987 15:55 05.10.2019
734 Clouds -9 1015 63 0 1.3 156.987 15:37 05.10.2019
735 Clear -8 1016 58 0 1.69 147.043 15:18 05.10.2019
736 Clear -8 1016 58 0 1.69 147.043 14:41 05.10.2019
737 Clear -8 1016 58 0 1.69 147.043 14:22 05.10.2019
738 Clear -8 1016 58 0 1.69 147.043 13:43 05.10.2019
739 Clear -8 1016 58 0 1.72 145.476 13:25 05.10.2019
740 Clear -8 1016 58 0 1.72 145.476 12:58 05.10.2019
741 Clear -8 1016 58 0 1.72 145.476 12:40 05.10.2019
742 Clouds -7 1015 51 0 2.15 169.831 12:18 05.10.2019
743 Clouds -7 1015 51 0 2.15 169.831 11:39 05.10.2019
744 Clouds -7 1015 51 0 2.15 169.831 11:20 05.10.2019
745 Clouds -7 1015 51 0 2.15 169.831 10:57 05.10.2019
746 Clouds -7 1015 51 0 2.15 169.831 10:38 05.10.2019
747 Clouds -7 1015 51 0 2.15 169.831 10:19 05.10.2019
748 Clouds -7 1015 51 0 2.15 169.831 09:40 05.10.2019
749 Clear -4 1015 43 0 3.72 195.673 09:22 05.10.2019
750 Clear -4 1015 41 0 3.64 196.946 08:42 05.10.2019
751 Clear -4 1015 41 0 3.64 196.946 08:23 05.10.2019
752 Clear -4 1015 41 0 3.64 196.946 07:59 05.10.2019
753 Clear -4 1015 41 0 3.64 196.946 07:59 05.10.2019
754 Clear -4 1015 41 0 3.64 196.946 07:39 05.10.2019
755 Clear -4 1015 41 0 3.64 196.946 07:39 05.10.2019
756 Clear -4 1015 41 0 3.64 196.946 07:20 05.10.2019
757 Clear -4 1015 41 0 3.64 196.946 06:52 05.10.2019
758 Clear -5 1015 47 0 2.88 197.705 06:20 05.10.2019
759 Clear -5 1015 47 0 2.88 197.705 04:46 05.10.2019
760 Clear -5 1015 47 0 2.88 197.705 03:31 05.10.2019
761 Clouds -7 1016 58 0 2.34 191.982 02:25 05.10.2019
762 Clouds -7 1016 58 0 2.35 191.611 01:25 05.10.2019
763 Clouds -7 1016 58 0 2.35 191.611 01:25 05.10.2019
764 Clouds -7 1016 58 0 2.35 191.611 00:47 05.10.2019
765 Clouds -7 1016 58 0 2.35 191.611 00:47 05.10.2019
766 Clouds -7 1016 58 0 2.35 191.611 00:27 05.10.2019
767 Clouds -9 1016 68 0 2.02 195.938 23:56 04.10.2019
768 Clouds -9 1016 68 0 2.02 195.938 23:56 04.10.2019
769 Clouds -9 1016 68 0 2.02 195.938 23:37 04.10.2019
770 Clouds -9 1016 68 0 2.02 195.938 23:18 04.10.2019
771 Clouds -9 1016 68 0 2.02 195.938 22:42 04.10.2019
772 Clouds -9 1016 68 0 2.02 195.938 22:24 04.10.2019
773 Clouds -9 1016 68 0 2.02 195.938 21:59 04.10.2019
774 Clouds -9 1016 68 0 2.02 195.938 21:40 04.10.2019
775 Clouds -9 1015 63 0 1.62 206.123 21:22 04.10.2019
776 Clouds -9 1015 63 0 1.62 206.123 20:58 04.10.2019
777 Clouds -9 1015 58 0 1.38 203.356 20:40 04.10.2019
778 Clouds -9 1015 58 0 1.38 203.356 20:22 04.10.2019
779 Clouds -9 1015 58 0 1.38 203.356 19:56 04.10.2019
780 Clouds -9 1015 58 0 1.38 203.356 19:37 04.10.2019
781 Clouds -9 1015 58 0 1.38 203.356 19:19 04.10.2019
782 Clouds -9 1015 58 0 1.38 203.356 18:54 04.10.2019
783 Clouds -9 1015 58 0 1.38 203.356 18:36 04.10.2019
784 Clouds -8 1015 56 0 1.17 203.559 18:18 04.10.2019
785 Clouds -8 1015 56 0 1.17 203.559 17:39 04.10.2019
786 Clouds -8 1015 56 0 1.17 203.559 17:21 04.10.2019
787 Clouds -8 1015 56 0 1.17 203.559 16:58 04.10.2019
788 Clouds -8 1015 56 0 1.17 203.559 16:39 04.10.2019
789 Clouds -8 1015 56 0 1.17 203.559 16:18 04.10.2019
790 Clouds -8 1015 56 0 1.17 203.559 16:18 04.10.2019
791 Clouds -8 1015 56 0 1.17 203.559 15:56 04.10.2019
792 Clouds -8 1015 56 0 1.17 203.559 15:37 04.10.2019
793 Clouds -8 1014 54 0 1.05 204.997 15:19 04.10.2019
794 Clouds -8 1014 54 0 1.05 204.997 14:55 04.10.2019
795 Clouds -8 1014 54 0 1.05 204.997 14:37 04.10.2019
796 Clouds -8 1014 54 0 1.05 204.997 14:19 04.10.2019
797 Clouds -8 1014 54 0 1.05 204.997 13:44 04.10.2019
798 Clouds -8 1014 54 0 1.05 204.997 13:44 04.10.2019
799 Clouds -8 1015 55 0 1.06 209.745 13:21 04.10.2019
800 Clouds -8 1015 55 0 1.06 209.745 12:48 04.10.2019
801 Clouds -8 1015 55 0 1.06 209.745 12:30 04.10.2019
802 Clouds -7 1015 51 0 1.77 202.456 11:59 04.10.2019
803 Clouds -7 1015 51 0 1.77 202.456 11:41 04.10.2019
804 Clouds -7 1015 51 0 1.77 202.456 11:41 04.10.2019
805 Clouds -7 1015 51 0 1.77 202.456 11:41 04.10.2019
806 Clouds -7 1015 51 0 1.77 202.456 11:21 04.10.2019
807 Clouds -7 1015 51 0 1.77 202.456 11:21 04.10.2019
808 Clouds -7 1015 51 0 1.77 202.456 10:41 04.10.2019
809 Clouds -7 1015 51 0 1.77 202.456 10:41 04.10.2019
810 Clouds -7 1015 51 0 1.77 202.456 10:21 04.10.2019
811 Clouds -7 1015 51 0 1.77 202.456 10:21 04.10.2019
812 Clouds -7 1015 51 0 1.77 202.456 09:50 04.10.2019
813 Clouds -7 1015 51 0 1.77 202.456 09:31 04.10.2019
814 Clouds -4 1014 41 0 3.56 215.452 08:59 04.10.2019
815 Clouds -4 1014 41 0 3.56 215.452 08:41 04.10.2019
816 Clouds -4 1014 41 0 3.56 215.452 08:23 04.10.2019
817 Clouds -4 1014 41 0 3.56 215.452 07:47 04.10.2019
818 Clouds -4 1014 41 0 3.56 215.452 07:23 04.10.2019
819 Clouds -4 1014 41 0 3.56 215.452 06:48 04.10.2019
820 Clouds -4 1014 41 0 3.56 215.452 06:27 04.10.2019
821 Clouds -4 1015 46 0 3.07 210.634 05:52 04.10.2019
822 Clouds -4 1015 46 0 3.07 210.634 05:19 04.10.2019
823 Clouds -4 1015 46 0 3.07 210.634 04:25 04.10.2019
824 Clouds -6 1016 57 0 2.75 198.191 02:56 04.10.2019
825 Clouds -6 1016 57 0 2.75 198.191 02:37 04.10.2019
826 Clouds -6 1016 57 0 2.75 198.191 01:43 04.10.2019
827 Clouds -6 1016 58 0 2.75 199.014 01:24 04.10.2019
828 Clouds -6 1016 58 0 2.75 199.014 00:24 04.10.2019
829 Clouds -7 1017 64 0 2.54 200.54 23:38 03.10.2019
830 Clouds -7 1017 64 0 2.54 200.54 23:19 03.10.2019
831 Clouds -7 1017 64 0 2.54 200.54 22:57 03.10.2019
832 Clouds -7 1017 64 0 2.54 200.54 22:39 03.10.2019
833 Clouds -7 1017 64 0 2.54 200.54 22:21 03.10.2019
834 Clouds -7 1017 64 0 2.54 200.54 21:56 03.10.2019
835 Clouds -7 1017 64 0 2.54 200.54 21:37 03.10.2019
836 Clouds -6 1017 56 0 2.49 202.694 21:19 03.10.2019
837 Clouds -6 1017 56 0 2.49 202.694 20:57 03.10.2019
838 Clouds -7 1017 56 0 2.46 202.247 20:37 03.10.2019
839 Clouds -7 1017 56 0 2.46 202.247 20:19 03.10.2019
840 Clouds -7 1017 56 0 2.46 202.247 19:55 03.10.2019
841 Clouds -7 1017 56 0 2.46 202.247 19:36 03.10.2019
842 Clouds -7 1017 56 0 2.46 202.247 19:18 03.10.2019
843 Clouds -7 1017 56 0 2.46 202.247 18:40 03.10.2019
844 Clouds -6 1018 52 0 1.96 211.199 18:20 03.10.2019
845 Clouds -6 1018 52 0 1.96 211.199 17:59 03.10.2019
846 Clouds -6 1018 52 0 1.96 211.199 17:41 03.10.2019
847 Clouds -6 1018 52 0 1.96 211.199 17:20 03.10.2019
848 Clouds -6 1018 52 0 1.96 211.199 16:54 03.10.2019
849 Clouds -6 1018 52 0 1.96 211.199 16:54 03.10.2019
850 Clouds -6 1018 52 0 1.96 211.199 16:36 03.10.2019
851 Clouds -6 1018 52 0 1.96 211.199 16:18 03.10.2019
852 Clouds -6 1018 52 0 1.96 211.199 15:42 03.10.2019
853 Clouds -5 1018 48 0 1.64 210.862 15:23 03.10.2019
854 Clouds -5 1018 48 0 1.64 210.862 14:57 03.10.2019
855 Clouds -5 1018 48 0 1.64 210.862 14:36 03.10.2019
856 Clouds -5 1018 48 0 1.64 210.862 14:36 03.10.2019
857 Clouds -5 1018 48 0 1.64 210.862 14:18 03.10.2019
858 Clouds -5 1018 48 0 1.64 210.862 13:43 03.10.2019
859 Clouds -5 1018 49 0 1.82 205.89 13:22 03.10.2019
860 Clouds -5 1018 49 0 1.82 205.89 13:22 03.10.2019
861 Clouds -5 1018 49 0 1.82 205.89 12:58 03.10.2019
862 Clouds -5 1018 49 0 1.82 205.89 12:39 03.10.2019
863 Clouds -4 1018 46 0 2.12 207.012 12:19 03.10.2019
864 Clouds -4 1018 46 0 2.12 207.012 11:57 03.10.2019
865 Clouds -4 1018 46 0 2.12 207.012 11:38 03.10.2019
866 Clouds -4 1018 46 0 2.12 207.012 11:20 03.10.2019
867 Clouds -4 1018 46 0 2.12 207.012 10:56 03.10.2019
868 Clouds -4 1018 46 0 2.12 207.012 10:37 03.10.2019
869 Clouds -4 1018 46 0 2.12 207.012 10:18 03.10.2019
870 Clouds -4 1018 46 0 2.12 207.012 09:56 03.10.2019
871 Clouds -4 1018 46 0 2.12 207.012 09:37 03.10.2019
872 Clouds -2 1017 39 0 2.29 224.097 09:19 03.10.2019
873 Clouds -2 1017 38 0 2.81 209.128 08:42 03.10.2019
874 Clouds -2 1017 38 0 2.81 209.128 08:23 03.10.2019
875 Clouds -2 1017 38 0 2.81 209.128 07:42 03.10.2019
876 Clouds -2 1017 38 0 2.81 209.128 07:42 03.10.2019
877 Clouds -2 1017 38 0 2.81 209.128 07:20 03.10.2019
878 Clouds -2 1017 38 0 2.81 209.128 07:20 03.10.2019
879 Clouds -2 1017 38 0 2.81 209.128 06:52 03.10.2019
880 Clouds -2 1017 38 0 2.81 209.128 06:27 03.10.2019
881 Clouds -3 1017 40 0 2.7 220.795 05:48 03.10.2019
882 Clouds -3 1017 40 0 2.7 220.795 05:27 03.10.2019
883 Clouds -3 1017 40 0 2.7 220.795 04:44 03.10.2019
884 Clouds -3 1017 40 0 2.7 220.795 03:54 03.10.2019
885 Clouds -5 1018 46 0 2.57 220.011 03:19 03.10.2019
886 Clouds -5 1018 46 0 2.57 220.011 02:22 03.10.2019
887 Clouds -5 1018 46 0 2.57 220.011 01:40 03.10.2019
888 Clouds -5 1018 46 0 2.62 221.031 00:53 03.10.2019
889 Clouds -5 1018 46 0 2.62 221.031 00:31 03.10.2019
890 Clouds -6 1017 54 0 2.43 220.195 23:55 02.10.2019
891 Clouds -6 1017 54 0 2.43 220.195 23:36 02.10.2019
892 Clouds -6 1017 54 0 2.43 220.195 23:18 02.10.2019
893 Clouds -6 1017 54 0 2.43 220.195 22:41 02.10.2019
894 Clouds -6 1017 54 0 2.43 220.195 22:20 02.10.2019
895 Clouds -6 1017 54 0 2.43 220.195 21:55 02.10.2019
896 Clouds -6 1017 54 0 2.43 220.195 21:55 02.10.2019
897 Clouds -6 1017 54 0 2.43 220.195 21:37 02.10.2019
898 Clouds -5 1017 50 0 2.45 216.28 21:18 02.10.2019
899 Clouds -5 1017 50 0 2.75 215.122 20:55 02.10.2019
900 -273 0 0 0 0 0 20:54 02.10.2019
901 -273 0 0 0 0 0 20:54 02.10.2019
902 Clouds -5 1017 50 0 2.75 215.122 20:36 02.10.2019
903 Clouds -5 1017 50 0 2.75 215.122 20:18 02.10.2019
904 Clouds -5 1017 50 0 2.75 215.122 20:18 02.10.2019
905 Clouds -5 1017 50 0 2.75 215.122 19:42 02.10.2019
906 Clouds -5 1017 50 0 2.75 215.122 19:21 02.10.2019
907 Clouds -5 1017 50 0 2.75 215.122 18:57 02.10.2019
908 Clouds -5 1017 50 0 2.75 215.122 18:38 02.10.2019
909 Clouds -5 1016 46 0 2.07 223.709 18:20 02.10.2019
910 Clouds -5 1016 46 0 2.07 223.709 17:57 02.10.2019
911 Clouds -5 1016 46 0 2.07 223.709 17:38 02.10.2019
912 Clouds -5 1016 46 0 2.07 223.709 17:19 02.10.2019
913 Clouds -5 1016 46 0 2.07 223.709 16:42 02.10.2019
914 Clouds -5 1016 46 0 2.07 223.709 16:22 02.10.2019
915 Clouds -5 1016 46 0 2.07 223.709 15:59 02.10.2019
916 Clouds -5 1016 46 0 2.07 223.709 15:40 02.10.2019
917 Clouds -5 1016 50 0 1.94 232.905 15:22 02.10.2019
918 Clouds -5 1016 50 0 1.94 232.905 14:58 02.10.2019
919 Clouds -5 1016 50 0 1.94 232.905 14:40 02.10.2019
920 Clouds -5 1016 50 0 1.94 232.905 14:21 02.10.2019
921 Clouds -5 1016 50 0 1.94 232.905 13:48 02.10.2019
922 Clouds -5 1016 45 0 2.04 235.134 13:29 02.10.2019
923 Clouds -5 1016 45 0 2.04 235.134 12:59 02.10.2019
924 Clouds -5 1016 45 0 2.04 235.134 12:39 02.10.2019
925 Clouds -4 1015 47 0 2.9 259.697 12:20 02.10.2019
926 Clouds -4 1015 47 0 2.9 259.697 11:45 02.10.2019
927 Clouds -4 1015 47 0 2.9 259.697 11:45 02.10.2019
928 Clouds -4 1015 47 0 2.9 259.697 11:23 02.10.2019
929 Clouds -4 1015 47 0 2.9 259.697 10:55 02.10.2019
930 Clouds -4 1015 47 0 2.9 259.697 10:36 02.10.2019
931 Clouds -4 1015 47 0 2.9 259.697 10:18 02.10.2019
932 Clouds -4 1015 47 0 2.9 259.697 09:39 02.10.2019
933 Clouds -2 1014 36 0 2.73 269.958 09:20 02.10.2019
934 Clouds -2 1014 36 0 2.73 269.958 08:55 02.10.2019
935 Clouds -3 1014 37 0 3.03 265.216 08:36 02.10.2019
936 Clouds -3 1014 37 0 3.03 265.216 08:18 02.10.2019
937 Clouds -3 1014 37 0 3.03 265.216 07:39 02.10.2019
938 Clouds -3 1014 37 0 3.03 265.216 07:20 02.10.2019
939 Clouds -3 1014 37 0 3.03 265.216 07:20 02.10.2019
940 Clouds -3 1014 37 0 3.03 265.216 06:46 02.10.2019
941 Clouds -3 1014 39 0 2.36 243.305 05:56 02.10.2019
942 Clouds -3 1014 39 0 2.36 243.305 05:25 02.10.2019
943 Clouds -3 1014 39 0 2.36 243.305 04:53 02.10.2019
944 Clouds -3 1014 39 0 2.36 243.305 03:52 02.10.2019
945 Clouds -5 1013 51 0 1.61 232.203 02:47 02.10.2019
946 Clouds -5 1013 51 0 1.61 232.203 02:24 02.10.2019
947 Clouds -5 1013 51 0 1.61 232.203 01:46 02.10.2019
948 Clouds -5 1013 52 0 1.8 227.278 00:51 02.10.2019
949 Clouds -5 1013 52 0 1.8 227.278 00:27 02.10.2019
950 Clear -8 1012 74 0 1.19 231.65 23:45 01.10.2019
951 Clear -8 1012 74 0 1.19 231.65 23:26 01.10.2019
952 Clear -8 1012 74 0 1.19 231.65 22:59 01.10.2019
953 Clear -8 1012 74 0 1.19 231.65 22:41 01.10.2019
954 Clear -8 1012 74 0 1.19 231.65 22:20 01.10.2019
955 Clear -8 1012 74 0 1.19 231.65 21:58 01.10.2019
956 Clear -8 1012 74 0 1.19 231.65 21:40 01.10.2019
957 Clouds -7 1011 77 0 0.65 245.821 21:22 01.10.2019
958 Clouds -7 1011 77 0 0.65 245.821 20:57 01.10.2019
959 Clouds -7 1011 77 0 0.73 272.764 20:38 01.10.2019
960 Clouds -7 1011 77 0 0.73 272.764 20:20 01.10.2019
961 Clouds -7 1011 77 0 0.73 272.764 19:56 01.10.2019
962 Clouds -7 1011 77 0 0.73 272.764 19:38 01.10.2019
963 Clouds -7 1011 77 0 0.73 272.764 19:19 01.10.2019
964 Clouds -7 1011 77 0 0.73 272.764 18:41 01.10.2019
965 Clouds -6 1010 77 0 0.93 283.916 18:23 01.10.2019
966 Clouds -6 1010 77 0 0.93 283.916 17:59 01.10.2019
967 Clouds -6 1010 77 0 0.93 283.916 17:40 01.10.2019
968 Clouds -6 1010 77 0 0.93 283.916 17:20 01.10.2019
969 Clouds -6 1010 77 0 0.93 283.916 17:20 01.10.2019
970 Clouds -6 1010 77 0 0.93 283.916 16:58 01.10.2019
971 Clouds -6 1010 77 0 0.93 283.916 16:40 01.10.2019
972 Clouds -6 1010 77 0 0.93 283.916 16:21 01.10.2019
973 Clouds -6 1010 77 0 0.93 283.916 15:48 01.10.2019
974 Clouds -5 1009 78 0 0.88 294.78 15:24 01.10.2019
975 Clouds -5 1009 78 0 0.88 294.78 14:58 01.10.2019
976 Clouds -5 1009 78 0 0.88 294.78 14:37 01.10.2019
977 Clouds -5 1009 78 0 0.88 294.78 14:19 01.10.2019
978 Clouds -5 1009 78 0 0.88 294.78 13:55 01.10.2019
979 Clouds -5 1009 78 0 0.88 294.78 13:37 01.10.2019
980 Clouds -5 1009 81 0 0.83 289.131 13:18 01.10.2019
981 Clouds -5 1009 81 0 0.83 289.131 12:54 01.10.2019
982 Clouds -5 1009 81 0 0.83 289.131 12:36 01.10.2019
983 Clouds -4 1008 75 0 0.55 285.513 12:18 01.10.2019
984 Clouds -4 1008 75 0 0.55 285.513 11:54 01.10.2019
985 Clouds -4 1008 75 0 0.55 285.513 11:36 01.10.2019
986 Clouds -4 1008 75 0 0.55 285.513 11:18 01.10.2019
987 Clouds -4 1008 75 0 0.55 285.513 10:43 01.10.2019
988 Clouds -4 1008 75 0 0.55 285.513 10:24 01.10.2019
989 Clouds -4 1008 75 0 0.55 285.513 09:44 01.10.2019
990 Clouds -4 1008 75 0 0.55 285.513 09:25 01.10.2019
991 Clouds -4 1008 75 0 0.55 285.513 09:25 01.10.2019
992 Clouds -1 1007 58 0 0.51 273.844 08:44 01.10.2019
993 Clouds -1 1007 58 0 0.51 273.844 08:25 01.10.2019
994 Clouds -1 1007 58 0 0.51 273.844 07:49 01.10.2019
995 Clouds -1 1007 58 0 0.51 273.844 07:26 01.10.2019
996 Clouds -1 1007 58 0 0.51 273.844 06:51 01.10.2019
997 Clouds -1 1007 58 0 0.51 273.844 06:51 01.10.2019
998 Clouds -1 1007 58 0 0.51 273.844 06:25 01.10.2019
999 Clouds -2 1007 60 0 0.4 188.312 05:59 01.10.2019
1000 Clouds -2 1007 60 0 0.4 188.312 05:38 01.10.2019
1001 Clouds -2 1007 60 0 0.4 188.312 04:40 01.10.2019
1002 Clouds -2 1007 60 0 0.4 188.312 03:34 01.10.2019
1003 Clouds -4 1008 71 0 0.98 86.119 02:19 01.10.2019
1004 Clouds -4 1008 71 0 0.98 86.119 01:51 01.10.2019
1005 Clouds -3 1007 71 0 0.94 87.731 00:44 01.10.2019
1006 Clouds -3 1007 71 0 0.94 87.731 00:24 01.10.2019
1007 Clouds -3 1007 71 0 0.94 87.731 00:24 01.10.2019
1008 Clouds -3 1007 71 0 0.94 87.731 00:24 01.10.2019
1009 Clouds -6 1007 86 0 1.01 69.417 23:42 30.09.2019
1010 Clouds -6 1007 86 0 1.01 69.417 23:22 30.09.2019
1011 Clouds -6 1007 86 0 1.01 69.417 22:55 30.09.2019
1012 Clouds -6 1007 86 0 1.01 69.417 22:37 30.09.2019
1013 Clouds -6 1007 86 0 1.01 69.417 22:19 30.09.2019
1014 Clouds -6 1007 86 0 1.01 69.417 21:55 30.09.2019
1015 Clouds -6 1007 86 0 1.01 69.417 21:36 30.09.2019
1016 Clouds -6 1007 83 0 1 84.676 21:18 30.09.2019
1017 Clouds -6 1007 83 0 1 84.676 20:54 30.09.2019
1018 Clouds -6 1007 83 0 0.96 87.072 20:36 30.09.2019
1019 Clouds -6 1007 83 0 0.96 87.072 20:18 30.09.2019
1020 Clouds -6 1007 83 0 0.96 87.072 20:18 30.09.2019
1021 Clouds -6 1007 83 0 0.96 87.072 19:42 30.09.2019
1022 Clouds -6 1007 83 0 0.96 87.072 19:22 30.09.2019
1023 Clouds -6 1007 83 0 0.96 87.072 18:59 30.09.2019
1024 Clouds -6 1007 83 0 0.96 87.072 18:41 30.09.2019
1025 Clouds -5 1007 81 0 1.16 80.318 18:21 30.09.2019
1026 Clouds -5 1007 81 0 1.16 80.318 17:57 30.09.2019
1027 Clouds -5 1007 81 0 1.16 80.318 17:39 30.09.2019
1028 Clouds -5 1007 81 0 1.16 80.318 17:19 30.09.2019
1029 Clouds -5 1007 81 0 1.16 80.318 16:54 30.09.2019
1030 Clouds -5 1007 81 0 1.16 80.318 16:36 30.09.2019
1031 Clouds -5 1007 81 0 1.16 80.318 16:18 30.09.2019
1032 Clouds -5 1007 81 0 1.16 80.318 15:39 30.09.2019
1033 Clouds -5 1007 81 0 1.16 80.318 15:39 30.09.2019
1034 Clouds -5 1007 81 0 1.16 80.318 15:39 30.09.2019
1035 Clouds -5 1007 79 0 1.03 91.722 15:20 30.09.2019
1036 Clouds -5 1007 79 0 1.03 91.722 14:59 30.09.2019
1037 Clouds -5 1007 79 0 1.03 91.722 14:38 30.09.2019
1038 Clouds -5 1007 79 0 1.03 91.722 14:19 30.09.2019
1039 Clouds -5 1007 79 0 1.03 91.722 13:59 30.09.2019
1040 Clouds -5 1007 79 0 1.03 91.722 13:41 30.09.2019
1041 Clear -5 1007 79 0 0.95 92.823 13:22 30.09.2019
1042 Clear -5 1007 79 0 0.95 92.823 12:57 30.09.2019
1043 Clear -5 1007 79 0 0.95 92.823 12:38 30.09.2019
1044 Clear -4 1008 75 0 1.32 115.048 12:18 30.09.2019
1045 Clear -4 1008 75 0 1.32 115.048 11:43 30.09.2019
1046 Clear -4 1008 75 0 1.32 115.048 11:22 30.09.2019
1047 Clear -4 1008 75 0 1.32 115.048 10:59 30.09.2019
1048 Clear -4 1008 75 0 1.32 115.048 10:38 30.09.2019
1049 Clear -4 1008 75 0 1.32 115.048 10:19 30.09.2019
1050 Clear -4 1008 75 0 1.32 115.048 09:58 30.09.2019
1051 Clear -4 1008 75 0 1.32 115.048 09:39 30.09.2019
1052 Clear 0 1007 52 0 1.3 119.701 09:19 30.09.2019
1053 Clear 0 1007 52 0 1.3 119.701 08:46 30.09.2019
1054 Clear 0 1007 51 0 1.44 112.764 08:27 30.09.2019
1055 Clear 0 1007 51 0 1.44 112.764 07:44 30.09.2019
1056 Clear 0 1007 51 0 1.44 112.764 07:44 30.09.2019
1057 Clear 0 1007 51 0 1.44 112.764 07:25 30.09.2019
1058 Clear 0 1007 51 0 1.44 112.764 06:50 30.09.2019
1059 Clear 0 1007 51 0 1.44 112.764 06:31 30.09.2019
1060 Clear -1 1008 57 0 0.68 93.995 05:46 30.09.2019
1061 Clear -1 1008 57 0 0.68 93.995 05:46 30.09.2019
1062 Clear -1 1008 57 0 0.68 93.995 03:33 30.09.2019
1063 Clear -1 1008 57 0 0.68 93.995 03:33 30.09.2019
1064 Clear -2 1010 71 0 0.39 79.181 02:45 30.09.2019
1065 Clear -2 1010 70 0 0.39 64.869 01:34 30.09.2019
1066 Clear -2 1010 70 0 0.39 64.869 00:42 30.09.2019
1067 Clear -6 1011 87 0 0.32 8.61 00:21 30.09.2019
1068 Clear -6 1011 87 0 0.32 8.61 23:45 29.09.2019
1069 Clear -6 1011 87 0 0.32 8.61 23:23 29.09.2019
1070 Clear -6 1011 87 0 0.32 8.61 22:55 29.09.2019
1071 Clear -6 1011 87 0 0.32 8.61 22:55 29.09.2019
1072 Clear -6 1011 87 0 0.32 8.61 22:37 29.09.2019
1073 Clear -6 1011 87 0 0.32 8.61 22:19 29.09.2019
1074 Clear -6 1011 87 0 0.32 8.61 21:57 29.09.2019
1075 Clear -6 1011 87 0 0.32 8.61 21:37 29.09.2019
1076 Clouds -5 1011 85 0 0.81 19.625 21:19 29.09.2019
1077 Clouds -5 1011 85 0 0.81 19.625 20:44 29.09.2019
1078 Clouds -5 1010 82 0 0.43 23.788 20:20 29.09.2019
1079 Clouds -5 1010 82 0 0.43 23.788 19:59 29.09.2019
1080 Clouds -5 1010 82 0 0.43 23.788 19:38 29.09.2019
1081 Clouds -5 1010 82 0 0.43 23.788 19:19 29.09.2019
1082 Clouds -5 1010 82 0 0.43 23.788 18:56 29.09.2019
1083 Clouds -5 1010 82 0 0.43 23.788 18:38 29.09.2019
1084 Clouds -5 1010 82 0 0.43 23.788 18:38 29.09.2019
1085 Clouds -5 1011 79 0 0.72 321.141 18:19 29.09.2019
1086 Clouds -5 1011 79 0 0.72 321.141 17:58 29.09.2019
1087 Clouds -5 1011 79 0 0.72 321.141 17:40 29.09.2019
1088 Clouds -5 1011 79 0 0.72 321.141 17:20 29.09.2019
1089 Clouds -5 1011 79 0 0.72 321.141 16:58 29.09.2019
1090 Clouds -5 1011 79 0 0.72 321.141 16:40 29.09.2019
1091 Clouds -5 1011 79 0 0.72 321.141 16:19 29.09.2019
1092 Clouds -5 1011 79 0 0.72 321.141 15:57 29.09.2019
1093 Clouds -5 1011 79 0 0.72 321.141 15:36 29.09.2019
1094 Clouds -4 1011 78 0 0.83 23.053 15:18 29.09.2019
1095 Clouds -4 1011 78 0 0.83 23.053 14:55 29.09.2019
1096 Clouds -4 1011 78 0 0.83 23.053 14:36 29.09.2019
1097 Clouds -4 1011 78 0 0.83 23.053 14:18 29.09.2019
1098 Clouds -4 1011 78 0 0.83 23.053 14:18 29.09.2019
1099 Clouds -4 1011 78 0 0.83 23.053 13:42 29.09.2019
1100 Clouds -4 1011 78 0 1.2 13.678 13:19 29.09.2019
1101 Clouds -4 1011 78 0 1.2 13.678 12:58 29.09.2019
1102 Clouds -4 1011 78 0 1.2 13.678 12:40 29.09.2019
1103 Clouds -3 1011 73 0 2.02 14.043 12:21 29.09.2019
1104 Clouds -3 1011 73 0 2.02 14.043 11:58 29.09.2019
1105 Clouds -3 1011 73 0 2.02 14.043 11:40 29.09.2019
1106 Clouds -3 1011 73 0 2.02 14.043 11:19 29.09.2019
1107 Clouds -3 1011 73 0 2.02 14.043 10:57 29.09.2019
1108 Clouds -3 1011 73 0 2.02 14.043 10:57 29.09.2019
1109 Clouds -3 1011 73 0 2.02 14.043 10:37 29.09.2019
1110 Clouds -3 1011 73 0 2.02 14.043 10:19 29.09.2019
1111 Clouds -3 1011 73 0 2.02 14.043 09:47 29.09.2019
1112 Clouds 2 1010 51 0 3.18 1.351 09:21 29.09.2019
1113 Clouds 2 1010 51 0 3.18 1.351 08:59 29.09.2019
1114 Clouds 2 1010 51 0 3.18 1.351 08:59 29.09.2019
1115 Clouds 2 1010 51 0 3.18 1.351 08:41 29.09.2019
1116 Clouds 2 1010 51 0 3.47 359.405 08:21 29.09.2019
1117 Clouds 2 1010 51 0 3.47 359.405 07:43 29.09.2019
1118 Clouds 2 1010 51 0 3.47 359.405 07:25 29.09.2019
1119 Clouds 2 1010 51 0 3.47 359.405 06:45 29.09.2019
1120 Clear 2 1011 53 0 3.02 350.466 05:47 29.09.2019
1121 Clear 2 1011 53 0 3.02 350.466 05:47 29.09.2019
1122 Clear 2 1011 53 0 3.02 350.466 04:41 29.09.2019
1123 Clear 2 1011 53 0 3.02 350.466 04:23 29.09.2019
1124 Clouds -1 1012 64 0 1.78 313.679 02:51 29.09.2019
1125 Clouds -1 1012 64 0 1.78 313.679 02:19 29.09.2019
1126 Clouds -1 1012 64 0 1.78 313.679 01:38 29.09.2019
1127 Clouds 0 1011 65 0 1.79 312.465 00:53 29.09.2019
1128 Clouds -4 1012 84 0 1.76 326.626 00:21 29.09.2019
1129 Clouds -4 1012 84 0 1.76 326.626 23:56 28.09.2019
1130 Clouds -4 1012 84 0 1.76 326.626 23:37 28.09.2019
1131 Clouds -4 1012 84 0 1.76 326.626 23:18 28.09.2019
1132 Clouds -4 1012 84 0 1.76 326.626 22:40 28.09.2019
1133 Clouds -4 1012 84 0 1.76 326.626 22:21 28.09.2019
1134 Clouds -4 1012 84 0 1.76 326.626 21:57 28.09.2019
1135 Clouds -4 1012 84 0 1.76 326.626 21:39 28.09.2019
1136 Clouds -1 1011 77 0 1.66 328.291 21:21 28.09.2019
1137 Clouds -1 1011 77 0 1.66 328.291 20:57 28.09.2019
1138 Clouds -2 1011 76 0 1.51 324.896 20:38 28.09.2019
1139 Clouds -2 1011 76 0 1.51 324.896 20:19 28.09.2019
1140 Clouds -2 1011 76 0 1.51 324.896 19:56 28.09.2019
1141 Clouds -2 1011 76 0 1.51 324.896 19:38 28.09.2019
1142 Clouds -2 1011 76 0 1.51 324.896 19:19 28.09.2019
1143 Clouds -2 1011 76 0 1.51 324.896 18:54 28.09.2019
1144 Clouds -2 1011 76 0 1.51 324.896 18:36 28.09.2019
1145 Clouds -2 1011 81 0 1.06 356.706 18:18 28.09.2019
1146 Clouds -2 1011 81 0 1.06 356.706 17:54 28.09.2019
1147 Clouds -2 1011 81 0 1.06 356.706 17:36 28.09.2019
1148 Clouds -2 1011 81 0 1.06 356.706 17:18 28.09.2019
1149 Clouds -2 1011 81 0 1.06 356.706 16:41 28.09.2019
1150 Clouds -2 1011 81 0 1.06 356.706 16:22 28.09.2019
1151 Clouds -2 1011 81 0 1.06 356.706 15:41 28.09.2019
1152 Clouds -1 1011 76 0 1 354.341 15:23 28.09.2019
1153 Clouds -1 1011 76 0 1 354.341 14:56 28.09.2019
1154 Clouds -1 1011 76 0 1 354.341 14:38 28.09.2019
1155 Clouds -1 1011 76 0 1 354.341 14:20 28.09.2019
1156 Clouds -1 1011 76 0 1 354.341 13:56 28.09.2019
1157 Clouds -1 1011 76 0 1 354.341 13:37 28.09.2019
1158 Clouds -1 1010 84 0 1.72 19.13 13:19 28.09.2019
1159 Clouds -1 1010 84 0 1.72 19.13 12:40 28.09.2019
1160 Clouds -1 1010 81 0 1.33 15.993 12:19 28.09.2019
1161 Clouds -1 1010 81 0 1.33 15.993 11:55 28.09.2019
1162 Clouds -1 1010 81 0 1.33 15.993 11:36 28.09.2019
1163 Clouds -1 1010 81 0 1.33 15.993 11:18 28.09.2019
1164 Clouds -1 1010 81 0 1.33 15.993 10:40 28.09.2019
1165 Clouds -1 1010 81 0 1.33 15.993 10:20 28.09.2019
1166 Clouds -1 1010 81 0 1.33 15.993 09:54 28.09.2019
1167 Clouds -1 1010 81 0 1.33 15.993 09:36 28.09.2019
1168 Clouds 2 1010 59 0 0.22 306.975 09:18 28.09.2019
1169 Clouds 3 1010 66 0 3.23 84.767 08:42 28.09.2019
1170 Clouds 3 1010 66 0 3.23 84.767 08:23 28.09.2019
1171 Clouds 3 1010 66 0 3.23 84.767 07:45 28.09.2019
1172 Clouds 3 1010 66 0 3.23 84.767 07:45 28.09.2019
1173 Clouds 3 1010 66 0 3.23 84.767 07:21 28.09.2019
1174 Clouds 3 1010 66 0 3.23 84.767 06:55 28.09.2019
1175 Clouds 3 1010 66 0 3.23 84.767 06:31 28.09.2019
1176 Clouds 2 1011 69 0 1.61 67.194 05:55 28.09.2019
1177 Clouds 2 1011 69 0 1.61 67.194 05:20 28.09.2019
1178 Clouds 2 1011 69 0 1.61 67.194 04:39 28.09.2019
1179 Clouds 2 1011 69 0 1.61 67.194 03:58 28.09.2019
1180 Clouds 0 1012 79 0 1.03 32.112 03:23 28.09.2019
1181 Clouds 0 1012 79 0 1.03 32.112 02:56 28.09.2019
1182 Clouds 0 1012 79 0 1.03 32.112 02:32 28.09.2019
1183 Clouds 0 1012 79 0 1.03 32.112 01:49 28.09.2019
1184 Clouds 1 1012 80 0 1.07 27.664 01:26 28.09.2019
1185 Clouds 1 1012 80 0 1.07 27.664 00:58 28.09.2019
1186 Clouds 1 1012 80 0 1.07 27.664 00:38 28.09.2019
1187 Clouds -3 1012 90 0 0.8 53.988 00:18 28.09.2019
1188 Clouds -3 1012 90 0 0.8 53.988 23:37 27.09.2019
1189 Clouds -3 1012 90 0 0.8 53.988 23:19 27.09.2019
1190 Clouds -3 1012 90 0 0.8 53.988 22:47 27.09.2019
1191 Clouds -3 1012 90 0 0.8 53.988 22:19 27.09.2019
1192 Clouds -3 1012 90 0 0.8 53.988 21:57 27.09.2019
1193 Clouds -3 1012 90 0 0.8 53.988 21:37 27.09.2019
1194 Clouds -3 1012 84 0 1.02 44.921 21:19 27.09.2019
1195 Clouds -3 1012 84 0 1.02 44.921 20:58 27.09.2019
1196 Clouds -3 1012 84 0 1.21 51.992 20:39 27.09.2019
1197 Clouds -3 1012 84 0 1.21 51.992 20:19 27.09.2019
1198 Clouds -3 1012 84 0 1.21 51.992 19:57 27.09.2019
1199 Clouds -3 1012 84 0 1.21 51.992 19:57 27.09.2019
1200 Clouds -3 1012 84 0 1.21 51.992 19:37 27.09.2019
1201 Clouds -3 1012 84 0 1.21 51.992 19:18 27.09.2019
1202 Clouds -3 1012 84 0 1.21 51.992 18:41 27.09.2019
1203 Clouds -2 1012 69 0 0.12 326.032 18:22 27.09.2019
1204 Clouds -2 1012 69 0 0.12 326.032 18:22 27.09.2019
1205 Clouds -2 1012 69 0 0.12 326.032 17:56 27.09.2019
1206 Clouds -2 1012 69 0 0.12 326.032 17:37 27.09.2019
1207 Clouds -2 1012 69 0 0.12 326.032 17:18 27.09.2019
1208 Clouds -2 1012 69 0 0.12 326.032 16:57 27.09.2019
1209 Clouds -2 1012 69 0 0.12 326.032 16:37 27.09.2019
1210 Clouds -2 1012 69 0 0.12 326.032 16:18 27.09.2019
1211 Clouds -2 1012 69 0 0.12 326.032 16:18 27.09.2019
1212 Clouds -2 1012 69 0 0.12 326.032 16:18 27.09.2019
1213 Clouds -2 1012 69 0 0.12 326.032 15:45 27.09.2019
1214 Clouds -1 1011 74 0 1.48 237.279 15:21 27.09.2019
1215 Clouds -1 1011 74 0 1.48 237.279 14:58 27.09.2019
1216 Clouds -1 1011 74 0 1.48 237.279 14:40 27.09.2019
1217 Clouds -1 1011 74 0 1.48 237.279 14:21 27.09.2019
1218 Clouds -1 1011 74 0 1.48 237.279 13:57 27.09.2019
1219 Clouds -1 1011 74 0 1.48 237.279 13:39 27.09.2019
1220 Clouds -1 1011 81 0 1.78 226.093 13:21 27.09.2019
1221 Clouds -1 1011 81 0 1.78 226.093 12:54 27.09.2019
1222 Clouds 1 1009 86 0 1.59 168.846 12:23 27.09.2019
1223 Clouds 1 1009 86 0 1.59 168.846 11:58 27.09.2019
1224 Clouds 1 1009 86 0 1.59 168.846 11:38 27.09.2019
1225 Clouds 1 1009 86 0 1.59 168.846 11:19 27.09.2019
1226 Clouds 1 1009 86 0 1.59 168.846 11:19 27.09.2019
1227 Clouds 1 1009 86 0 1.59 168.846 10:43 27.09.2019
1228 Clouds 1 1009 86 0 1.59 168.846 10:22 27.09.2019
1229 Clouds 1 1009 86 0 1.59 168.846 09:58 27.09.2019
1230 Clouds 1 1009 86 0 1.59 168.846 09:39 27.09.2019
1231 Clouds 3 1007 79 0 1.14 47.852 09:19 27.09.2019
1232 Clouds 3 1007 79 0 1.14 47.852 08:41 27.09.2019
1233 Clouds 4 1008 62 0 1.04 281.755 08:21 27.09.2019
1234 Clouds 4 1008 62 0 1.04 281.755 07:55 27.09.2019
1235 Clouds 4 1008 62 0 1.04 281.755 07:37 27.09.2019
1236 Clouds 4 1008 62 0 1.04 281.755 07:18 27.09.2019
1237 Clouds 4 1008 62 0 1.04 281.755 06:40 27.09.2019
1238 Clouds 5 1006 62 0 3.76 323.881 06:21 27.09.2019
1239 Clouds 5 1006 62 0 3.76 323.881 05:45 27.09.2019
1240 Clouds 5 1006 62 0 3.76 323.881 05:26 27.09.2019
1241 Clouds 5 1006 62 0 3.76 323.881 03:39 27.09.2019
1242 Clouds 2 1004 75 0 2.09 293.346 01:56 27.09.2019
1243 Clouds 2 1004 76 0 1.92 279.831 01:32 27.09.2019
1244 Clouds 2 1004 76 0 1.92 279.831 00:44 27.09.2019
1245 Clouds 1 1003 93 0 1.81 300.666 23:58 26.09.2019
1246 Clouds 1 1003 93 0 1.81 300.666 23:40 26.09.2019
1247 Clouds 1 1003 93 0 1.81 300.666 23:20 26.09.2019
1248 Clouds 1 1003 93 0 1.81 300.666 22:58 26.09.2019
1249 Clouds 1 1003 93 0 1.81 300.666 22:40 26.09.2019
1250 Clouds 1 1003 93 0 1.81 300.666 22:19 26.09.2019
1251 Clouds 1 1003 93 0 1.81 300.666 21:59 26.09.2019
1252 Clouds 1 1003 93 0 1.81 300.666 21:38 26.09.2019
1253 Clouds 1 1003 93 0 1.81 300.666 21:38 26.09.2019
1254 Clouds 0 1002 94 0 0.79 217.392 21:20 26.09.2019
1255 Clouds 1 1001 97 0 0.89 148.693 20:59 26.09.2019
1256 Clouds 1 1001 97 0 0.89 148.693 20:59 26.09.2019
1257 Clouds 1 1001 97 0 0.89 148.693 20:40 26.09.2019
1258 Clouds 1 1001 97 0 0.89 148.693 20:21 26.09.2019
1259 Clouds 1 1001 97 0 0.89 148.693 19:59 26.09.2019
1260 Clouds 1 1001 97 0 0.89 148.693 19:40 26.09.2019
1261 Clouds 1 1001 97 0 0.89 148.693 19:18 26.09.2019
1262 Clouds 1 1001 97 0 0.89 148.693 18:57 26.09.2019
1263 Clouds 1 1001 97 0 0.89 148.693 18:37 26.09.2019
1264 Rain 3 1002 96 0 2.04 141.151 18:18 26.09.2019
1265 Rain 3 1002 96 0 2.04 141.151 17:38 26.09.2019
1266 Rain 3 1002 96 0 2.04 141.151 17:38 26.09.2019
1267 Rain 3 1002 96 0 2.04 141.151 17:19 26.09.2019
1268 Rain 3 1002 96 0 2.04 141.151 16:58 26.09.2019
1269 Rain 3 1002 96 0 2.04 141.151 16:39 26.09.2019
1270 Rain 3 1002 96 0 2.04 141.151 16:20 26.09.2019
1271 Rain 3 1002 96 0 2.04 141.151 15:56 26.09.2019
1272 Rain 3 1002 96 0 2.04 141.151 15:37 26.09.2019
1273 Rain 3 1004 90 0 2.1 141.225 15:18 26.09.2019
1274 Rain 3 1004 90 0 2.1 141.225 14:41 26.09.2019
1275 Rain 3 1004 90 0 2.1 141.225 14:23 26.09.2019
1276 Rain 3 1004 90 0 2.1 141.225 13:58 26.09.2019
1277 Rain 3 1004 90 0 2.1 141.225 13:58 26.09.2019
1278 Rain 3 1004 90 0 2.1 141.225 13:40 26.09.2019
1279 Rain 2 1004 95 0 2.51 128.848 13:19 26.09.2019
1280 Rain 2 1004 95 0 2.51 128.848 12:56 26.09.2019
1281 Rain 2 1004 95 0 2.51 128.848 12:38 26.09.2019
1282 Clouds 3 1005 59 0 1.63 156.123 12:19 26.09.2019
1283 Clouds 3 1005 59 0 1.63 156.123 11:42 26.09.2019
1284 Clouds 3 1005 59 0 1.63 156.123 11:21 26.09.2019
1285 Clouds 3 1005 59 0 1.63 156.123 10:55 26.09.2019
1286 Clouds 3 1005 59 0 1.63 156.123 10:37 26.09.2019
1287 Clouds 3 1005 59 0 1.63 156.123 10:19 26.09.2019
1288 Clouds 3 1005 59 0 1.63 156.123 10:19 26.09.2019
1289 Clouds 3 1005 59 0 1.63 156.123 09:43 26.09.2019
1290 Clouds 3 1005 59 0 1.63 156.123 09:25 26.09.2019
1291 Clouds 6 1007 50 0 3.61 166.475 08:56 26.09.2019
1292 Clouds 5 1006 50 0 3.69 152.817 08:38 26.09.2019
1293 Clouds 5 1006 50 0 3.69 152.817 08:19 26.09.2019
1294 Clouds 5 1006 50 0 3.69 152.817 07:41 26.09.2019
1295 Clouds 5 1006 50 0 3.69 152.817 07:20 26.09.2019
1296 Clouds 5 1006 50 0 3.69 152.817 06:43 26.09.2019
1297 Clouds 5 1006 50 0 3.69 152.817 06:43 26.09.2019
1298 -273 0 0 0 0 0 06:24 26.09.2019
1299 Clouds 4 1009 59 0 3.7 161.051 05:44 26.09.2019
1300 Clouds 4 1009 59 0 3.7 161.051 05:24 26.09.2019
1301 Clouds 1 1010 81 0 1.88 132.235 02:50 26.09.2019
1302 Clouds 1 1010 81 0 1.88 132.235 01:53 26.09.2019
1303 Clouds 1 1010 81 0 1.79 119.602 01:28 26.09.2019
1304 Clouds 1 1010 81 0 1.79 119.602 00:55 26.09.2019
1305 Clouds 1 1010 81 0 1.79 119.602 00:55 26.09.2019
1306 Clouds 1 1010 81 0 1.79 119.602 00:37 26.09.2019
1307 Clouds -1 1011 95 0 1.44 116.369 23:57 25.09.2019
1308 Clouds -1 1011 95 0 1.44 116.369 23:38 25.09.2019
1309 Clouds -1 1011 95 0 1.44 116.369 23:18 25.09.2019
1310 Clouds -1 1011 95 0 1.44 116.369 22:41 25.09.2019
1311 Clouds -1 1011 95 0 1.44 116.369 22:20 25.09.2019
1312 Clouds -1 1011 95 0 1.44 116.369 21:57 25.09.2019
1313 Clouds -1 1011 95 0 1.44 116.369 21:39 25.09.2019
1314 Clouds 0 1011 97 0 1.8 131.838 21:19 25.09.2019
1315 Clouds 0 1011 97 0 1.8 131.838 20:58 25.09.2019
1316 Clouds -1 1012 98 0 1.54 130.034 20:39 25.09.2019
1317 Clouds -1 1012 98 0 1.54 130.034 20:21 25.09.2019
1318 Clouds -1 1012 98 0 1.54 130.034 19:54 25.09.2019
1319 Clouds -1 1012 98 0 1.54 130.034 19:36 25.09.2019
1320 Clouds -1 1012 98 0 1.54 130.034 19:18 25.09.2019
1321 Clouds -1 1012 98 0 1.54 130.034 18:54 25.09.2019
1322 Clouds -1 1012 98 0 1.54 130.034 18:36 25.09.2019
1323 Clouds 1 1012 81 0 1.4 159.799 18:18 25.09.2019
1324 Clouds 1 1012 81 0 1.4 159.799 17:38 25.09.2019
1325 Clouds 1 1012 81 0 1.4 159.799 17:19 25.09.2019
1326 Clouds 1 1012 81 0 1.4 159.799 16:46 25.09.2019
1327 Clouds 1 1012 81 0 1.4 159.799 16:27 25.09.2019
1328 Clouds 1 1012 81 0 1.4 159.799 15:59 25.09.2019
1329 Clouds 1 1012 81 0 1.4 159.799 15:41 25.09.2019
1330 Clouds 2 1013 73 0 1.37 128.614 15:23 25.09.2019
1331 Clouds 2 1013 73 0 1.37 128.614 14:57 25.09.2019
1332 Clouds 2 1013 73 0 1.37 128.614 14:39 25.09.2019
1333 Clouds 2 1013 73 0 1.37 128.614 14:39 25.09.2019
1334 Clouds 2 1013 73 0 1.37 128.614 14:21 25.09.2019
1335 Clouds 2 1013 73 0 1.37 128.614 13:41 25.09.2019
1336 Clouds 2 1013 73 0 1.37 128.614 13:41 25.09.2019
1337 Clouds 1 1012 73 0 1.03 134.921 13:23 25.09.2019
1338 Clouds 1 1012 73 0 1.03 134.921 12:59 25.09.2019
1339 Clouds 1 1012 73 0 1.03 134.921 12:39 25.09.2019
1340 Clouds 2 1012 74 0 1.35 127.688 12:21 25.09.2019
1341 Clouds 2 1012 74 0 1.35 127.688 11:55 25.09.2019
1342 Clouds 2 1012 74 0 1.35 127.688 11:55 25.09.2019
1343 Clouds 2 1012 74 0 1.35 127.688 11:36 25.09.2019
1344 Clouds 2 1012 74 0 1.35 127.688 11:18 25.09.2019
1345 Clouds 2 1012 74 0 1.35 127.688 10:43 25.09.2019
1346 Clouds 2 1012 74 0 1.35 127.688 10:24 25.09.2019
1347 Clouds 2 1012 74 0 1.35 127.688 09:57 25.09.2019
1348 Clouds 2 1012 74 0 1.35 127.688 09:37 25.09.2019
1349 Clouds 3 1012 70 0 1.68 132.294 09:19 25.09.2019
1350 Clouds 2 1012 69 0 1.57 144.411 08:44 25.09.2019
1351 Clouds 2 1012 69 0 1.57 144.411 08:21 25.09.2019
1352 Clouds 2 1012 69 0 1.57 144.411 07:57 25.09.2019
1353 Clouds 2 1012 69 0 1.57 144.411 07:38 25.09.2019
1354 Clouds 2 1012 69 0 1.57 144.411 07:20 25.09.2019
1355 Clouds 2 1012 69 0 1.57 144.411 06:43 25.09.2019
1356 Clouds 2 1013 73 0 1.37 130.788 06:22 25.09.2019
1357 Clouds 2 1013 73 0 1.37 130.788 05:31 25.09.2019
1358 Clouds 2 1013 73 0 1.37 130.788 04:55 25.09.2019
1359 Clouds 1 1014 82 0 0.61 132.394 02:31 25.09.2019
1360 Clouds 1 1014 84 0 0.47 158.718 00:46 25.09.2019
1361 Clouds 1 1014 84 0 0.47 158.718 00:27 25.09.2019
1362 Clouds -3 1015 95 0 0.69 95.194 23:59 24.09.2019
1363 Clouds -3 1015 95 0 0.69 95.194 23:40 24.09.2019
1364 Clouds -3 1015 95 0 0.69 95.194 23:21 24.09.2019
1365 Clouds -3 1015 95 0 0.69 95.194 22:39 24.09.2019
1366 Clouds -3 1015 95 0 0.69 95.194 22:21 24.09.2019
1367 Clouds -3 1015 94 0 0.54 93.536 21:58 24.09.2019
1368 Clouds -3 1015 94 0 0.54 93.536 21:58 24.09.2019
1369 Clouds -3 1015 94 0 0.54 93.536 21:58 24.09.2019
1370 Clouds -3 1015 94 0 0.54 93.536 21:38 24.09.2019
1371 Clouds -3 1016 93 0 0.37 305.082 21:19 24.09.2019
1372 Clouds -3 1016 93 0 0.37 305.082 20:59 24.09.2019
1373 Clouds -3 1016 93 0 0.37 305.082 20:41 24.09.2019
1374 Clouds -3 1016 93 0 0.37 305.082 20:22 24.09.2019
1375 Clouds -3 1016 93 0 0.37 305.082 19:59 24.09.2019
1376 Clouds -3 1016 93 0 0.37 305.082 19:41 24.09.2019
1377 Clouds -3 1016 93 0 0.37 305.082 19:19 24.09.2019
1378 Clouds -3 1016 93 0 0.37 305.082 18:55 24.09.2019
1379 Clouds -3 1016 93 0 0.37 305.082 18:55 24.09.2019
1380 Clouds -3 1016 93 0 0.37 305.082 18:55 24.09.2019
1381 Clouds -3 1016 93 0 0.37 305.082 18:37 24.09.2019
1382 Clouds -2 1016 92 0 0.56 7.453 18:19 24.09.2019
1383 Clouds -2 1016 92 0 0.56 7.453 17:55 24.09.2019
1384 Clouds -2 1016 92 0 0.56 7.453 17:37 24.09.2019
1385 Clouds -2 1016 92 0 0.56 7.453 17:18 24.09.2019
1386 Clouds -2 1016 92 0 0.56 7.453 16:41 24.09.2019
1387 Clouds -2 1016 92 0 0.56 7.453 16:20 24.09.2019
1388 Clouds -2 1016 92 0 0.56 7.453 15:57 24.09.2019
1389 Clouds -2 1016 92 0 0.56 7.453 15:38 24.09.2019
1390 Clouds -1 1017 89 0 1 31.884 15:19 24.09.2019
1391 Clouds -1 1017 89 0 1 31.884 14:37 24.09.2019
1392 Clouds -1 1017 89 0 1 31.884 14:18 24.09.2019
1393 Clouds -1 1017 89 0 1 31.884 13:41 24.09.2019
1394 Clouds 0 1017 88 0 0.36 36.357 13:21 24.09.2019
1395 Clouds 0 1017 88 0 0.36 36.357 12:42 24.09.2019
1396 Clouds 2 1017 81 0 2.58 28.793 12:22 24.09.2019
1397 Clouds 2 1017 81 0 2.58 28.793 11:58 24.09.2019
1398 Clouds 2 1017 81 0 2.58 28.793 11:40 24.09.2019
1399 Clouds 2 1017 81 0 2.58 28.793 11:21 24.09.2019
1400 Clouds 2 1017 81 0 2.58 28.793 10:42 24.09.2019
1401 Clouds 2 1017 81 0 2.58 28.793 10:22 24.09.2019
1402 Clouds 2 1017 81 0 2.58 28.793 09:59 24.09.2019
1403 Clouds 2 1017 81 0 2.58 28.793 09:41 24.09.2019
1404 Rain 6 1016 59 0 3.51 13.055 09:20 24.09.2019
1405 Rain 6 1016 59 0 3.51 13.055 08:56 24.09.2019
1406 Clouds 5 1016 54 0 2.9 357.031 08:38 24.09.2019
1407 Clouds 5 1016 54 0 2.9 357.031 08:19 24.09.2019
1408 Clouds 5 1016 54 0 2.9 357.031 07:46 24.09.2019
1409 Clouds 5 1016 54 0 2.9 357.031 07:24 24.09.2019
1410 Clouds 5 1016 54 0 2.9 357.031 06:48 24.09.2019
1411 Clouds 5 1016 54 0 2.9 357.031 06:30 24.09.2019
1412 Clouds 5 1017 55 0 3.88 332.437 05:51 24.09.2019
1413 Clouds 5 1017 55 0 3.88 332.437 05:18 24.09.2019
1414 Clouds 5 1017 55 0 3.88 332.437 03:44 24.09.2019
1415 Clouds 4 1018 62 0 1.9 335.454 02:48 24.09.2019
1416 Clouds 4 1018 62 0 1.9 335.454 02:30 24.09.2019
1417 Clouds 4 1018 64 0 1.33 317.907 00:44 24.09.2019
1418 Clouds 4 1018 64 0 1.33 317.907 00:26 24.09.2019
1419 Clouds -2 1017 83 0 0.78 344.539 23:58 23.09.2019
1420 Clouds -2 1017 83 0 0.78 344.539 23:40 23.09.2019
1421 Clouds -2 1017 83 0 0.78 344.539 23:20 23.09.2019
1422 Clouds -2 1017 83 0 0.78 344.539 22:39 23.09.2019
1423 Clouds -2 1017 83 0 0.78 344.539 22:21 23.09.2019
1424 Clouds -2 1017 83 0 0.78 344.539 21:58 23.09.2019
1425 Clouds -2 1017 83 0 0.78 344.539 21:40 23.09.2019
1426 Clouds 0 1015 82 0 0.94 343.371 21:19 23.09.2019
1427 Clouds 0 1015 82 0 0.94 343.371 20:55 23.09.2019
1428 Clouds -1 1015 83 0 0.81 329.902 20:36 23.09.2019
1429 Clouds -1 1015 83 0 0.81 329.902 20:18 23.09.2019
1430 Clouds -1 1015 83 0 0.81 329.902 20:18 23.09.2019
1431 Clouds -1 1015 83 0 0.81 329.902 19:39 23.09.2019
1432 Clouds -1 1015 83 0 0.81 329.902 19:21 23.09.2019
1433 Clouds -1 1015 83 0 0.81 329.902 18:57 23.09.2019
1434 Clouds -1 1015 83 0 0.81 329.902 18:38 23.09.2019
1435 Clouds 0 1014 83 0 1.05 337.068 18:18 23.09.2019
1436 Clouds 0 1014 83 0 1.05 337.068 17:56 23.09.2019
1437 Clouds 0 1014 83 0 1.05 337.068 17:37 23.09.2019
1438 Clouds 0 1014 83 0 1.05 337.068 17:18 23.09.2019
1439 Clouds 0 1014 83 0 1.05 337.068 16:40 23.09.2019
1440 Clouds 0 1014 83 0 1.05 337.068 16:22 23.09.2019
1441 Clouds 0 1014 83 0 1.05 337.068 15:59 23.09.2019
1442 Clouds 0 1014 83 0 1.05 337.068 15:41 23.09.2019
1443 Clouds 1 1012 77 0 1.28 15.44 15:20 23.09.2019
1444 Clouds 1 1012 77 0 1.28 15.44 15:20 23.09.2019
1445 Clouds 1 1012 77 0 1.28 15.44 14:59 23.09.2019
1446 Clouds 1 1012 77 0 1.28 15.44 14:39 23.09.2019
1447 Clouds 1 1012 77 0 1.28 15.44 14:19 23.09.2019
1448 Clouds 1 1012 77 0 1.28 15.44 13:58 23.09.2019
1449 Clouds 1 1012 77 0 1.28 15.44 13:37 23.09.2019
1450 Clouds 1 1013 83 0 2.47 358.513 13:18 23.09.2019
1451 Clouds 1 1013 83 0 2.47 358.513 12:41 23.09.2019
1452 Clouds 3 1010 69 0 1.68 23.047 12:21 23.09.2019
1453 Clouds 3 1010 69 0 1.68 23.047 11:55 23.09.2019
1454 Clouds 3 1010 69 0 1.68 23.047 11:37 23.09.2019
1455 Clouds 3 1010 69 0 1.68 23.047 11:19 23.09.2019
1456 Clouds 3 1010 69 0 1.68 23.047 10:48 23.09.2019
1457 Clouds 3 1010 69 0 1.68 23.047 10:21 23.09.2019
1458 Clouds 3 1010 69 0 1.68 23.047 09:55 23.09.2019
1459 Clouds 3 1010 69 0 1.68 23.047 09:37 23.09.2019
1460 Clouds 6 1008 55 0 1.35 26.223 09:19 23.09.2019
1461 Clouds 6 1008 55 0 1.35 26.223 08:42 23.09.2019
1462 Clouds 6 1008 53 0 0.67 21.627 08:22 23.09.2019
1463 Clouds 6 1008 53 0 0.67 21.627 07:47 23.09.2019
1464 Clouds 6 1008 53 0 0.67 21.627 07:24 23.09.2019
1465 Clouds 4 1008 58 0 0.4 219.129 06:21 23.09.2019
1466 Clouds 4 1008 58 0 0.4 219.129 05:46 23.09.2019
1467 Clouds 4 1008 58 0 0.4 219.129 05:18 23.09.2019
1468 Clouds 4 1008 58 0 0.4 219.129 04:52 23.09.2019
1469 Clouds 2 1007 69 0 1.25 154.135 01:29 23.09.2019
1470 Clouds 2 1007 69 0 1.25 154.135 00:40 23.09.2019
1471 Clouds -3 1007 89 0 1.51 181.904 00:21 23.09.2019
1472 Clouds -3 1007 89 0 1.51 181.904 23:46 22.09.2019
1473 Clouds -3 1007 89 0 1.51 181.904 23:27 22.09.2019
1474 Clouds -3 1007 89 0 1.51 181.904 22:57 22.09.2019
1475 Clouds -3 1007 89 0 1.51 181.904 22:38 22.09.2019
1476 Clouds -3 1007 89 0 1.51 181.904 22:38 22.09.2019
1477 Clouds -3 1007 89 0 1.51 181.904 22:20 22.09.2019
1478 Clouds -3 1007 89 0 1.51 181.904 21:43 22.09.2019
1479 Clouds -2 1005 91 0 1.63 171.126 21:22 22.09.2019
1480 Clouds -2 1005 91 0 1.63 171.126 20:55 22.09.2019
1481 Clouds -2 1005 90 0 1.65 166.511 20:36 22.09.2019
1482 Clouds -2 1005 90 0 1.65 166.511 20:18 22.09.2019
1483 Clouds -2 1005 90 0 1.65 166.511 19:41 22.09.2019
1484 Clouds -2 1005 90 0 1.65 166.511 19:22 22.09.2019
1485 Clouds -2 1005 90 0 1.65 166.511 18:59 22.09.2019
1486 Clouds -2 1005 90 0 1.65 166.511 18:39 22.09.2019
1487 Clouds -2 1005 92 0 1.99 186.238 18:20 22.09.2019
1488 Clouds -2 1005 92 0 1.99 186.238 17:58 22.09.2019
1489 Clouds -2 1005 92 0 1.99 186.238 17:40 22.09.2019
1490 Clouds -2 1005 92 0 1.99 186.238 17:19 22.09.2019
1491 Clouds -2 1005 92 0 1.99 186.238 16:44 22.09.2019
1492 Clouds -2 1005 92 0 1.99 186.238 16:26 22.09.2019
1493 Clouds -2 1005 92 0 1.99 186.238 15:56 22.09.2019
1494 Clouds -2 1005 92 0 1.99 186.238 15:37 22.09.2019
1495 Clouds -1 1005 92 0 2.05 167.556 15:19 22.09.2019
1496 Clouds -1 1005 92 0 2.05 167.556 14:43 22.09.2019
1497 Clouds -1 1005 92 0 2.05 167.556 14:25 22.09.2019
1498 Clouds -1 1005 92 0 2.05 167.556 13:57 22.09.2019
1499 Clouds -1 1005 92 0 2.05 167.556 13:39 22.09.2019
1500 Clouds 0 1005 92 0 2.47 173.88 13:21 22.09.2019
1501 Clouds 0 1005 92 0 2.47 173.88 12:44 22.09.2019
1502 Clouds 2 1004 84 0 2.87 176.289 12:24 22.09.2019
1503 Clouds 2 1004 84 0 2.87 176.289 11:57 22.09.2019
1504 Clouds 2 1004 84 0 2.87 176.289 11:38 22.09.2019
1505 Clouds 2 1004 84 0 2.87 176.289 11:20 22.09.2019
1506 Clouds 2 1004 84 0 2.87 176.289 10:44 22.09.2019
1507 Clouds 2 1004 84 0 2.87 176.289 10:20 22.09.2019
1508 Clouds 2 1004 84 0 2.87 176.289 09:58 22.09.2019
1509 Clouds 2 1004 84 0 2.87 176.289 09:39 22.09.2019
1510 Clouds 4 1003 56 0 6.46 211.609 09:19 22.09.2019
1511 Clouds 4 1003 52 0 5.85 215.796 08:45 22.09.2019
1512 Clouds 4 1003 52 0 5.85 215.796 08:25 22.09.2019
1513 Clouds 4 1003 52 0 5.85 215.796 07:56 22.09.2019
1514 Clouds 4 1003 52 0 5.85 215.796 07:37 22.09.2019
1515 Clouds 4 1003 52 0 5.85 215.796 07:18 22.09.2019
1516 Clouds 4 1003 52 0 5.85 215.796 06:54 22.09.2019
1517 Clouds 4 1005 47 0 6.71 188.851 05:36 22.09.2019
1518 Clouds 4 1005 47 0 6.71 188.851 03:48 22.09.2019
1519 Clouds 3 1006 53 0 2.56 154.864 02:38 22.09.2019
1520 Clouds 3 1006 53 0 2.56 154.864 02:19 22.09.2019
1521 Clouds 3 1006 54 0 2.69 158.428 01:20 22.09.2019
1522 Clouds 3 1006 54 0 2.69 158.428 00:33 22.09.2019
1523 Clouds -2 1008 73 0 2.03 121.336 23:59 21.09.2019
1524 Clouds -2 1008 73 0 2.03 121.336 23:40 21.09.2019
1525 Clouds -2 1008 73 0 2.03 121.336 23:19 21.09.2019
1526 Clouds -2 1008 73 0 2.03 121.336 22:39 21.09.2019
1527 Clouds -2 1008 73 0 2.03 121.336 22:21 21.09.2019
1528 Clouds -2 1008 73 0 2.03 121.336 21:55 21.09.2019
1529 Clouds -2 1008 73 0 2.03 121.336 21:55 21.09.2019
1530 Clouds -2 1008 73 0 2.03 121.336 21:36 21.09.2019
1531 Clear -1 1009 74 0 1.92 133.118 21:18 21.09.2019
1532 Clear -1 1010 72 0 1.88 129.251 20:39 21.09.2019
1533 Clear -1 1010 72 0 1.88 129.251 20:21 21.09.2019
1534 Clear -1 1010 72 0 1.88 129.251 19:47 21.09.2019
1535 Clear -1 1010 72 0 1.88 129.251 19:23 21.09.2019
1536 Clear -1 1010 72 0 1.88 129.251 18:55 21.09.2019
1537 Clear -1 1010 72 0 1.88 129.251 18:37 21.09.2019
1538 Clear 0 1011 70 0 2.31 156.149 18:18 21.09.2019
1539 Clear 0 1011 70 0 2.31 156.149 17:40 21.09.2019
1540 Clear 0 1011 70 0 2.31 156.149 17:21 21.09.2019
1541 Clear 0 1011 70 0 2.31 156.149 16:44 21.09.2019
1542 Clear 0 1011 70 0 2.31 156.149 16:24 21.09.2019
1543 Clear 0 1011 70 0 2.31 156.149 16:24 21.09.2019
1544 Clear 0 1011 70 0 2.31 156.149 15:56 21.09.2019
1545 Clear 0 1011 70 0 2.31 156.149 15:38 21.09.2019
1546 Clouds 1 1012 71 0 1.75 142.411 15:19 21.09.2019
1547 Clouds 1 1012 71 0 1.75 142.411 14:44 21.09.2019
1548 Clouds 1 1012 71 0 1.75 142.411 14:26 21.09.2019
1549 Clouds 1 1012 71 0 1.75 142.411 13:43 21.09.2019
1550 Clouds 1 1012 72 0 1.63 138.784 13:23 21.09.2019
1551 Clouds 1 1012 72 0 1.63 138.784 12:57 21.09.2019
1552 Clouds 1 1012 72 0 1.63 138.784 12:39 21.09.2019
1553 Clouds 2 1012 68 0 1.17 176.907 12:20 21.09.2019
1554 Clouds 2 1012 68 0 1.17 176.907 11:51 21.09.2019
1555 Clouds 2 1012 68 0 1.17 176.907 11:26 21.09.2019
1556 Clouds 2 1012 68 0 1.17 176.907 10:57 21.09.2019
1557 Clouds 2 1012 68 0 1.17 176.907 10:38 21.09.2019
1558 Clouds 2 1012 68 0 1.17 176.907 10:20 21.09.2019
1559 Clouds 2 1012 68 0 1.17 176.907 09:55 21.09.2019
1560 Clouds 2 1012 68 0 1.17 176.907 09:37 21.09.2019
1561 Clouds 6 1011 57 0 1.81 200.674 09:19 21.09.2019
1562 Clouds 6 1011 57 0 1.81 200.674 08:45 21.09.2019
1563 Clouds 6 1011 59 0 2.04 190.832 07:59 21.09.2019
1564 Clouds 6 1011 59 0 2.04 190.832 07:40 21.09.2019
1565 Clouds 6 1011 59 0 2.04 190.832 07:20 21.09.2019
1566 Clouds 6 1011 59 0 2.04 190.832 06:36 21.09.2019
1567 Rain 4 1012 84 0 2.26 196.549 05:51 21.09.2019
1568 Rain 4 1012 84 0 2.26 196.549 04:40 21.09.2019
1569 Rain 4 1012 84 0 2.26 196.549 03:35 21.09.2019
1570 Rain 4 1012 89 0 1.21 198.853 02:25 21.09.2019
1571 Rain 4 1012 89 0 1.21 198.853 01:49 21.09.2019
1572 Rain 4 1012 89 0 1.21 198.853 01:25 21.09.2019
1573 Rain 4 1012 89 0 1.21 198.853 00:26 21.09.2019
1574 Rain 4 1012 84 0 0.6 83.639 23:57 20.09.2019
1575 Rain 4 1012 84 0 0.6 83.639 23:30 20.09.2019
1576 Rain 4 1012 84 0 0.6 83.639 22:56 20.09.2019
1577 Rain 4 1012 84 0 0.6 83.639 22:38 20.09.2019
1578 Rain 4 1012 84 0 0.6 83.639 22:20 20.09.2019
1579 Rain 4 1012 84 0 0.6 83.639 21:55 20.09.2019
1580 Rain 4 1012 84 0 0.6 83.639 21:37 20.09.2019
1581 Clouds 4 1012 83 0 1.38 11.944 21:18 20.09.2019
1582 Clouds 3 1012 83 0 1.27 340.361 20:41 20.09.2019
1583 Clouds 3 1012 83 0 1.27 340.361 20:21 20.09.2019
1584 Clouds 3 1012 83 0 1.27 340.361 19:57 20.09.2019
1585 Clouds 3 1012 83 0 1.27 340.361 19:38 20.09.2019
1586 Clouds 3 1012 83 0 1.27 340.361 19:20 20.09.2019
1587 Clouds 3 1012 83 0 1.27 340.361 18:40 20.09.2019
1588 Clouds 3 1012 84 0 1 319.175 18:20 20.09.2019
1589 Clouds 3 1012 84 0 1 319.175 17:58 20.09.2019
1590 Clouds 3 1012 84 0 1 319.175 17:39 20.09.2019
1591 Clouds 3 1012 84 0 1 319.175 17:39 20.09.2019
1592 Clouds 3 1012 84 0 1 319.175 17:21 20.09.2019
1593 Clouds 3 1012 84 0 1 319.175 16:41 20.09.2019
1594 Clouds 3 1012 84 0 1 319.175 16:19 20.09.2019
1595 Clouds 3 1012 84 0 1 319.175 15:43 20.09.2019
1596 Clouds 4 1013 74 0 1.33 347.163 15:24 20.09.2019
1597 Clouds 4 1013 74 0 1.33 347.163 15:24 20.09.2019
1598 Clouds 4 1013 74 0 1.33 347.163 14:59 20.09.2019
1599 Clouds 4 1013 74 0 1.33 347.163 14:41 20.09.2019
1600 Clouds 4 1013 74 0 1.33 347.163 14:41 20.09.2019
1601 Clouds 4 1013 74 0 1.33 347.163 14:18 20.09.2019
1602 Clouds 4 1013 74 0 1.33 347.163 13:47 20.09.2019
1603 Clouds 4 1013 70 0 1.19 314.014 13:28 20.09.2019
1604 Clouds 4 1013 70 0 1.19 314.014 12:57 20.09.2019
1605 Clouds 4 1013 70 0 1.19 314.014 12:37 20.09.2019
1606 Clouds 6 1012 60 0 1.59 296.581 12:18 20.09.2019
1607 Clouds 6 1012 60 0 1.59 296.581 11:48 20.09.2019
1608 Clouds 6 1012 60 0 1.59 296.581 11:21 20.09.2019
1609 Clouds 6 1012 60 0 1.59 296.581 11:21 20.09.2019
1610 Clouds 6 1012 60 0 1.59 296.581 10:43 20.09.2019
1611 Clouds 6 1012 60 0 1.59 296.581 10:43 20.09.2019
1612 Clouds 6 1012 60 0 1.59 296.581 10:24 20.09.2019
1613 Clouds 6 1012 60 0 1.59 296.581 09:59 20.09.2019
1614 Clouds 6 1012 60 0 1.59 296.581 09:37 20.09.2019
1615 Clouds 8 1013 52 0 0.94 88.351 09:18 20.09.2019
1616 Clouds 8 1013 52 0 0.94 88.351 08:42 20.09.2019
1617 Clouds 8 1013 52 0 0.94 88.351 08:23 20.09.2019
1618 Clouds 8 1013 52 0 0.94 88.351 07:47 20.09.2019
1619 Clouds 7 1013 56 0 0.42 75.564 07:28 20.09.2019
1620 Clouds 7 1013 56 0 0.42 75.564 06:45 20.09.2019
1621 Clouds 7 1013 56 0 0.42 75.564 06:45 20.09.2019
1622 Clouds 7 1013 56 0 0.42 75.564 06:25 20.09.2019
1623 Clouds 7 1014 53 0 1.85 75.341 05:50 20.09.2019
1624 Clouds 7 1014 53 0 1.85 75.341 03:46 20.09.2019
1625 Clouds 4 1015 56 0 1.75 31.706 03:21 20.09.2019
1626 Clouds 4 1015 56 0 1.75 31.706 01:45 20.09.2019
1627 Clouds 4 1015 56 0 1.75 31.706 01:45 20.09.2019
1628 Clouds 4 1015 58 0 1.88 25.622 01:24 20.09.2019
1629 Clouds 4 1015 58 0 1.88 25.622 00:31 20.09.2019
1630 Clear -1 1016 77 0 1.55 35.705 23:46 19.09.2019
1631 Clear -1 1016 77 0 1.55 35.705 23:24 19.09.2019
1632 Clear -1 1016 77 0 1.55 35.705 22:57 19.09.2019
1633 Clear -1 1016 77 0 1.55 35.705 22:38 19.09.2019
1634 Clear -1 1016 77 0 1.55 35.705 22:19 19.09.2019
1635 Clear -1 1016 77 0 1.55 35.705 21:56 19.09.2019
1636 Clear -1 1016 77 0 1.55 35.705 21:37 19.09.2019
1637 Clear -1 1015 69 0 1.49 41.114 21:18 19.09.2019
1638 Clear -1 1015 69 0 1.49 41.114 20:43 19.09.2019
1639 Clear -1 1016 69 0 1.58 40.779 20:23 19.09.2019
1640 Clear -1 1016 69 0 1.58 40.779 19:57 19.09.2019
1641 Clear -1 1016 69 0 1.58 40.779 19:38 19.09.2019
1642 Clear -1 1016 69 0 1.58 40.779 19:19 19.09.2019
1643 Clear -1 1016 69 0 1.58 40.779 18:55 19.09.2019
1644 Clear -1 1016 69 0 1.58 40.779 18:37 19.09.2019
1645 Clear 1 1016 54 0 1.52 62.454 18:18 19.09.2019
1646 Clear 1 1016 54 0 1.52 62.454 17:42 19.09.2019
1647 Clear 1 1016 54 0 1.52 62.454 17:23 19.09.2019
1648 Clear 1 1016 54 0 1.52 62.454 16:58 19.09.2019
1649 Clear 1 1016 54 0 1.52 62.454 16:39 19.09.2019
1650 Clear 1 1016 54 0 1.52 62.454 16:18 19.09.2019
1651 Clear 1 1016 54 0 1.52 62.454 15:39 19.09.2019
1652 Clouds 2 1015 53 0 1.37 68.758 15:19 19.09.2019
1653 Clouds 2 1015 53 0 1.37 68.758 14:42 19.09.2019
1654 Clouds 2 1015 53 0 1.37 68.758 14:24 19.09.2019
1655 Clouds 2 1015 53 0 1.37 68.758 13:59 19.09.2019
1656 Clouds 2 1015 53 0 1.37 68.758 13:40 19.09.2019
1657 Clear 2 1016 52 0 1.64 61.03 13:20 19.09.2019
1658 Clear 2 1016 52 0 1.64 61.03 12:40 19.09.2019
1659 Clear 4 1015 54 0 0.23 127.509 12:20 19.09.2019
1660 Clear 4 1015 54 0 0.23 127.509 11:58 19.09.2019
1661 Clear 4 1015 54 0 0.23 127.509 11:39 19.09.2019
1662 Clear 4 1015 54 0 0.23 127.509 11:21 19.09.2019
1663 Clear 4 1015 54 0 0.23 127.509 10:56 19.09.2019
1664 Clear 4 1015 54 0 0.23 127.509 10:56 19.09.2019
1665 Clear 4 1015 54 0 0.23 127.509 10:36 19.09.2019
1666 Clear 4 1015 54 0 0.23 127.509 10:18 19.09.2019
1667 Clear 4 1015 54 0 0.23 127.509 09:42 19.09.2019
1668 Clouds 8 1013 41 0 5.35 168.325 09:22 19.09.2019
1669 Clouds 8 1013 41 0 5.35 168.325 08:56 19.09.2019
1670 Clouds 8 1013 41 0 5.35 168.325 08:56 19.09.2019
1671 Clouds 8 1013 40 0 5.82 163.492 08:29 19.09.2019
1672 Clouds 8 1013 40 0 5.82 163.492 07:58 19.09.2019
1673 Clouds 8 1013 40 0 5.82 163.492 07:40 19.09.2019
1674 Clouds 8 1013 40 0 5.82 163.492 07:21 19.09.2019
1675 Clouds 8 1013 40 0 5.82 163.492 06:46 19.09.2019
1676 Clouds 8 1013 40 0 5.82 163.492 06:27 19.09.2019
1677 Clouds 8 1014 43 0 6.14 136.92 05:52 19.09.2019
1678 Clouds 8 1014 43 0 6.14 136.92 04:44 19.09.2019
1679 Clouds 8 1014 43 0 6.14 136.92 03:52 19.09.2019
1680 Rain 5 1014 80 0 1.86 84.627 02:45 19.09.2019
1681 Rain 5 1014 83 0 1.72 81.39 01:27 19.09.2019
1682 Rain 5 1014 83 0 1.72 81.39 00:50 19.09.2019
1683 Rain 5 1014 83 0 1.72 81.39 00:26 19.09.2019
1684 Rain 3 1014 88 0 1.69 60.175 23:42 18.09.2019
1685 Rain 3 1014 88 0 1.69 60.175 23:21 18.09.2019
1686 Rain 3 1014 88 0 1.69 60.175 22:55 18.09.2019
1687 Rain 3 1014 88 0 1.69 60.175 22:36 18.09.2019
1688 Rain 3 1014 88 0 1.69 60.175 22:18 18.09.2019
1689 Rain 3 1014 88 0 1.69 60.175 21:54 18.09.2019
1690 Rain 3 1014 88 0 1.69 60.175 21:36 18.09.2019
1691 Clouds 3 1013 87 0 1.44 48.923 21:18 18.09.2019
1692 Clouds 3 1013 86 0 1.34 35.996 20:55 18.09.2019
1693 Clouds 3 1013 86 0 1.34 35.996 20:37 18.09.2019
1694 Clouds 3 1013 86 0 1.34 35.996 20:18 18.09.2019
1695 Clouds 3 1013 86 0 1.34 35.996 19:41 18.09.2019
1696 Clouds 3 1013 86 0 1.34 35.996 19:20 18.09.2019
1697 Clouds 3 1013 86 0 1.34 35.996 18:56 18.09.2019
1698 Clouds 3 1013 86 0 1.34 35.996 18:38 18.09.2019
1699 Clouds 3 1013 87 0 1.88 18.127 18:19 18.09.2019
1700 Clouds 3 1013 87 0 1.88 18.127 17:59 18.09.2019
1701 Clouds 3 1013 87 0 1.88 18.127 17:40 18.09.2019
1702 Clouds 3 1013 87 0 1.88 18.127 17:19 18.09.2019
1703 Clouds 3 1013 87 0 1.88 18.127 17:19 18.09.2019
1704 Clouds 3 1013 87 0 1.88 18.127 16:56 18.09.2019
1705 Clouds 3 1013 87 0 1.88 18.127 16:38 18.09.2019
1706 Clouds 3 1013 87 0 1.88 18.127 16:19 18.09.2019
1707 Clouds 3 1013 87 0 1.88 18.127 15:56 18.09.2019
1708 Clouds 3 1013 87 0 1.88 18.127 15:56 18.09.2019
1709 Clouds 3 1013 87 0 1.88 18.127 15:38 18.09.2019
1710 Clouds 4 1013 85 0 2.02 9.039 15:19 18.09.2019
1711 Clouds 4 1013 85 0 2.02 9.039 14:57 18.09.2019
1712 Clouds 4 1013 85 0 2.02 9.039 14:39 18.09.2019
1713 Clouds 4 1013 85 0 2.02 9.039 14:21 18.09.2019
1714 Clouds 4 1013 85 0 2.02 9.039 13:54 18.09.2019
1715 Clouds 4 1013 85 0 2.02 9.039 13:36 18.09.2019
1716 Clouds 4 1012 84 0 1.88 8.424 13:18 18.09.2019
1717 Clouds 4 1012 84 0 1.88 8.424 12:37 18.09.2019
1718 Clouds 7 1012 73 0 2.16 26.968 12:19 18.09.2019
1719 Clouds 7 1012 73 0 2.16 26.968 11:40 18.09.2019
1720 Clouds 7 1012 73 0 2.16 26.968 11:20 18.09.2019
1721 Clouds 7 1012 73 0 2.16 26.968 10:56 18.09.2019
1722 Clouds 7 1012 73 0 2.16 26.968 10:37 18.09.2019
1723 Clouds 7 1012 73 0 2.16 26.968 10:18 18.09.2019
1724 Clouds 7 1012 73 0 2.16 26.968 09:54 18.09.2019
1725 Clouds 7 1012 73 0 2.16 26.968 09:36 18.09.2019
1726 Clouds 8 1011 68 0 2.34 56.541 09:18 18.09.2019
1727 Clouds 8 1012 67 0 2.07 36.443 08:41 18.09.2019
1728 Clouds 8 1012 67 0 2.07 36.443 08:21 18.09.2019
1729 Clouds 8 1012 67 0 2.07 36.443 07:44 18.09.2019
1730 Clouds 8 1012 67 0 2.07 36.443 07:23 18.09.2019
1731 Clouds 8 1012 67 0 2.07 36.443 06:54 18.09.2019
1732 Clouds 8 1012 67 0 2.07 36.443 06:26 18.09.2019
1733 Clouds 6 1012 73 0 1.68 47.267 05:33 18.09.2019
1734 Clouds 6 1012 73 0 1.68 47.267 03:49 18.09.2019
1735 Clouds 5 1012 79 0 1.48 15.967 02:41 18.09.2019
1736 Clouds 5 1012 79 0 1.48 15.967 01:50 18.09.2019
1737 Clouds 5 1012 79 0 1.71 13.258 00:57 18.09.2019
1738 Clouds 5 1012 79 0 1.71 13.258 00:34 18.09.2019
1739 Clouds 1 1012 91 0 1.3 358.982 23:59 17.09.2019
1740 Clouds 1 1012 91 0 1.3 358.982 23:40 17.09.2019
1741 Clouds 1 1012 91 0 1.3 358.982 23:21 17.09.2019
1742 Clouds 1 1012 91 0 1.3 358.982 22:42 17.09.2019
1743 Clouds 1 1012 91 0 1.3 358.982 22:23 17.09.2019
1744 Clouds 1 1012 91 0 1.3 358.982 21:55 17.09.2019
1745 Clouds 1 1012 91 0 1.3 358.982 21:54 17.09.2019
1746 Clouds 1 1012 91 0 1.3 358.982 21:36 17.09.2019
1747 Clouds 4 1012 82 0 1.49 338.156 21:18 17.09.2019
1748 Clouds 4 1012 82 0 1.49 338.156 20:57 17.09.2019
1749 Clouds 4 1012 81 0 1.57 338.192 20:39 17.09.2019
1750 Clouds 4 1012 81 0 1.57 338.192 20:21 17.09.2019
1751 Clouds 4 1012 81 0 1.57 338.192 20:21 17.09.2019
1752 Clouds 4 1012 81 0 1.57 338.192 20:21 17.09.2019
1753 Clouds 4 1012 81 0 1.57 338.192 19:58 17.09.2019
1754 Clouds 4 1012 81 0 1.57 338.192 19:39 17.09.2019
1755 Clouds 4 1012 81 0 1.57 338.192 19:39 17.09.2019
1756 Clouds 4 1012 81 0 1.57 338.192 19:19 17.09.2019
1757 Clouds 4 1012 81 0 1.57 338.192 19:19 17.09.2019
1758 Clouds 4 1012 81 0 1.57 338.192 18:56 17.09.2019
1759 Clouds 4 1012 81 0 1.57 338.192 18:37 17.09.2019
1760 Clouds 5 1013 80 0 1.86 314.607 18:19 17.09.2019
1761 Clouds 5 1013 80 0 1.86 314.607 17:44 17.09.2019
1762 Clouds 5 1013 80 0 1.86 314.607 17:19 17.09.2019
1763 Clouds 5 1013 80 0 1.86 314.607 17:19 17.09.2019
1764 Clouds 5 1013 80 0 1.86 314.607 16:56 17.09.2019
1765 Clouds 5 1013 80 0 1.86 314.607 16:37 17.09.2019
1766 Clouds 5 1013 80 0 1.86 314.607 16:19 17.09.2019
1767 Clouds 5 1013 80 0 1.86 314.607 15:39 17.09.2019
1768 Clouds 4 1013 84 0 2.02 321.916 15:20 17.09.2019
1769 Clouds 4 1013 84 0 2.02 321.916 14:56 17.09.2019
1770 Clouds 4 1013 84 0 2.02 321.916 14:56 17.09.2019
1771 Clouds 4 1013 84 0 2.02 321.916 14:56 17.09.2019
1772 Clouds 4 1013 84 0 2.02 321.916 14:38 17.09.2019
1773 Clouds 4 1013 84 0 2.02 321.916 14:19 17.09.2019
1774 Clouds 4 1013 84 0 2.02 321.916 13:54 17.09.2019
1775 Clouds 4 1013 84 0 2.02 321.916 13:36 17.09.2019
1776 Clouds 3 1013 87 0 2.04 315.318 13:18 17.09.2019
1777 Clouds 3 1013 87 0 2.04 315.318 12:41 17.09.2019
1778 Clouds 5 1012 81 0 3.71 358.749 12:19 17.09.2019
1779 Clouds 5 1012 81 0 3.71 358.749 11:44 17.09.2019
1780 Clouds 5 1012 81 0 3.71 358.749 11:26 17.09.2019
1781 Clouds 5 1012 81 0 3.71 358.749 10:59 17.09.2019
1782 Clouds 5 1012 81 0 3.71 358.749 10:40 17.09.2019
1783 Clouds 5 1012 81 0 3.71 358.749 10:20 17.09.2019
1784 Clouds 5 1012 81 0 3.71 358.749 09:54 17.09.2019
1785 Clouds 5 1012 81 0 3.71 358.749 09:36 17.09.2019
1786 Clouds 8 1012 66 0 5.4 15.133 09:18 17.09.2019
1787 Clouds 8 1012 66 0 5.4 15.133 08:43 17.09.2019
1788 Clouds 8 1012 70 0 5.52 10.552 08:24 17.09.2019
1789 Clouds 8 1012 70 0 5.52 10.552 07:42 17.09.2019
1790 Clouds 8 1012 70 0 5.52 10.552 07:42 17.09.2019
1791 Clouds 8 1012 70 0 5.52 10.552 07:24 17.09.2019
1792 Clouds 8 1012 70 0 5.52 10.552 06:53 17.09.2019
1793 Clouds 8 1012 70 0 5.52 10.552 06:29 17.09.2019
1794 Clouds 7 1013 71 0 4.55 24.509 05:53 17.09.2019
1795 Clouds 7 1013 71 0 4.55 24.509 04:55 17.09.2019
1796 Clouds 7 1013 71 0 4.55 24.509 03:42 17.09.2019
1797 Clouds 4 1014 80 0 2.7 24.064 02:39 17.09.2019
1798 Clouds 4 1014 80 0 2.7 24.064 01:50 17.09.2019
1799 Clouds 4 1014 82 0 2.84 21.079 00:50 17.09.2019
1800 Clouds 0 1014 92 0 2.22 21.245 23:42 16.09.2019
1801 Clouds 0 1014 92 0 2.22 21.245 23:20 16.09.2019
1802 Clouds 0 1014 92 0 2.22 21.245 22:59 16.09.2019
1803 Clouds 0 1014 92 0 2.22 21.245 22:40 16.09.2019
1804 Clouds 0 1014 92 0 2.22 21.245 22:22 16.09.2019
1805 Clouds 0 1014 92 0 2.22 21.245 22:22 16.09.2019
1806 Clouds 0 1014 92 0 2.22 21.245 21:57 16.09.2019
1807 Clouds 0 1014 92 0 2.22 21.245 21:38 16.09.2019
1808 Clouds 0 1014 92 0 2.22 21.245 21:38 16.09.2019
1809 Clouds -2 1013 94 0 0.84 40.918 21:20 16.09.2019
1810 Clouds -2 1013 94 0 0.84 40.918 21:20 16.09.2019
1811 Clouds -2 1013 94 0 0.84 40.918 20:55 16.09.2019
1812 Clouds -2 1014 95 0 0.97 37 20:37 16.09.2019
1813 Clouds -2 1014 95 0 0.97 37 20:18 16.09.2019
1814 Clouds -2 1014 95 0 0.97 37 19:42 16.09.2019
1815 Clouds -2 1014 95 0 0.97 37 19:21 16.09.2019
1816 Clouds -2 1014 95 0 0.97 37 18:59 16.09.2019
1817 Clouds -2 1014 95 0 0.97 37 18:41 16.09.2019
1818 Clear -2 1013 95 0 0.65 53.927 18:21 16.09.2019
1819 Clear -2 1013 95 0 0.65 53.927 17:43 16.09.2019
1820 Clear -2 1013 95 0 0.65 53.927 17:24 16.09.2019
1821 Clear -2 1013 95 0 0.65 53.927 16:58 16.09.2019
1822 Clear -2 1013 95 0 0.65 53.927 16:39 16.09.2019
1823 Clear -2 1013 95 0 0.65 53.927 16:21 16.09.2019
1824 Clear -2 1013 95 0 0.65 53.927 15:56 16.09.2019
1825 Clear -2 1013 95 0 0.65 53.927 15:37 16.09.2019
1826 Clouds -1 1012 94 0 0.41 87.068 15:19 16.09.2019
1827 Clouds -1 1012 94 0 0.41 87.068 14:56 16.09.2019
1828 Clouds -1 1012 94 0 0.41 87.068 14:37 16.09.2019
1829 Clouds -1 1012 94 0 0.41 87.068 14:19 16.09.2019
1830 Clouds -1 1012 94 0 0.41 87.068 13:40 16.09.2019
1831 Clouds 2 1013 92 0 0.55 89.267 13:21 16.09.2019
1832 Clouds 2 1013 92 0 0.55 89.267 12:48 16.09.2019
1833 Clouds 2 1013 92 0 0.55 89.267 12:29 16.09.2019
1834 Clouds 3 1011 91 0 0.86 107.742 11:58 16.09.2019
1835 Clouds 3 1011 91 0 0.86 107.742 11:40 16.09.2019
1836 Clouds 3 1011 91 0 0.86 107.742 11:21 16.09.2019
1837 Clouds 3 1011 91 0 0.86 107.742 10:40 16.09.2019
1838 Clouds 3 1011 91 0 0.86 107.742 10:21 16.09.2019
1839 Clouds 3 1011 91 0 0.86 107.742 09:58 16.09.2019
1840 Clouds 3 1011 91 0 0.86 107.742 09:40 16.09.2019
1841 Clouds 3 1009 91 0 0.68 267.121 09:20 16.09.2019
1842 Clouds 3 1009 91 0 0.68 267.121 08:48 16.09.2019
1843 Rain 3 1009 93 0 0.84 265.57 08:29 16.09.2019
1844 Rain 3 1009 93 0 0.84 265.57 07:57 16.09.2019
1845 Rain 3 1009 93 0 0.84 265.57 07:39 16.09.2019
1846 Rain 3 1009 93 0 0.84 265.57 07:39 16.09.2019
1847 Rain 3 1009 93 0 0.84 265.57 07:20 16.09.2019
1848 Rain 3 1009 93 0 0.84 265.57 06:49 16.09.2019
1849 Rain 3 1009 93 0 0.84 265.57 06:31 16.09.2019
1850 Clouds 2 1009 95 0 1.27 319.935 05:57 16.09.2019
1851 Clouds 2 1009 95 0 1.27 319.935 05:38 16.09.2019
1852 Clouds 2 1009 95 0 1.27 319.935 04:57 16.09.2019
1853 Clouds 2 1009 95 0 1.27 319.935 03:35 16.09.2019
1854 Clouds 2 1009 90 0 1.01 346.707 00:57 16.09.2019
1855 Clouds 2 1009 90 0 1.01 346.707 00:36 16.09.2019
1856 Clouds 2 1009 75 0 1.16 314.825 00:18 16.09.2019
1857 Clouds 2 1009 75 0 1.16 314.825 23:37 15.09.2019
1858 Clouds 2 1009 75 0 1.16 314.825 23:18 15.09.2019
1859 Clouds 2 1009 75 0 1.16 314.825 22:39 15.09.2019
1860 Clouds 2 1009 75 0 1.16 314.825 22:20 15.09.2019
1861 Clouds 2 1009 75 0 1.16 314.825 21:56 15.09.2019
1862 Clouds 2 1009 75 0 1.16 314.825 21:38 15.09.2019
1863 Clouds 1 1009 81 0 1.61 356.262 21:19 15.09.2019
1864 Clouds 1 1009 80 0 1.64 353.044 20:45 15.09.2019
1865 Clouds 1 1009 80 0 1.64 353.044 20:27 15.09.2019
1866 Clouds 1 1009 80 0 1.64 353.044 19:58 15.09.2019
1867 Clouds 1 1009 80 0 1.64 353.044 19:40 15.09.2019
1868 Clouds 1 1009 80 0 1.64 353.044 19:22 15.09.2019
1869 Clouds 1 1009 80 0 1.64 353.044 18:40 15.09.2019
1870 Clouds 1 1010 82 0 1.85 5.065 18:22 15.09.2019
1871 Clouds 1 1010 82 0 1.85 5.065 17:56 15.09.2019
1872 Clouds 1 1010 82 0 1.85 5.065 17:36 15.09.2019
1873 Clouds 1 1010 82 0 1.85 5.065 17:18 15.09.2019
1874 Clouds 1 1010 82 0 1.85 5.065 16:42 15.09.2019
1875 Clouds 1 1010 82 0 1.85 5.065 16:22 15.09.2019
1876 Clouds 1 1010 82 0 1.85 5.065 15:58 15.09.2019
1877 Clouds 1 1010 82 0 1.85 5.065 15:38 15.09.2019
1878 Clouds 1 1010 82 0 1.85 5.065 15:38 15.09.2019
1879 Clouds 2 1010 72 0 1.49 20.615 15:19 15.09.2019
1880 Clouds 2 1010 72 0 1.49 20.615 15:19 15.09.2019
1881 Clouds 2 1010 72 0 1.49 20.615 14:56 15.09.2019
1882 Clouds 2 1010 72 0 1.49 20.615 14:38 15.09.2019
1883 Clouds 2 1010 72 0 1.49 20.615 14:19 15.09.2019
1884 Clouds 2 1010 72 0 1.49 20.615 13:44 15.09.2019
1885 Clouds 2 1009 70 0 1.86 11.957 13:23 15.09.2019
1886 Clouds 2 1009 70 0 1.86 11.957 12:43 15.09.2019
1887 Clouds 2 1009 70 0 1.86 11.957 12:25 15.09.2019
1888 Clouds 5 1008 58 0 2.3 48.185 11:59 15.09.2019
1889 Clouds 5 1008 58 0 2.3 48.185 11:41 15.09.2019
1890 Clouds 5 1008 58 0 2.3 48.185 11:22 15.09.2019
1891 Clouds 5 1008 58 0 2.3 48.185 10:55 15.09.2019
1892 Clouds 5 1008 58 0 2.3 48.185 10:37 15.09.2019
1893 Clouds 5 1008 58 0 2.3 48.185 10:18 15.09.2019
1894 Clouds 5 1008 58 0 2.3 48.185 09:39 15.09.2019
1895 Clouds 7 1008 49 0 1.73 7.788 09:19 15.09.2019
1896 Clouds 7 1008 49 0 1.73 7.788 08:47 15.09.2019
1897 Clouds 6 1008 48 0 2.07 14.204 08:27 15.09.2019
1898 Clouds 6 1008 48 0 2.07 14.204 07:49 15.09.2019
1899 Clouds 6 1008 48 0 2.07 14.204 07:30 15.09.2019
1900 Clouds 6 1008 48 0 2.07 14.204 06:43 15.09.2019
1901 Clouds 5 1008 52 0 1.97 12.478 03:32 15.09.2019
1902 Clouds 3 1008 69 0 1.17 337.278 02:42 15.09.2019
1903 Clouds 3 1008 69 0 1.17 337.278 01:45 15.09.2019
1904 Clouds 3 1008 69 0 1.17 337.278 01:45 15.09.2019
1905 Clouds 3 1008 69 0 1.17 337.278 01:45 15.09.2019
1906 Clouds 3 1007 67 0 1.52 19.935 01:27 15.09.2019
1907 Clouds 3 1007 67 0 1.52 19.935 00:50 15.09.2019
1908 Clouds 1 1006 93 0 2.06 325.477 00:24 15.09.2019
1909 Clouds 1 1006 93 0 2.06 325.477 23:59 14.09.2019
1910 Clouds 1 1006 93 0 2.06 325.477 23:41 14.09.2019
1911 Clouds 1 1006 93 0 2.06 325.477 23:22 14.09.2019
1912 Clouds 1 1006 93 0 2.06 325.477 22:59 14.09.2019
1913 Clouds 1 1006 93 0 2.06 325.477 22:59 14.09.2019
1914 Clouds 1 1006 93 0 2.06 325.477 22:59 14.09.2019
1915 Clouds 1 1006 93 0 2.06 325.477 22:41 14.09.2019
1916 Clouds 1 1006 93 0 2.06 325.477 22:41 14.09.2019
1917 Clouds 1 1006 93 0 2.06 325.477 22:21 14.09.2019
1918 Clouds 1 1006 93 0 2.06 325.477 21:59 14.09.2019
1919 Clouds 1 1006 93 0 2.06 325.477 21:39 14.09.2019
1920 Clouds 2 1004 87 0 2.9 326.102 21:20 14.09.2019
1921 Clouds 2 1004 87 0 2.9 326.102 20:55 14.09.2019
1922 Clouds 3 1004 75 0 4.18 7.956 20:37 14.09.2019
1923 Clouds 3 1004 75 0 4.18 7.956 20:19 14.09.2019
1924 Clouds 3 1004 75 0 4.18 7.956 19:44 14.09.2019
1925 Clouds 3 1004 75 0 4.18 7.956 19:21 14.09.2019
1926 Clouds 3 1004 75 0 4.18 7.956 18:57 14.09.2019
1927 Clouds 3 1004 75 0 4.18 7.956 18:37 14.09.2019
1928 Clouds 3 1002 82 0 5.36 33.984 18:19 14.09.2019
1929 Clouds 3 1002 82 0 5.36 33.984 17:43 14.09.2019
1930 Clouds 3 1002 82 0 5.36 33.984 17:22 14.09.2019
1931 Clouds 3 1002 82 0 5.36 33.984 16:48 14.09.2019
1932 Clouds 3 1002 82 0 5.36 33.984 16:28 14.09.2019
1933 Clouds 3 1002 82 0 5.36 33.984 15:58 14.09.2019
1934 Clouds 3 1002 82 0 5.36 33.984 15:40 14.09.2019
1935 Clouds 6 1000 64 0 0.73 54.261 15:21 14.09.2019
1936 Clouds 6 1000 64 0 0.73 54.261 14:44 14.09.2019
1937 Clouds 6 1000 64 0 0.73 54.261 14:19 14.09.2019
1938 Clouds 6 1000 64 0 0.73 54.261 13:55 14.09.2019
1939 Clouds 6 1000 64 0 0.73 54.261 13:37 14.09.2019
1940 Clouds 4 1000 58 0 2.03 55.762 13:18 14.09.2019
1941 Clouds 4 1000 58 0 2.03 55.762 12:40 14.09.2019
1942 Clouds 7 997 35 0 4.39 175.167 12:18 14.09.2019
1943 Clouds 7 997 35 0 4.39 175.167 11:40 14.09.2019
1944 Clouds 7 997 35 0 4.39 175.167 11:20 14.09.2019
1945 Clouds 7 997 35 0 4.39 175.167 10:40 14.09.2019
1946 Clouds 7 997 35 0 4.39 175.167 10:21 14.09.2019
1947 Clouds 7 997 35 0 4.39 175.167 09:58 14.09.2019
1948 Clouds 7 997 35 0 4.39 175.167 09:39 14.09.2019
1949 Clear 11 995 34 0 8.13 200.475 09:20 14.09.2019
1950 Clouds 11 994 38 0 7.76 202.727 08:47 14.09.2019
1951 Clouds 11 994 38 0 7.76 202.727 08:25 14.09.2019
1952 Clouds 11 994 38 0 7.76 202.727 07:48 14.09.2019
1953 Clouds 11 994 38 0 7.76 202.727 07:29 14.09.2019
1954 Clouds 11 994 38 0 7.76 202.727 06:53 14.09.2019
1955 Clouds 11 994 38 0 7.76 202.727 06:31 14.09.2019
1956 Clouds 11 992 46 0 7.46 205.6 05:27 14.09.2019
1957 Clouds 11 992 46 0 7.46 205.6 03:47 14.09.2019
1958 Rain 9 991 77 0 3.3 206.169 02:55 14.09.2019
1959 Rain 9 991 77 0 3.3 206.169 02:55 14.09.2019
1960 Rain 9 991 77 0 3.3 206.169 01:59 14.09.2019
1961 Rain 9 991 77 0 3.3 206.169 01:39 14.09.2019
1962 Rain 8 990 79 0 3.3 208.369 01:18 14.09.2019
1963 Rain 8 990 79 0 3.3 208.369 00:39 14.09.2019
1964 Rain 7 989 93 0 3.05 211.151 00:21 14.09.2019
1965 Rain 7 989 93 0 3.05 211.151 23:54 13.09.2019
1966 Rain 7 989 93 0 3.05 211.151 23:36 13.09.2019
1967 Rain 7 989 93 0 3.05 211.151 23:18 13.09.2019
1968 Rain 7 989 93 0 3.05 211.151 22:39 13.09.2019
1969 Rain 7 989 93 0 3.05 211.151 22:20 13.09.2019
1970 Rain 7 989 93 0 3.05 211.151 21:56 13.09.2019
1971 Rain 7 989 93 0 3.05 211.151 21:37 13.09.2019
1972 Rain 7 988 91 0 2.21 198.55 21:19 13.09.2019
1973 Rain 7 988 91 0 2.21 198.55 20:55 13.09.2019
1974 Clouds 8 987 91 0 2.1 178.393 20:36 13.09.2019
1975 Clouds 8 987 91 0 2.1 178.393 20:18 13.09.2019
1976 Clouds 8 987 91 0 2.1 178.393 19:43 13.09.2019
1977 Clouds 8 987 91 0 2.1 178.393 19:21 13.09.2019
1978 Clouds 8 987 91 0 2.1 178.393 18:58 13.09.2019
1979 Clouds 8 987 91 0 2.1 178.393 18:37 13.09.2019
1980 Clouds 8 987 91 0 2.1 178.393 18:37 13.09.2019
1981 Rain 8 988 89 0 2.01 90.2 18:19 13.09.2019
1982 Rain 8 988 89 0 2.01 90.2 17:43 13.09.2019
1983 Rain 8 988 89 0 2.01 90.2 17:21 13.09.2019
1984 Rain 8 988 89 0 2.01 90.2 16:56 13.09.2019
1985 Rain 8 988 89 0 2.01 90.2 16:37 13.09.2019
1986 Rain 8 988 89 0 2.01 90.2 16:18 13.09.2019
1987 Rain 8 988 89 0 2.01 90.2 15:41 13.09.2019
1988 Rain 9 989 80 0 6.42 77.61 15:23 13.09.2019
1989 Rain 9 989 80 0 6.42 77.61 15:23 13.09.2019
1990 Rain 9 989 80 0 6.42 77.61 14:55 13.09.2019
1991 Rain 9 989 80 0 6.42 77.61 14:55 13.09.2019
1992 Rain 9 989 80 0 6.42 77.61 14:55 13.09.2019
1993 Rain 9 989 80 0 6.42 77.61 14:36 13.09.2019
1994 Rain 9 989 80 0 6.42 77.61 14:18 13.09.2019
1995 Rain 9 989 80 0 6.42 77.61 14:18 13.09.2019
1996 Rain 9 989 80 0 6.42 77.61 13:41 13.09.2019
1997 Rain 9 989 82 0 6.32 84.53 13:22 13.09.2019
1998 Rain 9 989 82 0 6.32 84.53 12:45 13.09.2019
1999 Rain 9 989 82 0 6.32 84.53 12:25 13.09.2019
2000 Rain 10 991 67 0 1.97 57.044 11:57 13.09.2019
2001 Rain 10 991 67 0 1.97 57.044 11:20 13.09.2019
2002 Rain 10 991 67 0 1.97 57.044 10:57 13.09.2019
2003 Rain 10 991 67 0 1.97 57.044 10:37 13.09.2019
2004 Rain 10 991 67 0 1.97 57.044 10:18 13.09.2019
2005 Rain 10 991 67 0 1.97 57.044 09:43 13.09.2019
2006 Clouds 13 993 51 0 3.55 122.966 09:20 13.09.2019
2007 Clouds 13 993 51 0 3.55 122.966 08:55 13.09.2019
2008 Clouds 13 992 51 0 2.88 101.703 08:37 13.09.2019
2009 Clouds 13 992 51 0 2.88 101.703 08:19 13.09.2019
2010 Clouds 13 992 51 0 2.88 101.703 07:41 13.09.2019
2011 Clouds 13 992 51 0 2.88 101.703 07:21 13.09.2019
2012 Clouds 13 992 51 0 2.88 101.703 06:38 13.09.2019
2013 Clouds 12 995 55 0 3.04 71.487 05:36 13.09.2019
2014 Clouds 12 995 55 0 3.04 71.487 03:53 13.09.2019
2015 Clouds 12 995 55 0 3.04 71.487 03:26 13.09.2019
2016 Clouds 9 999 69 0 2.13 65.086 02:20 13.09.2019
2017 Clouds 9 999 69 0 2.13 65.086 01:38 13.09.2019
2018 Clouds 9 998 70 0 2.22 60.773 00:59 13.09.2019
2019 Clouds 9 998 70 0 2.22 60.773 00:36 13.09.2019
2020 Clouds 5 1001 88 0 1.98 55.725 23:53 12.09.2019
2021 Clouds 5 1001 88 0 1.98 55.725 23:26 12.09.2019
2022 Clouds 5 1001 88 0 1.98 55.725 22:58 12.09.2019
2023 Clouds 5 1001 88 0 1.98 55.725 22:40 12.09.2019
2024 Clouds 5 1001 88 0 1.98 55.725 22:22 12.09.2019
2025 Clouds 5 1001 88 0 1.98 55.725 21:56 12.09.2019
2026 Clouds 5 1001 88 0 1.98 55.725 21:37 12.09.2019
2027 Clear 5 1002 84 0 2.12 61.14 21:19 12.09.2019
2028 Clouds 5 1002 84 0 2.25 58.879 20:44 12.09.2019
2029 Clouds 5 1002 84 0 2.25 58.879 20:23 12.09.2019
2030 Clouds 5 1002 84 0 2.25 58.879 19:58 12.09.2019
2031 Clouds 5 1002 84 0 2.25 58.879 19:40 12.09.2019
2032 Clouds 5 1002 84 0 2.25 58.879 19:20 12.09.2019
2033 Clouds 5 1002 84 0 2.25 58.879 18:57 12.09.2019
2034 Clouds 5 1002 84 0 2.25 58.879 18:36 12.09.2019
2035 Clear 6 1004 79 0 1.73 70.076 18:18 12.09.2019
2036 Clear 6 1004 79 0 1.73 70.076 17:41 12.09.2019
2037 Clear 6 1004 79 0 1.73 70.076 17:20 12.09.2019
2038 Clear 6 1004 79 0 1.73 70.076 16:58 12.09.2019
2039 Clear 6 1004 79 0 1.73 70.076 16:40 12.09.2019
2040 Clear 6 1004 79 0 1.73 70.076 16:19 12.09.2019
2041 Clear 6 1004 79 0 1.73 70.076 15:41 12.09.2019
2042 Clear 8 1005 73 0 1.65 88.02 15:23 12.09.2019
2043 Clear 8 1005 73 0 1.65 88.02 14:46 12.09.2019
2044 Clear 8 1005 73 0 1.65 88.02 14:23 12.09.2019
2045 Clear 8 1005 73 0 1.65 88.02 13:59 12.09.2019
2046 Clear 8 1005 73 0 1.65 88.02 13:38 12.09.2019
2047 Clear 8 1005 74 0 1.65 83.376 13:20 12.09.2019
2048 Clear 8 1005 74 0 1.65 83.376 12:47 12.09.2019
2049 Clear 12 1004 58 0 2.29 83.052 12:19 12.09.2019
2050 Clear 12 1004 58 0 2.29 83.052 11:57 12.09.2019
2051 Clear 12 1004 58 0 2.29 83.052 11:39 12.09.2019
2052 Clear 12 1004 58 0 2.29 83.052 11:21 12.09.2019
2053 Clear 12 1004 58 0 2.29 83.052 10:48 12.09.2019
2054 Clear 12 1004 58 0 2.29 83.052 10:26 12.09.2019
2055 Clear 12 1004 58 0 2.29 83.052 09:56 12.09.2019
2056 Clear 12 1004 58 0 2.29 83.052 09:36 12.09.2019
2057 Clouds 14 1004 48 0 1.1 174.372 09:18 12.09.2019
2058 Clouds 14 1004 48 0 1.06 162.798 08:43 12.09.2019
2059 Clouds 14 1004 48 0 1.06 162.798 08:22 12.09.2019
2060 Clouds 14 1004 48 0 1.06 162.798 07:45 12.09.2019
2061 Clouds 14 1004 48 0 1.06 162.798 07:20 12.09.2019
2062 Clouds 14 1004 48 0 1.06 162.798 06:51 12.09.2019
2063 Clouds 14 1004 48 0 1.06 162.798 06:31 12.09.2019
2064 Clouds 12 1005 54 0 1.28 185.715 05:52 12.09.2019
2065 Clouds 12 1005 54 0 1.28 185.715 05:34 12.09.2019
2066 Clouds 12 1005 54 0 1.28 185.715 04:41 12.09.2019
2067 Clouds 9 1006 62 0 1.24 190.313 03:18 12.09.2019
2068 Clouds 9 1006 63 0 0.94 214.656 01:38 12.09.2019
2069 Clouds 9 1006 63 0 0.94 214.656 01:19 12.09.2019
2070 Clouds 9 1006 63 0 0.94 214.656 00:45 12.09.2019
2071 Clouds 4 1006 80 0 0.73 188.782 00:25 12.09.2019
2072 Clouds 4 1006 80 0 0.73 188.782 23:43 11.09.2019
2073 Clouds 4 1006 80 0 0.73 188.782 23:24 11.09.2019
2074 Clouds 4 1006 80 0 0.73 188.782 22:57 11.09.2019
2075 Clouds 4 1006 80 0 0.73 188.782 22:38 11.09.2019
2076 Clouds 4 1006 80 0 0.73 188.782 22:19 11.09.2019
2077 Clouds 4 1006 80 0 0.73 188.782 21:55 11.09.2019
2078 Clouds 4 1006 80 0 0.73 188.782 21:36 11.09.2019
2079 Clouds 5 1005 74 0 1.9 187.409 21:18 11.09.2019
2080 Clouds 5 1005 74 0 1.9 187.409 20:54 11.09.2019
2081 Clouds 5 1006 75 0 1.11 147.907 20:36 11.09.2019
2082 Clouds 5 1006 75 0 1.11 147.907 20:18 11.09.2019
2083 Clouds 5 1006 75 0 1.11 147.907 20:18 11.09.2019
2084 Clouds 5 1006 75 0 1.11 147.907 19:54 11.09.2019
2085 Clouds 5 1006 75 0 1.11 147.907 19:36 11.09.2019
2086 Clouds 5 1006 75 0 1.11 147.907 19:18 11.09.2019
2087 Clouds 5 1006 75 0 1.11 147.907 18:41 11.09.2019
2088 Clouds 5 1006 67 0 1 106.008 18:22 11.09.2019
2089 Clouds 5 1006 67 0 1 106.008 17:58 11.09.2019
2090 Clouds 5 1006 67 0 1 106.008 17:58 11.09.2019
2091 Clouds 5 1006 67 0 1 106.008 17:39 11.09.2019
2092 Clouds 5 1006 67 0 1 106.008 17:20 11.09.2019
2093 Clouds 5 1006 67 0 1 106.008 16:54 11.09.2019
2094 Clouds 5 1006 67 0 1 106.008 16:54 11.09.2019
2095 Clouds 5 1006 67 0 1 106.008 16:36 11.09.2019
2096 Clouds 5 1006 67 0 1 106.008 16:18 11.09.2019
2097 Clouds 5 1006 67 0 1 106.008 15:43 11.09.2019
2098 Clouds 6 1006 63 0 1.46 75.354 15:20 11.09.2019
2099 Clouds 6 1006 63 0 1.46 75.354 14:57 11.09.2019
2100 Clouds 6 1006 63 0 1.46 75.354 14:37 11.09.2019
2101 Clouds 6 1006 63 0 1.46 75.354 14:18 11.09.2019
2102 Clouds 6 1006 63 0 1.46 75.354 13:40 11.09.2019
2103 Clouds 7 1006 63 0 1.27 103.207 13:22 11.09.2019
2104 Clouds 7 1006 63 0 1.27 103.207 12:59 11.09.2019
2105 Clouds 7 1006 63 0 1.27 103.207 12:40 11.09.2019
2106 Clouds 9 1006 57 0 1.1 108.616 12:20 11.09.2019
2107 Clouds 9 1006 57 0 1.1 108.616 11:41 11.09.2019
2108 Clouds 9 1006 57 0 1.1 108.616 11:22 11.09.2019
2109 Clouds 9 1006 57 0 1.1 108.616 10:59 11.09.2019
2110 Clouds 9 1006 57 0 1.1 108.616 10:40 11.09.2019
2111 Clouds 9 1006 57 0 1.1 108.616 10:21 11.09.2019
2112 Clouds 9 1006 57 0 1.1 108.616 09:40 11.09.2019
2113 Clouds 12 1006 44 0 3.53 188.41 09:20 11.09.2019
2114 Clouds 12 1006 44 0 3.53 188.41 08:59 11.09.2019
2115 Clouds 11 1007 47 0 3.18 195.54 08:39 11.09.2019
2116 Clouds 11 1007 47 0 3.18 195.54 08:20 11.09.2019
2117 Clouds 11 1007 47 0 3.18 195.54 07:43 11.09.2019
2118 Clouds 11 1007 47 0 3.18 195.54 07:23 11.09.2019
2119 Clouds 11 1007 47 0 3.18 195.54 06:50 11.09.2019
2120 Clouds 11 1007 47 0 3.18 195.54 06:50 11.09.2019
2121 Clouds 11 1007 47 0 3.18 195.54 06:32 11.09.2019
2122 Clear 10 1008 47 0 3.61 145.905 05:46 11.09.2019
2123 Clear 10 1008 47 0 3.61 145.905 05:28 11.09.2019
2124 Clear 10 1008 47 0 3.61 145.905 04:42 11.09.2019
2125 Clear 10 1008 47 0 3.61 145.905 03:33 11.09.2019
2126 Clouds 5 1011 60 0 1.72 96.278 02:49 11.09.2019
2127 Clouds 5 1011 60 0 1.72 96.278 02:20 11.09.2019
2128 Clouds 5 1010 60 0 1.66 96.382 00:52 11.09.2019
2129 Clouds 5 1010 60 0 1.66 96.382 00:26 11.09.2019
2130 Clouds 2 1012 74 0 1.54 79.718 23:56 10.09.2019
2131 Clouds 2 1012 74 0 1.54 79.718 23:38 10.09.2019
2132 Clouds 2 1012 74 0 1.54 79.718 23:20 10.09.2019
2133 Clouds 2 1012 74 0 1.54 79.718 22:41 10.09.2019
2134 Clouds 2 1012 74 0 1.54 79.718 22:20 10.09.2019
2135 Clouds 2 1012 74 0 1.54 79.718 21:56 10.09.2019
2136 Clouds 2 1012 74 0 1.54 79.718 21:38 10.09.2019
2137 Clouds 2 1013 73 0 1.85 87.338 21:20 10.09.2019
2138 Clouds 2 1013 73 0 1.85 87.338 20:58 10.09.2019
2139 Clouds 2 1013 72 0 2.07 93.523 20:40 10.09.2019
2140 Clouds 2 1013 72 0 2.07 93.523 20:22 10.09.2019
2141 Clouds 2 1013 72 0 2.07 93.523 19:57 10.09.2019
2142 Clouds 2 1013 72 0 2.07 93.523 19:38 10.09.2019
2143 Clouds 2 1013 72 0 2.07 93.523 19:19 10.09.2019
2144 Clouds 2 1013 72 0 2.07 93.523 18:56 10.09.2019
2145 Clouds 2 1013 72 0 2.07 93.523 18:38 10.09.2019
2146 Clouds 2 1014 75 0 2.04 93.482 18:19 10.09.2019
2147 Clouds 2 1014 75 0 2.04 93.482 17:54 10.09.2019
2148 Clouds 2 1014 75 0 2.04 93.482 17:36 10.09.2019
2149 Clouds 2 1014 75 0 2.04 93.482 17:36 10.09.2019
2150 Clouds 2 1014 75 0 2.04 93.482 17:18 10.09.2019
2151 Clouds 2 1014 75 0 2.04 93.482 16:55 10.09.2019
2152 Clouds 2 1014 75 0 2.04 93.482 16:55 10.09.2019
2153 Clouds 2 1014 75 0 2.04 93.482 16:55 10.09.2019
2154 Clouds 2 1014 75 0 2.04 93.482 16:36 10.09.2019
2155 Clouds 2 1014 75 0 2.04 93.482 16:18 10.09.2019
2156 Clouds 2 1014 75 0 2.04 93.482 16:18 10.09.2019
2157 Clouds 2 1014 75 0 2.04 93.482 15:42 10.09.2019
2158 Clouds 2 1014 76 0 1.89 85.138 15:21 10.09.2019
2159 Clouds 2 1014 76 0 1.89 85.138 14:55 10.09.2019
2160 Clouds 2 1014 76 0 1.89 85.138 14:36 10.09.2019
2161 Clouds 2 1014 76 0 1.89 85.138 14:18 10.09.2019
2162 Clouds 2 1014 76 0 1.89 85.138 13:43 10.09.2019
2163 Clouds 3 1014 71 0 2.57 87.879 13:22 10.09.2019
2164 Clouds 3 1014 71 0 2.57 87.879 12:50 10.09.2019
2165 Clouds 3 1014 71 0 2.57 87.879 12:28 10.09.2019
2166 Clouds 6 1012 62 0 3.57 41.041 11:58 10.09.2019
2167 Clouds 6 1012 62 0 3.57 41.041 11:40 10.09.2019
2168 Clouds 6 1012 62 0 3.57 41.041 11:21 10.09.2019
2169 Clouds 6 1012 62 0 3.57 41.041 10:42 10.09.2019
2170 Clouds 6 1012 62 0 3.57 41.041 10:21 10.09.2019
2171 Clouds 6 1012 62 0 3.57 41.041 09:58 10.09.2019
2172 Clouds 6 1012 62 0 3.57 41.041 09:40 10.09.2019
2173 Clouds 8 1010 54 0 4.13 38.103 09:19 10.09.2019
2174 Clouds 8 1010 54 0 4.13 38.103 09:19 10.09.2019
2175 Clouds 8 1011 53 0 3.83 22.858 08:47 10.09.2019
2176 Clouds 8 1011 53 0 3.83 22.858 08:29 10.09.2019
2177 Clouds 8 1011 53 0 3.83 22.858 07:56 10.09.2019
2178 Clouds 8 1011 53 0 3.83 22.858 07:37 10.09.2019
2179 Clouds 8 1011 53 0 3.83 22.858 07:19 10.09.2019
2180 Clouds 8 1011 53 0 3.83 22.858 06:39 10.09.2019
2181 Rain 8 1008 63 0 4.71 16.875 06:19 10.09.2019
2182 Rain 8 1008 63 0 4.71 16.875 04:18 10.09.2019
2183 Rain 5 1005 90 0 5.2 14.555 02:38 10.09.2019
2184 Rain 5 1005 90 0 5.2 14.555 02:19 10.09.2019
2185 Rain 5 1005 90 0 5.2 14.555 01:50 10.09.2019
2186 Rain 5 1005 90 0 5.2 14.555 01:50 10.09.2019
2187 Rain 5 1005 90 0 5.2 14.555 01:50 10.09.2019
2188 Rain 5 1005 90 0 5.2 14.555 01:50 10.09.2019
2189 Rain 5 1005 91 0 4.98 27.775 01:22 10.09.2019
2190 Rain 5 1005 91 0 4.98 27.775 00:36 10.09.2019
2191 Rain 6 1003 92 0 1.75 53.607 23:56 09.09.2019
2192 Rain 6 1003 92 0 1.75 53.607 23:36 09.09.2019
2193 Rain 6 1003 92 0 1.75 53.607 23:18 09.09.2019
2194 Rain 6 1003 92 0 1.75 53.607 22:54 09.09.2019
2195 Rain 6 1003 92 0 1.75 53.607 22:36 09.09.2019
2196 Rain 6 1003 92 0 1.75 53.607 22:18 09.09.2019
2197 Rain 6 1003 92 0 1.75 53.607 21:55 09.09.2019
2198 Rain 6 1003 92 0 1.75 53.607 21:36 09.09.2019
2199 Rain 7 1003 80 0 1.44 220.11 21:18 09.09.2019
2200 Rain 7 1003 80 0 1.44 220.11 20:55 09.09.2019
2201 Clouds 6 1004 72 0 2.08 211.844 20:36 09.09.2019
2202 Clouds 6 1004 72 0 2.08 211.844 20:36 09.09.2019
2203 Clouds 6 1004 72 0 2.08 211.844 20:18 09.09.2019
2204 Clouds 6 1004 72 0 2.08 211.844 19:55 09.09.2019
2205 Clouds 6 1004 72 0 2.08 211.844 19:37 09.09.2019
2206 Clouds 6 1004 72 0 2.08 211.844 19:18 09.09.2019
2207 Clouds 6 1004 72 0 2.08 211.844 18:54 09.09.2019
2208 Clouds 6 1004 72 0 2.08 211.844 18:36 09.09.2019
2209 Clouds 6 1004 72 0 2.08 211.844 18:36 09.09.2019
2210 Clouds 6 1004 67 0 0.93 194.848 18:18 09.09.2019
2211 Clouds 6 1004 67 0 0.93 194.848 17:41 09.09.2019
2212 Clouds 6 1004 67 0 0.93 194.848 17:41 09.09.2019
2213 Clouds 6 1004 67 0 0.93 194.848 17:22 09.09.2019
2214 Clouds 6 1004 67 0 0.93 194.848 16:59 09.09.2019
2215 Clouds 6 1004 67 0 0.93 194.848 16:40 09.09.2019
2216 Clouds 6 1004 67 0 0.93 194.848 16:21 09.09.2019
2217 Clouds 6 1004 67 0 0.93 194.848 15:56 09.09.2019
2218 Clouds 6 1004 67 0 0.93 194.848 15:38 09.09.2019
2219 Clouds 5 1005 74 0 0.98 286.722 15:19 09.09.2019
2220 Clouds 5 1005 74 0 0.98 286.722 14:57 09.09.2019
2221 Clouds 5 1005 74 0 0.98 286.722 14:38 09.09.2019
2222 Clouds 5 1005 74 0 0.98 286.722 14:20 09.09.2019
2223 Clouds 5 1005 74 0 0.98 286.722 13:45 09.09.2019
2224 Clouds 5 1005 72 0 1.06 310.724 13:22 09.09.2019
2225 Clouds 5 1005 72 0 1.06 310.724 13:22 09.09.2019
2226 Clouds 5 1005 72 0 1.06 310.724 12:59 09.09.2019
2227 Clouds 5 1005 72 0 1.06 310.724 12:59 09.09.2019
2228 Clouds 5 1005 72 0 1.06 310.724 12:41 09.09.2019
2229 Rain 12 1003 55 0 3.96 315.583 12:21 09.09.2019
2230 Rain 12 1003 55 0 3.96 315.583 11:57 09.09.2019
2231 Rain 12 1003 55 0 3.96 315.583 11:39 09.09.2019
2232 Rain 12 1003 55 0 3.96 315.583 11:18 09.09.2019
2233 Rain 12 1003 55 0 3.96 315.583 10:42 09.09.2019
2234 Rain 12 1003 55 0 3.96 315.583 10:23 09.09.2019
2235 Rain 12 1003 55 0 3.96 315.583 09:58 09.09.2019
2236 Rain 12 1003 55 0 3.96 315.583 09:39 09.09.2019
2237 Rain 13 1002 47 0 2.75 249.483 09:21 09.09.2019
2238 Clouds 14 1002 43 0 4 244.19 08:39 09.09.2019
2239 Clouds 14 1002 43 0 4 244.19 08:21 09.09.2019
2240 Clouds 14 1002 43 0 4 244.19 07:57 09.09.2019
2241 Clouds 14 1002 43 0 4 244.19 07:38 09.09.2019
2242 Clouds 14 1002 43 0 4 244.19 07:19 09.09.2019
2243 Clouds 14 1002 43 0 4 244.19 06:46 09.09.2019
2244 Clouds 11 1003 46 0 5.01 207.844 05:34 09.09.2019
2245 Clouds 6 1005 64 0 3.31 194.456 02:59 09.09.2019
2246 Clouds 6 1005 64 0 3.31 194.456 02:40 09.09.2019
2247 Clouds 7 1005 63 0 3.27 195.215 01:20 09.09.2019
2248 Clouds 2 1007 88 0 2.86 193.157 00:23 09.09.2019
2249 Clouds 2 1007 88 0 2.86 193.157 23:46 08.09.2019
2250 Clouds 2 1007 88 0 2.86 193.157 23:27 08.09.2019
2251 Clouds 2 1007 88 0 2.86 193.157 22:59 08.09.2019
2252 Clouds 2 1007 88 0 2.86 193.157 22:38 08.09.2019
2253 Clouds 2 1007 88 0 2.86 193.157 22:20 08.09.2019
2254 Clouds 2 1007 88 0 2.86 193.157 21:57 08.09.2019
2255 Clouds 2 1007 88 0 2.86 193.157 21:39 08.09.2019
2256 Clouds 2 1007 86 0 2.9 180.217 21:21 08.09.2019
2257 Clouds 2 1007 86 0 2.9 180.217 20:41 08.09.2019
2258 Clear 2 1008 86 0 3.22 179.68 20:22 08.09.2019
2259 Clear 2 1008 86 0 3.22 179.68 19:59 08.09.2019
2260 Clear 2 1008 86 0 3.22 179.68 19:39 08.09.2019
2261 Clear 2 1008 86 0 3.22 179.68 19:21 08.09.2019
2262 Clear 2 1008 86 0 3.22 179.68 18:58 08.09.2019
2263 Clear 2 1008 86 0 3.22 179.68 18:39 08.09.2019
2264 Clear 3 1009 81 0 2.15 168.591 18:19 08.09.2019
2265 Clear 3 1009 81 0 2.15 168.591 17:58 08.09.2019
2266 Clear 3 1009 81 0 2.15 168.591 17:37 08.09.2019
2267 Clear 3 1009 81 0 2.15 168.591 17:18 08.09.2019
2268 Clear 3 1009 81 0 2.15 168.591 16:55 08.09.2019
2269 Clear 3 1009 81 0 2.15 168.591 16:37 08.09.2019
2270 Clear 3 1009 81 0 2.15 168.591 16:18 08.09.2019
2271 Clear 3 1009 81 0 2.15 168.591 15:41 08.09.2019
2272 Clouds 3 1009 73 0 1.36 144.069 15:22 08.09.2019
2273 Clouds 3 1009 73 0 1.36 144.069 15:22 08.09.2019
2274 Clouds 3 1009 73 0 1.36 144.069 14:59 08.09.2019
2275 Clouds 3 1009 73 0 1.36 144.069 14:39 08.09.2019
2276 Clouds 3 1009 73 0 1.36 144.069 14:21 08.09.2019
2277 Clouds 3 1009 73 0 1.36 144.069 13:57 08.09.2019
2278 Clouds 3 1009 73 0 1.36 144.069 13:38 08.09.2019
2279 Clouds 3 1009 74 0 1.5 141.549 13:20 08.09.2019
2280 Clouds 3 1009 74 0 1.5 141.549 12:54 08.09.2019
2281 Clouds 3 1009 74 0 1.5 141.549 12:54 08.09.2019
2282 Clouds 3 1009 74 0 1.5 141.549 12:36 08.09.2019
2283 Clouds 7 1009 60 0 1.12 41.464 12:18 08.09.2019
2284 Clouds 7 1009 60 0 1.12 41.464 11:54 08.09.2019
2285 Clouds 7 1009 60 0 1.12 41.464 11:36 08.09.2019
2286 Clouds 7 1009 60 0 1.12 41.464 11:18 08.09.2019
2287 Clouds 7 1009 60 0 1.12 41.464 10:41 08.09.2019
2288 Clouds 7 1009 60 0 1.12 41.464 10:22 08.09.2019
2289 Clouds 7 1009 60 0 1.12 41.464 09:55 08.09.2019
2290 Clouds 7 1009 60 0 1.12 41.464 09:55 08.09.2019
2291 Clouds 7 1009 60 0 1.12 41.464 09:37 08.09.2019
2292 Clouds 7 1009 60 0 1.12 41.464 09:37 08.09.2019
2293 Clouds 8 1009 52 0 2.45 356.402 09:19 08.09.2019
2294 Clouds 8 1009 52 0 2.45 356.402 09:19 08.09.2019
2295 Clouds 9 1009 52 0 3.03 1.418 08:39 08.09.2019
2296 Clouds 9 1009 52 0 3.03 1.418 08:19 08.09.2019
2297 Clouds 9 1009 52 0 3.03 1.418 07:42 08.09.2019
2298 Clouds 9 1009 52 0 3.03 1.418 07:21 08.09.2019
2299 Clouds 9 1009 52 0 3.03 1.418 06:57 08.09.2019
2300 Clouds 9 1009 52 0 3.03 1.418 06:34 08.09.2019
2301 Clouds 8 1009 61 0 4.24 358.54 05:40 08.09.2019
2302 Clouds 8 1009 61 0 4.24 358.54 04:59 08.09.2019
2303 Rain 6 1009 77 0 5.9 353.892 03:23 08.09.2019
2304 Rain 6 1009 77 0 5.9 353.892 02:48 08.09.2019
2305 Rain 6 1009 77 0 5.9 353.892 01:54 08.09.2019
2306 Rain 6 1009 75 0 6.54 354.835 01:26 08.09.2019
2307 Rain 6 1009 75 0 6.54 354.835 00:49 08.09.2019
2308 Rain 6 1009 75 0 6.54 354.835 00:30 08.09.2019
2309 Rain 6 1007 86 0 3.82 356.506 23:57 07.09.2019
2310 Rain 6 1007 86 0 3.82 356.506 23:37 07.09.2019
2311 Rain 6 1007 86 0 3.82 356.506 23:18 07.09.2019
2312 Rain 6 1007 86 0 3.82 356.506 22:43 07.09.2019
2313 Rain 6 1007 86 0 3.82 356.506 22:23 07.09.2019
2314 Rain 6 1007 86 0 3.82 356.506 21:56 07.09.2019
2315 Rain 6 1007 86 0 3.82 356.506 21:38 07.09.2019
2316 Rain 6 1005 90 0 3.22 30.154 21:19 07.09.2019
2317 Rain 7 1005 94 0 4.17 13.673 20:39 07.09.2019
2318 Rain 7 1005 94 0 4.17 13.673 20:21 07.09.2019
2319 Rain 7 1005 94 0 4.17 13.673 19:56 07.09.2019
2320 Rain 7 1005 94 0 4.17 13.673 19:38 07.09.2019
2321 Rain 7 1005 94 0 4.17 13.673 19:19 07.09.2019
2322 Rain 7 1005 94 0 4.17 13.673 18:58 07.09.2019
2323 Rain 7 1005 94 0 4.17 13.673 18:58 07.09.2019
2324 Rain 7 1005 94 0 4.17 13.673 18:39 07.09.2019
2325 Rain 7 1003 94 0 1.58 69.806 18:20 07.09.2019
2326 Rain 7 1003 94 0 1.58 69.806 17:58 07.09.2019
2327 Rain 7 1003 94 0 1.58 69.806 17:58 07.09.2019
2328 Rain 7 1003 94 0 1.58 69.806 17:58 07.09.2019
2329 Rain 7 1003 94 0 1.58 69.806 17:39 07.09.2019
2330 Rain 7 1003 94 0 1.58 69.806 17:18 07.09.2019
2331 Rain 7 1003 94 0 1.58 69.806 16:56 07.09.2019
2332 Rain 7 1003 94 0 1.58 69.806 16:38 07.09.2019
2333 Rain 7 1003 94 0 1.58 69.806 16:18 07.09.2019
2334 Rain 7 1003 94 0 1.58 69.806 15:44 07.09.2019
2335 Rain 7 1003 94 0 1.58 69.806 15:25 07.09.2019
2336 Rain 8 1004 83 0 1.04 241.354 14:56 07.09.2019
2337 Rain 8 1004 83 0 1.04 241.354 14:36 07.09.2019
2338 Rain 8 1004 83 0 1.04 241.354 14:18 07.09.2019
2339 Rain 8 1004 83 0 1.04 241.354 13:56 07.09.2019
2340 Rain 8 1004 83 0 1.04 241.354 13:37 07.09.2019
2341 Rain 7 1004 89 0 2.07 322.492 13:18 07.09.2019
2342 Rain 7 1004 89 0 2.07 322.492 12:43 07.09.2019
2343 Clouds 11 1004 45 0 2.52 147.72 12:24 07.09.2019
2344 Clouds 11 1004 45 0 2.52 147.72 11:41 07.09.2019
2345 Clouds 11 1004 45 0 2.52 147.72 11:22 07.09.2019
2346 Clouds 11 1004 45 0 2.52 147.72 10:58 07.09.2019
2347 Clouds 11 1004 45 0 2.52 147.72 10:37 07.09.2019
2348 Clouds 11 1004 45 0 2.52 147.72 10:19 07.09.2019
2349 Clouds 11 1004 45 0 2.52 147.72 09:43 07.09.2019
2350 Clouds 12 1004 41 0 2.5 210.661 09:23 07.09.2019
2351 Clouds 12 1004 41 0 2.5 210.661 08:57 07.09.2019
2352 Clouds 12 1004 41 0 2.5 210.661 08:57 07.09.2019
2353 Clouds 12 1004 42 0 1.82 210.155 08:37 07.09.2019
2354 Clouds 12 1004 42 0 1.82 210.155 08:19 07.09.2019
2355 Clouds 12 1004 42 0 1.82 210.155 07:44 07.09.2019
2356 Clouds 12 1004 42 0 1.82 210.155 07:24 07.09.2019
2357 Clouds 12 1004 42 0 1.82 210.155 06:43 07.09.2019
2358 Clouds 10 1005 51 0 1.19 228.434 06:19 07.09.2019
2359 Clouds 10 1005 51 0 1.19 228.434 04:38 07.09.2019
2360 Clouds 10 1005 51 0 1.19 228.434 03:49 07.09.2019
2361 Clouds 9 1005 57 0 0.57 156.921 02:43 07.09.2019
2362 Clouds 9 1005 57 0 0.57 156.921 01:44 07.09.2019
2363 Clouds 8 1005 57 0 0.8 150.112 00:56 07.09.2019
2364 Clouds 8 1005 57 0 0.8 150.112 00:37 07.09.2019
2365 Clouds 6 1006 71 0 0.87 50.152 00:18 07.09.2019
2366 Clouds 6 1006 71 0 0.87 50.152 23:39 06.09.2019
2367 Clouds 6 1006 71 0 0.87 50.152 23:21 06.09.2019
2368 Clouds 6 1006 71 0 0.87 50.152 22:57 06.09.2019
2369 Clouds 6 1006 71 0 0.87 50.152 22:37 06.09.2019
2370 Clouds 6 1006 71 0 0.87 50.152 22:19 06.09.2019
2371 Clouds 6 1006 71 0 0.87 50.152 21:56 06.09.2019
2372 Clouds 6 1006 71 0 0.87 50.152 21:38 06.09.2019
2373 Clouds 5 1005 67 0 1.04 61.175 21:20 06.09.2019
2374 Clouds 5 1005 67 0 1.04 61.175 20:56 06.09.2019
2375 Clouds 6 1006 68 0 1.43 51.152 20:37 06.09.2019
2376 Clouds 6 1006 68 0 1.43 51.152 20:18 06.09.2019
2377 Clouds 6 1006 68 0 1.43 51.152 19:42 06.09.2019
2378 Clouds 6 1006 68 0 1.43 51.152 19:24 06.09.2019
2379 Clouds 6 1006 68 0 1.43 51.152 18:59 06.09.2019
2380 Clouds 6 1006 68 0 1.43 51.152 18:40 06.09.2019
2381 Clouds 7 1006 58 0 1.67 87.801 18:22 06.09.2019
2382 Clouds 7 1006 58 0 1.67 87.801 17:57 06.09.2019
2383 Clouds 7 1006 58 0 1.67 87.801 17:37 06.09.2019
2384 Clouds 7 1006 58 0 1.67 87.801 17:18 06.09.2019
2385 Clouds 7 1006 58 0 1.67 87.801 16:39 06.09.2019
2386 Clouds 7 1006 58 0 1.67 87.801 16:18 06.09.2019
2387 Clouds 7 1006 58 0 1.67 87.801 15:42 06.09.2019
2388 Clouds 7 1006 54 0 2.08 123.912 15:23 06.09.2019
2389 Clouds 7 1006 54 0 2.08 123.912 14:48 06.09.2019
2390 Clouds 7 1006 54 0 2.08 123.912 14:20 06.09.2019
2391 Clouds 7 1006 54 0 2.08 123.912 13:59 06.09.2019
2392 Clouds 7 1006 54 0 2.08 123.912 13:41 06.09.2019
2393 Clouds 7 1006 57 0 1.89 131.389 13:19 06.09.2019
2394 Clouds 7 1006 57 0 1.89 131.389 12:38 06.09.2019
2395 Clouds 7 1006 57 0 1.89 131.389 12:38 06.09.2019
2396 Clouds 10 1006 51 0 2.02 132.891 12:19 06.09.2019
2397 Clouds 10 1006 51 0 2.02 132.891 11:54 06.09.2019
2398 Clouds 10 1006 51 0 2.02 132.891 11:36 06.09.2019
2399 Clouds 10 1006 51 0 2.02 132.891 11:18 06.09.2019
2400 Clouds 10 1006 51 0 2.02 132.891 10:40 06.09.2019
2401 Clouds 10 1007 52 0 1.65 158.424 10:21 06.09.2019
2402 Clouds 10 1007 52 0 1.65 158.424 09:57 06.09.2019
2403 Clouds 10 1007 52 0 1.65 158.424 09:36 06.09.2019
2404 Clouds 11 1007 49 0 2.42 203.413 09:18 06.09.2019
2405 Clouds 11 1007 49 0 2.42 203.413 08:43 06.09.2019
2406 Clouds 11 1007 49 0 2.42 203.413 08:25 06.09.2019
2407 Clouds 11 1007 49 0 2.42 203.413 07:48 06.09.2019
2408 Clouds 11 1007 49 0 2.42 203.413 07:27 06.09.2019
2409 Clouds 11 1007 49 0 2.42 203.413 06:58 06.09.2019
2410 Clouds 11 1007 49 0 2.42 203.413 06:28 06.09.2019
2411 Clouds 10 1009 58 0 2.75 212.238 05:43 06.09.2019
2412 Clouds 10 1009 58 0 2.75 212.238 04:52 06.09.2019
2413 Clouds 10 1009 58 0 2.75 212.238 04:19 06.09.2019
2414 Clouds 7 1010 77 0 1.63 229.838 02:27 06.09.2019
2415 Clouds 8 1010 72 0 1.61 287.346 00:48 06.09.2019
2416 Rain 6 1011 87 0 0.75 319.001 23:57 05.09.2019
2417 Rain 6 1011 87 0 0.75 319.001 23:57 05.09.2019
2418 Rain 6 1011 87 0 0.75 319.001 23:39 05.09.2019
2419 Rain 6 1011 87 0 0.75 319.001 23:19 05.09.2019
2420 Rain 6 1011 87 0 0.75 319.001 22:44 05.09.2019
2421 Rain 6 1011 87 0 0.75 319.001 22:25 05.09.2019
2422 Rain 6 1011 87 0 0.75 319.001 21:57 05.09.2019
2423 Rain 6 1011 87 0 0.75 319.001 21:38 05.09.2019
2424 Clouds 4 1010 91 0 1.06 315.877 21:20 05.09.2019
2425 Clouds 4 1010 91 0 1.06 315.877 20:58 05.09.2019
2426 Clouds 5 1010 85 0 0.9 296.508 20:38 05.09.2019
2427 Clouds 5 1010 85 0 0.9 296.508 20:19 05.09.2019
2428 Clouds 5 1010 85 0 0.9 296.508 19:56 05.09.2019
2429 Clouds 5 1010 85 0 0.9 296.508 19:37 05.09.2019
2430 Clouds 5 1010 85 0 0.9 296.508 19:19 05.09.2019
2431 Clouds 5 1010 85 0 0.9 296.508 18:41 05.09.2019
2432 Clouds 6 1010 84 0 0.86 291.071 18:22 05.09.2019
2433 Clouds 6 1010 84 0 0.86 291.071 17:58 05.09.2019
2434 Clouds 6 1010 84 0 0.86 291.071 17:39 05.09.2019
2435 Clouds 6 1010 84 0 0.86 291.071 17:20 05.09.2019
2436 Clouds 6 1010 84 0 0.86 291.071 16:42 05.09.2019
2437 Clouds 6 1010 84 0 0.86 291.071 16:22 05.09.2019
2438 Clouds 6 1010 84 0 0.86 291.071 16:00 05.09.2019
2439 Clouds 6 1010 84 0 0.86 291.071 15:40 05.09.2019
2440 Clouds 5 1009 85 0 1.24 310.285 15:19 05.09.2019
2441 Clouds 5 1009 85 0 1.24 310.285 14:56 05.09.2019
2442 Clouds 5 1009 85 0 1.24 310.285 14:38 05.09.2019
2443 Clouds 5 1009 85 0 1.24 310.285 14:38 05.09.2019
2444 Clouds 5 1009 85 0 1.24 310.285 14:18 05.09.2019
2445 Clouds 5 1009 85 0 1.24 310.285 13:43 05.09.2019
2446 Clouds 4 1009 90 0 1.3 323.96 13:20 05.09.2019
2447 Clouds 4 1009 90 0 1.3 323.96 12:44 05.09.2019
2448 Clouds 4 1009 90 0 1.3 323.96 12:26 05.09.2019
2449 Clouds 8 1008 74 0 2.11 328.52 11:57 05.09.2019
2450 Clouds 8 1008 74 0 2.11 328.52 11:39 05.09.2019
2451 Clouds 8 1008 74 0 2.11 328.52 11:18 05.09.2019
2452 Clouds 8 1008 74 0 2.11 328.52 10:41 05.09.2019
2453 Clouds 8 1008 74 0 2.11 328.52 10:22 05.09.2019
2454 Clouds 8 1008 74 0 2.11 328.52 09:58 05.09.2019
2455 Clouds 8 1008 74 0 2.11 328.52 09:58 05.09.2019
2456 Clouds 8 1008 75 0 2.3 334.461 09:38 05.09.2019
2457 Rain 8 1006 77 0 2.64 315.215 09:18 05.09.2019
2458 Rain 8 1006 77 0 2.64 315.215 09:18 05.09.2019
2459 Rain 8 1006 77 0 2.64 315.215 09:18 05.09.2019
2460 Rain 8 1006 77 0 2.64 315.215 08:45 05.09.2019
2461 Rain 8 1006 77 0 2.64 315.215 08:26 05.09.2019
2462 Rain 8 1006 77 0 2.64 315.215 07:46 05.09.2019
2463 Rain 8 1006 77 0 2.64 315.215 07:27 05.09.2019
2464 Rain 8 1006 77 0 2.64 315.215 06:57 05.09.2019
2465 Rain 8 1006 77 0 2.64 315.215 06:31 05.09.2019
2466 Rain 8 1006 75 0 2.62 303.387 05:50 05.09.2019
2467 Rain 8 1006 75 0 2.62 303.387 05:30 05.09.2019
2468 Rain 8 1006 75 0 2.62 303.387 04:50 05.09.2019
2469 Rain 8 1006 75 0 2.62 303.387 04:25 05.09.2019
2470 Rain 8 1006 75 0 2.62 303.387 03:40 05.09.2019
2471 Clouds 7 1005 74 0 1.29 304.147 02:51 05.09.2019
2472 Clouds 7 1005 74 0 1.29 304.147 02:27 05.09.2019
2473 Clouds 7 1005 74 0 1.29 304.147 01:37 05.09.2019
2474 Clouds 7 1005 73 0 1.01 297.859 00:46 05.09.2019
2475 Clouds 4 1005 89 0 0.5 306.824 00:21 05.09.2019
2476 Clouds 4 1005 89 0 0.5 306.824 23:56 04.09.2019
2477 Clouds 4 1005 89 0 0.5 306.824 23:37 04.09.2019
2478 Clouds 4 1005 89 0 0.5 306.824 23:18 04.09.2019
2479 Clouds 4 1005 89 0 0.5 306.824 22:46 04.09.2019
2480 Clouds 4 1005 89 0 0.5 306.824 22:19 04.09.2019
2481 Clouds 2 1005 95 0 0.51 296.011 21:41 04.09.2019
2482 Clouds 1 1004 94 0 0.72 310.826 21:20 04.09.2019
2483 Clouds 1 1004 94 0 0.72 310.826 20:58 04.09.2019
2484 Clouds 1 1004 94 0 0.72 310.826 20:40 04.09.2019
2485 Clouds 1 1004 94 0 0.72 310.826 20:19 04.09.2019
2486 Clouds 1 1004 94 0 0.72 310.826 19:58 04.09.2019
2487 Clouds 1 1004 94 0 0.72 310.826 19:39 04.09.2019
2488 Clouds 1 1004 94 0 0.72 310.826 19:20 04.09.2019
2489 Clouds 1 1004 94 0 0.72 310.826 18:39 04.09.2019
2490 Clouds 3 1003 92 0 1.39 274.345 18:20 04.09.2019
2491 Clouds 3 1003 92 0 1.39 274.345 17:56 04.09.2019
2492 Clouds 3 1003 92 0 1.39 274.345 17:37 04.09.2019
2493 Clouds 3 1003 92 0 1.39 274.345 17:19 04.09.2019
2494 Clouds 3 1003 92 0 1.39 274.345 16:46 04.09.2019
2495 Clouds 3 1003 92 0 1.39 274.345 16:28 04.09.2019
2496 Clouds 3 1003 92 0 1.39 274.345 15:59 04.09.2019
2497 Clouds 3 1003 92 0 1.39 274.345 15:39 04.09.2019
2498 Clouds 3 1003 92 0 1.39 274.345 15:39 04.09.2019
2499 Clouds 3 1002 91 0 1.56 297.387 15:21 04.09.2019
2500 Clouds 3 1002 91 0 1.56 297.387 14:57 04.09.2019
2501 Clouds 3 1002 91 0 1.56 297.387 14:37 04.09.2019
2502 Clouds 3 1002 91 0 1.56 297.387 14:19 04.09.2019
2503 Clouds 3 1002 91 0 1.56 297.387 13:55 04.09.2019
2504 Clouds 3 1002 91 0 1.56 297.387 13:36 04.09.2019
2505 Clouds 3 1002 91 0 1.57 280.55 13:18 04.09.2019
2506 Clouds 3 1002 91 0 1.57 280.55 12:40 04.09.2019
2507 Rain 7 1000 69 0 5.46 323.164 12:22 04.09.2019
2508 Rain 7 1000 69 0 5.46 323.164 11:55 04.09.2019
2509 Rain 7 1000 69 0 5.46 323.164 11:55 04.09.2019
2510 Rain 7 1000 69 0 5.46 323.164 11:36 04.09.2019
2511 Rain 7 1000 69 0 5.46 323.164 11:18 04.09.2019
2512 Rain 7 1000 69 0 5.46 323.164 10:44 04.09.2019
2513 Rain 7 1000 69 0 5.46 323.164 10:25 04.09.2019
2514 Rain 7 1001 73 0 5.76 304.587 09:57 04.09.2019
2515 Rain 7 1001 73 0 5.76 304.587 09:39 04.09.2019
2516 Rain 9 999 52 0 3.05 245.772 09:18 04.09.2019
2517 Rain 9 999 52 0 3.05 245.772 08:41 04.09.2019
2518 Rain 9 999 52 0 3.05 245.772 08:23 04.09.2019
2519 Rain 9 999 52 0 3.05 245.772 07:50 04.09.2019
2520 Rain 9 999 52 0 3.05 245.772 07:32 04.09.2019
2521 Rain 9 999 52 0 3.05 245.772 07:32 04.09.2019
2522 Rain 9 999 52 0 3.05 245.772 06:42 04.09.2019
2523 Clouds 9 999 52 0 3.13 256.755 06:21 04.09.2019
2524 Clouds 9 999 52 0 3.13 256.755 04:53 04.09.2019
2525 Clouds 9 999 52 0 3.13 256.755 04:19 04.09.2019
2526 Clouds 7 999 58 0 2.43 219.095 01:49 04.09.2019
2527 Clouds 7 999 61 0 2.15 223.721 00:55 04.09.2019
2528 Clouds 7 999 61 0 2.15 223.721 00:34 04.09.2019
2529 Clouds 3 1000 64 0 2.23 204.476 23:56 03.09.2019
2530 Clouds 3 1000 64 0 2.23 204.476 23:38 03.09.2019
2531 Clouds 3 1000 64 0 2.23 204.476 23:19 03.09.2019
2532 Clouds 3 1000 64 0 2.23 204.476 22:40 03.09.2019
2533 Clouds 3 1000 64 0 2.23 204.476 22:22 03.09.2019
2534 Clouds 3 1000 64 0 2.23 204.476 22:22 03.09.2019
2535 Clear 2 1000 69 0 2.67 186.528 21:56 03.09.2019
2536 Clear 2 1000 69 0 2.67 186.528 21:38 03.09.2019
2537 Clear 2 1000 65 0 2.69 190.817 21:20 03.09.2019
2538 Clear 2 1000 65 0 2.69 190.817 20:44 03.09.2019
2539 Clear 2 1000 65 0 2.69 190.817 20:24 03.09.2019
2540 Clear 2 1000 65 0 2.69 190.817 20:24 03.09.2019
2541 Clear 2 1000 65 0 2.69 190.817 19:57 03.09.2019
2542 Clear 2 1000 65 0 2.69 190.817 19:39 03.09.2019
2543 Clear 2 1000 65 0 2.69 190.817 19:19 03.09.2019
2544 Clear 2 1000 65 0 2.69 190.817 18:56 03.09.2019
2545 Clear 2 1000 65 0 2.69 190.817 18:38 03.09.2019
2546 Clear 5 1001 62 0 2.85 201.495 18:18 03.09.2019
2547 Clear 5 1001 62 0 2.85 201.495 17:43 03.09.2019
2548 Clear 5 1001 62 0 2.85 201.495 17:21 03.09.2019
2549 Clear 5 1001 62 0 2.85 201.495 17:00 03.09.2019
2550 Clear 5 1001 62 0 2.85 201.495 16:41 03.09.2019
2551 Clear 5 1001 62 0 2.85 201.495 16:22 03.09.2019
2552 Clear 5 1001 62 0 2.85 201.495 15:55 03.09.2019
2553 Clear 5 1001 62 0 2.85 201.495 15:37 03.09.2019
2554 Clouds 7 1001 78 0 0.73 358.821 15:19 03.09.2019
2555 Clouds 7 1001 78 0 0.73 358.821 14:55 03.09.2019
2556 Clouds 7 1001 78 0 0.73 358.821 14:36 03.09.2019
2557 Clouds 7 1001 78 0 0.73 358.821 14:18 03.09.2019
2558 Clouds 7 1001 78 0 0.73 358.821 13:55 03.09.2019
2559 Clouds 7 1001 78 0 0.73 358.821 13:36 03.09.2019
2560 Rain 7 1000 81 0 0.49 329.319 13:18 03.09.2019
2561 Rain 7 1000 81 0 0.49 329.319 12:45 03.09.2019
2562 Rain 7 1000 81 0 0.49 329.319 12:26 03.09.2019
2563 Rain 13 1000 60 0 1.61 45.504 11:43 03.09.2019
2564 Rain 13 1000 60 0 1.61 45.504 11:23 03.09.2019
2565 Rain 13 1000 60 0 1.61 45.504 10:58 03.09.2019
2566 Rain 13 1000 60 0 1.61 45.504 10:39 03.09.2019
2567 Rain 13 1000 60 0 1.61 45.504 10:21 03.09.2019
2568 Rain 13 1000 60 0 1.61 45.504 09:49 03.09.2019
2569 Rain 13 1000 57 0 0.73 110.19 09:31 03.09.2019
2570 Rain 15 1000 47 0 2.66 167.765 08:57 03.09.2019
2571 Rain 15 1000 47 0 2.66 167.765 08:37 03.09.2019
2572 Rain 15 1000 47 0 2.66 167.765 08:19 03.09.2019
2573 Rain 15 1000 47 0 2.66 167.765 07:43 03.09.2019
2574 Rain 15 1000 47 0 2.66 167.765 07:24 03.09.2019
2575 Rain 15 1000 47 0 2.66 167.765 06:47 03.09.2019
2576 Rain 15 1000 47 0 2.66 167.765 06:28 03.09.2019
2577 Rain 12 1000 63 0 1.62 160.141 03:44 03.09.2019
2578 Rain 9 1002 71 0 1.29 203.187 02:48 03.09.2019
2579 Rain 9 1002 71 0 1.29 203.187 02:27 03.09.2019
2580 Rain 9 1002 71 0 1.29 203.187 01:53 03.09.2019
2581 Rain 8 1001 82 0 1.16 206.476 01:34 03.09.2019
2582 Rain 8 1001 82 0 1.16 206.476 00:57 03.09.2019
2583 Rain 8 1001 82 0 1.16 206.476 00:27 03.09.2019
2584 Clouds 10 1001 55 0 2.26 163.542 23:41 02.09.2019
2585 Clouds 10 1001 55 0 2.26 163.542 23:41 02.09.2019
2586 Clouds 10 1001 55 0 2.26 163.542 23:20 02.09.2019
2587 Clouds 10 1001 55 0 2.26 163.542 22:58 02.09.2019
2588 Clouds 10 1001 55 0 2.26 163.542 22:39 02.09.2019
2589 Clouds 10 1001 55 0 2.26 163.542 22:21 02.09.2019
2590 Clouds 10 1001 55 0 2.26 163.542 21:58 02.09.2019
2591 Clouds 11 1002 54 0 1.71 110.631 21:40 02.09.2019
2592 Clouds 10 1002 55 0 2.29 70.806 21:20 02.09.2019
2593 Clouds 10 1002 55 0 2.29 70.806 20:59 02.09.2019
2594 Clouds 10 1002 55 0 2.29 70.806 20:40 02.09.2019
2595 Clouds 10 1002 55 0 2.29 70.806 20:19 02.09.2019
2596 Clouds 10 1002 55 0 2.29 70.806 19:57 02.09.2019
2597 Clouds 10 1002 55 0 2.29 70.806 19:39 02.09.2019
2598 Clouds 10 1002 55 0 2.29 70.806 19:20 02.09.2019
2599 Clouds 10 1002 55 0 2.29 70.806 18:41 02.09.2019
2600 Clouds 10 1002 55 0 1.58 134.743 18:22 02.09.2019
2601 Clouds 10 1002 55 0 1.58 134.743 17:58 02.09.2019
2602 Clouds 10 1002 55 0 1.58 134.743 17:39 02.09.2019
2603 Clouds 10 1002 55 0 1.58 134.743 17:21 02.09.2019
2604 Clouds 10 1002 55 0 1.58 134.743 17:21 02.09.2019
2605 Clouds 10 1002 55 0 1.58 134.743 16:58 02.09.2019
2606 Clouds 10 1002 55 0 1.58 134.743 16:38 02.09.2019
2607 Clouds 10 1002 55 0 1.58 134.743 16:20 02.09.2019
2608 Clouds 10 1002 55 0 1.58 134.743 15:45 02.09.2019
2609 Clouds 10 1002 55 0 1.58 134.743 15:26 02.09.2019
2610 Clouds 12 1003 49 0 2.34 124.124 14:57 02.09.2019
2611 Clouds 12 1003 49 0 2.34 124.124 14:57 02.09.2019
2612 Clouds 12 1003 49 0 2.34 124.124 14:57 02.09.2019
2613 Clouds 12 1003 49 0 2.34 124.124 14:38 02.09.2019
2614 Clouds 12 1003 49 0 2.34 124.124 14:20 02.09.2019
2615 Clouds 12 1003 49 0 2.34 124.124 13:55 02.09.2019
2616 Clouds 12 1003 49 0 2.34 124.124 13:55 02.09.2019
2617 Clouds 12 1003 49 0 2.34 124.124 13:36 02.09.2019
2618 Clouds 12 1003 49 0 2.34 124.124 13:36 02.09.2019
2619 Clouds 11 1004 51 0 2.28 118.552 13:18 02.09.2019
2620 Clouds 11 1004 51 0 2.28 118.552 12:43 02.09.2019
2621 Clouds 16 1003 43 0 2.32 156.301 12:24 02.09.2019
2622 Clouds 16 1003 43 0 2.32 156.301 11:58 02.09.2019
2623 Clouds 16 1003 43 0 2.32 156.301 11:38 02.09.2019
2624 Clouds 16 1003 43 0 2.32 156.301 11:20 02.09.2019
2625 Clouds 16 1003 43 0 2.32 156.301 10:56 02.09.2019
2626 Clouds 16 1003 43 0 2.32 156.301 10:37 02.09.2019
2627 Clouds 16 1003 43 0 2.32 156.301 10:19 02.09.2019
2628 Clouds 16 1003 43 0 2.32 156.301 09:45 02.09.2019
2629 Clouds 17 1004 37 0 2.47 199.876 09:22 02.09.2019
2630 Clouds 17 1004 37 0 2.47 199.876 08:45 02.09.2019
2631 Clouds 17 1004 37 0 2.47 199.876 08:45 02.09.2019
2632 Clouds 17 1004 37 0 2.47 199.876 08:23 02.09.2019
2633 Clouds 17 1004 37 0 2.47 199.876 07:58 02.09.2019
2634 Clouds 17 1004 37 0 2.47 199.876 07:40 02.09.2019
2635 Clouds 17 1004 37 0 2.47 199.876 07:21 02.09.2019
2636 Clouds 17 1004 37 0 2.47 199.876 06:44 02.09.2019
2637 Clouds 17 1004 37 0 2.47 199.876 06:25 02.09.2019
2638 Clouds 15 1005 43 0 1.98 220.206 05:47 02.09.2019
2639 Clouds 15 1005 43 0 1.98 220.206 05:18 02.09.2019
2640 Clouds 13 1007 56 0 0.82 212.102 02:59 02.09.2019
2641 Clouds 13 1007 56 0 0.82 212.102 01:45 02.09.2019
2642 Clouds 13 1007 56 0 0.62 193.679 00:48 02.09.2019
2643 Clouds 13 1007 56 0 0.62 193.679 00:30 02.09.2019
2644 Clouds 8 1007 76 0 0.56 341.759 23:44 01.09.2019
2645 Clouds 8 1007 76 0 0.56 341.759 23:22 01.09.2019
2646 Clouds 8 1007 76 0 0.56 341.759 22:59 01.09.2019
2647 Clouds 8 1007 76 0 0.56 341.759 22:39 01.09.2019
2648 Clouds 8 1007 76 0 0.56 341.759 22:19 01.09.2019
2649 Clouds 8 1007 76 0 0.56 341.759 21:57 01.09.2019
2650 Clouds 7 1008 78 0 0.81 345.688 21:38 01.09.2019
2651 Clouds 7 1008 74 0 1.9 359.94 21:20 01.09.2019
2652 Clouds 7 1008 74 0 1.9 359.94 20:56 01.09.2019
2653 Clouds 7 1008 74 0 1.9 359.94 20:38 01.09.2019
2654 Clouds 7 1008 74 0 1.9 359.94 20:18 01.09.2019
2655 Clouds 7 1008 74 0 1.9 359.94 19:56 01.09.2019
2656 Clouds 7 1008 74 0 1.9 359.94 19:37 01.09.2019
2657 Clouds 7 1008 74 0 1.9 359.94 19:19 01.09.2019
2658 Clouds 7 1008 74 0 1.9 359.94 18:43 01.09.2019
2659 Clouds 8 1008 65 0 1.41 1.381 18:25 01.09.2019
2660 Clouds 8 1008 65 0 1.41 1.381 17:55 01.09.2019
2661 Clouds 8 1008 65 0 1.41 1.381 17:55 01.09.2019
2662 Clouds 8 1008 65 0 1.41 1.381 17:37 01.09.2019
2663 Clouds 8 1008 65 0 1.41 1.381 17:19 01.09.2019
2664 Clouds 8 1008 65 0 1.41 1.381 16:40 01.09.2019
2665 Clouds 8 1008 65 0 1.41 1.381 16:19 01.09.2019
2666 Clouds 8 1008 65 0 1.41 1.381 15:48 01.09.2019
2667 Clouds 8 1008 65 0 1.41 1.381 15:29 01.09.2019
2668 Clouds 10 1008 50 0 0.66 115.716 14:59 01.09.2019
2669 Clouds 10 1008 50 0 0.66 115.716 14:40 01.09.2019
2670 Clouds 10 1008 50 0 0.66 115.716 14:20 01.09.2019
2671 Clouds 10 1008 50 0 0.66 115.716 13:54 01.09.2019
2672 Clouds 10 1008 50 0 0.66 115.716 13:54 01.09.2019
2673 Clouds 10 1008 50 0 0.66 115.716 13:36 01.09.2019
2674 Clouds 11 1008 50 0 1.2 113.605 13:18 01.09.2019
2675 Clouds 11 1008 50 0 1.2 113.605 12:41 01.09.2019
2676 Clouds 16 1008 42 0 1.34 150.245 12:23 01.09.2019
2677 Clouds 16 1008 42 0 1.34 150.245 11:41 01.09.2019
2678 Clouds 16 1008 42 0 1.34 150.245 11:41 01.09.2019
2679 Clouds 16 1008 42 0 1.34 150.245 11:20 01.09.2019
2680 Clouds 16 1008 42 0 1.34 150.245 10:59 01.09.2019
2681 Clouds 16 1008 42 0 1.34 150.245 10:41 01.09.2019
2682 Clouds 16 1008 42 0 1.34 150.245 10:21 01.09.2019
2683 Clouds 16 1008 42 0 1.34 150.245 09:43 01.09.2019
2684 Clouds 15 1008 45 0 1.11 181.968 09:25 01.09.2019
2685 Clear 17 1009 32 0 2.56 197.048 08:45 01.09.2019
2686 Clear 17 1009 32 0 2.56 197.048 08:24 01.09.2019
2687 Clear 17 1009 32 0 2.56 197.048 07:56 01.09.2019
2688 Clear 17 1009 32 0 2.56 197.048 07:38 01.09.2019
2689 Clear 17 1009 32 0 2.56 197.048 07:38 01.09.2019
2690 Clear 17 1009 32 0 2.56 197.048 06:51 01.09.2019
2691 Clear 17 1009 32 0 2.56 197.048 06:28 01.09.2019
2692 Clear 16 1010 34 0 3.21 198.401 05:57 01.09.2019
2693 Clear 16 1010 34 0 3.21 198.401 04:32 01.09.2019
2694 Clear 16 1010 34 0 3.21 198.401 03:42 01.09.2019
2695 Clear 13 1012 40 0 2.11 189.967 02:58 01.09.2019
2696 Clear 13 1012 40 0 2.11 189.967 02:28 01.09.2019
2697 Clear 13 1012 40 0 2.11 189.967 01:51 01.09.2019
2698 Clear 13 1012 40 0 2.16 188.536 01:24 01.09.2019
2699 Clear 13 1012 40 0 2.16 188.536 00:47 01.09.2019
2700 Clear 7 1013 58 0 1.13 182.24 00:23 01.09.2019
2701 Clear 7 1013 58 0 1.13 182.24 23:55 31.08.2019
2702 Clear 7 1013 58 0 1.13 182.24 23:36 31.08.2019
2703 Clear 7 1013 58 0 1.13 182.24 23:18 31.08.2019
2704 Clear 7 1013 58 0 1.13 182.24 22:44 31.08.2019
2705 Clear 7 1013 58 0 1.13 182.24 22:25 31.08.2019
2706 Clear 7 1013 58 0 1.13 182.24 21:58 31.08.2019
2707 Clear 7 1013 58 0 1.25 183.131 21:39 31.08.2019
2708 Clear 7 1013 58 0 1.25 183.131 21:39 31.08.2019
2709 Clear 5 1013 65 0 0.96 160.656 21:20 31.08.2019
2710 Clear 5 1013 65 0 0.96 160.656 20:49 31.08.2019
2711 Clear 5 1013 65 0 0.96 160.656 20:31 31.08.2019
2712 Clear 5 1013 65 0 0.96 160.656 19:57 31.08.2019
2713 Clear 5 1013 65 0 0.96 160.656 19:39 31.08.2019
2714 Clear 5 1013 65 0 0.96 160.656 19:21 31.08.2019
2715 Clear 5 1013 65 0 0.96 160.656 19:21 31.08.2019
2716 Clear 5 1013 65 0 0.96 160.656 18:40 31.08.2019
2717 Clear 6 1014 64 0 0.59 135.137 18:21 31.08.2019
2718 Clear 6 1014 64 0 0.59 135.137 17:58 31.08.2019
2719 Clear 6 1014 64 0 0.59 135.137 17:37 31.08.2019
2720 Clear 6 1014 64 0 0.59 135.137 17:19 31.08.2019
2721 Clear 6 1014 64 0 0.59 135.137 16:59 31.08.2019
2722 Clear 6 1014 64 0 0.59 135.137 16:41 31.08.2019
2723 Clear 6 1014 64 0 0.59 135.137 16:21 31.08.2019
2724 Clear 6 1014 64 0 0.59 135.137 15:59 31.08.2019
2725 Clear 6 1014 64 0 0.59 135.137 15:38 31.08.2019
2726 Clear 7 1014 55 0 0.85 122.492 15:18 31.08.2019
2727 Clear 7 1014 55 0 0.85 122.492 14:41 31.08.2019
2728 Clear 7 1014 55 0 0.85 122.492 14:22 31.08.2019
2729 Clear 7 1014 55 0 0.85 122.492 13:42 31.08.2019
2730 Clear 7 1014 61 0 0.75 97.6 13:23 31.08.2019
2731 Clear 7 1014 61 0 0.75 97.6 13:23 31.08.2019
2732 Clear 7 1014 61 0 0.75 97.6 12:59 31.08.2019
2733 Clear 7 1014 61 0 0.75 97.6 12:59 31.08.2019
2734 Clear 7 1014 61 0 0.75 97.6 12:40 31.08.2019
2735 Clear 14 1013 42 0 0.82 170.641 12:21 31.08.2019
2736 Clear 14 1013 42 0 0.82 170.641 11:58 31.08.2019
2737 Clear 14 1013 42 0 0.82 170.641 11:40 31.08.2019
2738 Clear 14 1013 42 0 0.82 170.641 11:22 31.08.2019
2739 Clear 14 1013 42 0 0.82 170.641 10:43 31.08.2019
2740 Clear 14 1013 42 0 0.82 170.641 10:20 31.08.2019
2741 Clear 14 1013 42 0 0.82 170.641 10:00 31.08.2019
2742 Clear 14 1013 40 0 0.99 166.567 09:39 31.08.2019
2743 Clouds 14 1013 31 0 0.6 312.416 09:21 31.08.2019
2744 Clouds 14 1013 31 0 0.6 312.416 08:45 31.08.2019
2745 Clouds 14 1013 31 0 0.6 312.416 08:27 31.08.2019
2746 Clouds 14 1013 31 0 0.6 312.416 07:43 31.08.2019
2747 Clouds 14 1013 31 0 0.6 312.416 07:23 31.08.2019
2748 Clouds 14 1013 31 0 0.6 312.416 06:59 31.08.2019
2749 Clouds 13 1014 34 0 0.52 339.677 06:23 31.08.2019
2750 Clouds 13 1014 34 0 0.52 339.677 05:49 31.08.2019
2751 Clouds 13 1014 34 0 0.52 339.677 05:27 31.08.2019
2752 Clouds 13 1014 34 0 0.52 339.677 04:28 31.08.2019
2753 Clouds 13 1014 34 0 0.52 339.677 03:42 31.08.2019
2754 Clouds 10 1015 41 0 1.1 49.444 02:20 31.08.2019
2755 Clouds 10 1015 41 0 1.1 49.444 01:47 31.08.2019
2756 Clouds 10 1015 41 0 1.11 45.879 01:28 31.08.2019
2757 Clouds 10 1015 41 0 1.11 45.879 00:45 31.08.2019
2758 Clouds 10 1015 41 0 1.11 45.879 00:27 31.08.2019
2759 Clouds 10 1015 41 0 1.11 45.879 00:27 31.08.2019
2760 Clouds 5 1015 57 0 1.39 49.372 23:49 30.08.2019
2761 Clouds 5 1015 57 0 1.39 49.372 23:19 30.08.2019
2762 Clouds 5 1015 57 0 1.39 49.372 23:19 30.08.2019
2763 Clouds 5 1015 57 0 1.39 49.372 22:58 30.08.2019
2764 Clouds 5 1015 57 0 1.39 49.372 22:38 30.08.2019
2765 Clouds 5 1015 57 0 1.39 49.372 22:19 30.08.2019
2766 Clouds 5 1015 57 0 1.39 49.372 21:56 30.08.2019
2767 Clouds 5 1015 56 0 1.13 54.817 21:36 30.08.2019
2768 Clouds 4 1015 52 0 1.45 54.08 21:18 30.08.2019
2769 Clouds 4 1015 52 0 1.45 54.08 21:18 30.08.2019
2770 Clouds 4 1015 52 0 1.45 54.08 20:56 30.08.2019
2771 Clouds 4 1015 52 0 1.45 54.08 20:37 30.08.2019
2772 Clouds 4 1015 52 0 1.45 54.08 20:18 30.08.2019
2773 Clouds 4 1015 52 0 1.45 54.08 19:55 30.08.2019
2774 Clouds 4 1015 52 0 1.45 54.08 19:36 30.08.2019
2775 Clouds 4 1015 52 0 1.45 54.08 19:18 30.08.2019
2776 Clouds 4 1015 52 0 1.45 54.08 18:44 30.08.2019
2777 Clouds 5 1015 48 0 1.23 59.235 18:24 30.08.2019
2778 Clouds 5 1015 48 0 1.23 59.235 17:56 30.08.2019
2779 Clouds 5 1015 48 0 1.23 59.235 17:56 30.08.2019
2780 Clouds 5 1015 48 0 1.23 59.235 17:38 30.08.2019
2781 Clouds 5 1015 48 0 1.23 59.235 17:19 30.08.2019
2782 Clouds 5 1015 48 0 1.23 59.235 16:49 30.08.2019
2783 Clouds 5 1015 48 0 1.23 59.235 16:29 30.08.2019
2784 Clouds 5 1015 48 0 1.23 59.235 15:59 30.08.2019
2785 Clouds 5 1015 48 0 1.23 59.235 15:39 30.08.2019
2786 Clouds 6 1016 42 0 1.15 74.518 15:19 30.08.2019
2787 Clouds 6 1016 42 0 1.15 74.518 15:19 30.08.2019
2788 Clouds 6 1016 42 0 1.15 74.518 14:45 30.08.2019
2789 Clouds 6 1016 42 0 1.15 74.518 14:25 30.08.2019
2790 Clouds 6 1016 42 0 1.15 74.518 13:56 30.08.2019
2791 Clouds 6 1016 42 0 1.15 74.518 13:37 30.08.2019
2792 Clouds 6 1016 42 0 1.2 79.895 13:19 30.08.2019
2793 Clouds 6 1016 42 0 1.2 79.895 12:42 30.08.2019
2794 Clouds 6 1016 42 0 1.2 79.895 12:42 30.08.2019
2795 Clouds 12 1015 39 0 0.4 81.102 12:23 30.08.2019
2796 Clouds 12 1015 39 0 0.4 81.102 11:55 30.08.2019
2797 Clouds 12 1015 39 0 0.4 81.102 11:37 30.08.2019
2798 Clouds 12 1015 39 0 0.4 81.102 11:18 30.08.2019
2799 Clouds 12 1015 39 0 0.4 81.102 10:37 30.08.2019
2800 Clouds 12 1015 39 0 0.4 81.102 10:19 30.08.2019
2801 Clouds 12 1015 39 0 0.4 81.102 09:42 30.08.2019
2802 Clouds 13 1015 24 0 0.38 22.224 09:20 30.08.2019
2803 Clouds 13 1015 24 0 0.38 22.224 09:20 30.08.2019
2804 Clouds 13 1015 24 0 0.38 22.224 09:00 30.08.2019
2805 Clouds 13 1015 24 0 0.38 22.224 08:41 30.08.2019
2806 Clouds 13 1015 24 0 0.38 22.224 08:22 30.08.2019
2807 Clouds 13 1015 24 0 0.38 22.224 07:45 30.08.2019
2808 Clouds 13 1015 24 0 0.38 22.224 07:25 30.08.2019
2809 Clouds 13 1015 24 0 0.38 22.224 06:49 30.08.2019
2810 Clouds 13 1015 24 0 0.38 22.224 06:30 30.08.2019
2811 Clear 11 1017 28 0 1.01 59.104 05:59 30.08.2019
2812 Clear 11 1017 28 0 1.01 59.104 04:59 30.08.2019
2813 Clear 11 1017 28 0 1.01 59.104 03:56 30.08.2019
2814 Clear 11 1017 28 0 1.01 59.104 03:56 30.08.2019
2815 Clear 11 1017 28 0 1.01 59.104 03:34 30.08.2019
2816 Clouds 7 1018 40 0 0.86 37.284 02:35 30.08.2019
2817 Clouds 7 1018 40 0 0.86 37.284 01:40 30.08.2019
2818 Clouds 7 1018 40 0 0.86 37.284 01:40 30.08.2019
2819 Clouds 7 1018 40 0 0.81 45.252 00:47 30.08.2019
2820 Clouds 3 1019 60 0 0.83 42.395 00:18 30.08.2019
2821 Clouds 3 1019 60 0 0.83 42.395 23:46 29.08.2019
2822 Clouds 3 1019 60 0 0.83 42.395 23:22 29.08.2019
2823 Clouds 3 1019 60 0 0.83 42.395 22:45 29.08.2019
2824 Clouds 3 1019 60 0 0.83 42.395 22:27 29.08.2019
2825 Clouds 3 1019 59 0 0.78 53.913 21:59 29.08.2019
2826 Clouds 3 1019 59 0 0.78 53.913 21:40 29.08.2019
2827 Clouds 2 1019 63 0 1.1 357.544 21:21 29.08.2019
2828 Clouds 2 1019 63 0 1.1 357.544 20:58 29.08.2019
2829 Clouds 2 1019 63 0 1.1 357.544 20:39 29.08.2019
2830 Clouds 2 1019 63 0 1.1 357.544 20:19 29.08.2019
2831 Clouds 2 1019 63 0 1.1 357.544 19:47 29.08.2019
2832 Clouds 2 1019 63 0 1.1 357.544 19:26 29.08.2019
2833 Clouds 2 1019 63 0 1.1 357.544 18:59 29.08.2019
2834 Clouds 2 1019 63 0 1.1 357.544 18:41 29.08.2019
2835 Clouds 3 1019 62 0 1.48 338.731 18:19 29.08.2019
2836 Clouds 3 1019 62 0 1.48 338.731 17:56 29.08.2019
2837 Clouds 3 1019 62 0 1.48 338.731 17:36 29.08.2019
2838 Clouds 3 1019 62 0 1.48 338.731 17:18 29.08.2019
2839 Clouds 3 1019 62 0 1.48 338.731 16:42 29.08.2019
2840 Clouds 3 1019 62 0 1.48 338.731 16:23 29.08.2019
2841 Clouds 3 1019 62 0 1.48 338.731 15:54 29.08.2019
2842 Clouds 3 1019 62 0 1.48 338.731 15:36 29.08.2019
2843 Clear 6 1019 54 0 3.06 8.665 15:18 29.08.2019
2844 Clear 6 1019 54 0 3.06 8.665 14:42 29.08.2019
2845 Clear 6 1019 54 0 3.06 8.665 14:21 29.08.2019
2846 Clear 6 1019 54 0 3.06 8.665 13:57 29.08.2019
2847 Clear 6 1019 54 0 3.06 8.665 13:39 29.08.2019
2848 Clear 6 1019 54 0 3.06 8.665 13:39 29.08.2019
2849 Clear 6 1019 53 0 3.15 6.68 13:20 29.08.2019
2850 Clear 6 1019 53 0 3.15 6.68 12:58 29.08.2019
2851 Clear 6 1019 53 0 3.15 6.68 12:38 29.08.2019
2852 Clear 13 1017 36 0 3.65 14.764 12:20 29.08.2019
2853 Clear 13 1017 36 0 3.65 14.764 11:57 29.08.2019
2854 Clear 13 1017 36 0 3.65 14.764 11:36 29.08.2019
2855 Clear 13 1017 36 0 3.65 14.764 11:18 29.08.2019
2856 Clear 13 1017 36 0 3.65 14.764 10:42 29.08.2019
2857 Clear 13 1017 36 0 3.65 14.764 10:23 29.08.2019
2858 Clear 13 1017 37 0 2.34 20.189 09:42 29.08.2019
2859 Clear 14 1017 33 0 3.42 6.388 09:21 29.08.2019
2860 Clear 14 1017 33 0 3.42 6.388 08:59 29.08.2019
2861 Clear 14 1017 33 0 3.42 6.388 08:40 29.08.2019
2862 Clear 14 1017 33 0 3.42 6.388 08:21 29.08.2019
2863 Clear 14 1017 33 0 3.42 6.388 07:48 29.08.2019
2864 Clear 14 1017 33 0 3.42 6.388 07:26 29.08.2019
2865 Clear 14 1017 33 0 3.42 6.388 06:48 29.08.2019
2866 Clear 14 1017 33 0 3.42 6.388 06:30 29.08.2019
2867 Clear 11 1018 45 0 2.97 17.203 05:42 29.08.2019
2868 Clear 11 1018 45 0 2.97 17.203 04:51 29.08.2019
2869 Clear 11 1018 45 0 2.97 17.203 04:29 29.08.2019
2870 Clouds 7 1019 63 0 2.56 358.927 03:20 29.08.2019
2871 Clouds 7 1019 63 0 2.56 358.927 01:49 29.08.2019
2872 Clouds 7 1019 64 0 2.45 355.264 01:30 29.08.2019
2873 Clouds 7 1019 64 0 2.45 355.264 00:42 29.08.2019
2874 Clouds 4 1019 83 0 1.59 345.632 00:21 29.08.2019
2875 Clouds 4 1019 83 0 1.59 345.632 23:44 28.08.2019
2876 Clouds 4 1019 83 0 1.59 345.632 23:25 28.08.2019
2877 Clouds 4 1019 83 0 1.59 345.632 22:59 28.08.2019
2878 Clouds 4 1019 83 0 1.59 345.632 22:39 28.08.2019
2879 Clouds 4 1019 83 0 1.59 345.632 22:18 28.08.2019
2880 Clouds 3 1019 82 0 1.77 344.563 21:58 28.08.2019
2881 Clouds 3 1019 82 0 1.77 344.563 21:39 28.08.2019
2882 Clouds 2 1019 86 0 1.52 326.31 21:20 28.08.2019
2883 Clouds 2 1019 86 0 1.52 326.31 20:42 28.08.2019
2884 Clouds 2 1019 86 0 1.52 326.31 20:24 28.08.2019
2885 Clouds 2 1019 86 0 1.52 326.31 19:59 28.08.2019
2886 Clouds 2 1019 86 0 1.52 326.31 19:39 28.08.2019
2887 Clouds 2 1019 86 0 1.52 326.31 19:20 28.08.2019
2888 Clouds 2 1019 86 0 1.52 326.31 18:42 28.08.2019
2889 Clouds 4 1018 78 0 2.18 317.045 18:22 28.08.2019
2890 Clouds 4 1018 78 0 2.18 317.045 17:57 28.08.2019
2891 Clouds 4 1018 78 0 2.18 317.045 17:37 28.08.2019
2892 Clouds 4 1018 78 0 2.18 317.045 17:19 28.08.2019
2893 Clouds 4 1018 78 0 2.18 317.045 16:43 28.08.2019
2894 Clouds 4 1018 78 0 2.18 317.045 16:19 28.08.2019
2895 Clouds 4 1018 78 0 2.18 317.045 15:58 28.08.2019
2896 Clouds 4 1018 78 0 2.18 317.045 15:37 28.08.2019
2897 Clouds 7 1017 67 0 3.17 347.87 15:18 28.08.2019
2898 Clouds 7 1017 67 0 3.17 347.87 14:56 28.08.2019
2899 Clouds 7 1017 67 0 3.17 347.87 14:37 28.08.2019
2900 Clouds 7 1017 67 0 3.17 347.87 14:19 28.08.2019
2901 Clouds 7 1017 67 0 3.17 347.87 13:56 28.08.2019
2902 Clouds 7 1017 67 0 3.17 347.87 13:37 28.08.2019
2903 Clouds 7 1017 69 0 2.5 341.768 13:18 28.08.2019
2904 Clouds 7 1017 69 0 2.5 341.768 12:41 28.08.2019
2905 Clouds 11 1015 62 0 2.23 335.967 12:23 28.08.2019
2906 Clouds 11 1015 62 0 2.23 335.967 11:41 28.08.2019
2907 Clouds 11 1015 62 0 2.23 335.967 11:23 28.08.2019
2908 Clouds 11 1015 62 0 2.23 335.967 10:59 28.08.2019
2909 Clouds 11 1015 62 0 2.23 335.967 10:41 28.08.2019
2910 Clouds 11 1015 62 0 2.23 335.967 10:20 28.08.2019
2911 Clouds 11 1015 62 0 2.23 335.967 09:56 28.08.2019
2912 Clouds 13 1015 51 0 3.57 349.876 09:38 28.08.2019
2913 Rain 11 1015 72 0 2.24 333.218 09:18 28.08.2019
2914 Rain 11 1015 72 0 2.24 333.218 08:38 28.08.2019
2915 Rain 11 1015 72 0 2.24 333.218 08:20 28.08.2019
2916 Rain 11 1015 72 0 2.24 333.218 07:39 28.08.2019
2917 Rain 11 1015 72 0 2.24 333.218 07:20 28.08.2019
2918 Rain 11 1015 72 0 2.24 333.218 06:51 28.08.2019
2919 Rain 11 1015 72 0 2.24 333.218 06:32 28.08.2019
2920 Rain 9 1015 84 0 1.84 7.826 05:32 28.08.2019
2921 Rain 10 1015 75 0 1.97 46.257 02:46 28.08.2019
2922 Rain 10 1015 83 0 1.73 51.263 01:32 28.08.2019
2923 Rain 10 1015 83 0 1.73 51.263 00:55 28.08.2019
2924 Rain 10 1015 83 0 1.73 51.263 00:35 28.08.2019
2925 Clouds 10 1015 77 0 1.88 57.197 23:58 27.08.2019
2926 Clouds 10 1015 77 0 1.88 57.197 23:38 27.08.2019
2927 Clouds 10 1015 77 0 1.88 57.197 23:20 27.08.2019
2928 Clouds 10 1015 77 0 1.88 57.197 22:42 27.08.2019
2929 Clouds 10 1015 77 0 1.88 57.197 22:23 27.08.2019
2930 Clouds 10 1015 76 0 2.2 64.227 21:57 27.08.2019
2931 Clouds 10 1015 76 0 2.2 64.227 21:39 27.08.2019
2932 Rain 10 1015 79 0 1.83 44.024 21:20 27.08.2019
2933 Rain 10 1015 79 0 1.83 44.024 20:59 27.08.2019
2934 Rain 10 1015 79 0 1.83 44.024 20:40 27.08.2019
2935 Rain 10 1015 79 0 1.83 44.024 20:20 27.08.2019
2936 Rain 10 1015 79 0 1.83 44.024 19:55 27.08.2019
2937 Rain 10 1015 79 0 1.83 44.024 19:37 27.08.2019
2938 Rain 10 1015 79 0 1.83 44.024 19:18 27.08.2019
2939 Rain 10 1015 79 0 1.83 44.024 18:41 27.08.2019
2940 Clouds 10 1015 77 0 1.94 51.704 18:19 27.08.2019
2941 Clouds 10 1015 77 0 1.94 51.704 17:56 27.08.2019
2942 Clouds 10 1015 77 0 1.94 51.704 17:38 27.08.2019
2943 Clouds 10 1015 77 0 1.94 51.704 17:18 27.08.2019
2944 Clouds 10 1015 77 0 1.94 51.704 16:46 27.08.2019
2945 Clouds 10 1015 77 0 1.94 51.704 16:27 27.08.2019
2946 Clouds 10 1015 77 0 1.94 51.704 15:57 27.08.2019
2947 Clouds 10 1015 77 0 1.94 51.704 15:39 27.08.2019
2948 Clouds 12 1014 72 0 3.79 74.194 15:20 27.08.2019
2949 Clouds 12 1014 72 0 3.79 74.194 14:43 27.08.2019
2950 Clouds 12 1014 72 0 3.79 74.194 14:24 27.08.2019
2951 Clouds 12 1014 72 0 3.79 74.194 13:59 27.08.2019
2952 Clouds 12 1014 72 0 3.79 74.194 13:41 27.08.2019
2953 Clouds 11 1014 75 0 3.69 63.608 13:20 27.08.2019
2954 Clouds 11 1014 75 0 3.69 63.608 12:42 27.08.2019
2955 Clouds 17 1014 50 0 3.6 65.829 12:21 27.08.2019
2956 Clouds 17 1014 50 0 3.6 65.829 11:57 27.08.2019
2957 Clouds 17 1014 50 0 3.6 65.829 11:37 27.08.2019
2958 Clouds 17 1014 50 0 3.6 65.829 11:19 27.08.2019
2959 Clouds 17 1014 50 0 3.6 65.829 10:41 27.08.2019
2960 Clouds 17 1014 50 0 3.6 65.829 10:20 27.08.2019
2961 Clouds 17 1014 50 0 3.6 65.829 09:56 27.08.2019
2962 Clouds 17 1014 50 0 3.6 65.829 09:37 27.08.2019
2963 Clouds 18 1013 43 0 1.11 352.83 09:19 27.08.2019
2964 Clouds 18 1013 43 0 1.11 352.83 08:45 27.08.2019
2965 Clouds 18 1013 43 0 1.11 352.83 08:24 27.08.2019
2966 Clouds 18 1013 43 0 1.11 352.83 07:55 27.08.2019
2967 Clouds 18 1013 43 0 1.11 352.83 07:36 27.08.2019
2968 Clouds 18 1013 43 0 1.11 352.83 07:36 27.08.2019
2969 Clouds 18 1013 43 0 1.11 352.83 07:18 27.08.2019
2970 Clouds 18 1013 43 0 1.11 352.83 06:44 27.08.2019
2971 Clouds 17 1014 49 0 0.37 128.079 06:19 27.08.2019
2972 Clouds 17 1014 49 0 0.37 128.079 06:19 27.08.2019
2973 Clouds 17 1014 49 0 0.37 128.079 05:26 27.08.2019
2974 Clouds 17 1014 49 0 0.37 128.079 03:43 27.08.2019
2975 Clouds 14 1014 63 0 1.04 74.788 02:55 27.08.2019
2976 Clouds 14 1014 63 0 1.04 74.788 01:46 27.08.2019
2977 Clouds 14 1014 64 0 1.11 76.514 01:25 27.08.2019
2978 Clouds 14 1014 64 0 1.11 76.514 00:49 27.08.2019
2979 Clouds 14 1014 64 0 1.11 76.514 00:28 27.08.2019
2980 Clouds 10 1015 83 0 0.81 46.708 23:44 26.08.2019
2981 Clouds 10 1015 83 0 0.81 46.708 23:25 26.08.2019
2982 Clouds 10 1015 83 0 0.81 46.708 22:59 26.08.2019
2983 Clouds 10 1015 83 0 0.81 46.708 22:37 26.08.2019
2984 Clouds 10 1015 83 0 0.81 46.708 22:19 26.08.2019
2985 Clear 10 1015 82 0 0.69 65.323 21:40 26.08.2019
2986 Clear 8 1014 87 0 1.22 21.132 21:22 26.08.2019
2987 Clear 8 1014 87 0 1.22 21.132 20:59 26.08.2019
2988 Clear 8 1014 87 0 1.22 21.132 20:41 26.08.2019
2989 Clear 8 1014 87 0 1.22 21.132 20:20 26.08.2019
2990 Clear 8 1014 87 0 1.22 21.132 19:58 26.08.2019
2991 Clear 8 1014 87 0 1.22 21.132 19:58 26.08.2019
2992 Clear 8 1014 87 0 1.22 21.132 19:40 26.08.2019
2993 Clear 8 1014 87 0 1.22 21.132 19:19 26.08.2019
2994 Clear 8 1014 87 0 1.22 21.132 18:55 26.08.2019
2995 Clear 8 1014 87 0 1.22 21.132 18:37 26.08.2019
2996 Clouds 10 1013 79 0 1.96 34.063 18:18 26.08.2019
2997 Clouds 10 1013 79 0 1.96 34.063 17:43 26.08.2019
2998 Clouds 10 1013 79 0 1.96 34.063 17:19 26.08.2019
2999 Clouds 10 1013 79 0 1.96 34.063 16:57 26.08.2019
3000 Clouds 10 1013 79 0 1.96 34.063 16:38 26.08.2019
3001 Clouds 10 1013 79 0 1.96 34.063 16:18 26.08.2019
3002 Clouds 10 1013 79 0 1.96 34.063 15:42 26.08.2019
3003 Clouds 12 1012 63 0 0.97 72.309 15:22 26.08.2019
3004 Clouds 12 1012 63 0 0.97 72.309 14:58 26.08.2019
3005 Clouds 12 1012 63 0 0.97 72.309 14:38 26.08.2019
3006 Clouds 12 1012 63 0 0.97 72.309 14:19 26.08.2019
3007 Clouds 12 1012 63 0 0.97 72.309 13:43 26.08.2019
3008 Clouds 12 1012 66 0 1.65 9.787 13:22 26.08.2019
3009 Clouds 12 1012 66 0 1.65 9.787 12:56 26.08.2019
3010 Clouds 12 1012 66 0 1.65 9.787 12:37 26.08.2019
3011 Clouds 18 1011 41 0 2.59 9.473 12:19 26.08.2019
3012 Clouds 18 1011 41 0 2.59 9.473 11:38 26.08.2019
3013 Clouds 18 1011 41 0 2.59 9.473 11:20 26.08.2019
3014 Clouds 18 1011 41 0 2.59 9.473 10:57 26.08.2019
3015 Clouds 18 1011 41 0 2.59 9.473 10:39 26.08.2019
3016 Clouds 18 1011 41 0 2.59 9.473 10:18 26.08.2019
3017 Clouds 18 1011 41 0 2.59 9.473 09:42 26.08.2019
3018 Clouds 18 1009 42 0 1.73 352.83 09:23 26.08.2019
3019 Clouds 18 1009 42 0 1.73 352.83 08:56 26.08.2019
3020 Clouds 18 1009 42 0 1.73 352.83 08:37 26.08.2019
3021 Clouds 18 1009 42 0 1.73 352.83 08:19 26.08.2019
3022 Clouds 18 1009 42 0 1.73 352.83 07:42 26.08.2019
3023 Clouds 18 1009 42 0 1.73 352.83 07:24 26.08.2019
3024 Clouds 18 1009 42 0 1.73 352.83 06:57 26.08.2019
3025 Clouds 18 1009 42 0 1.73 352.83 06:38 26.08.2019
3026 Clouds 17 1010 48 0 2.03 294.619 06:18 26.08.2019
3027 Clouds 17 1010 48 0 2.03 294.619 04:36 26.08.2019
3028 Clouds 17 1010 48 0 2.03 294.619 03:49 26.08.2019
3029 Clouds 14 1010 55 0 1.5 310.713 02:38 26.08.2019
3030 Clouds 15 1010 51 0 1.45 297.852 01:23 26.08.2019
3031 Clouds 15 1010 51 0 1.45 297.852 00:44 26.08.2019
3032 Clouds 15 1010 51 0 1.45 297.852 00:26 26.08.2019
3033 Clear 11 1011 71 0 0.89 295.9 23:45 25.08.2019
3034 Clear 11 1011 71 0 0.89 295.9 23:20 25.08.2019
3035 Clear 11 1011 71 0 0.89 295.9 22:59 25.08.2019
3036 Clear 11 1011 71 0 0.89 295.9 22:40 25.08.2019
3037 Clear 11 1011 71 0 0.89 295.9 22:20 25.08.2019
3038 Clear 11 1011 71 0 0.89 295.9 21:58 25.08.2019
3039 Clear 11 1011 70 0 0.92 315.968 21:39 25.08.2019
3040 Clouds 9 1009 79 0 0.92 304.489 21:19 25.08.2019
3041 Clouds 9 1009 79 0 0.92 304.489 20:56 25.08.2019
3042 Clouds 9 1009 79 0 0.92 304.489 20:38 25.08.2019
3043 Clouds 9 1009 79 0 0.92 304.489 20:19 25.08.2019
3044 Clouds 9 1009 79 0 0.92 304.489 19:41 25.08.2019
3045 Clouds 9 1009 79 0 0.92 304.489 19:23 25.08.2019
3046 Clouds 9 1009 79 0 0.92 304.489 18:59 25.08.2019
3047 Clouds 9 1009 79 0 0.92 304.489 18:40 25.08.2019
3048 Clouds 11 1009 68 0 2.13 353.38 18:22 25.08.2019
3049 Clouds 11 1009 68 0 2.13 353.38 17:59 25.08.2019
3050 Clouds 11 1009 68 0 2.13 353.38 17:40 25.08.2019
3051 Clouds 11 1009 68 0 2.13 353.38 17:20 25.08.2019
3052 Clouds 11 1009 68 0 2.13 353.38 16:41 25.08.2019
3053 Clouds 11 1009 68 0 2.13 353.38 16:23 25.08.2019
3054 Clouds 11 1009 68 0 2.13 353.38 15:56 25.08.2019
3055 Clouds 11 1009 68 0 2.13 353.38 15:37 25.08.2019
3056 Clouds 13 1008 65 0 3.12 293.257 15:19 25.08.2019
3057 Clouds 13 1008 65 0 3.12 293.257 14:39 25.08.2019
3058 Clouds 13 1008 65 0 3.12 293.257 14:21 25.08.2019
3059 Clouds 13 1008 65 0 3.12 293.257 13:45 25.08.2019
3060 Clouds 13 1007 64 0 2.84 304.727 13:21 25.08.2019
3061 Clouds 13 1007 64 0 2.84 304.727 12:56 25.08.2019
3062 Clouds 13 1007 64 0 2.84 304.727 12:38 25.08.2019
3063 Clouds 18 1006 42 0 3.67 26.265 12:20 25.08.2019
3064 Clouds 18 1006 42 0 3.67 26.265 11:56 25.08.2019
3065 Clouds 18 1006 42 0 3.67 26.265 11:36 25.08.2019
3066 Clouds 18 1006 42 0 3.67 26.265 11:18 25.08.2019
3067 Clouds 18 1006 42 0 3.67 26.265 10:40 25.08.2019
3068 Clouds 18 1006 42 0 3.67 26.265 10:21 25.08.2019
3069 Clouds 18 1006 42 0 3.67 26.265 09:59 25.08.2019
3070 Clouds 18 1006 42 0 3.67 26.265 09:41 25.08.2019
3071 Clouds 19 1005 43 0 4.66 26.23 09:22 25.08.2019
3072 Clouds 19 1005 43 0 4.66 26.23 08:44 25.08.2019
3073 Clouds 19 1005 43 0 4.66 26.23 08:22 25.08.2019
3074 Clouds 19 1005 43 0 4.66 26.23 07:45 25.08.2019
3075 Clouds 19 1005 43 0 4.66 26.23 07:23 25.08.2019
3076 Clouds 19 1005 43 0 4.66 26.23 06:31 25.08.2019
3077 Clouds 17 1006 53 0 2.46 7.464 04:58 25.08.2019
3078 Clouds 17 1006 53 0 2.46 7.464 03:43 25.08.2019
3079 Clouds 15 1006 62 0 2.16 345.147 02:41 25.08.2019
3080 Clouds 15 1006 62 0 2.16 345.147 01:45 25.08.2019
3081 Clouds 15 1006 63 0 1.71 315.379 00:42 25.08.2019
3082 Clouds 12 1006 76 0 1.26 295.528 00:22 25.08.2019
3083 Clouds 12 1006 76 0 1.26 295.528 23:54 24.08.2019
3084 Clouds 12 1006 76 0 1.26 295.528 23:24 24.08.2019
3085 Clouds 12 1006 76 0 1.26 295.528 22:58 24.08.2019
3086 Clouds 12 1006 76 0 1.26 295.528 22:40 24.08.2019
3087 Clouds 12 1006 76 0 1.26 295.528 22:19 24.08.2019
3088 Clouds 12 1006 76 0 1.26 295.528 21:57 24.08.2019
3089 Clouds 12 1006 76 0 1.26 295.528 21:39 24.08.2019
3090 Clear 10 1005 72 0 1.04 304.486 21:21 24.08.2019
3091 Clear 10 1005 72 0 1.04 304.486 20:57 24.08.2019
3092 Clear 10 1005 72 0 1.04 304.486 20:38 24.08.2019
3093 Clear 10 1005 72 0 1.04 304.486 20:18 24.08.2019
3094 Clear 10 1005 72 0 1.04 304.486 19:57 24.08.2019
3095 Clear 10 1005 72 0 1.04 304.486 19:38 24.08.2019
3096 Clear 10 1005 72 0 1.04 304.486 19:19 24.08.2019
3097 Clear 10 1005 72 0 1.04 304.486 18:46 24.08.2019
3098 Clear 12 1005 63 0 1.9 216.178 18:24 24.08.2019
3099 Clear 12 1005 63 0 1.9 216.178 17:46 24.08.2019
3100 Clear 12 1005 63 0 1.9 216.178 17:27 24.08.2019
3101 Clear 12 1005 63 0 1.9 216.178 16:56 24.08.2019
3102 Clear 12 1005 63 0 1.9 216.178 16:37 24.08.2019
3103 Clear 12 1005 63 0 1.9 216.178 16:19 24.08.2019
3104 Clear 12 1005 63 0 1.9 216.178 15:44 24.08.2019
3105 Clear 12 1005 63 0 1.9 216.178 15:25 24.08.2019
3106 Clouds 16 1005 51 0 3.67 194.65 14:57 24.08.2019
3107 Clouds 16 1005 51 0 3.67 194.65 14:38 24.08.2019
3108 Clouds 16 1005 51 0 3.67 194.65 14:18 24.08.2019
3109 Clouds 16 1005 51 0 3.67 194.65 13:43 24.08.2019
3110 Clouds 16 1005 51 0 2.9 200.808 13:22 24.08.2019
3111 Clouds 16 1005 51 0 2.9 200.808 12:59 24.08.2019
3112 Clouds 16 1005 51 0 2.9 200.808 12:40 24.08.2019
3113 Clouds 16 1005 51 0 2.9 200.808 12:40 24.08.2019
3114 Clouds 21 1004 38 0 3.35 228.643 12:22 24.08.2019
3115 Clouds 21 1004 38 0 3.35 228.643 11:46 24.08.2019
3116 Clouds 21 1004 38 0 3.35 228.643 11:26 24.08.2019
3117 Clouds 21 1004 38 0 3.35 228.643 10:59 24.08.2019
3118 Clouds 21 1004 38 0 3.35 228.643 10:38 24.08.2019
3119 Clouds 21 1004 38 0 3.35 228.643 10:20 24.08.2019
3120 Clouds 21 1004 38 0 3.35 228.643 09:42 24.08.2019
3121 Clouds 22 1005 37 0 3.87 203.234 09:19 24.08.2019
3122 Clouds 22 1005 37 0 3.87 203.234 08:43 24.08.2019
3123 Clouds 22 1005 37 0 3.87 203.234 08:25 24.08.2019
3124 Clouds 22 1005 37 0 3.87 203.234 07:52 24.08.2019
3125 Clouds 22 1005 37 0 3.87 203.234 07:30 24.08.2019
3126 Clouds 22 1005 37 0 3.87 203.234 06:52 24.08.2019
3127 Clouds 21 1006 42 0 3.11 212.218 06:21 24.08.2019
3128 Clouds 21 1006 42 0 3.11 212.218 05:36 24.08.2019
3129 Clouds 21 1006 42 0 3.11 212.218 03:48 24.08.2019
3130 Clouds 21 1006 42 0 3.11 212.218 03:28 24.08.2019
3131 Clouds 18 1007 54 0 2.54 193.023 02:18 24.08.2019
3132 Clouds 18 1008 54 0 2.83 188.382 01:25 24.08.2019
3133 Clouds 18 1008 54 0 2.83 188.382 00:47 24.08.2019
3134 Clouds 15 1008 72 0 1.24 166.717 00:23 24.08.2019
3135 Clouds 15 1008 72 0 1.24 166.717 00:23 24.08.2019
3136 Clouds 15 1008 72 0 1.24 166.717 23:45 23.08.2019
3137 Clouds 15 1008 72 0 1.24 166.717 23:21 23.08.2019
3138 Clouds 15 1008 72 0 1.24 166.717 22:46 23.08.2019
3139 Clouds 15 1008 72 0 1.24 166.717 22:27 23.08.2019
3140 Clouds 15 1008 72 0 1.24 166.717 21:56 23.08.2019
3141 Clouds 14 1008 69 0 1.76 197.643 21:37 23.08.2019
3142 Clouds 12 1009 75 0 1.05 96.54 21:19 23.08.2019
3143 Clouds 12 1009 75 0 1.05 96.54 20:53 23.08.2019
3144 Clouds 12 1009 75 0 1.05 96.54 20:35 23.08.2019
3145 Clouds 12 1009 75 0 1.05 96.54 19:54 23.08.2019
3146 Clouds 12 1009 75 0 1.05 96.54 19:36 23.08.2019
3147 Clouds 12 1009 75 0 1.05 96.54 19:18 23.08.2019
3148 Clouds 12 1009 75 0 1.05 96.54 19:18 23.08.2019
3149 Clouds 12 1009 75 0 1.05 96.54 18:42 23.08.2019
3150 Clear 13 1009 73 0 1.01 82.657 18:24 23.08.2019
3151 Clear 13 1009 73 0 1.01 82.657 17:46 23.08.2019
3152 Clear 13 1009 73 0 1.01 82.657 17:28 23.08.2019
3153 Clear 13 1009 73 0 1.01 82.657 16:59 23.08.2019
3154 Clear 13 1009 73 0 1.01 82.657 16:40 23.08.2019
3155 Clear 13 1009 73 0 1.01 82.657 16:22 23.08.2019
3156 Clear 13 1009 73 0 1.01 82.657 15:41 23.08.2019
3157 Clouds 14 1009 70 0 0.65 65.672 15:22 23.08.2019
3158 Clouds 14 1009 70 0 0.65 65.672 14:58 23.08.2019
3159 Clouds 14 1009 70 0 0.65 65.672 14:40 23.08.2019
3160 Clouds 14 1009 70 0 0.65 65.672 14:20 23.08.2019
3161 Clouds 14 1009 70 0 0.65 65.672 13:56 23.08.2019
3162 Clouds 14 1009 70 0 0.65 65.672 13:38 23.08.2019
3163 Clouds 14 1009 73 0 0.59 78.33 13:19 23.08.2019
3164 Clouds 14 1009 73 0 0.59 78.33 12:44 23.08.2019
3165 Clouds 14 1009 73 0 0.59 78.33 12:25 23.08.2019
3166 Clouds 21 1010 48 0 0.95 34.783 11:59 23.08.2019
3167 Clouds 21 1010 48 0 0.95 34.783 11:41 23.08.2019
3168 Clouds 21 1010 48 0 0.95 34.783 11:20 23.08.2019
3169 Clouds 21 1010 48 0 0.95 34.783 10:59 23.08.2019
3170 Clouds 21 1010 48 0 0.95 34.783 10:41 23.08.2019
3171 Clouds 22 1009 45 0 1.22 106.08 10:21 23.08.2019
3172 Clouds 22 1009 45 0 1.22 106.08 09:48 23.08.2019
3173 Clouds 22 1009 45 0 1.22 106.08 09:30 23.08.2019
3174 Clouds 22 1010 45 0 1.29 123.764 08:59 23.08.2019
3175 Clouds 22 1010 45 0 1.29 123.764 08:39 23.08.2019
3176 Clouds 22 1010 45 0 1.29 123.764 08:39 23.08.2019
3177 Clouds 22 1010 45 0 1.29 123.764 08:19 23.08.2019
3178 Clouds 22 1010 45 0 1.29 123.764 07:42 23.08.2019
3179 Clouds 22 1010 45 0 1.29 123.764 07:24 23.08.2019
3180 Clouds 22 1010 45 0 1.29 123.764 06:57 23.08.2019
3181 Clouds 22 1010 45 0 1.29 123.764 06:37 23.08.2019
3182 Clouds 19 1012 51 0 1.36 111.107 06:19 23.08.2019
3183 Clouds 19 1012 51 0 1.36 111.107 05:33 23.08.2019
3184 Clouds 19 1012 51 0 1.36 111.107 04:20 23.08.2019
3185 Clouds 16 1014 63 0 0.99 46.597 02:53 23.08.2019
3186 Clouds 16 1014 63 0 0.99 46.597 02:22 23.08.2019
3187 Clouds 16 1014 63 0 0.99 46.597 01:39 23.08.2019
3188 Clouds 15 1014 69 0 0.93 38.968 00:45 23.08.2019
3189 Clouds 13 1015 76 0 1.59 54.14 00:19 23.08.2019
3190 Clouds 13 1015 76 0 1.59 54.14 00:19 23.08.2019
3191 Clouds 13 1015 76 0 1.59 54.14 23:47 22.08.2019
3192 Clouds 13 1015 76 0 1.59 54.14 23:24 22.08.2019
3193 Clouds 13 1015 76 0 1.59 54.14 22:56 22.08.2019
3194 Clouds 13 1015 76 0 1.59 54.14 22:38 22.08.2019
3195 Clouds 13 1015 76 0 1.59 54.14 22:19 22.08.2019
3196 Clouds 13 1015 76 0 1.59 54.14 21:55 22.08.2019
3197 Clouds 14 1015 73 0 1.55 54.759 21:37 22.08.2019
3198 Clouds 12 1015 81 0 1.77 48.461 21:18 22.08.2019
3199 Clouds 12 1015 81 0 1.77 48.461 20:56 22.08.2019
3200 Clouds 12 1015 81 0 1.77 48.461 20:38 22.08.2019
3201 Clouds 12 1015 81 0 1.77 48.461 20:18 22.08.2019
3202 Clouds 12 1015 81 0 1.77 48.461 19:40 22.08.2019
3203 Clouds 12 1015 81 0 1.77 48.461 19:22 22.08.2019
3204 Clouds 12 1015 81 0 1.77 48.461 18:59 22.08.2019
3205 Clouds 12 1015 81 0 1.77 48.461 18:41 22.08.2019
3206 Clouds 12 1016 80 0 1.28 41.715 18:20 22.08.2019
3207 Clouds 12 1016 80 0 1.28 41.715 18:20 22.08.2019
3208 Clouds 12 1016 80 0 1.28 41.715 17:59 22.08.2019
3209 Clouds 12 1016 80 0 1.28 41.715 17:41 22.08.2019
3210 Clouds 12 1016 80 0 1.28 41.715 17:20 22.08.2019
3211 Clouds 12 1016 80 0 1.28 41.715 16:57 22.08.2019
3212 Clouds 12 1016 80 0 1.28 41.715 16:38 22.08.2019
3213 Clouds 12 1016 80 0 1.28 41.715 16:20 22.08.2019
3214 Clouds 12 1016 80 0 1.28 41.715 16:20 22.08.2019
3215 Clouds 12 1016 80 0 1.28 41.715 16:20 22.08.2019
3216 Clouds 12 1016 80 0 1.28 41.715 15:56 22.08.2019
3217 Clouds 12 1016 80 0 1.28 41.715 15:56 22.08.2019
3218 Clouds 12 1016 80 0 1.28 41.715 15:37 22.08.2019
3219 Clouds 13 1017 77 0 0.63 105.079 15:18 22.08.2019
3220 Clouds 13 1017 77 0 0.63 105.079 15:18 22.08.2019
3221 Clouds 13 1017 77 0 0.63 105.079 15:18 22.08.2019
3222 Clouds 13 1017 77 0 0.63 105.079 14:41 22.08.2019
3223 Clouds 13 1017 77 0 0.63 105.079 14:22 22.08.2019
3224 Clouds 13 1017 77 0 0.63 105.079 13:59 22.08.2019
3225 Clouds 13 1017 77 0 0.63 105.079 13:41 22.08.2019
3226 Clouds 14 1017 74 0 1.52 63.485 13:21 22.08.2019
3227 Clouds 14 1017 74 0 1.52 63.485 12:58 22.08.2019
3228 Clouds 14 1017 74 0 1.52 63.485 12:38 22.08.2019
3229 Clouds 19 1017 52 0 2.17 97.741 12:19 22.08.2019
3230 Clouds 19 1017 52 0 2.17 97.741 11:42 22.08.2019
3231 Clouds 19 1017 52 0 2.17 97.741 11:21 22.08.2019
3232 Clouds 19 1017 52 0 2.17 97.741 10:59 22.08.2019
3233 Clouds 19 1017 52 0 2.17 97.741 10:40 22.08.2019
3234 Clouds 19 1017 52 0 2.17 97.741 10:22 22.08.2019
3235 Clouds 19 1017 56 0 2.01 60.923 09:58 22.08.2019
3236 Clouds 19 1017 56 0 2.01 60.923 09:39 22.08.2019
3237 Clouds 19 1017 56 0 2.73 51.904 09:21 22.08.2019
3238 Clouds 19 1017 56 0 2.73 51.904 08:56 22.08.2019
3239 Clouds 19 1017 56 0 2.73 51.904 08:38 22.08.2019
3240 Clouds 19 1017 56 0 2.73 51.904 08:20 22.08.2019
3241 Clouds 19 1017 56 0 2.73 51.904 07:40 22.08.2019
3242 Clouds 19 1017 56 0 2.73 51.904 07:20 22.08.2019
3243 Clouds 19 1017 56 0 2.73 51.904 06:52 22.08.2019
3244 Rain 15 1019 72 0 1.13 74.264 06:24 22.08.2019
3245 Rain 15 1019 72 0 1.13 74.264 05:58 22.08.2019
3246 Rain 15 1019 72 0 1.13 74.264 04:38 22.08.2019
3247 Clouds 15 1019 67 0 1.06 10.271 02:51 22.08.2019
3248 Clouds 15 1019 67 0 1.06 10.271 02:33 22.08.2019
3249 -273 0 0 0 0 0 01:25 22.08.2019
3250 Clouds 15 1019 67 0 1.39 8.194 00:45 22.08.2019
3251 Clouds 15 1019 67 0 1.39 8.194 00:27 22.08.2019
3252 Clouds 13 1020 77 0 2.08 359.89 23:54 21.08.2019
3253 Clouds 13 1020 77 0 2.08 359.89 23:36 21.08.2019
3254 Clouds 13 1020 77 0 2.08 359.89 23:18 21.08.2019
3255 Clouds 13 1020 77 0 2.08 359.89 22:55 21.08.2019
3256 Clouds 13 1020 77 0 2.08 359.89 22:36 21.08.2019
3257 Clouds 13 1020 77 0 2.08 359.89 22:18 21.08.2019
3258 Clouds 13 1020 77 0 2.08 359.89 21:55 21.08.2019
3259 Clouds 13 1020 75 0 2.22 18.704 21:36 21.08.2019
3260 Clouds 13 1020 74 0 2.56 7.794 21:18 21.08.2019
3261 Clouds 13 1020 74 0 2.56 7.794 20:42 21.08.2019
3262 Clouds 13 1020 74 0 2.56 7.794 20:42 21.08.2019
3263 Clouds 13 1020 74 0 2.56 7.794 20:23 21.08.2019
3264 Clouds 13 1020 74 0 2.56 7.794 19:56 21.08.2019
3265 Clouds 13 1020 74 0 2.56 7.794 19:38 21.08.2019
3266 Clouds 13 1020 74 0 2.56 7.794 19:19 21.08.2019
3267 Clouds 13 1020 74 0 2.56 7.794 18:43 21.08.2019
3268 Rain 14 1020 72 0 2.06 327.043 18:23 21.08.2019
3269 Rain 14 1020 72 0 2.06 327.043 17:56 21.08.2019
3270 Rain 14 1020 72 0 2.06 327.043 17:37 21.08.2019
3271 Rain 14 1020 72 0 2.06 327.043 17:19 21.08.2019
3272 Rain 14 1020 72 0 2.06 327.043 16:44 21.08.2019
3273 Rain 14 1020 72 0 2.06 327.043 16:44 21.08.2019
3274 Rain 14 1020 72 0 2.06 327.043 16:24 21.08.2019
3275 Rain 14 1020 72 0 2.06 327.043 15:59 21.08.2019
3276 Rain 14 1020 72 0 2.06 327.043 15:41 21.08.2019
3277 Clouds 14 1020 68 0 3.14 27.943 15:21 21.08.2019
3278 Clouds 14 1020 68 0 3.14 27.943 14:57 21.08.2019
3279 Clouds 14 1020 68 0 3.14 27.943 14:39 21.08.2019
3280 Clouds 14 1020 68 0 3.14 27.943 14:20 21.08.2019
3281 Clouds 14 1020 68 0 3.14 27.943 13:55 21.08.2019
3282 Clouds 14 1020 68 0 3.14 27.943 13:37 21.08.2019
3283 Rain 15 1020 78 0 3.23 349.114 13:18 21.08.2019
3284 Rain 15 1020 78 0 3.23 349.114 12:41 21.08.2019
3285 Rain 15 1020 78 0 3.23 349.114 12:41 21.08.2019
3286 Rain 19 1019 61 0 4.9 32.473 12:22 21.08.2019
3287 Rain 19 1019 61 0 4.9 32.473 11:59 21.08.2019
3288 Rain 19 1019 61 0 4.9 32.473 11:40 21.08.2019
3289 Rain 19 1019 61 0 4.9 32.473 11:22 21.08.2019
3290 Rain 19 1019 61 0 4.9 32.473 10:57 21.08.2019
3291 Rain 19 1019 61 0 4.9 32.473 10:38 21.08.2019
3292 Rain 19 1019 61 0 4.9 32.473 10:19 21.08.2019
3293 Rain 19 1019 61 0 4.9 32.473 09:55 21.08.2019
3294 Rain 19 1019 61 0 4.9 32.473 09:37 21.08.2019
3295 Clouds 20 1019 49 0 4.98 37.781 09:18 21.08.2019
3296 Clouds 20 1019 49 0 4.98 37.781 08:42 21.08.2019
3297 Clouds 20 1019 49 0 4.98 37.781 08:23 21.08.2019
3298 Clouds 20 1019 49 0 4.98 37.781 07:42 21.08.2019
3299 Clouds 20 1019 49 0 4.98 37.781 07:23 21.08.2019
3300 Clouds 20 1019 49 0 4.98 37.781 06:50 21.08.2019
3301 Clouds 18 1019 58 0 2.58 17.591 06:24 21.08.2019
3302 Clouds 18 1019 58 0 2.58 17.591 05:47 21.08.2019
3303 Clouds 18 1019 58 0 2.58 17.591 05:25 21.08.2019
3304 Clouds 18 1019 58 0 2.58 17.591 03:39 21.08.2019
3305 Clouds 16 1019 62 0 0.55 138.013 01:52 21.08.2019
3306 Rain 16 1019 65 0 0.16 81.469 01:23 21.08.2019
3307 Rain 16 1019 65 0 0.16 81.469 00:38 21.08.2019
3308 Clouds 16 1019 59 0 0.57 80.854 00:18 21.08.2019
3309 Clouds 16 1019 59 0 0.57 80.854 23:43 20.08.2019
3310 Clouds 16 1019 59 0 0.57 80.854 23:19 20.08.2019
3311 Clouds 16 1019 59 0 0.57 80.854 22:57 20.08.2019
3312 Clouds 16 1019 59 0 0.57 80.854 22:38 20.08.2019
3313 Clouds 16 1019 59 0 0.57 80.854 22:38 20.08.2019
3314 Clouds 16 1019 59 0 0.57 80.854 22:20 20.08.2019
3315 Clouds 16 1019 59 0 0.57 80.854 21:57 20.08.2019
3316 Clouds 17 1019 56 0 0.09 45.881 21:38 20.08.2019
3317 Clouds 15 1018 55 0 0.4 4.055 21:19 20.08.2019
3318 Clouds 15 1018 55 0 0.4 4.055 20:56 20.08.2019
3319 Clouds 15 1018 55 0 0.4 4.055 20:36 20.08.2019
3320 Clouds 15 1018 55 0 0.4 4.055 20:18 20.08.2019
3321 Clouds 15 1018 55 0 0.4 4.055 19:39 20.08.2019
3322 Clouds 15 1018 55 0 0.4 4.055 19:20 20.08.2019
3323 Clouds 15 1018 55 0 0.4 4.055 18:55 20.08.2019
3324 Clouds 15 1018 55 0 0.4 4.055 18:37 20.08.2019
3325 Clouds 17 1017 51 0 0.41 252.545 18:18 20.08.2019
3326 Clouds 17 1017 51 0 0.41 252.545 17:55 20.08.2019
3327 Clouds 17 1017 51 0 0.41 252.545 17:37 20.08.2019
3328 Clouds 17 1017 51 0 0.41 252.545 17:18 20.08.2019
3329 Clouds 17 1017 51 0 0.41 252.545 16:41 20.08.2019
3330 Clouds 17 1017 51 0 0.41 252.545 16:23 20.08.2019
3331 Clouds 17 1017 51 0 0.41 252.545 15:42 20.08.2019
3332 Clouds 16 1018 50 0 1.37 287.016 15:19 20.08.2019
3333 Clouds 16 1018 50 0 1.37 287.016 14:57 20.08.2019
3334 Clouds 16 1018 50 0 1.37 287.016 14:39 20.08.2019
3335 Clouds 16 1018 50 0 1.37 287.016 14:20 20.08.2019
3336 Clouds 16 1018 50 0 1.37 287.016 13:56 20.08.2019
3337 Clouds 16 1018 50 0 1.37 287.016 13:37 20.08.2019
3338 Clouds 16 1017 50 0 1.05 272.393 13:19 20.08.2019
3339 Clouds 16 1017 50 0 1.05 272.393 12:50 20.08.2019
3340 Clouds 16 1017 50 0 1.05 272.393 12:25 20.08.2019
3341 Clouds 22 1016 39 0 1.47 225.715 11:56 20.08.2019
3342 Clouds 22 1016 39 0 1.47 225.715 11:38 20.08.2019
3343 Clouds 22 1016 39 0 1.47 225.715 11:18 20.08.2019
3344 Clouds 22 1016 39 0 1.47 225.715 10:56 20.08.2019
3345 Clouds 22 1016 39 0 1.47 225.715 10:37 20.08.2019
3346 Clouds 22 1016 39 0 1.47 225.715 10:19 20.08.2019
3347 Clouds 22 1016 39 0 1.47 225.715 09:43 20.08.2019
3348 Clouds 23 1017 39 0 1.38 177.884 09:24 20.08.2019
3349 Clouds 23 1017 39 0 1.38 177.884 08:43 20.08.2019
3350 Clouds 23 1017 39 0 1.38 177.884 08:43 20.08.2019
3351 Clouds 23 1017 39 0 1.38 177.884 08:25 20.08.2019
3352 Clouds 23 1017 39 0 1.38 177.884 08:25 20.08.2019
3353 Clouds 23 1017 39 0 1.38 177.884 07:59 20.08.2019
3354 Clouds 23 1017 39 0 1.38 177.884 07:41 20.08.2019
3355 Clouds 23 1017 39 0 1.38 177.884 07:22 20.08.2019
3356 Clouds 23 1017 39 0 1.38 177.884 06:59 20.08.2019
3357 Clouds 23 1017 39 0 1.38 177.884 06:25 20.08.2019
3358 Clouds 21 1017 46 0 1.2 136.32 05:49 20.08.2019
3359 Clouds 21 1017 46 0 1.2 136.32 04:57 20.08.2019
3360 Clouds 21 1017 46 0 1.2 136.32 03:52 20.08.2019
3361 Clouds 18 1018 59 0 0.68 112.854 02:42 20.08.2019
3362 Clouds 18 1018 59 0 0.68 112.854 01:38 20.08.2019
3363 Clouds 19 1018 57 0 0.97 130.717 00:57 20.08.2019
3364 Clouds 19 1018 57 0 0.97 130.717 00:39 20.08.2019
3365 Clouds 15 1018 72 0 1.19 33.797 00:18 20.08.2019
3366 Clouds 15 1018 72 0 1.19 33.797 23:39 19.08.2019
3367 Clouds 15 1018 72 0 1.19 33.797 23:18 19.08.2019
3368 Clouds 15 1018 72 0 1.19 33.797 22:54 19.08.2019
3369 Clouds 15 1018 72 0 1.19 33.797 22:36 19.08.2019
3370 Clouds 15 1018 72 0 1.19 33.797 22:18 19.08.2019
3371 Clouds 15 1018 72 0 1.19 33.797 21:55 19.08.2019
3372 Clouds 15 1018 72 0 0.6 236.837 21:36 19.08.2019
3373 Clouds 16 1017 67 0 0.48 57.243 21:18 19.08.2019
3374 Clouds 16 1017 67 0 0.48 57.243 20:39 19.08.2019
3375 Clouds 16 1017 67 0 0.48 57.243 20:20 19.08.2019
3376 Clouds 16 1017 67 0 0.48 57.243 19:58 19.08.2019
3377 Clouds 16 1017 67 0 0.48 57.243 19:39 19.08.2019
3378 Clouds 16 1017 67 0 0.48 57.243 19:19 19.08.2019
3379 Clouds 16 1017 67 0 0.48 57.243 18:46 19.08.2019
3380 Clouds 16 1017 67 0 0.48 57.243 18:28 19.08.2019
3381 Clouds 17 1017 63 0 1.83 355.517 17:59 19.08.2019
3382 Clouds 17 1017 63 0 1.83 355.517 17:41 19.08.2019
3383 Clouds 17 1017 63 0 1.83 355.517 17:41 19.08.2019
3384 Clouds 17 1017 63 0 1.83 355.517 17:21 19.08.2019
3385 Clouds 17 1017 63 0 1.83 355.517 16:58 19.08.2019
3386 Clouds 17 1017 63 0 1.83 355.517 16:37 19.08.2019
3387 Clouds 17 1017 63 0 1.83 355.517 16:37 19.08.2019
3388 Clouds 17 1017 63 0 1.83 355.517 16:19 19.08.2019
3389 Clouds 17 1017 63 0 1.83 355.517 15:55 19.08.2019
3390 Clouds 17 1017 63 0 1.83 355.517 15:37 19.08.2019
3391 Clouds 17 1016 60 0 2.32 26.852 15:18 19.08.2019
3392 Clouds 17 1016 60 0 2.32 26.852 14:41 19.08.2019
3393 Clouds 17 1016 60 0 2.32 26.852 14:22 19.08.2019
3394 Clouds 17 1016 60 0 2.32 26.852 13:57 19.08.2019
3395 Clouds 17 1016 60 0 2.32 26.852 13:38 19.08.2019
3396 Clouds 16 1016 66 0 1.27 2.97 13:19 19.08.2019
3397 Clouds 16 1016 66 0 1.27 2.97 13:19 19.08.2019
3398 Clouds 16 1016 66 0 1.27 2.97 12:56 19.08.2019
3399 Clouds 16 1016 66 0 1.27 2.97 12:36 19.08.2019
3400 Clouds 21 1016 50 0 1.54 2.935 12:18 19.08.2019
3401 Clouds 21 1016 50 0 1.54 2.935 11:39 19.08.2019
3402 Clouds 21 1016 50 0 1.54 2.935 11:21 19.08.2019
3403 Clouds 21 1016 50 0 1.54 2.935 10:56 19.08.2019
3404 Clouds 21 1016 50 0 1.54 2.935 10:37 19.08.2019
3405 Clouds 21 1016 50 0 1.54 2.935 10:37 19.08.2019
3406 Clouds 21 1016 50 0 1.54 2.935 10:18 19.08.2019
3407 Clouds 21 1016 50 0 1.54 2.935 09:44 19.08.2019
3408 Clouds 23 1016 41 0 0.56 139.21 09:24 19.08.2019
3409 Clouds 23 1016 41 0 0.56 139.21 09:24 19.08.2019
3410 Clouds 23 1016 41 0 0.56 139.21 08:57 19.08.2019
3411 Clouds 23 1016 41 0 0.56 139.21 08:39 19.08.2019
3412 Clouds 23 1016 41 0 0.56 139.21 08:20 19.08.2019
3413 Clouds 23 1016 41 0 0.56 139.21 07:48 19.08.2019
3414 Clouds 23 1016 41 0 0.56 139.21 07:30 19.08.2019
3415 Clouds 23 1016 41 0 0.56 139.21 06:48 19.08.2019
3416 Clouds 23 1016 41 0 0.56 139.21 06:27 19.08.2019
3417 Clouds 20 1016 49 0 1.35 264.66 05:21 19.08.2019
3418 Clouds 20 1016 49 0 1.35 264.66 04:27 19.08.2019
3419 Clouds 20 1016 49 0 1.35 264.66 04:27 19.08.2019
3420 Clouds 20 1016 49 0 1.35 264.66 04:27 19.08.2019
3421 Clouds 17 1018 63 0 0.82 285.476 03:23 19.08.2019
3422 Clouds 17 1018 63 0 0.82 285.476 02:24 19.08.2019
3423 Clouds 17 1018 63 0 0.82 285.476 01:35 19.08.2019
3424 Rain 15 1018 78 0 1.88 3.104 00:44 19.08.2019
3425 Rain 14 1017 75 0 2.21 187.742 00:23 19.08.2019
3426 Rain 14 1017 75 0 2.21 187.742 23:43 18.08.2019
3427 Rain 14 1017 75 0 2.21 187.742 23:22 18.08.2019
3428 Rain 14 1017 75 0 2.21 187.742 22:57 18.08.2019
3429 Rain 14 1017 75 0 2.21 187.742 22:38 18.08.2019
3430 Rain 14 1017 75 0 2.21 187.742 22:20 18.08.2019
3431 Rain 14 1017 75 0 2.21 187.742 21:56 18.08.2019
3432 Rain 14 1017 75 0 2.21 187.742 21:37 18.08.2019
3433 Clouds 14 1017 71 0 2.37 4.302 21:19 18.08.2019
3434 Clouds 14 1017 71 0 2.37 4.302 20:44 18.08.2019
3435 Clouds 14 1017 71 0 2.37 4.302 20:25 18.08.2019
3436 Clouds 14 1017 71 0 2.37 4.302 19:56 18.08.2019
3437 Clouds 14 1017 71 0 2.37 4.302 19:56 18.08.2019
3438 Clouds 14 1017 71 0 2.37 4.302 19:56 18.08.2019
3439 Clouds 14 1017 71 0 2.37 4.302 19:38 18.08.2019
3440 Clouds 14 1017 71 0 2.37 4.302 19:19 18.08.2019
3441 Clouds 14 1017 71 0 2.37 4.302 18:54 18.08.2019
3442 Clouds 14 1017 71 0 2.37 4.302 18:36 18.08.2019
3443 Clouds 15 1017 68 0 2.48 330.999 18:18 18.08.2019
3444 Clouds 15 1017 68 0 2.48 330.999 17:42 18.08.2019
3445 Clouds 15 1017 68 0 2.48 330.999 17:19 18.08.2019
3446 Clouds 15 1017 68 0 2.48 330.999 16:57 18.08.2019
3447 Clouds 15 1017 68 0 2.48 330.999 16:38 18.08.2019
3448 Clouds 15 1017 68 0 2.48 330.999 16:20 18.08.2019
3449 Clouds 15 1017 68 0 2.48 330.999 15:58 18.08.2019
3450 Clouds 15 1017 68 0 2.48 330.999 15:38 18.08.2019
3451 Clouds 15 1017 66 0 1.72 11.028 15:20 18.08.2019
3452 Clouds 15 1017 66 0 1.72 11.028 14:56 18.08.2019
3453 Clouds 15 1017 66 0 1.72 11.028 14:37 18.08.2019
3454 Clouds 15 1017 66 0 1.72 11.028 14:18 18.08.2019
3455 Clouds 15 1017 66 0 1.72 11.028 13:43 18.08.2019
3456 Clouds 15 1017 66 0 1.72 11.028 13:24 18.08.2019
3457 Clouds 15 1017 66 0 1.72 11.028 12:59 18.08.2019
3458 Clouds 15 1017 66 0 1.72 11.028 12:39 18.08.2019
3459 Clouds 19 1017 52 0 1.32 48.197 12:21 18.08.2019
3460 Clouds 19 1017 52 0 1.32 48.197 11:44 18.08.2019
3461 Clouds 19 1017 52 0 1.32 48.197 11:23 18.08.2019
3462 Clouds 19 1017 52 0 1.32 48.197 10:59 18.08.2019
3463 Clouds 19 1017 52 0 1.32 48.197 10:40 18.08.2019
3464 Clouds 19 1017 52 0 1.32 48.197 10:40 18.08.2019
3465 Clouds 19 1017 52 0 1.32 48.197 10:19 18.08.2019
3466 Clouds 19 1017 52 0 1.32 48.197 09:45 18.08.2019
3467 Clouds 19 1018 53 0 1.2 62.219 09:21 18.08.2019
3468 Clouds 19 1018 53 0 1.2 62.219 08:45 18.08.2019
3469 Clouds 19 1018 53 0 1.2 62.219 08:25 18.08.2019
3470 Clouds 19 1018 53 0 1.2 62.219 08:25 18.08.2019
3471 Clouds 19 1018 53 0 1.2 62.219 07:59 18.08.2019
3472 Clouds 19 1018 53 0 1.2 62.219 07:41 18.08.2019
3473 Clouds 19 1018 53 0 1.2 62.219 07:22 18.08.2019
3474 Clouds 17 1019 60 0 0.37 94.063 05:45 18.08.2019
3475 Clouds 17 1019 60 0 0.37 94.063 04:51 18.08.2019
3476 Clouds 13 1020 77 0 0.5 278.033 03:22 18.08.2019
3477 Clouds 13 1020 77 0 0.5 278.033 02:45 18.08.2019
3478 Clouds 13 1020 77 0 0.5 278.033 02:19 18.08.2019
3479 Clouds 15 1020 65 0 1.04 242.229 01:30 18.08.2019
3480 Clouds 15 1020 65 0 1.04 242.229 00:44 18.08.2019
3481 Clouds 12 1020 75 0 0.6 249.433 00:24 18.08.2019
3482 Clouds 12 1020 75 0 0.6 249.433 23:58 17.08.2019
3483 Clouds 12 1020 75 0 0.6 249.433 23:40 17.08.2019
3484 Clouds 12 1020 75 0 0.6 249.433 23:22 17.08.2019
3485 Clouds 12 1020 75 0 0.6 249.433 22:59 17.08.2019
3486 Clouds 12 1020 75 0 0.6 249.433 22:41 17.08.2019
3487 Clouds 12 1020 75 0 0.6 249.433 22:23 17.08.2019
3488 Clouds 12 1020 75 0 0.6 249.433 21:56 17.08.2019
3489 Clouds 12 1020 75 0 0.6 249.433 21:38 17.08.2019
3490 Clouds 12 1020 75 0 0.6 249.433 21:38 17.08.2019
3491 Clouds 9 1020 87 0 1.04 12.11 21:20 17.08.2019
3492 Clouds 9 1020 87 0 1.04 12.11 20:40 17.08.2019
3493 Clouds 9 1020 87 0 1.04 12.11 20:21 17.08.2019
3494 Clouds 9 1020 87 0 1.04 12.11 19:57 17.08.2019
3495 Clouds 9 1020 87 0 1.04 12.11 19:39 17.08.2019
3496 Clouds 9 1020 87 0 1.04 12.11 19:20 17.08.2019
3497 Clouds 9 1020 87 0 1.04 12.11 19:20 17.08.2019
3498 Clouds 9 1020 87 0 1.04 12.11 18:41 17.08.2019
3499 Clouds 10 1021 85 0 0.95 5.205 18:19 17.08.2019
3500 Clouds 10 1021 85 0 0.95 5.205 17:58 17.08.2019
3501 Clouds 10 1021 85 0 0.95 5.205 17:40 17.08.2019
3502 Clouds 10 1021 85 0 0.95 5.205 17:21 17.08.2019
3503 Clouds 10 1021 85 0 0.95 5.205 16:45 17.08.2019
3504 Clouds 10 1021 85 0 0.95 5.205 16:26 17.08.2019
3505 Clouds 10 1021 85 0 0.95 5.205 15:59 17.08.2019
3506 Clouds 10 1021 85 0 0.95 5.205 15:40 17.08.2019
3507 Clouds 12 1021 79 0 1.75 351.309 15:21 17.08.2019
3508 Clouds 12 1021 79 0 1.75 351.309 14:56 17.08.2019
3509 Clouds 12 1021 79 0 1.75 351.309 14:36 17.08.2019
3510 Clouds 12 1021 79 0 1.75 351.309 14:18 17.08.2019
3511 Clouds 12 1021 79 0 1.75 351.309 13:42 17.08.2019
3512 Clouds 14 1020 66 0 1.24 339.335 13:19 17.08.2019
3513 Clouds 14 1020 66 0 1.24 339.335 12:42 17.08.2019
3514 Clouds 16 1020 62 0 0.53 182.377 12:19 17.08.2019
3515 Clouds 16 1020 62 0 0.53 182.377 11:57 17.08.2019
3516 Clouds 16 1020 62 0 0.53 182.377 11:37 17.08.2019
3517 Clouds 16 1020 62 0 0.53 182.377 11:19 17.08.2019
3518 Clouds 16 1020 62 0 0.53 182.377 10:39 17.08.2019
3519 Clouds 16 1020 62 0 0.53 182.377 10:20 17.08.2019
3520 Clouds 16 1020 62 0 0.53 182.377 09:52 17.08.2019
3521 Clouds 16 1020 62 0 0.53 182.377 09:33 17.08.2019
3522 Clouds 18 1019 48 0 2.86 67.027 08:58 17.08.2019
3523 Clouds 18 1019 48 0 2.86 67.027 08:28 17.08.2019
3524 Clouds 18 1019 48 0 2.86 67.027 08:28 17.08.2019
3525 Clouds 18 1019 48 0 2.86 67.027 07:56 17.08.2019
3526 Clouds 18 1019 48 0 2.86 67.027 07:38 17.08.2019
3527 Clouds 18 1019 48 0 2.86 67.027 07:19 17.08.2019
3528 Clouds 17 1019 51 0 3.7 36.439 05:58 17.08.2019
3529 Clouds 17 1019 51 0 3.7 36.439 04:32 17.08.2019
3530 Clouds 17 1019 51 0 3.7 36.439 04:32 17.08.2019
3531 Clouds 17 1019 51 0 3.7 36.439 04:32 17.08.2019
3532 Clouds 17 1019 51 0 3.7 36.439 04:32 17.08.2019
3533 Clouds 17 1019 51 0 3.7 36.439 03:38 17.08.2019
3534 Clouds 13 1021 65 0 2.49 0.23 01:59 17.08.2019
3535 Clouds 13 1021 65 0 2.71 2.053 01:36 17.08.2019
3536 Clouds 13 1021 65 0 2.71 2.053 01:18 17.08.2019
3537 Clouds 13 1021 65 0 2.71 2.053 00:44 17.08.2019
3538 Clouds 9 1020 81 0 2.74 358.702 23:58 16.08.2019
3539 Clouds 9 1020 81 0 2.74 358.702 23:39 16.08.2019
3540 Clouds 9 1020 81 0 2.74 358.702 23:20 16.08.2019
3541 Clouds 9 1020 81 0 2.74 358.702 22:42 16.08.2019
3542 Clouds 9 1020 81 0 2.74 358.702 22:19 16.08.2019
3543 Clouds 9 1020 81 0 2.74 358.702 21:43 16.08.2019
3544 Clouds 9 1021 90 0 2.61 354.945 21:22 16.08.2019
3545 Clouds 9 1021 90 0 2.61 354.945 20:59 16.08.2019
3546 Clouds 9 1021 90 0 2.61 354.945 20:41 16.08.2019
3547 Clouds 9 1021 90 0 2.61 354.945 20:19 16.08.2019
3548 Clouds 9 1021 90 0 2.61 354.945 19:55 16.08.2019
3549 Clouds 9 1021 90 0 2.61 354.945 19:37 16.08.2019
3550 Clouds 9 1021 90 0 2.61 354.945 19:19 16.08.2019
3551 Clouds 9 1021 90 0 2.61 354.945 19:19 16.08.2019
3552 Clouds 9 1021 90 0 2.61 354.945 18:41 16.08.2019
3553 Clouds 10 1020 84 0 2.54 349.38 18:22 16.08.2019
3554 Clouds 10 1020 84 0 2.54 349.38 17:46 16.08.2019
3555 Clouds 10 1020 84 0 2.54 349.38 17:27 16.08.2019
3556 Clouds 10 1020 84 0 2.54 349.38 16:58 16.08.2019
3557 Clouds 10 1020 84 0 2.54 349.38 16:38 16.08.2019
3558 Clouds 10 1020 84 0 2.54 349.38 16:18 16.08.2019
3559 Clouds 10 1020 84 0 2.54 349.38 15:55 16.08.2019
3560 Clouds 10 1020 84 0 2.54 349.38 15:37 16.08.2019
3561 Clouds 14 1019 68 0 3.95 359.608 15:19 16.08.2019
3562 Clouds 14 1019 68 0 3.95 359.608 14:56 16.08.2019
3563 Clouds 14 1019 68 0 3.95 359.608 14:37 16.08.2019
3564 Clouds 14 1019 68 0 3.95 359.608 14:18 16.08.2019
3565 Clouds 14 1019 68 0 3.95 359.608 13:39 16.08.2019
3566 Clouds 14 1019 67 0 3.82 1.501 13:21 16.08.2019
3567 Clouds 14 1019 67 0 3.82 1.501 12:40 16.08.2019
3568 Clouds 20 1018 43 0 3.87 27.842 12:21 16.08.2019
3569 Clouds 20 1018 43 0 3.87 27.842 11:55 16.08.2019
3570 Clouds 20 1018 43 0 3.87 27.842 11:37 16.08.2019
3571 Clouds 20 1018 43 0 3.87 27.842 11:19 16.08.2019
3572 Clouds 20 1018 43 0 3.87 27.842 10:42 16.08.2019
3573 Clouds 20 1018 43 0 3.87 27.842 10:21 16.08.2019
3574 Clouds 20 1018 43 0 3.87 27.842 09:39 16.08.2019
3575 Clouds 22 1017 38 0 4.48 22.191 09:20 16.08.2019
3576 Clouds 22 1017 38 0 4.48 22.191 08:59 16.08.2019
3577 Clouds 22 1017 38 0 4.48 22.191 08:39 16.08.2019
3578 Clouds 22 1017 38 0 4.48 22.191 08:19 16.08.2019
3579 Clouds 22 1017 38 0 4.48 22.191 07:48 16.08.2019
3580 Clouds 22 1017 38 0 4.48 22.191 07:28 16.08.2019
3581 Clouds 22 1017 38 0 4.48 22.191 06:55 16.08.2019
3582 Clear 20 1018 42 0 4.67 28.744 06:19 16.08.2019
3583 Clear 20 1018 42 0 4.67 28.744 05:34 16.08.2019
3584 Clear 18 1019 53 0 3.55 16.866 03:20 16.08.2019
3585 Clear 18 1019 53 0 3.55 16.866 01:53 16.08.2019
3586 Clear 18 1019 52 0 3.42 13.174 01:27 16.08.2019
3587 Clear 18 1019 52 0 3.42 13.174 00:55 16.08.2019
3588 Clear 18 1019 52 0 3.42 13.174 00:36 16.08.2019
3589 Clear 13 1018 74 0 2.22 332.683 00:18 16.08.2019
3590 Clear 13 1018 74 0 2.22 332.683 23:42 15.08.2019
3591 Clear 13 1018 74 0 2.22 332.683 23:19 15.08.2019
3592 Clear 13 1018 74 0 2.22 332.683 22:55 15.08.2019
3593 Clear 13 1018 74 0 2.22 332.683 22:36 15.08.2019
3594 Clear 13 1018 74 0 2.22 332.683 22:18 15.08.2019
3595 Clouds 13 1019 72 0 2.37 333.64 21:40 15.08.2019
3596 Clear 12 1018 68 0 2.28 345.452 21:20 15.08.2019
3597 Clear 12 1018 68 0 2.28 345.452 20:59 15.08.2019
3598 Clear 12 1018 68 0 2.28 345.452 20:40 15.08.2019
3599 Clear 12 1018 68 0 2.28 345.452 20:21 15.08.2019
3600 Clear 12 1018 68 0 2.28 345.452 19:56 15.08.2019
3601 Clear 12 1018 68 0 2.28 345.452 19:38 15.08.2019
3602 Clear 12 1018 68 0 2.28 345.452 19:19 15.08.2019
3603 Clear 12 1018 68 0 2.28 345.452 18:45 15.08.2019
3604 Clear 14 1016 41 0 2.48 18.179 18:22 15.08.2019
3605 Clear 14 1016 41 0 2.48 18.179 17:56 15.08.2019
3606 Clear 14 1016 41 0 2.48 18.179 17:37 15.08.2019
3607 Clear 14 1016 41 0 2.48 18.179 17:19 15.08.2019
3608 Clear 14 1016 41 0 2.48 18.179 16:48 15.08.2019
3609 Clear 14 1016 41 0 2.48 18.179 16:27 15.08.2019
3610 Clear 14 1016 41 0 2.48 18.179 15:57 15.08.2019
3611 Clear 14 1016 41 0 2.48 18.179 15:38 15.08.2019
3612 Clear 17 1016 42 0 2.67 55.762 15:19 15.08.2019
3613 Clear 17 1016 42 0 2.67 55.762 14:42 15.08.2019
3614 Clear 17 1016 42 0 2.67 55.762 14:23 15.08.2019
3615 Clear 17 1016 42 0 2.67 55.762 13:58 15.08.2019
3616 Clear 17 1016 42 0 2.67 55.762 13:40 15.08.2019
3617 Clear 17 1016 43 0 2.33 45.958 13:20 15.08.2019
3618 Clear 17 1016 43 0 2.33 45.958 12:57 15.08.2019
3619 Clear 17 1016 43 0 2.33 45.958 12:39 15.08.2019
3620 Clear 25 1014 24 0 0.05 51.52 12:19 15.08.2019
3621 Clear 25 1014 24 0 0.05 51.52 11:57 15.08.2019
3622 Clear 25 1014 24 0 0.05 51.52 11:36 15.08.2019
3623 Clear 25 1014 24 0 0.05 51.52 11:18 15.08.2019
3624 Clear 25 1014 24 0 0.05 51.52 10:54 15.08.2019
3625 Clear 25 1014 24 0 0.05 51.52 10:36 15.08.2019
3626 Clear 25 1014 24 0 0.05 51.52 10:18 15.08.2019
3627 Clear 25 1014 24 0 0.05 51.52 09:41 15.08.2019
3628 Clear 25 1013 26 0 0.9 62.81 09:21 15.08.2019
3629 Clear 25 1013 26 0 0.9 62.81 08:38 15.08.2019
3630 Clear 25 1013 26 0 0.9 62.81 08:19 15.08.2019
3631 Clear 25 1013 26 0 0.9 62.81 07:54 15.08.2019
3632 Clear 25 1013 26 0 0.9 62.81 07:36 15.08.2019
3633 Clear 25 1013 26 0 0.9 62.81 07:18 15.08.2019
3634 Clear 25 1013 26 0 0.9 62.81 06:40 15.08.2019
3635 Clear 25 1013 26 0 0.9 62.81 06:40 15.08.2019
3636 Clear 24 1013 29 0 0.91 67.182 06:21 15.08.2019
3637 Clear 24 1013 29 0 0.91 67.182 05:29 15.08.2019
3638 Clear 24 1013 29 0 0.91 67.182 04:56 15.08.2019
3639 Clear 24 1013 29 0 0.91 67.182 03:51 15.08.2019
3640 Clear 21 1014 31 0 0.84 37.25 02:53 15.08.2019
3641 Clear 21 1014 31 0 0.84 37.25 02:24 15.08.2019
3642 Clear 21 1014 31 0 0.84 37.25 01:39 15.08.2019
3643 Clear 21 1014 31 0 0.8 27.242 00:55 15.08.2019
3644 Clear 21 1014 31 0 0.8 27.242 00:36 15.08.2019
3645 Clear 17 1013 46 0 0.74 52.573 00:18 15.08.2019
3646 Clear 17 1013 46 0 0.74 52.573 23:54 14.08.2019
3647 Clear 17 1013 46 0 0.74 52.573 23:36 14.08.2019
3648 Clear 17 1013 46 0 0.74 52.573 23:18 14.08.2019
3649 Clear 17 1013 46 0 0.74 52.573 22:40 14.08.2019
3650 Clear 17 1013 46 0 0.74 52.573 22:22 14.08.2019
3651 Clear 17 1013 46 0 0.74 52.573 21:57 14.08.2019
3652 Clear 17 1013 46 0 0.74 52.573 21:38 14.08.2019
3653 Clouds 13 1013 48 0 1.05 37.385 21:20 14.08.2019
3654 Clouds 13 1013 48 0 1.05 37.385 20:56 14.08.2019
3655 Clouds 13 1013 48 0 1.05 37.385 20:37 14.08.2019
3656 Clouds 13 1013 48 0 1.05 37.385 20:18 14.08.2019
3657 Clouds 13 1013 48 0 1.05 37.385 19:40 14.08.2019
3658 Clouds 13 1013 48 0 1.05 37.385 19:22 14.08.2019
3659 Clouds 13 1013 48 0 1.05 37.385 18:57 14.08.2019
3660 Clouds 13 1013 48 0 1.05 37.385 18:39 14.08.2019
3661 Clouds 15 1012 43 0 0.85 57.586 18:21 14.08.2019
3662 Clouds 15 1012 43 0 0.85 57.586 17:59 14.08.2019
3663 Clouds 15 1012 43 0 0.85 57.586 17:39 14.08.2019
3664 Clouds 15 1012 43 0 0.85 57.586 17:21 14.08.2019
3665 Clouds 15 1012 43 0 0.85 57.586 16:56 14.08.2019
3666 Clouds 15 1012 43 0 0.85 57.586 16:38 14.08.2019
3667 Clouds 15 1012 43 0 0.85 57.586 16:18 14.08.2019
3668 Clouds 15 1012 43 0 0.85 57.586 16:18 14.08.2019
3669 Clouds 15 1012 43 0 0.85 57.586 15:43 14.08.2019
3670 Clouds 16 1011 38 0 1.19 50.677 15:18 14.08.2019
3671 Clouds 16 1011 38 0 1.19 50.677 14:55 14.08.2019
3672 Clouds 16 1011 38 0 1.19 50.677 14:55 14.08.2019
3673 Clouds 16 1011 38 0 1.19 50.677 14:36 14.08.2019
3674 Clouds 16 1011 38 0 1.19 50.677 14:36 14.08.2019
3675 Clouds 16 1011 38 0 1.19 50.677 14:18 14.08.2019
3676 Clouds 16 1011 38 0 1.19 50.677 13:43 14.08.2019
3677 Clouds 16 1011 38 0 0.98 42.364 13:24 14.08.2019
3678 Clouds 16 1011 38 0 0.98 42.364 12:57 14.08.2019
3679 Clouds 16 1011 38 0 0.98 42.364 12:38 14.08.2019
3680 Clouds 16 1011 38 0 0.98 42.364 12:38 14.08.2019
3681 Clouds 16 1011 38 0 0.98 42.364 12:38 14.08.2019
3682 Clouds 24 1010 31 0 0.42 297.3 12:20 14.08.2019
3683 Clouds 24 1010 31 0 0.42 297.3 11:56 14.08.2019
3684 Clouds 24 1010 31 0 0.42 297.3 11:37 14.08.2019
3685 Clouds 24 1010 31 0 0.42 297.3 11:19 14.08.2019
3686 Clouds 24 1010 31 0 0.42 297.3 10:43 14.08.2019
3687 Clouds 24 1010 31 0 0.42 297.3 10:24 14.08.2019
3688 Clouds 24 1010 31 0 0.42 297.3 09:57 14.08.2019
3689 Clouds 24 1010 31 0 0.42 297.3 09:38 14.08.2019
3690 Clouds 24 1011 24 0 0.69 75.021 09:19 14.08.2019
3691 Clouds 24 1011 24 0 0.69 75.021 08:39 14.08.2019
3692 Clouds 24 1011 24 0 0.69 75.021 08:21 14.08.2019
3693 Clouds 24 1011 24 0 0.69 75.021 07:51 14.08.2019
3694 Clouds 24 1011 24 0 0.69 75.021 07:32 14.08.2019
3695 Clouds 24 1011 24 0 0.69 75.021 06:46 14.08.2019
3696 Clear 23 1011 30 0 0.52 46.096 05:54 14.08.2019
3697 Clear 23 1011 30 0 0.52 46.096 05:22 14.08.2019
3698 Clear 23 1011 30 0 0.52 46.096 03:38 14.08.2019
3699 Clouds 20 1012 39 0 0.44 25.001 02:33 14.08.2019
3700 Clouds 20 1012 39 0 0.44 25.001 01:48 14.08.2019
3701 Clouds 20 1012 39 0 0.49 13.414 01:18 14.08.2019
3702 Clouds 16 1012 49 0 0.67 1.456 23:51 13.08.2019
3703 Clouds 16 1012 49 0 0.67 1.456 23:27 13.08.2019
3704 Clouds 16 1012 49 0 0.67 1.456 23:00 13.08.2019
3705 Clouds 16 1012 49 0 0.67 1.456 22:40 13.08.2019
3706 Clouds 16 1012 49 0 0.67 1.456 22:40 13.08.2019
3707 Clouds 16 1012 49 0 0.67 1.456 22:21 13.08.2019
3708 Clouds 16 1012 49 0 0.67 1.456 21:58 13.08.2019
3709 Clouds 16 1012 49 0 0.67 1.456 21:38 13.08.2019
3710 Clouds 12 1012 54 0 1.11 332.995 21:19 13.08.2019
3711 Clouds 12 1012 54 0 1.11 332.995 20:57 13.08.2019
3712 Clouds 12 1012 54 0 1.11 332.995 20:37 13.08.2019
3713 Clouds 12 1012 54 0 1.11 332.995 20:18 13.08.2019
3714 Clouds 12 1012 54 0 1.11 332.995 19:43 13.08.2019
3715 Clouds 12 1012 54 0 1.11 332.995 19:22 13.08.2019
3716 Clouds 12 1012 54 0 1.11 332.995 18:59 13.08.2019
3717 Clouds 12 1012 54 0 1.11 332.995 18:41 13.08.2019
3718 Clouds 13 1011 47 0 1.57 337.709 18:20 13.08.2019
3719 Clouds 13 1011 47 0 1.57 337.709 17:43 13.08.2019
3720 Clouds 13 1011 47 0 1.57 337.709 17:22 13.08.2019
3721 Clouds 13 1011 47 0 1.57 337.709 16:58 13.08.2019
3722 Clouds 13 1011 47 0 1.57 337.709 16:40 13.08.2019
3723 Clouds 13 1011 47 0 1.57 337.709 16:21 13.08.2019
3724 Clouds 13 1011 47 0 1.57 337.709 15:59 13.08.2019
3725 Clouds 13 1011 47 0 1.57 337.709 15:38 13.08.2019
3726 Clouds 13 1011 47 0 1.57 337.709 15:38 13.08.2019
3727 Clear 16 1011 42 0 2.46 14.031 15:19 13.08.2019
3728 Clear 16 1011 42 0 2.46 14.031 14:42 13.08.2019
3729 Clear 16 1011 42 0 2.46 14.031 14:20 13.08.2019
3730 Clear 16 1011 42 0 2.46 14.031 13:58 13.08.2019
3731 Clear 16 1011 42 0 2.46 14.031 13:39 13.08.2019
3732 Clear 16 1011 43 0 2.69 8.85 13:18 13.08.2019
3733 Clear 16 1011 43 0 2.69 8.85 12:56 13.08.2019
3734 Clear 16 1011 43 0 2.69 8.85 12:38 13.08.2019
3735 Clouds 23 1009 29 0 4.18 15.205 12:18 13.08.2019
3736 Clouds 23 1009 29 0 4.18 15.205 11:42 13.08.2019
3737 Clouds 23 1009 29 0 4.18 15.205 11:22 13.08.2019
3738 Clouds 23 1009 29 0 4.18 15.205 10:57 13.08.2019
3739 Clouds 23 1009 29 0 4.18 15.205 10:38 13.08.2019
3740 Clouds 23 1009 29 0 4.18 15.205 10:19 13.08.2019
3741 Clouds 23 1009 29 0 4.18 15.205 09:45 13.08.2019
3742 Clouds 23 1009 29 0 4.18 15.205 09:45 13.08.2019
3743 Clear 24 1010 30 0 4.23 19.643 09:25 13.08.2019
3744 Clear 24 1010 30 0 4.23 19.643 08:57 13.08.2019
3745 Clear 24 1010 30 0 4.23 19.643 08:39 13.08.2019
3746 Clear 24 1010 30 0 4.23 19.643 08:20 13.08.2019
3747 Clear 24 1010 30 0 4.23 19.643 07:45 13.08.2019
3748 Clear 24 1010 30 0 4.23 19.643 07:23 13.08.2019
3749 Clear 24 1010 30 0 4.23 19.643 06:44 13.08.2019
3750 Clear 23 1010 34 0 3.38 18.494 05:53 13.08.2019
3751 Clear 23 1010 34 0 3.38 18.494 04:36 13.08.2019
3752 Clear 20 1011 40 0 3.06 359.887 02:22 13.08.2019
3753 Clear 20 1011 40 0 3.06 359.887 01:38 13.08.2019
3754 Clear 20 1010 40 0 3.04 358.568 00:49 13.08.2019
3755 Clear 16 1010 56 0 1.72 337.183 00:22 13.08.2019
3756 Clear 16 1010 56 0 1.72 337.183 23:43 12.08.2019
3757 Clear 16 1010 56 0 1.72 337.183 23:21 12.08.2019
3758 Clear 16 1010 56 0 1.72 337.183 22:54 12.08.2019
3759 Clear 16 1010 56 0 1.72 337.183 22:36 12.08.2019
3760 Clear 16 1010 56 0 1.72 337.183 22:18 12.08.2019
3761 Clear 16 1010 56 0 1.72 337.183 21:54 12.08.2019
3762 Clear 16 1010 56 0 1.72 337.183 21:36 12.08.2019
3763 Clear 16 1010 56 0 1.72 337.183 21:36 12.08.2019
3764 Clear 16 1010 56 0 1.72 337.183 21:36 12.08.2019
3765 Clear 13 1010 69 0 1.27 311.454 21:18 12.08.2019
3766 Clear 13 1010 69 0 1.27 311.454 20:41 12.08.2019
3767 Clear 13 1010 69 0 1.27 311.454 20:21 12.08.2019
3768 Clear 13 1010 69 0 1.27 311.454 19:58 12.08.2019
3769 Clear 13 1010 69 0 1.27 311.454 19:39 12.08.2019
3770 Clear 13 1010 69 0 1.27 311.454 19:21 12.08.2019
3771 Clear 13 1010 69 0 1.27 311.454 19:20 12.08.2019
3772 Clear 13 1010 69 0 1.27 311.454 18:59 12.08.2019
3773 Clear 13 1010 69 0 1.27 311.454 18:39 12.08.2019
3774 Clear 15 1010 59 0 2.23 357.325 18:20 12.08.2019
3775 Clear 15 1010 59 0 2.23 357.325 17:55 12.08.2019
3776 Clear 15 1010 59 0 2.23 357.325 17:37 12.08.2019
3777 Clear 15 1010 59 0 2.23 357.325 17:19 12.08.2019
3778 Clear 15 1010 59 0 2.23 357.325 16:40 12.08.2019
3779 Clear 15 1010 59 0 2.23 357.325 16:20 12.08.2019
3780 Clear 15 1010 59 0 2.23 357.325 15:59 12.08.2019
3781 Clear 15 1010 59 0 2.23 357.325 15:59 12.08.2019
3782 -273 0 0 0 0 0 15:41 12.08.2019
3783 -273 0 0 0 0 0 15:40 12.08.2019
3784 Clear 15 1010 59 0 2.23 357.325 15:40 12.08.2019
3785 Clouds 18 1009 47 0 2.61 18.151 15:21 12.08.2019
3786 Clouds 18 1009 47 0 2.61 18.151 14:55 12.08.2019
3787 Clouds 18 1009 47 0 2.61 18.151 14:37 12.08.2019
3788 -273 0 0 0 0 0 14:18 12.08.2019
3789 Clouds 18 1009 47 0 2.61 18.151 14:18 12.08.2019
3790 Clouds 18 1009 47 0 2.61 18.151 13:43 12.08.2019
3791 Clear 18 1009 48 0 1.99 19.327 13:23 12.08.2019
3792 Clear 18 1009 48 0 1.99 19.327 12:57 12.08.2019
3793 Clear 18 1009 48 0 1.99 19.327 12:39 12.08.2019
3794 Clouds 24 1008 33 0 2.5 25.838 12:18 12.08.2019
3795 Clouds 24 1008 33 0 2.5 25.838 11:41 12.08.2019
3796 Clouds 24 1008 33 0 2.5 25.838 11:23 12.08.2019
3797 Clouds 24 1008 33 0 2.5 25.838 10:42 12.08.2019
3798 Clouds 24 1008 33 0 2.5 25.838 10:23 12.08.2019
3799 Clouds 24 1008 33 0 2.5 25.838 10:23 12.08.2019
3800 Clouds 24 1008 33 0 2.5 25.838 10:23 12.08.2019
3801 Clouds 24 1008 33 0 2.5 25.838 09:56 12.08.2019
3802 Clouds 24 1008 33 0 2.5 25.838 09:38 12.08.2019
3803 Clear 25 1008 30 0 3.83 45.085 09:19 12.08.2019
3804 Clear 25 1008 30 0 3.83 45.085 08:57 12.08.2019
3805 Clear 25 1008 30 0 3.83 45.085 08:38 12.08.2019
3806 Clear 25 1008 30 0 3.83 45.085 08:19 12.08.2019
3807 Clear 25 1008 30 0 3.83 45.085 07:49 12.08.2019
3808 Clear 25 1008 30 0 3.83 45.085 07:27 12.08.2019
3809 Clear 25 1008 30 0 3.83 45.085 06:47 12.08.2019
3810 Clear 25 1008 32 0 4.2 57.044 05:38 12.08.2019
3811 Clouds 22 1010 36 0 3.23 33.197 02:44 12.08.2019
3812 Clouds 22 1010 36 0 3.23 33.197 01:54 12.08.2019
3813 Clouds 22 1010 36 0 3.23 33.197 01:21 12.08.2019
3814 Clouds 22 1010 36 0 3.23 33.197 00:58 12.08.2019
3815 Clouds 22 1010 36 0 3.23 33.197 00:38 12.08.2019
3816 Clouds 17 1010 49 0 1.5 13.666 00:19 12.08.2019
3817 Clouds 17 1010 49 0 1.5 13.666 23:54 11.08.2019
3818 Clouds 17 1010 49 0 1.5 13.666 23:36 11.08.2019
3819 Clouds 17 1010 49 0 1.5 13.666 23:18 11.08.2019
3820 Clouds 17 1010 49 0 1.5 13.666 22:40 11.08.2019
3821 Clouds 17 1010 49 0 1.5 13.666 22:20 11.08.2019
3822 Clouds 17 1010 49 0 1.5 13.666 21:59 11.08.2019
3823 Clouds 17 1010 49 0 1.5 13.666 21:41 11.08.2019
3824 Clouds 13 1010 59 0 1.96 17.741 21:21 11.08.2019
3825 Clouds 13 1010 55 0 2.04 16.729 20:57 11.08.2019
3826 Clouds 13 1010 55 0 2.04 16.729 20:39 11.08.2019
3827 Clouds 13 1010 55 0 2.04 16.729 20:20 11.08.2019
3828 Clouds 13 1010 55 0 2.04 16.729 19:44 11.08.2019
3829 Clouds 13 1010 55 0 2.04 16.729 19:20 11.08.2019
3830 Clouds 13 1010 55 0 2.04 16.729 18:54 11.08.2019
3831 Clouds 13 1010 55 0 2.04 16.729 18:36 11.08.2019
3832 Clouds 14 1010 53 0 1.97 15.606 18:18 11.08.2019
3833 Clouds 14 1010 53 0 1.97 15.606 17:41 11.08.2019
3834 Clouds 14 1010 53 0 1.97 15.606 17:20 11.08.2019
3835 Clouds 14 1010 53 0 1.97 15.606 16:57 11.08.2019
3836 Clouds 14 1010 53 0 1.97 15.606 16:38 11.08.2019
3837 Clouds 14 1010 53 0 1.97 15.606 16:20 11.08.2019
3838 Clouds 14 1010 53 0 1.97 15.606 16:20 11.08.2019
3839 Clouds 14 1010 53 0 1.97 15.606 15:44 11.08.2019
3840 Clouds 14 1010 53 0 1.97 15.606 15:26 11.08.2019
3841 Clouds 17 1010 45 0 2.52 33.482 14:59 11.08.2019
3842 Clouds 17 1010 45 0 2.52 33.482 14:59 11.08.2019
3843 Clouds 17 1010 45 0 2.52 33.482 14:40 11.08.2019
3844 Clouds 17 1010 45 0 2.52 33.482 14:21 11.08.2019
3845 Clouds 17 1010 45 0 2.52 33.482 13:46 11.08.2019
3846 Clouds 17 1010 45 0 2.44 27.72 13:26 11.08.2019
3847 Clouds 17 1010 45 0 2.44 27.72 12:58 11.08.2019
3848 Clouds 17 1010 45 0 2.44 27.72 12:38 11.08.2019
3849 Clouds 24 1009 31 0 2.51 38.021 12:20 11.08.2019
3850 Clouds 24 1009 31 0 2.51 38.021 11:40 11.08.2019
3851 Clouds 24 1009 31 0 2.51 38.021 11:40 11.08.2019
3852 Clouds 24 1009 31 0 2.51 38.021 11:22 11.08.2019
3853 Clouds 24 1009 31 0 2.51 38.021 10:56 11.08.2019
3854 Clouds 24 1009 31 0 2.51 38.021 10:38 11.08.2019
3855 Clouds 24 1009 31 0 2.51 38.021 10:19 11.08.2019
3856 Clouds 24 1009 31 0 2.51 38.021 09:54 11.08.2019
3857 Clouds 24 1009 31 0 2.51 38.021 09:36 11.08.2019
3858 Clear 25 1010 27 0 2.92 51.491 09:18 11.08.2019
3859 Clear 25 1010 26 0 2.87 55.357 08:40 11.08.2019
3860 Clear 25 1010 26 0 2.87 55.357 08:21 11.08.2019
3861 Clear 25 1010 26 0 2.87 55.357 07:43 11.08.2019
3862 Clear 25 1010 26 0 2.87 55.357 07:18 11.08.2019
3863 Clear 25 1010 26 0 2.87 55.357 06:37 11.08.2019
3864 Clear 24 1011 31 0 3.65 66.725 05:28 11.08.2019
3865 Clouds 21 1013 43 0 2.68 46.072 02:54 11.08.2019
3866 Clouds 21 1013 43 0 2.68 46.072 02:25 11.08.2019
3867 Clouds 21 1013 43 0 2.68 46.072 01:33 11.08.2019
3868 Clouds 21 1013 42 0 2.78 46.022 00:56 11.08.2019
3869 Clouds 21 1013 42 0 2.78 46.022 00:36 11.08.2019
3870 Clear 15 1014 62 0 2.49 17.32 23:57 10.08.2019
3871 Clear 15 1014 62 0 2.49 17.32 23:37 10.08.2019
3872 Clear 15 1014 62 0 2.49 17.32 23:18 10.08.2019
3873 Clear 15 1014 62 0 2.49 17.32 22:40 10.08.2019
3874 Clear 15 1014 62 0 2.49 17.32 22:22 10.08.2019
3875 -273 0 0 0 0 0 21:56 10.08.2019
3876 Clear 15 1014 62 0 2.49 17.32 21:56 10.08.2019
3877 Clear 15 1014 62 0 2.49 17.32 21:36 10.08.2019
3878 Clear 12 1013 70 0 2.35 11.525 21:18 10.08.2019
3879 Clear 12 1013 70 0 2.35 11.525 20:42 10.08.2019
3880 Clear 12 1013 70 0 2.35 11.525 20:21 10.08.2019
3881 Clear 12 1013 70 0 2.35 11.525 19:57 10.08.2019
3882 Clear 12 1013 70 0 2.35 11.525 19:37 10.08.2019
3883 Clear 12 1013 70 0 2.35 11.525 19:19 10.08.2019
3884 Clear 12 1013 70 0 2.35 11.525 18:39 10.08.2019
3885 Clear 13 1013 67 0 1.93 12.95 18:21 10.08.2019
3886 Clear 13 1013 67 0 1.93 12.95 17:44 10.08.2019
3887 Clear 13 1013 67 0 1.93 12.95 17:24 10.08.2019
3888 Clear 13 1013 67 0 1.93 12.95 16:47 10.08.2019
3889 Clear 13 1013 67 0 1.93 12.95 16:28 10.08.2019
3890 Clear 13 1013 67 0 1.93 12.95 15:54 10.08.2019
3891 -273 0 0 0 0 0 15:25 10.08.2019
3892 Clear 16 1014 61 0 2.4 15.748 14:45 10.08.2019
3893 Clear 16 1014 61 0 2.4 15.748 14:23 10.08.2019
3894 Clear 16 1014 61 0 2.4 15.748 13:57 10.08.2019
3895 Clear 16 1014 61 0 2.4 15.748 13:39 10.08.2019
3896 Clear 16 1014 61 0 2.26 17.697 13:18 10.08.2019
3897 Clear 16 1014 61 0 2.26 17.697 12:41 10.08.2019
3898 Clear 22 1013 41 0 2.76 31.818 12:21 10.08.2019
3899 Clear 22 1013 41 0 2.76 31.818 11:56 10.08.2019
3900 Clear 22 1013 41 0 2.76 31.818 11:37 10.08.2019
3901 Clear 22 1013 41 0 2.76 31.818 11:19 10.08.2019
3902 Clear 22 1013 41 0 2.76 31.818 10:39 10.08.2019
3903 Clear 22 1013 41 0 2.76 31.818 10:20 10.08.2019
3904 Clear 22 1013 41 0 2.76 31.818 10:20 10.08.2019
3905 Clear 22 1013 41 0 2.76 31.818 09:44 10.08.2019
3906 Clear 22 1014 42 0 3.32 56.291 09:25 10.08.2019
3907 Clear 23 1013 41 0 3.44 51.811 08:59 10.08.2019
3908 Clear 23 1013 41 0 3.44 51.811 08:38 10.08.2019
3909 Clear 23 1013 41 0 3.44 51.811 08:19 10.08.2019
3910 Clear 23 1013 41 0 3.44 51.811 07:51 10.08.2019
3911 Clear 23 1013 41 0 3.44 51.811 07:27 10.08.2019
3912 Clear 23 1013 41 0 3.44 51.811 06:48 10.08.2019
3913 Clear 21 1014 48 0 3.87 40.172 06:21 10.08.2019
3914 Clear 21 1014 48 0 3.87 40.172 05:22 10.08.2019
3915 Clear 21 1014 48 0 3.87 40.172 04:18 10.08.2019
3916 Clear 16 1016 67 0 3.19 20.178 02:53 10.08.2019
3917 Clear 16 1016 67 0 3.19 20.178 01:57 10.08.2019
3918 Clear 16 1016 67 0 3.19 20.178 01:39 10.08.2019
3919 Clear 16 1016 68 0 3.05 14.739 01:20 10.08.2019
3920 Clear 16 1016 68 0 3.05 14.739 00:43 10.08.2019
3921 Clouds 12 1017 85 0 2.09 342.233 00:21 10.08.2019
3922 Clouds 12 1017 85 0 2.09 342.233 23:42 09.08.2019
3923 Clouds 12 1017 85 0 2.09 342.233 23:22 09.08.2019
3924 Clouds 12 1017 85 0 2.09 342.233 22:56 09.08.2019
3925 Clouds 12 1017 85 0 2.09 342.233 22:38 09.08.2019
3926 Clouds 12 1017 85 0 2.09 342.233 22:19 09.08.2019
3927 Clouds 12 1017 85 0 2.09 342.233 21:41 09.08.2019
3928 Clouds 12 1017 85 0 2.09 342.233 21:41 09.08.2019
3929 Clouds 9 1016 93 0 1.64 323.515 21:23 09.08.2019
3930 Clouds 9 1016 93 0 1.64 323.515 20:58 09.08.2019
3931 Clouds 9 1016 92 0 1.45 320.624 20:40 09.08.2019
3932 Clouds 9 1016 92 0 1.45 320.624 20:20 09.08.2019
3933 Clouds 9 1016 92 0 1.45 320.624 19:56 09.08.2019
3934 Clouds 9 1016 92 0 1.45 320.624 19:38 09.08.2019
3935 Clouds 9 1016 92 0 1.45 320.624 19:38 09.08.2019
3936 Clouds 9 1016 92 0 1.45 320.624 19:18 09.08.2019
3937 Clouds 9 1016 92 0 1.45 320.624 18:40 09.08.2019
3938 Clouds 10 1016 90 0 1.49 310.284 18:22 09.08.2019
3939 Clouds 10 1016 90 0 1.49 310.284 17:56 09.08.2019
3940 -273 0 0 0 0 0 17:56 09.08.2019
3941 Clouds 10 1016 90 0 1.49 310.284 17:38 09.08.2019
3942 Clouds 10 1016 90 0 1.49 310.284 17:19 09.08.2019
3943 Clouds 10 1016 90 0 1.49 310.284 16:40 09.08.2019
3944 Clouds 10 1016 90 0 1.49 310.284 16:21 09.08.2019
3945 Clouds 10 1016 90 0 1.49 310.284 15:56 09.08.2019
3946 Clouds 10 1016 90 0 1.49 310.284 15:37 09.08.2019
3947 Clouds 12 1016 86 0 1.45 306.814 15:19 09.08.2019
3948 Clouds 12 1016 86 0 1.45 306.814 14:44 09.08.2019
3949 Clouds 12 1016 86 0 1.45 306.814 14:22 09.08.2019
3950 Clouds 12 1016 86 0 1.45 306.814 13:57 09.08.2019
3951 Clouds 12 1016 86 0 1.45 306.814 13:39 09.08.2019
3952 Clouds 13 1016 86 0 1.95 326.505 13:19 09.08.2019
3953 Clouds 13 1016 86 0 1.95 326.505 12:45 09.08.2019
3954 Clouds 16 1014 75 0 2.2 356.196 12:23 09.08.2019
3955 Clouds 16 1014 75 0 2.2 356.196 11:58 09.08.2019
3956 Clouds 16 1014 75 0 2.2 356.196 11:37 09.08.2019
3957 Clouds 16 1014 75 0 2.2 356.196 11:18 09.08.2019
3958 Clouds 16 1014 75 0 2.2 356.196 10:40 09.08.2019
3959 Clouds 16 1014 75 0 2.2 356.196 10:21 09.08.2019
3960 Clouds 16 1014 75 0 2.2 356.196 09:46 09.08.2019
3961 Rain 15 1014 79 0 4.48 26.462 09:20 09.08.2019
3962 Rain 15 1014 79 0 4.48 26.462 08:57 09.08.2019
3963 Rain 16 1014 78 0 3.75 16.325 08:39 09.08.2019
3964 Rain 16 1014 78 0 3.75 16.325 08:19 09.08.2019
3965 Rain 16 1014 78 0 3.75 16.325 07:43 09.08.2019
3966 Rain 16 1014 78 0 3.75 16.325 07:23 09.08.2019
3967 Rain 16 1014 78 0 3.75 16.325 06:56 09.08.2019
3968 Rain 16 1014 78 0 3.75 16.325 06:29 09.08.2019
3969 Rain 14 1013 85 0 3.9 36.146 05:55 09.08.2019
3970 Rain 13 1013 89 0 3.36 7.622 03:19 09.08.2019
3971 Rain 13 1013 89 0 3.36 7.622 01:45 09.08.2019
3972 Rain 13 1013 90 0 2.97 358.881 00:45 09.08.2019
3973 Rain 13 1013 90 0 2.97 358.881 00:26 09.08.2019
3974 Rain 13 1012 92 0 1.69 342.755 23:59 08.08.2019
3975 Rain 13 1012 92 0 1.69 342.755 23:38 08.08.2019
3976 Rain 13 1012 92 0 1.69 342.755 23:19 08.08.2019
3977 Rain 13 1012 92 0 1.69 342.755 22:57 08.08.2019
3978 Rain 13 1012 92 0 1.69 342.755 22:37 08.08.2019
3979 Rain 13 1012 92 0 1.69 342.755 22:37 08.08.2019
3980 Rain 13 1012 92 0 1.69 342.755 22:18 08.08.2019
3981 Rain 13 1012 92 0 1.69 342.755 21:57 08.08.2019
3982 Rain 13 1012 92 0 1.69 342.755 21:38 08.08.2019
3983 Rain 13 1011 89 0 1.52 347.689 21:20 08.08.2019
3984 Rain 13 1012 93 0 1.22 298.494 20:42 08.08.2019
3985 Rain 13 1012 93 0 1.22 298.494 20:22 08.08.2019
3986 Rain 13 1012 93 0 1.22 298.494 19:59 08.08.2019
3987 Rain 13 1012 93 0 1.22 298.494 19:40 08.08.2019
3988 Rain 13 1012 93 0 1.22 298.494 19:20 08.08.2019
3989 Rain 13 1012 93 0 1.22 298.494 18:43 08.08.2019
3990 Rain 14 1010 82 0 2.34 325.183 18:22 08.08.2019
3991 Rain 14 1010 82 0 2.34 325.183 17:55 08.08.2019
3992 Rain 14 1010 82 0 2.34 325.183 17:37 08.08.2019
3993 Rain 14 1010 82 0 2.34 325.183 17:18 08.08.2019
3994 Rain 14 1010 82 0 2.34 325.183 16:42 08.08.2019
3995 Rain 14 1010 82 0 2.34 325.183 16:24 08.08.2019
3996 Rain 14 1010 82 0 2.34 325.183 15:59 08.08.2019
3997 Rain 14 1010 82 0 2.34 325.183 15:40 08.08.2019
3998 Clouds 16 1010 59 0 4.04 315.703 15:22 08.08.2019
3999 Clouds 16 1010 59 0 4.04 315.703 14:42 08.08.2019
4000 Clouds 16 1010 59 0 4.04 315.703 14:23 08.08.2019
4001 Clouds 16 1010 59 0 4.04 315.703 13:59 08.08.2019
4002 Clouds 16 1010 59 0 4.04 315.703 13:59 08.08.2019
4003 Clouds 16 1010 59 0 4.04 315.703 13:38 08.08.2019
4004 Clouds 17 1009 54 0 2.97 334.081 13:18 08.08.2019
4005 Clouds 17 1009 54 0 2.97 334.081 13:18 08.08.2019
4006 Clouds 17 1009 54 0 2.97 334.081 12:40 08.08.2019
4007 Clouds 21 1007 40 0 2.7 8.661 12:20 08.08.2019
4008 Clouds 21 1007 40 0 2.7 8.661 11:56 08.08.2019
4009 Clouds 21 1007 40 0 2.7 8.661 11:37 08.08.2019
4010 Clouds 21 1007 40 0 2.7 8.661 11:19 08.08.2019
4011 Clouds 21 1007 40 0 2.7 8.661 10:41 08.08.2019
4012 Clouds 21 1007 40 0 2.7 8.661 10:41 08.08.2019
4013 Clouds 21 1007 40 0 2.7 8.661 10:21 08.08.2019
4014 Clouds 21 1007 40 0 2.7 8.661 09:49 08.08.2019
4015 Clouds 21 1007 40 0 2.7 8.661 09:30 08.08.2019
4016 Clouds 21 1007 39 0 6.17 290.861 08:57 08.08.2019
4017 Clouds 22 1006 39 0 3.59 281.717 08:38 08.08.2019
4018 Clouds 22 1006 39 0 3.59 281.717 08:18 08.08.2019
4019 Clouds 22 1006 39 0 3.59 281.717 07:40 08.08.2019
4020 Clouds 22 1006 39 0 3.59 281.717 07:20 08.08.2019
4021 Clouds 22 1006 39 0 3.59 281.717 06:48 08.08.2019
4022 Clouds 22 1006 39 0 3.59 281.717 06:27 08.08.2019
4023 Clouds 21 1006 44 0 2.09 324.348 05:53 08.08.2019
4024 Clouds 21 1006 44 0 2.09 324.348 04:54 08.08.2019
4025 Clouds 21 1006 44 0 2.09 324.348 03:53 08.08.2019
4026 Clouds 18 1006 60 0 1.86 317.416 02:28 08.08.2019
4027 Clouds 18 1006 60 0 1.86 317.416 01:37 08.08.2019
4028 Clouds 18 1007 58 0 1.89 321.065 00:26 08.08.2019
4029 Rain 15 1006 68 0 1.19 222.854 23:51 07.08.2019
4030 Rain 15 1006 68 0 1.19 222.854 23:20 07.08.2019
4031 Rain 15 1006 68 0 1.19 222.854 22:56 07.08.2019
4032 Rain 15 1006 68 0 1.19 222.854 22:38 07.08.2019
4033 Rain 15 1006 68 0 1.19 222.854 22:19 07.08.2019
4034 Rain 15 1006 68 0 1.19 222.854 21:56 07.08.2019
4035 Rain 15 1006 68 0 1.19 222.854 21:37 07.08.2019
4036 Rain 15 1006 68 0 1.19 222.854 21:37 07.08.2019
4037 Rain 12 1006 67 0 2 206.783 21:18 07.08.2019
4038 Rain 13 1006 74 0 2.79 184.189 20:43 07.08.2019
4039 Rain 13 1006 74 0 2.79 184.189 20:24 07.08.2019
4040 Rain 13 1006 74 0 2.79 184.189 19:58 07.08.2019
4041 Rain 13 1006 74 0 2.79 184.189 19:39 07.08.2019
4042 Rain 13 1006 74 0 2.79 184.189 19:21 07.08.2019
4043 Rain 13 1006 74 0 2.79 184.189 18:44 07.08.2019
4044 Clouds 13 1006 59 0 2.98 168.211 18:22 07.08.2019
4045 Clouds 13 1006 59 0 2.98 168.211 17:59 07.08.2019
4046 Clouds 13 1006 59 0 2.98 168.211 17:41 07.08.2019
4047 Clouds 13 1006 59 0 2.98 168.211 17:22 07.08.2019
4048 Clouds 13 1006 59 0 2.98 168.211 16:57 07.08.2019
4049 Clouds 13 1006 59 0 2.98 168.211 16:39 07.08.2019
4050 Clouds 13 1006 59 0 2.98 168.211 16:21 07.08.2019
4051 Clouds 13 1006 59 0 2.98 168.211 15:57 07.08.2019
4052 Clouds 13 1006 59 0 2.98 168.211 15:38 07.08.2019
4053 Clouds 15 1008 52 0 2.96 141.15 15:19 07.08.2019
4054 Clouds 15 1008 52 0 2.96 141.15 14:49 07.08.2019
4055 Clouds 15 1008 52 0 2.96 141.15 14:49 07.08.2019
4056 Clouds 15 1008 52 0 2.96 141.15 14:28 07.08.2019
4057 Clouds 15 1008 52 0 2.96 141.15 13:56 07.08.2019
4058 Clouds 15 1008 52 0 2.96 141.15 13:38 07.08.2019
4059 Clouds 16 1008 51 0 2.72 136.431 13:18 07.08.2019
4060 Clouds 16 1008 51 0 2.72 136.431 12:55 07.08.2019
4061 Clouds 16 1008 51 0 2.72 136.431 12:36 07.08.2019
4062 Clouds 21 1009 39 0 4.01 183.649 12:18 07.08.2019
4063 Clouds 21 1009 39 0 4.01 183.649 11:43 07.08.2019
4064 Clouds 21 1009 39 0 4.01 183.649 11:21 07.08.2019
4065 Clouds 21 1009 39 0 4.01 183.649 10:58 07.08.2019
4066 Clouds 21 1009 39 0 4.01 183.649 10:39 07.08.2019
4067 Clouds 21 1009 39 0 4.01 183.649 10:18 07.08.2019
4068 -273 0 0 0 0 0 09:46 07.08.2019
4069 Clouds 21 1011 37 0 5.15 190.581 09:22 07.08.2019
4070 Clouds 21 1011 37 0 5.15 190.581 08:57 07.08.2019
4071 Clouds 21 1010 37 0 5.05 194 08:39 07.08.2019
4072 Clouds 21 1010 37 0 5.05 194 08:21 07.08.2019
4073 Clouds 21 1010 37 0 5.05 194 07:43 07.08.2019
4074 Clouds 21 1010 37 0 5.05 194 07:21 07.08.2019
4075 Clouds 21 1010 37 0 5.05 194 06:31 07.08.2019
4076 Clouds 19 1012 42 0 4.29 193.926 05:56 07.08.2019
4077 Clouds 19 1012 42 0 4.29 193.926 04:58 07.08.2019
4078 Clouds 15 1014 55 0 2.1 167.709 03:21 07.08.2019
4079 Clouds 15 1014 55 0 2.1 167.709 02:50 07.08.2019
4080 Clouds 15 1014 55 0 2.1 167.709 02:22 07.08.2019
4081 Clouds 15 1014 55 0 2.1 167.709 01:45 07.08.2019
4082 Clouds 16 1013 54 0 2.38 165.66 00:52 07.08.2019
4083 Clouds 11 1015 75 0 0.49 129.97 00:22 07.08.2019
4084 Clouds 11 1015 75 0 0.49 129.97 23:44 06.08.2019
4085 Clouds 11 1015 75 0 0.49 129.97 23:22 06.08.2019
4086 Clouds 11 1015 75 0 0.49 129.97 22:59 06.08.2019
4087 Clouds 11 1015 75 0 0.49 129.97 22:38 06.08.2019
4088 Clouds 11 1015 75 0 0.49 129.97 22:20 06.08.2019
4089 Clouds 11 1015 75 0 0.49 129.97 21:44 06.08.2019
4090 Clouds 11 1015 75 0 0.49 129.97 21:26 06.08.2019
4091 Clouds 11 1015 75 0 0.49 129.97 21:26 06.08.2019
4092 Clouds 7 1015 89 0 1.18 13.341 20:59 06.08.2019
4093 Clouds 7 1016 88 0 1.18 6.207 20:41 06.08.2019
4094 Clouds 7 1016 88 0 1.18 6.207 20:22 06.08.2019
4095 Clouds 7 1016 88 0 1.18 6.207 19:47 06.08.2019
4096 Clouds 7 1016 88 0 1.18 6.207 19:28 06.08.2019
4097 Clouds 7 1016 88 0 1.18 6.207 18:55 06.08.2019
4098 Clouds 7 1016 88 0 1.18 6.207 18:36 06.08.2019
4099 Clouds 8 1015 86 0 1.51 336.483 18:18 06.08.2019
4100 Clouds 8 1015 86 0 1.51 336.483 17:56 06.08.2019
4101 Clouds 8 1015 86 0 1.51 336.483 17:56 06.08.2019
4102 Clouds 8 1015 86 0 1.51 336.483 17:36 06.08.2019
4103 Clouds 8 1015 86 0 1.51 336.483 17:18 06.08.2019
4104 Clouds 8 1015 86 0 1.51 336.483 16:42 06.08.2019
4105 Clouds 8 1015 86 0 1.51 336.483 16:24 06.08.2019
4106 Clouds 8 1015 86 0 1.51 336.483 15:58 06.08.2019
4107 Clouds 8 1015 86 0 1.51 336.483 15:39 06.08.2019
4108 Clouds 12 1015 71 0 3.08 12.62 15:20 06.08.2019
4109 Clouds 12 1015 71 0 3.08 12.62 14:45 06.08.2019
4110 Clouds 12 1015 71 0 3.08 12.62 14:26 06.08.2019
4111 Clouds 12 1015 71 0 3.08 12.62 13:58 06.08.2019
4112 Clouds 12 1015 71 0 3.08 12.62 13:40 06.08.2019
4113 Clouds 12 1014 71 0 2.81 354.121 13:22 06.08.2019
4114 Clouds 12 1014 71 0 2.81 354.121 12:58 06.08.2019
4115 Clouds 12 1014 71 0 2.81 354.121 12:39 06.08.2019
4116 Rain 17 1012 51 0 5.47 24.073 12:21 06.08.2019
4117 Rain 17 1012 51 0 5.47 24.073 11:43 06.08.2019
4118 Rain 17 1012 51 0 5.47 24.073 11:43 06.08.2019
4119 Rain 17 1012 51 0 5.47 24.073 11:20 06.08.2019
4120 Rain 17 1012 51 0 5.47 24.073 10:56 06.08.2019
4121 Rain 17 1012 51 0 5.47 24.073 10:56 06.08.2019
4122 Rain 17 1012 51 0 5.47 24.073 10:38 06.08.2019
4123 Rain 17 1012 51 0 5.47 24.073 10:19 06.08.2019
4124 Rain 17 1012 51 0 5.47 24.073 09:41 06.08.2019
4125 Rain 18 1012 50 0 5.18 11.993 09:20 06.08.2019
4126 Rain 18 1012 50 0 5.18 11.993 08:49 06.08.2019
4127 Rain 17 1012 55 0 5.41 8.746 08:27 06.08.2019
4128 Rain 17 1012 55 0 5.41 8.746 07:59 06.08.2019
4129 Rain 17 1012 55 0 5.41 8.746 07:29 06.08.2019
4130 Rain 17 1012 55 0 5.41 8.746 06:44 06.08.2019
4131 Rain 17 1011 59 0 5.27 9.028 06:21 06.08.2019
4132 Rain 17 1011 59 0 5.27 9.028 05:23 06.08.2019
4133 Rain 13 1010 79 0 2.61 336.885 02:48 06.08.2019
4134 Rain 16 1011 61 0 4.59 354.477 01:25 06.08.2019
4135 Rain 16 1011 61 0 4.59 354.477 00:51 06.08.2019
4136 Rain 13 1009 75 0 2.74 13.742 23:59 05.08.2019
4137 Rain 13 1009 75 0 2.74 13.742 23:20 05.08.2019
4138 Rain 13 1009 75 0 2.74 13.742 22:42 05.08.2019
4139 Rain 13 1009 75 0 2.74 13.742 22:23 05.08.2019
4140 Rain 13 1009 75 0 2.74 13.742 21:59 05.08.2019
4141 Rain 13 1009 75 0 2.74 13.742 21:41 05.08.2019
4142 Clouds 10 1007 77 0 2.15 7.598 21:20 05.08.2019
4143 Clouds 11 1008 84 0 2.49 14.382 20:57 05.08.2019
4144 Clouds 11 1008 84 0 2.49 14.382 20:39 05.08.2019
4145 Clouds 11 1008 84 0 2.49 14.382 20:21 05.08.2019
4146 Clouds 11 1008 84 0 2.49 14.382 19:55 05.08.2019
4147 Clouds 11 1008 84 0 2.49 14.382 19:37 05.08.2019
4148 Clouds 11 1008 84 0 2.49 14.382 19:18 05.08.2019
4149 Clouds 11 1008 84 0 2.49 14.382 18:41 05.08.2019
4150 Clouds 11 1007 70 0 1.51 308.779 18:20 05.08.2019
4151 Clouds 11 1007 70 0 1.51 308.779 17:48 05.08.2019
4152 Clouds 11 1007 70 0 1.51 308.779 17:29 05.08.2019
4153 Clouds 11 1007 70 0 1.51 308.779 16:59 05.08.2019
4154 Clouds 11 1007 70 0 1.51 308.779 16:41 05.08.2019
4155 Clouds 11 1007 70 0 1.51 308.779 16:22 05.08.2019
4156 Clouds 11 1007 70 0 1.51 308.779 15:41 05.08.2019
4157 Clouds 13 1006 62 0 1.77 339.903 15:20 05.08.2019
4158 Clouds 13 1006 62 0 1.77 339.903 14:42 05.08.2019
4159 Clouds 13 1006 62 0 1.77 339.903 14:22 05.08.2019
4160 Clouds 13 1006 62 0 1.77 339.903 13:49 05.08.2019
4161 Clouds 14 1006 61 0 1.73 351.136 13:24 05.08.2019
4162 Clouds 14 1006 61 0 1.73 351.136 12:59 05.08.2019
4163 Clouds 14 1006 61 0 1.73 351.136 12:41 05.08.2019
4164 Clouds 17 1005 44 0 6.33 301.173 12:18 05.08.2019
4165 Clouds 17 1005 44 0 6.33 301.173 11:43 05.08.2019
4166 Clouds 17 1005 44 0 6.33 301.173 11:25 05.08.2019
4167 Clouds 17 1005 44 0 6.33 301.173 10:47 05.08.2019
4168 Clouds 17 1005 44 0 6.33 301.173 10:28 05.08.2019
4169 Clouds 17 1005 44 0 6.33 301.173 09:56 05.08.2019
4170 Clouds 17 1005 44 0 6.33 301.173 09:56 05.08.2019
4171 Clouds 17 1005 44 0 6.33 301.173 09:37 05.08.2019
4172 Clouds 21 1005 22 0 2.32 250.158 09:19 05.08.2019
4173 Clouds 21 1005 21 0 2.55 266.271 08:43 05.08.2019
4174 Clouds 21 1005 21 0 2.55 266.271 08:24 05.08.2019
4175 Clouds 21 1005 21 0 2.55 266.271 07:47 05.08.2019
4176 Clouds 21 1005 21 0 2.55 266.271 07:28 05.08.2019
4177 Clouds 21 1005 21 0 2.55 266.271 06:53 05.08.2019
4178 Clouds 19 1005 26 0 1.95 270.235 06:21 05.08.2019
4179 Clouds 19 1005 26 0 1.95 270.235 05:28 05.08.2019
4180 Clouds 19 1005 26 0 1.95 270.235 04:41 05.08.2019
4181 Clouds 19 1005 26 0 1.95 270.235 03:50 05.08.2019
4182 Clouds 16 1006 33 0 1.82 260.781 02:38 05.08.2019
4183 Clouds 16 1006 33 0 1.82 260.781 01:47 05.08.2019
4184 Clouds 16 1006 33 0 1.76 237.212 01:19 05.08.2019
4185 Clouds 16 1006 33 0 1.76 237.212 00:39 05.08.2019
4186 Clear 12 1007 44 0 1.15 238.174 00:19 05.08.2019
4187 Clear 12 1007 44 0 1.15 238.174 23:42 04.08.2019
4188 Clear 12 1007 44 0 1.15 238.174 23:23 04.08.2019
4189 Clear 12 1007 44 0 1.15 238.174 22:57 04.08.2019
4190 Clear 12 1007 44 0 1.15 238.174 22:38 04.08.2019
4191 Clear 12 1007 44 0 1.15 238.174 22:19 04.08.2019
4192 Clear 12 1007 44 0 1.15 238.174 21:45 04.08.2019
4193 Clear 12 1007 44 0 1.15 238.174 21:45 04.08.2019
4194 Clear 7 1006 62 0 1.21 291.801 21:24 04.08.2019
4195 Clear 7 1006 62 0 1.25 302.496 20:59 04.08.2019
4196 Clear 7 1006 62 0 1.25 302.496 20:41 04.08.2019
4197 Clear 7 1006 62 0 1.25 302.496 20:41 04.08.2019
4198 Clear 7 1006 62 0 1.25 302.496 20:18 04.08.2019
4199 Clear 7 1006 62 0 1.25 302.496 19:48 04.08.2019
4200 Clear 7 1006 62 0 1.25 302.496 19:28 04.08.2019
4201 Clear 7 1006 62 0 1.25 302.496 18:58 04.08.2019
4202 Clear 7 1006 62 0 1.25 302.496 18:40 04.08.2019
4203 Clear 9 1006 59 0 1 336.183 18:20 04.08.2019
4204 Clear 9 1006 59 0 1 336.183 17:43 04.08.2019
4205 Clear 9 1006 59 0 1 336.183 17:22 04.08.2019
4206 Clear 9 1006 59 0 1 336.183 16:45 04.08.2019
4207 Clear 9 1006 59 0 1 336.183 16:27 04.08.2019
4208 Clear 9 1006 59 0 1 336.183 15:55 04.08.2019
4209 Clear 9 1006 59 0 1 336.183 15:37 04.08.2019
4210 Clear 9 1006 59 0 1 336.183 15:37 04.08.2019
4211 Clear 9 1006 59 0 1 336.183 15:37 04.08.2019
4212 Clear 13 1005 43 0 2.8 339.458 15:18 04.08.2019
4213 Clear 13 1005 43 0 2.8 339.458 14:42 04.08.2019
4214 Clear 13 1005 43 0 2.8 339.458 14:21 04.08.2019
4215 Clear 13 1005 43 0 2.8 339.458 13:43 04.08.2019
4216 Clear 13 1005 42 0 2.5 12.048 13:24 04.08.2019
4217 Clear 13 1005 42 0 2.5 12.048 13:24 04.08.2019
4218 Clear 13 1005 42 0 2.5 12.048 12:55 04.08.2019
4219 Clear 13 1005 42 0 2.5 12.048 12:37 04.08.2019
4220 Clear 13 1005 42 0 2.5 12.048 12:37 04.08.2019
4221 Clear 19 1004 27 0 4.22 21.474 12:19 04.08.2019
4222 Clear 19 1004 27 0 4.22 21.474 11:41 04.08.2019
4223 Clear 19 1004 27 0 4.22 21.474 11:22 04.08.2019
4224 Clear 19 1004 27 0 4.22 21.474 10:47 04.08.2019
4225 Clear 19 1004 27 0 4.22 21.474 10:22 04.08.2019
4226 Clear 19 1004 27 0 4.22 21.474 09:46 04.08.2019
4227 Clear 19 1004 27 0 4.22 21.474 09:26 04.08.2019
4228 Clear 19 1003 26 0 3.97 18.197 08:58 04.08.2019
4229 Clear 19 1003 26 0 3.97 18.197 08:34 04.08.2019
4230 Clear 19 1003 26 0 3.97 18.197 07:55 04.08.2019
4231 Clear 19 1003 26 0 3.97 18.197 07:28 04.08.2019
4232 Clear 19 1003 26 0 3.97 18.197 06:42 04.08.2019
4233 Clear 18 1004 29 0 4.31 28.769 06:19 04.08.2019
4234 Clear 18 1004 29 0 4.31 28.769 03:37 04.08.2019
4235 Clear 15 1005 36 0 3.82 27.754 01:52 04.08.2019
4236 Clear 16 1005 36 0 4.01 24.732 01:32 04.08.2019
4237 Clear 16 1005 36 0 4.01 24.732 00:42 04.08.2019
4238 Clear 11 1006 47 0 2.22 17.129 00:24 04.08.2019
4239 Clear 11 1006 47 0 2.22 17.129 23:55 03.08.2019
4240 Clear 11 1006 47 0 2.22 17.129 23:36 03.08.2019
4241 Clear 11 1006 47 0 2.22 17.129 23:18 03.08.2019
4242 Clear 11 1006 47 0 2.22 17.129 22:39 03.08.2019
4243 Clear 11 1006 47 0 2.22 17.129 22:19 03.08.2019
4244 Clear 11 1006 47 0 2.22 17.129 21:39 03.08.2019
4245 Clear 7 1006 55 0 2.56 20.388 21:21 03.08.2019
4246 Clear 7 1006 57 0 2.42 28.788 20:45 03.08.2019
4247 Clear 7 1006 57 0 2.42 28.788 20:24 03.08.2019
4248 Clear 7 1006 57 0 2.42 28.788 19:55 03.08.2019
4249 Clear 7 1006 57 0 2.42 28.788 19:37 03.08.2019
4250 Clear 7 1006 57 0 2.42 28.788 19:19 03.08.2019
4251 Clear 7 1006 57 0 2.42 28.788 18:40 03.08.2019
4252 Clear 9 1005 51 0 2.41 23.421 18:22 03.08.2019
4253 Clear 9 1005 51 0 2.41 23.421 17:42 03.08.2019
4254 Clear 9 1005 51 0 2.41 23.421 17:20 03.08.2019
4255 Clear 9 1005 51 0 2.41 23.421 16:39 03.08.2019
4256 Clear 9 1005 51 0 2.41 23.421 16:21 03.08.2019
4257 Clear 9 1005 51 0 2.41 23.421 15:55 03.08.2019
4258 Clear 9 1005 51 0 2.41 23.421 15:37 03.08.2019
4259 Clear 13 1005 41 0 2.63 46.339 15:18 03.08.2019
4260 Clear 13 1005 41 0 2.63 46.339 14:36 03.08.2019
4261 Clear 13 1005 41 0 2.63 46.339 14:18 03.08.2019
4262 Clear 13 1005 41 0 2.63 46.339 13:43 03.08.2019
4263 Clear 13 1005 42 0 2.95 49.755 13:23 03.08.2019
4264 Clear 13 1005 42 0 2.95 49.755 12:56 03.08.2019
4265 Clear 13 1005 42 0 2.95 49.755 12:37 03.08.2019
4266 Clear 18 1004 28 0 5.27 65.847 12:19 03.08.2019
4267 Clear 18 1004 28 0 5.27 65.847 11:39 03.08.2019
4268 Clear 18 1004 28 0 5.27 65.847 11:20 03.08.2019
4269 Clear 18 1004 28 0 5.27 65.847 10:38 03.08.2019
4270 Clear 18 1004 28 0 5.27 65.847 10:19 03.08.2019
4271 Clear 18 1004 28 0 5.27 65.847 09:38 03.08.2019
4272 Clear 19 1004 27 0 5.01 65.286 09:18 03.08.2019
4273 Clear 19 1005 27 0 4.84 61.925 08:43 03.08.2019
4274 Clear 19 1005 27 0 4.84 61.925 07:40 03.08.2019
4275 Clear 19 1005 27 0 4.84 61.925 06:57 03.08.2019
4276 Clear 18 1006 30 0 3.17 72.881 06:18 03.08.2019
4277 Clear 18 1006 30 0 3.17 72.881 03:35 03.08.2019
4278 Clear 15 1007 37 0 2.07 72.012 02:26 03.08.2019
4279 Clear 15 1007 37 0 1.8 71.384 00:59 03.08.2019
4280 Clear 15 1007 37 0 1.8 71.384 00:32 03.08.2019
4281 Clear 12 1008 46 0 1.26 45.644 23:42 02.08.2019
4282 Clear 12 1008 46 0 1.26 45.644 23:42 02.08.2019
4283 Clear 12 1008 46 0 1.26 45.644 23:20 02.08.2019
4284 Clear 12 1008 46 0 1.26 45.644 22:59 02.08.2019
4285 Clear 12 1008 46 0 1.26 45.644 22:40 02.08.2019
4286 Clear 12 1008 46 0 1.26 45.644 22:22 02.08.2019
4287 Clear 12 1008 46 0 1.26 45.644 21:56 02.08.2019
4288 Clear 12 1008 46 0 1.26 45.644 21:38 02.08.2019
4289 Clear 6 1008 67 0 0.96 29.968 21:20 02.08.2019
4290 Clear 6 1008 68 0 0.89 0.77 20:43 02.08.2019
4291 Clear 6 1008 68 0 0.89 0.77 20:23 02.08.2019
4292 Clear 6 1008 68 0 0.89 0.77 19:55 02.08.2019
4293 Clear 6 1008 68 0 0.89 0.77 19:33 02.08.2019
4294 Clear 6 1008 68 0 0.89 0.77 18:57 02.08.2019
4295 Clear 6 1008 68 0 0.89 0.77 18:38 02.08.2019
4296 Clear 8 1008 63 0 1.29 299.994 18:18 02.08.2019
4297 Clear 8 1008 63 0 1.29 299.994 17:39 02.08.2019
4298 Clear 8 1008 63 0 1.29 299.994 17:20 02.08.2019
4299 Clear 8 1008 63 0 1.29 299.994 16:40 02.08.2019
4300 Clear 8 1008 63 0 1.29 299.994 16:21 02.08.2019
4301 Clear 8 1008 63 0 1.29 299.994 15:57 02.08.2019
4302 Clear 8 1008 63 0 1.29 299.994 15:37 02.08.2019
4303 Clouds 11 1008 49 0 1.26 273.953 15:18 02.08.2019
4304 Clouds 11 1008 49 0 1.26 273.953 14:43 02.08.2019
4305 Clouds 11 1008 49 0 1.26 273.953 14:18 02.08.2019
4306 Clouds 11 1008 49 0 1.26 273.953 13:46 02.08.2019
4307 Clouds 12 1007 48 0 2.79 302.471 13:21 02.08.2019
4308 Clouds 12 1007 48 0 2.79 302.471 12:44 02.08.2019
4309 Clouds 16 1007 35 0 2.74 350.176 12:20 02.08.2019
4310 Clouds 16 1007 35 0 2.74 350.176 11:42 02.08.2019
4311 Clouds 16 1007 35 0 2.74 350.176 11:23 02.08.2019
4312 Clouds 16 1007 35 0 2.74 350.176 10:48 02.08.2019
4313 Clouds 16 1007 35 0 2.74 350.176 10:24 02.08.2019
4314 Clouds 16 1007 35 0 2.74 350.176 09:59 02.08.2019
4315 Clouds 16 1007 35 0 2.74 350.176 09:41 02.08.2019
4316 Clouds 17 1007 32 0 3.02 358.518 09:23 02.08.2019
4317 Clouds 16 1007 32 0 1.04 12.26 08:42 02.08.2019
4318 Clouds 16 1007 32 0 1.04 12.26 08:20 02.08.2019
4319 Clouds 16 1007 32 0 1.04 12.26 07:46 02.08.2019
4320 Clouds 16 1007 32 0 1.04 12.26 07:28 02.08.2019
4321 Clouds 16 1007 32 0 1.04 12.26 06:41 02.08.2019
4322 Clouds 16 1009 33 0 1.81 2.505 05:50 02.08.2019
4323 Clouds 16 1009 33 0 1.81 2.505 03:54 02.08.2019
4324 Clouds 14 1009 36 0 1.72 356.363 03:24 02.08.2019
4325 Clouds 14 1009 36 0 1.72 356.363 01:44 02.08.2019
4326 Clouds 14 1009 38 0 1.81 352.635 00:34 02.08.2019
4327 Clouds 13 1011 44 0 1.07 306.731 23:46 01.08.2019
4328 Clouds 13 1011 44 0 1.07 306.731 23:27 01.08.2019
4329 Clouds 13 1011 44 0 1.07 306.731 23:27 01.08.2019
4330 Clouds 13 1011 44 0 1.07 306.731 22:46 01.08.2019
4331 Clouds 13 1011 44 0 1.07 306.731 22:25 01.08.2019
4332 Clouds 13 1011 44 0 1.07 306.731 21:59 01.08.2019
4333 Clouds 13 1011 44 0 1.07 306.731 21:41 01.08.2019
4334 Clouds 10 1010 53 0 0.62 301.059 21:23 01.08.2019
4335 Clouds 10 1010 55 0 0.74 296.6 20:47 01.08.2019
4336 Clouds 10 1010 55 0 0.74 296.6 20:23 01.08.2019
4337 Clouds 10 1010 55 0 0.74 296.6 19:59 01.08.2019
4338 Clouds 10 1010 55 0 0.74 296.6 19:38 01.08.2019
4339 Clouds 10 1010 55 0 0.74 296.6 19:18 01.08.2019
4340 Clouds 10 1010 55 0 0.74 296.6 18:43 01.08.2019
4341 Clouds 10 1011 52 0 0.59 230.332 18:24 01.08.2019
4342 Clouds 10 1011 52 0 0.59 230.332 17:50 01.08.2019
4343 Clouds 10 1011 52 0 0.59 230.332 17:31 01.08.2019
4344 Clouds 10 1011 52 0 0.59 230.332 16:45 01.08.2019
4345 Clouds 10 1011 52 0 0.59 230.332 16:23 01.08.2019
4346 Clouds 10 1011 52 0 0.59 230.332 15:56 01.08.2019
4347 Clouds 10 1011 52 0 0.59 230.332 15:38 01.08.2019
4348 Clouds 12 1010 51 0 0.4 173.424 15:18 01.08.2019
4349 Clouds 12 1010 51 0 0.4 173.424 14:42 01.08.2019
4350 Clouds 12 1010 51 0 0.4 173.424 14:19 01.08.2019
4351 Clouds 12 1010 51 0 0.4 173.424 13:58 01.08.2019
4352 Clouds 12 1010 51 0 0.4 173.424 13:39 01.08.2019
4353 Clouds 12 1010 53 0 0.46 306.421 13:20 01.08.2019
4354 Clouds 12 1010 53 0 0.46 306.421 12:44 01.08.2019
4355 Clouds 12 1010 53 0 0.46 306.421 12:26 01.08.2019
4356 Clouds 15 1010 39 0 0.71 27.035 11:43 01.08.2019
4357 Clouds 15 1010 39 0 0.71 27.035 11:24 01.08.2019
4358 Clouds 15 1010 39 0 0.71 27.035 10:56 01.08.2019
4359 Clouds 15 1010 39 0 0.71 27.035 10:38 01.08.2019
4360 Clouds 15 1010 39 0 0.71 27.035 10:20 01.08.2019
4361 Clouds 15 1010 39 0 0.71 27.035 09:43 01.08.2019
4362 Clouds 15 1010 38 0 1.56 3.946 09:23 01.08.2019
4363 Clouds 15 1010 38 0 1.76 342.347 08:47 01.08.2019
4364 -273 0 0 0 0 0 08:21 01.08.2019
4365 Clouds 15 1010 38 0 1.76 342.347 07:51 01.08.2019
4366 Clouds 15 1010 38 0 1.76 342.347 07:28 01.08.2019
4367 Clouds 15 1010 38 0 1.76 342.347 06:49 01.08.2019
4368 Clouds 15 1010 38 0 1.76 342.347 06:49 01.08.2019
4369 Clouds 15 1010 38 0 1.76 342.347 06:29 01.08.2019
4370 Clouds 13 1011 42 0 1.77 340.549 05:30 01.08.2019
4371 Clouds 11 1013 50 0 2.03 350.408 02:35 01.08.2019
4372 Clouds 11 1013 51 0 2.11 346.51 00:51 01.08.2019
4373 Clear 8 1014 66 0 1.21 285.301 00:25 01.08.2019
4374 Clear 8 1014 66 0 1.21 285.301 23:44 31.07.2019
4375 Clear 8 1014 66 0 1.21 285.301 23:21 31.07.2019
4376 Clear 8 1014 66 0 1.21 285.301 23:21 31.07.2019
4377 Clear 8 1014 66 0 1.21 285.301 22:59 31.07.2019
4378 Clear 8 1014 66 0 1.21 285.301 22:41 31.07.2019
4379 Clear 8 1014 66 0 1.21 285.301 22:23 31.07.2019
4380 Clear 8 1014 66 0 1.21 285.301 21:39 31.07.2019
4381 Clouds 3 1014 86 0 1.07 296.947 21:21 31.07.2019
4382 Clouds 4 1014 85 0 1.11 284.851 20:48 31.07.2019
4383 Clouds 4 1014 85 0 1.11 284.851 20:22 31.07.2019
4384 Clouds 4 1014 85 0 1.11 284.851 19:48 31.07.2019
4385 Clouds 4 1014 85 0 1.11 284.851 19:28 31.07.2019
4386 Clouds 4 1014 85 0 1.11 284.851 18:55 31.07.2019
4387 Clouds 4 1014 85 0 1.11 284.851 18:37 31.07.2019
4388 Clear 5 1014 84 0 1.28 304.113 18:18 31.07.2019
4389 Clear 5 1014 84 0 1.28 304.113 17:43 31.07.2019
4390 Clear 5 1014 84 0 1.28 304.113 17:20 31.07.2019
4391 Clear 5 1014 84 0 1.28 304.113 17:20 31.07.2019
4392 Clear 5 1014 84 0 1.28 304.113 16:47 31.07.2019
4393 Clear 5 1014 84 0 1.28 304.113 16:20 31.07.2019
4394 Clear 5 1014 84 0 1.28 304.113 15:54 31.07.2019
4395 Clear 5 1014 84 0 1.28 304.113 15:36 31.07.2019
4396 Clouds 9 1014 67 0 2.54 326.322 15:18 31.07.2019
4397 Clouds 9 1014 67 0 2.54 326.322 14:42 31.07.2019
4398 Clouds 9 1014 67 0 2.54 326.322 14:19 31.07.2019
4399 Clouds 9 1014 67 0 2.54 326.322 13:45 31.07.2019
4400 -273 0 0 0 0 0 13:27 31.07.2019
4401 Clouds 9 1013 62 0 2.48 327.711 12:58 31.07.2019
4402 Clouds 9 1013 62 0 2.48 327.711 12:40 31.07.2019
4403 Rain 12 1013 49 0 4.1 342.329 12:21 31.07.2019
4404 Rain 12 1013 49 0 4.1 342.329 11:39 31.07.2019
4405 Rain 12 1013 49 0 4.1 342.329 11:20 31.07.2019
4406 Rain 12 1013 49 0 4.1 342.329 10:45 31.07.2019
4407 Rain 12 1013 49 0 4.1 342.329 10:21 31.07.2019
4408 Rain 12 1013 49 0 4.1 342.329 09:58 31.07.2019
4409 Rain 12 1013 49 0 4.1 342.329 09:39 31.07.2019
4410 Rain 12 1013 49 0 4.1 342.329 09:39 31.07.2019
4411 Rain 12 1013 49 0 4.1 342.329 09:39 31.07.2019
4412 Clouds 13 1013 50 0 4.68 353.876 09:21 31.07.2019
4413 Clouds 13 1013 49 0 5.25 352.608 08:42 31.07.2019
4414 Clouds 13 1013 49 0 5.25 352.608 08:22 31.07.2019
4415 Clouds 13 1013 49 0 5.25 352.608 07:40 31.07.2019
4416 Clouds 13 1013 49 0 5.25 352.608 07:22 31.07.2019
4417 Clouds 11 1014 54 0 4.24 349.117 04:56 31.07.2019
4418 Clouds 11 1014 54 0 4.24 349.117 03:33 31.07.2019
4419 Clouds 8 1015 68 0 5.15 17.181 00:30 31.07.2019
4420 Clouds 7 1015 76 0 3.51 341.663 23:42 30.07.2019
4421 Clouds 7 1015 76 0 3.51 341.663 23:20 30.07.2019
4422 Clouds 7 1015 76 0 3.51 341.663 22:48 30.07.2019
4423 Clouds 7 1015 76 0 3.51 341.663 22:25 30.07.2019
4424 Clouds 7 1015 76 0 3.51 341.663 21:57 30.07.2019
4425 Clouds 7 1015 76 0 3.51 341.663 21:37 30.07.2019
4426 Clouds 6 1015 82 0 2.29 326.483 21:19 30.07.2019
4427 Clouds 4 1015 88 0 2.4 325.072 20:44 30.07.2019
4428 Clouds 4 1015 88 0 2.4 325.072 20:24 30.07.2019
4429 Clouds 4 1015 88 0 2.4 325.072 19:59 30.07.2019
4430 Clouds 4 1015 88 0 2.4 325.072 19:40 30.07.2019
4431 Clouds 4 1015 88 0 2.4 325.072 19:21 30.07.2019
4432 Clouds 4 1015 88 0 2.4 325.072 18:44 30.07.2019
4433 Clouds 6 1015 77 0 2.75 334.534 18:20 30.07.2019
4434 Clouds 6 1015 77 0 2.75 334.534 17:42 30.07.2019
4435 Clouds 6 1015 77 0 2.75 334.534 17:20 30.07.2019
4436 Clouds 6 1015 77 0 2.75 334.534 17:20 30.07.2019
4437 Clouds 6 1015 77 0 2.75 334.534 16:53 30.07.2019
4438 Clouds 6 1015 77 0 2.75 334.534 16:22 30.07.2019
4439 Clouds 6 1015 77 0 2.75 334.534 16:22 30.07.2019
4440 Clouds 6 1015 77 0 2.75 334.534 15:59 30.07.2019
4441 Clouds 6 1015 77 0 2.75 334.534 15:38 30.07.2019
4442 Clouds 9 1014 61 0 3.8 347.478 15:19 30.07.2019
4443 Clouds 9 1014 61 0 3.8 347.478 14:43 30.07.2019
4444 Clouds 9 1014 61 0 3.8 347.478 14:22 30.07.2019
4445 Clouds 9 1014 61 0 3.8 347.478 13:48 30.07.2019
4446 Clouds 9 1014 61 0 3.8 347.478 13:29 30.07.2019
4447 Clouds 8 1014 64 0 4.46 353.553 12:59 30.07.2019
4448 Clouds 8 1014 64 0 4.46 353.553 12:41 30.07.2019
4449 Clouds 10 1013 54 0 7.31 7.602 12:23 30.07.2019
4450 Clouds 10 1013 54 0 7.31 7.602 11:44 30.07.2019
4451 -273 0 0 0 0 0 11:23 30.07.2019
4452 Clouds 10 1013 53 0 7.03 2.854 10:55 30.07.2019
4453 Clouds 10 1013 53 0 7.03 2.854 10:37 30.07.2019
4454 Clouds 10 1013 53 0 7.03 2.854 10:19 30.07.2019
4455 Clouds 10 1013 53 0 7.03 2.854 09:45 30.07.2019
4456 Clouds 10 1013 53 0 7.03 2.854 09:26 30.07.2019
4457 Clouds 10 1012 51 0 6.7 1.231 08:35 30.07.2019
4458 Clouds 10 1012 51 0 6.7 1.231 07:53 30.07.2019
4459 Clouds 10 1012 51 0 6.7 1.231 07:34 30.07.2019
4460 Clouds 10 1012 51 0 6.7 1.231 06:52 30.07.2019
4461 Clouds 10 1012 51 0 6.7 1.231 06:33 30.07.2019
4462 Clouds 10 1012 56 0 7.67 9.779 05:35 30.07.2019
4463 Clouds 10 1012 56 0 7.67 9.779 03:32 30.07.2019
4464 Clouds 10 1012 58 0 7.68 8.63 01:23 30.07.2019
4465 Clouds 10 1012 58 0 7.68 8.63 00:27 30.07.2019
4466 Clouds 8 1012 74 0 5.96 11.975 23:59 29.07.2019
4467 Clouds 8 1012 74 0 5.96 11.975 23:39 29.07.2019
4468 Clouds 8 1012 74 0 5.96 11.975 23:20 29.07.2019
4469 Clouds 8 1012 74 0 5.96 11.975 22:55 29.07.2019
4470 Clouds 8 1012 74 0 5.96 11.975 22:37 29.07.2019
4471 Clouds 8 1012 74 0 5.96 11.975 22:18 29.07.2019
4472 Clouds 8 1012 74 0 5.96 11.975 21:41 29.07.2019
4473 Clouds 6 1011 84 0 4.33 3.176 21:23 29.07.2019
4474 Clouds 6 1011 84 0 4.33 3.176 20:57 29.07.2019
4475 Clouds 6 1011 84 0 4.33 3.176 20:38 29.07.2019
4476 Clouds 6 1011 84 0 4.33 3.176 20:19 29.07.2019
4477 Clouds 6 1011 84 0 4.33 3.176 19:45 29.07.2019
4478 Clouds 6 1011 84 0 4.33 3.176 19:23 29.07.2019
4479 Clouds 6 1011 84 0 4.33 3.176 18:57 29.07.2019
4480 Clouds 6 1011 84 0 4.33 3.176 18:38 29.07.2019
4481 Clouds 6 1010 82 0 2.91 349.783 18:19 29.07.2019
4482 Clouds 6 1010 82 0 2.91 349.783 17:47 29.07.2019
4483 Clouds 6 1010 82 0 2.91 349.783 17:27 29.07.2019
4484 Clouds 6 1010 82 0 2.91 349.783 16:55 29.07.2019
4485 Clouds 6 1010 82 0 2.91 349.783 16:36 29.07.2019
4486 Clouds 6 1010 82 0 2.91 349.783 16:36 29.07.2019
4487 Clouds 6 1010 82 0 2.91 349.783 16:18 29.07.2019
4488 Clouds 6 1010 82 0 2.91 349.783 15:43 29.07.2019
4489 Clouds 9 1010 66 0 4.03 357.738 15:24 29.07.2019
4490 Clouds 9 1010 66 0 4.03 357.738 14:42 29.07.2019
4491 Clouds 9 1010 66 0 4.03 357.738 14:21 29.07.2019
4492 Clouds 9 1010 66 0 4.03 357.738 13:46 29.07.2019
4493 Clouds 10 1010 61 0 3.62 358.797 13:24 29.07.2019
4494 Clouds 10 1010 61 0 3.62 358.797 12:57 29.07.2019
4495 Clouds 10 1010 61 0 3.62 358.797 12:38 29.07.2019
4496 Clouds 13 1008 49 0 7.41 27.451 12:20 29.07.2019
4497 Clouds 13 1008 49 0 7.41 27.451 11:41 29.07.2019
4498 Clouds 13 1008 49 0 7.41 27.451 11:19 29.07.2019
4499 Clouds 13 1008 49 0 7.41 27.451 10:43 29.07.2019
4500 Clouds 13 1008 49 0 7.41 27.451 10:21 29.07.2019
4501 Clouds 13 1008 49 0 7.41 27.451 10:21 29.07.2019
4502 Clouds 13 1008 49 0 7.41 27.451 09:44 29.07.2019
4503 Clouds 15 1008 35 0 5.56 12.665 09:21 29.07.2019
4504 Clouds 14 1008 39 0 5.3 352.43 08:47 29.07.2019
4505 Clouds 14 1008 39 0 5.3 352.43 08:26 29.07.2019
4506 Clouds 14 1008 39 0 5.3 352.43 07:46 29.07.2019
4507 Clouds 14 1008 39 0 5.3 352.43 07:27 29.07.2019
4508 Clouds 14 1008 39 0 5.3 352.43 06:40 29.07.2019
4509 Clouds 10 1007 56 0 4.35 336.264 05:37 29.07.2019
4510 Clouds 10 1007 56 0 4.35 336.264 03:57 29.07.2019
4511 Clouds 7 1006 74 0 3.77 337.278 01:52 29.07.2019
4512 Clouds 7 1006 74 0 3.77 337.278 01:33 29.07.2019
4513 Clouds 7 1006 75 0 4.46 356.966 00:58 29.07.2019
4514 Clouds 7 1006 75 0 4.46 356.966 00:30 29.07.2019
4515 Rain 8 1006 81 0 3.38 0.746 23:44 28.07.2019
4516 Rain 8 1006 81 0 3.38 0.746 23:26 28.07.2019
4517 Rain 8 1006 81 0 3.38 0.746 22:46 28.07.2019
4518 Rain 8 1006 81 0 3.38 0.746 22:28 28.07.2019
4519 Rain 8 1006 81 0 3.38 0.746 21:56 28.07.2019
4520 Rain 8 1006 81 0 3.38 0.746 21:37 28.07.2019
4521 Rain 7 1005 91 0 2.62 18.269 21:18 28.07.2019
4522 Rain 7 1005 92 0 2.96 32.975 20:42 28.07.2019
4523 Rain 7 1005 92 0 2.96 32.975 20:24 28.07.2019
4524 Rain 7 1005 92 0 2.96 32.975 19:41 28.07.2019
4525 Rain 7 1005 92 0 2.96 32.975 19:21 28.07.2019
4526 Rain 7 1005 92 0 2.96 32.975 18:46 28.07.2019
4527 Rain 7 1005 92 0 2.96 32.975 18:28 28.07.2019
4528 Rain 9 1005 87 0 3.89 13.64 17:58 28.07.2019
4529 Rain 9 1005 87 0 3.89 13.64 17:39 28.07.2019
4530 Rain 9 1005 87 0 3.89 13.64 17:19 28.07.2019
4531 Rain 9 1005 87 0 3.89 13.64 16:46 28.07.2019
4532 Rain 9 1005 87 0 3.89 13.64 16:26 28.07.2019
4533 Rain 9 1005 87 0 3.89 13.64 15:49 28.07.2019
4534 Rain 9 1005 87 0 3.89 13.64 15:27 28.07.2019
4535 Rain 13 1004 53 0 4.85 24.073 14:57 28.07.2019
4536 Rain 13 1004 53 0 4.85 24.073 14:37 28.07.2019
4537 Rain 13 1004 53 0 4.85 24.073 14:18 28.07.2019
4538 Rain 13 1004 53 0 4.85 24.073 13:40 28.07.2019
4539 Clouds 13 1005 47 0 4.31 27.98 13:21 28.07.2019
4540 Clouds 13 1005 47 0 4.31 27.98 12:57 28.07.2019
4541 Clouds 13 1005 47 0 4.31 27.98 12:39 28.07.2019
4542 Clouds 17 1003 37 0 5.62 47.329 12:19 28.07.2019
4543 Clouds 17 1003 37 0 5.62 47.329 11:44 28.07.2019
4544 Clouds 17 1003 37 0 5.62 47.329 11:26 28.07.2019
4545 Clouds 17 1003 37 0 5.62 47.329 10:39 28.07.2019
4546 Clouds 17 1003 37 0 5.62 47.329 10:39 28.07.2019
4547 Clouds 17 1003 37 0 5.62 47.329 10:20 28.07.2019
4548 Clouds 17 1003 37 0 5.62 47.329 09:41 28.07.2019
4549 Clouds 17 1003 37 0 5.62 47.329 09:41 28.07.2019
4550 Clouds 18 1003 33 0 5.17 42.57 09:23 28.07.2019
4551 Clouds 18 1002 35 0 5.32 43.027 08:46 28.07.2019
4552 Clouds 18 1002 35 0 5.32 43.027 08:28 28.07.2019
4553 Clouds 18 1002 35 0 5.32 43.027 07:51 28.07.2019
4554 Clouds 18 1002 35 0 5.32 43.027 07:32 28.07.2019
4555 Clouds 18 1002 35 0 5.32 43.027 06:39 28.07.2019
4556 Clouds 17 1003 39 0 3.9 71.37 05:25 28.07.2019
4557 Clouds 12 1004 50 0 1.67 84.685 03:23 28.07.2019
4558 Clouds 12 1004 50 0 1.67 84.685 02:19 28.07.2019
4559 Clouds 13 1003 45 0 1.99 74.561 01:19 28.07.2019
4560 Clouds 13 1003 45 0 1.99 74.561 00:44 28.07.2019
4561 Clouds 11 1004 50 0 1.52 48.31 00:18 28.07.2019
4562 Clouds 11 1004 50 0 1.52 48.31 23:44 27.07.2019
4563 Clouds 11 1004 50 0 1.52 48.31 23:19 27.07.2019
4564 Clouds 11 1004 50 0 1.52 48.31 22:40 27.07.2019
4565 Clouds 11 1004 50 0 1.52 48.31 22:19 27.07.2019
4566 Clouds 11 1004 50 0 1.52 48.31 21:39 27.07.2019
4567 Clouds 7 1004 68 0 2.06 24.174 21:20 27.07.2019
4568 Clouds 8 1003 61 0 1.81 27.515 20:50 27.07.2019
4569 Clouds 8 1003 61 0 1.81 27.515 20:23 27.07.2019
4570 Clouds 8 1003 61 0 1.81 27.515 19:46 27.07.2019
4571 Clouds 8 1003 61 0 1.81 27.515 19:26 27.07.2019
4572 Clouds 8 1003 61 0 1.81 27.515 18:52 27.07.2019
4573 Clouds 8 1003 61 0 1.81 27.515 18:34 27.07.2019
4574 Clouds 9 1002 72 0 2.21 39.835 17:57 27.07.2019
4575 Clouds 9 1002 72 0 2.21 39.835 17:36 27.07.2019
4576 Clouds 9 1002 72 0 2.21 39.835 17:18 27.07.2019
4577 Clouds 9 1002 72 0 2.21 39.835 16:42 27.07.2019
4578 Clouds 9 1002 72 0 2.21 39.835 16:23 27.07.2019
4579 Clouds 9 1002 72 0 2.21 39.835 15:52 27.07.2019
4580 Clouds 14 1001 55 0 3.21 40.936 15:21 27.07.2019
4581 Clouds 14 1001 55 0 3.21 40.936 14:51 27.07.2019
4582 Clouds 14 1001 55 0 3.21 40.936 14:31 27.07.2019
4583 Clouds 14 1001 55 0 3.21 40.936 13:56 27.07.2019
4584 Clouds 14 1001 55 0 3.21 40.936 13:37 27.07.2019
4585 Clouds 12 1001 64 0 2.54 43.311 13:18 27.07.2019
4586 Clouds 12 1001 64 0 2.54 43.311 12:41 27.07.2019
4587 Clouds 15 999 53 0 4.83 52.587 12:21 27.07.2019
4588 Clouds 15 999 53 0 4.83 52.587 11:42 27.07.2019
4589 Clouds 15 999 53 0 4.83 52.587 11:24 27.07.2019
4590 Clouds 15 999 53 0 4.83 52.587 10:42 27.07.2019
4591 Clouds 15 999 53 0 4.83 52.587 10:23 27.07.2019
4592 Clouds 15 999 53 0 4.83 52.587 09:45 27.07.2019
4593 Clouds 15 999 53 0 4.83 52.587 09:26 27.07.2019
4594 Clouds 15 999 50 0 4.09 58.536 08:58 27.07.2019
4595 Clouds 15 1000 47 0 4.95 56.959 08:40 27.07.2019
4596 Clouds 15 1000 47 0 4.95 56.959 08:20 27.07.2019
4597 Clouds 15 1000 47 0 4.95 56.959 07:41 27.07.2019
4598 Clouds 15 1000 47 0 4.95 56.959 07:20 27.07.2019
4599 Clouds 15 1000 47 0 4.95 56.959 06:50 27.07.2019
4600 Clouds 13 999 55 0 4.98 56.425 06:22 27.07.2019
4601 Clouds 13 999 55 0 4.98 56.425 05:35 27.07.2019
4602 Clouds 13 999 55 0 4.98 56.425 04:51 27.07.2019
4603 Clouds 13 999 55 0 4.98 56.425 03:50 27.07.2019
4604 Rain 11 1000 68 0 2.69 35.902 02:43 27.07.2019
4605 Rain 11 1000 68 0 2.69 35.902 01:59 27.07.2019
4606 Rain 11 1000 68 0 2.69 35.902 01:38 27.07.2019
4607 Rain 10 1000 70 0 1.82 13.004 00:49 27.07.2019
4608 Rain 10 1000 70 0 1.82 13.004 00:31 27.07.2019
4609 Rain 7 999 84 0 3.83 6.57 23:44 26.07.2019
4610 Rain 7 999 84 0 3.83 6.57 23:26 26.07.2019
4611 Rain 7 999 84 0 3.83 6.57 22:44 26.07.2019
4612 Rain 7 999 84 0 3.83 6.57 22:26 26.07.2019
4613 Rain 7 999 84 0 3.83 6.57 21:52 26.07.2019
4614 Rain 9 998 63 0 5.12 17.798 21:21 26.07.2019
4615 Clouds 9 1000 54 0 3.44 11.388 20:58 26.07.2019
4616 Clouds 9 1000 54 0 3.44 11.388 20:39 26.07.2019
4617 Clouds 9 1000 54 0 3.44 11.388 20:21 26.07.2019
4618 Clouds 9 1000 54 0 3.44 11.388 19:41 26.07.2019
4619 Clouds 9 1000 54 0 3.44 11.388 19:22 26.07.2019
4620 Clouds 9 1000 54 0 3.44 11.388 18:45 26.07.2019
4621 Clouds 11 999 53 0 4.08 24.962 18:22 26.07.2019
4622 Clouds 11 999 53 0 4.08 24.962 17:58 26.07.2019
4623 Clouds 11 999 53 0 4.08 24.962 17:38 26.07.2019
4624 Clouds 11 999 53 0 4.08 24.962 17:18 26.07.2019
4625 Clouds 11 999 53 0 4.08 24.962 17:18 26.07.2019
4626 Clouds 11 999 53 0 4.08 24.962 16:55 26.07.2019
4627 Clouds 11 999 53 0 4.08 24.962 16:37 26.07.2019
4628 Clouds 11 999 53 0 4.08 24.962 16:18 26.07.2019
4629 Clouds 11 999 53 0 4.08 24.962 15:45 26.07.2019
4630 Clouds 15 998 57 0 3.59 50.988 15:22 26.07.2019
4631 Clouds 15 998 57 0 3.59 50.988 14:58 26.07.2019
4632 Clouds 15 998 57 0 3.59 50.988 14:40 26.07.2019
4633 Clouds 15 998 57 0 3.59 50.988 14:21 26.07.2019
4634 Clouds 15 998 57 0 3.59 50.988 13:39 26.07.2019
4635 Clouds 15 998 54 0 4.71 45.516 13:21 26.07.2019
4636 Clouds 15 998 54 0 4.71 45.516 12:43 26.07.2019
4637 Clouds 19 996 45 0 6.59 58.449 12:19 26.07.2019
4638 Clouds 19 996 45 0 6.59 58.449 11:39 26.07.2019
4639 Clouds 19 996 45 0 6.59 58.449 11:19 26.07.2019
4640 Clouds 19 996 45 0 6.59 58.449 10:55 26.07.2019
4641 Clouds 19 996 45 0 6.59 58.449 10:36 26.07.2019
4642 Clouds 19 996 45 0 6.59 58.449 09:55 26.07.2019
4643 Clouds 19 996 45 0 6.59 58.449 09:36 26.07.2019
4644 Rain 19 996 51 0 6.28 55.235 08:44 26.07.2019
4645 Rain 19 996 51 0 6.28 55.235 08:22 26.07.2019
4646 Rain 19 996 51 0 6.28 55.235 07:59 26.07.2019
4647 Rain 19 996 51 0 6.28 55.235 07:29 26.07.2019
4648 Rain 19 996 51 0 6.28 55.235 06:53 26.07.2019
4649 Clouds 19 996 62 0 5.89 46.519 05:23 26.07.2019
4650 Clouds 19 996 62 0 5.89 46.519 04:22 26.07.2019
4651 Clouds 20 997 59 0 3.38 29.772 03:18 26.07.2019
4652 Clouds 20 997 59 0 3.38 29.772 01:43 26.07.2019
4653 Clouds 20 997 54 0 2.63 12.633 00:45 26.07.2019
4654 Rain 17 997 70 0 4.3 180.333 23:59 25.07.2019
4655 Rain 17 997 70 0 4.3 180.333 23:25 25.07.2019
4656 Rain 17 997 70 0 4.3 180.333 22:58 25.07.2019
4657 Rain 17 997 70 0 4.3 180.333 22:39 25.07.2019
4658 Rain 17 997 70 0 4.3 180.333 22:20 25.07.2019
4659 Rain 17 997 70 0 4.3 180.333 21:45 25.07.2019
4660 Rain 15 998 79 0 2.47 188.464 21:22 25.07.2019
4661 Rain 14 999 84 0 1.94 221.629 20:49 25.07.2019
4662 Rain 14 999 84 0 1.94 221.629 20:29 25.07.2019
4663 Rain 14 999 84 0 1.94 221.629 19:54 25.07.2019
4664 Rain 14 999 84 0 1.94 221.629 19:36 25.07.2019
4665 Rain 14 999 84 0 1.94 221.629 19:18 25.07.2019
4666 Rain 14 999 84 0 1.94 221.629 18:39 25.07.2019
4667 Clouds 16 999 57 0 2.11 298.597 18:21 25.07.2019
4668 Clouds 16 999 57 0 2.11 298.597 17:45 25.07.2019
4669 Clouds 16 999 57 0 2.11 298.597 17:25 25.07.2019
4670 Clouds 16 999 57 0 2.11 298.597 16:47 25.07.2019
4671 Clouds 16 999 57 0 2.11 298.597 16:29 25.07.2019
4672 Clouds 16 999 57 0 2.11 298.597 15:58 25.07.2019
4673 Clouds 16 999 57 0 2.11 298.597 15:38 25.07.2019
4674 Clouds 19 999 52 0 2.01 215.043 15:18 25.07.2019
4675 Clouds 19 999 52 0 2.01 215.043 14:41 25.07.2019
4676 Clouds 19 999 52 0 2.01 215.043 14:22 25.07.2019
4677 Clouds 19 999 52 0 2.01 215.043 14:22 25.07.2019
4678 Clouds 19 999 52 0 2.01 215.043 13:44 25.07.2019
4679 Rain 18 999 58 0 1.68 258.83 13:25 25.07.2019
4680 Rain 18 999 58 0 1.68 258.83 12:55 25.07.2019
4681 Rain 18 999 58 0 1.68 258.83 12:28 25.07.2019
4682 Clouds 23 998 41 0 1.61 157.624 11:45 25.07.2019
4683 Clouds 23 998 41 0 1.61 157.624 11:24 25.07.2019
4684 Clouds 23 998 41 0 1.61 157.624 10:55 25.07.2019
4685 Clouds 23 998 41 0 1.61 157.624 10:55 25.07.2019
4686 Clouds 23 998 41 0 1.61 157.624 10:36 25.07.2019
4687 Clouds 23 998 41 0 1.61 157.624 10:18 25.07.2019
4688 Clouds 23 998 41 0 1.61 157.624 09:40 25.07.2019
4689 Clouds 25 999 34 0 4.88 323.705 09:18 25.07.2019
4690 Clouds 26 999 30 0 5.76 275.513 08:42 25.07.2019
4691 Clouds 26 999 30 0 5.76 275.513 07:56 25.07.2019
4692 Clouds 26 999 30 0 5.76 275.513 07:34 25.07.2019
4693 Clouds 26 999 30 0 5.76 275.513 06:43 25.07.2019
4694 Clouds 26 1001 29 0 3.91 215.342 05:37 25.07.2019
4695 Clouds 26 1001 29 0 3.91 215.342 05:18 25.07.2019
4696 Clouds 26 1001 29 0 3.91 215.342 04:31 25.07.2019
4697 Clouds 24 1003 36 0 0.56 223.691 01:45 25.07.2019
4698 Clouds 23 1003 37 0 0.83 146.959 01:18 25.07.2019
4699 Clouds 20 1004 54 0 2.26 210.529 00:20 25.07.2019
4700 Clouds 20 1004 54 0 2.26 210.529 23:46 24.07.2019
4701 Clouds 20 1004 54 0 2.26 210.529 23:27 24.07.2019
4702 Clouds 20 1004 54 0 2.26 210.529 22:55 24.07.2019
4703 Clouds 20 1004 54 0 2.26 210.529 22:55 24.07.2019
4704 Clouds 20 1004 54 0 2.26 210.529 22:36 24.07.2019
4705 Clouds 20 1004 54 0 2.26 210.529 22:18 24.07.2019
4706 Clouds 20 1004 54 0 2.26 210.529 21:42 24.07.2019
4707 Clouds 14 1004 74 0 1.72 175.356 21:21 24.07.2019
4708 Clouds 14 1004 74 0 1.72 175.356 21:21 24.07.2019
4709 Clouds 15 1005 63 0 1.67 231.346 20:56 24.07.2019
4710 Clouds 15 1005 63 0 1.67 231.346 20:37 24.07.2019
4711 Clouds 15 1005 63 0 1.67 231.346 20:19 24.07.2019
4712 Clouds 15 1005 63 0 1.67 231.346 19:42 24.07.2019
4713 Clouds 15 1005 63 0 1.67 231.346 19:22 24.07.2019
4714 Clouds 15 1005 63 0 1.67 231.346 18:58 24.07.2019
4715 Clouds 15 1005 63 0 1.67 231.346 18:37 24.07.2019
4716 Clouds 17 1005 59 0 0.91 289.356 18:19 24.07.2019
4717 Clouds 17 1005 59 0 0.91 289.356 17:42 24.07.2019
4718 Clouds 17 1005 59 0 0.91 289.356 17:19 24.07.2019
4719 Clouds 17 1005 59 0 0.91 289.356 16:40 24.07.2019
4720 Clouds 17 1005 59 0 0.91 289.356 16:40 24.07.2019
4721 Clouds 17 1005 59 0 0.91 289.356 16:21 24.07.2019
4722 Clouds 17 1005 59 0 0.91 289.356 15:39 24.07.2019
4723 Clouds 21 1005 48 0 0.33 45 15:21 24.07.2019
4724 Clouds 21 1005 48 0 0.33 45 14:50 24.07.2019
4725 Clouds 21 1005 48 0 0.33 45 14:23 24.07.2019
4726 Clouds 21 1005 48 0 0.33 45 13:59 24.07.2019
4727 Clouds 21 1005 48 0 0.33 45 13:36 24.07.2019
4728 Clouds 21 1005 49 0 1.6 33.889 13:18 24.07.2019
4729 Clouds 21 1005 49 0 1.6 33.889 12:46 24.07.2019
4730 Clouds 27 1005 31 0 2.17 355.658 12:24 24.07.2019
4731 Clouds 27 1005 31 0 2.17 355.658 11:38 24.07.2019
4732 Clouds 27 1005 31 0 2.17 355.658 11:19 24.07.2019
4733 Clouds 27 1005 31 0 2.17 355.658 10:44 24.07.2019
4734 Clouds 27 1005 31 0 2.17 355.658 10:25 24.07.2019
4735 Clouds 27 1005 31 0 2.17 355.658 09:45 24.07.2019
4736 Clouds 27 1006 26 0 3.79 285.137 09:25 24.07.2019
4737 Clouds 27 1006 26 0 3.79 285.137 08:57 24.07.2019
4738 Clouds 27 1007 27 0 2.78 257.404 08:30 24.07.2019
4739 Clouds 27 1007 27 0 2.78 257.404 07:51 24.07.2019
4740 Clouds 27 1007 27 0 2.78 257.404 07:24 24.07.2019
4741 Clouds 27 1007 27 0 2.78 257.404 06:29 24.07.2019
4742 Clouds 26 1007 25 0 2.61 214.415 05:54 24.07.2019
4743 Clear 21 1009 28 0 2.23 214.011 02:45 24.07.2019
4744 Clear 21 1009 28 0 2.36 212.415 01:30 24.07.2019
4745 Clear 21 1009 28 0 2.36 212.415 00:57 24.07.2019
4746 Clear 21 1009 28 0 2.36 212.415 00:57 24.07.2019
4747 Clear 17 1010 34 0 1.88 207.685 00:23 24.07.2019
4748 Clear 17 1010 34 0 1.88 207.685 23:42 23.07.2019
4749 Clear 17 1010 34 0 1.88 207.685 23:24 23.07.2019
4750 Clear 17 1010 34 0 1.88 207.685 22:40 23.07.2019
4751 Clear 17 1010 34 0 1.88 207.685 22:20 23.07.2019
4752 Clear 17 1010 34 0 1.88 207.685 21:59 23.07.2019
4753 Clear 17 1010 34 0 1.88 207.685 21:41 23.07.2019
4754 Clouds 11 1010 41 0 1.34 223.301 21:22 23.07.2019
4755 Clouds 11 1010 43 0 1.49 217.147 20:47 23.07.2019
4756 Clouds 11 1010 43 0 1.49 217.147 20:25 23.07.2019
4757 Clouds 11 1010 43 0 1.49 217.147 19:43 23.07.2019
4758 Clouds 11 1010 43 0 1.49 217.147 19:22 23.07.2019
4759 Clouds 11 1010 43 0 1.49 217.147 18:52 23.07.2019
4760 Clouds 12 1010 41 0 1.62 161.038 18:25 23.07.2019
4761 Clouds 12 1010 41 0 1.62 161.038 17:56 23.07.2019
4762 Clouds 12 1010 41 0 1.62 161.038 17:38 23.07.2019
4763 Clouds 12 1010 41 0 1.62 161.038 17:19 23.07.2019
4764 Clouds 12 1010 41 0 1.62 161.038 16:41 23.07.2019
4765 Clouds 12 1010 41 0 1.62 161.038 16:21 23.07.2019
4766 Clouds 12 1010 41 0 1.62 161.038 15:46 23.07.2019
4767 Clouds 16 1011 38 0 2.03 152.175 15:24 23.07.2019
4768 Clouds 16 1011 38 0 2.03 152.175 14:40 23.07.2019
4769 Clouds 16 1011 38 0 2.03 152.175 14:22 23.07.2019
4770 Clouds 16 1011 38 0 2.03 152.175 13:59 23.07.2019
4771 Clouds 16 1011 38 0 2.03 152.175 13:40 23.07.2019
4772 Clouds 16 1011 38 0 2.09 164.16 13:22 23.07.2019
4773 Clouds 16 1011 38 0 2.09 164.16 12:48 23.07.2019
4774 Clouds 16 1011 38 0 2.09 164.16 12:26 23.07.2019
4775 Clear 22 1010 23 0 3.44 192.648 11:55 23.07.2019
4776 Clear 22 1010 23 0 3.44 192.648 11:37 23.07.2019
4777 Clear 22 1010 23 0 3.44 192.648 11:18 23.07.2019
4778 Clear 22 1010 23 0 3.44 192.648 10:41 23.07.2019
4779 Clear 22 1010 23 0 3.44 192.648 10:21 23.07.2019
4780 Clear 22 1010 23 0 3.44 192.648 09:41 23.07.2019
4781 Clear 21 1012 24 0 3.99 210.708 09:20 23.07.2019
4782 Clear 21 1011 26 0 3.59 212.715 08:43 23.07.2019
4783 Clear 21 1011 26 0 3.59 212.715 08:20 23.07.2019
4784 Clear 21 1011 26 0 3.59 212.715 08:20 23.07.2019
4785 Clear 21 1011 26 0 3.59 212.715 07:55 23.07.2019
4786 Clear 21 1011 26 0 3.59 212.715 07:36 23.07.2019
4787 Clear 21 1011 26 0 3.59 212.715 06:48 23.07.2019
4788 Clear 21 1011 26 0 3.59 212.715 06:29 23.07.2019
4789 Clear 19 1013 28 0 3.82 198.563 03:39 23.07.2019
4790 Clouds 15 1016 34 0 3.41 181.395 01:34 23.07.2019
4791 Clouds 15 1016 34 0 3.41 181.395 00:31 23.07.2019
4792 Clouds 11 1018 47 0 1.97 154.125 23:56 22.07.2019
4793 Clouds 11 1018 47 0 1.97 154.125 23:38 22.07.2019
4794 Clouds 11 1018 47 0 1.97 154.125 23:18 22.07.2019
4795 Clouds 11 1018 47 0 1.97 154.125 22:44 22.07.2019
4796 Clouds 11 1018 47 0 1.97 154.125 22:22 22.07.2019
4797 Clouds 11 1018 47 0 1.97 154.125 21:43 22.07.2019
4798 Clear 4 1019 74 0 0.37 94.174 21:23 22.07.2019
4799 Clear 4 1019 75 0 0.62 60.186 20:53 22.07.2019
4800 Clear 4 1019 75 0 0.62 60.186 20:33 22.07.2019
4801 Clear 4 1019 75 0 0.62 60.186 19:58 22.07.2019
4802 Clear 4 1019 75 0 0.62 60.186 19:40 22.07.2019
4803 Clear 4 1019 75 0 0.62 60.186 19:21 22.07.2019
4804 Clear 4 1019 75 0 0.62 60.186 18:47 22.07.2019
4805 Clear 4 1019 75 0 0.62 60.186 18:28 22.07.2019
4806 Clear 4 1019 73 0 1.36 74.756 17:58 22.07.2019
4807 Clear 4 1019 73 0 1.36 74.756 17:38 22.07.2019
4808 Clear 4 1019 73 0 1.36 74.756 17:20 22.07.2019
4809 Clear 4 1019 73 0 1.36 74.756 16:40 22.07.2019
4810 Clear 4 1019 73 0 1.36 74.756 16:21 22.07.2019
4811 Clear 4 1019 73 0 1.36 74.756 16:21 22.07.2019
4812 Clear 4 1019 73 0 1.36 74.756 15:44 22.07.2019
4813 Clear 11 1019 49 0 3.14 76.406 15:21 22.07.2019
4814 Clear 11 1019 49 0 3.14 76.406 14:44 22.07.2019
4815 Clear 11 1019 49 0 3.14 76.406 14:26 22.07.2019
4816 Clear 11 1019 49 0 3.14 76.406 13:52 22.07.2019
4817 Clear 11 1019 49 0 3.14 76.406 13:33 22.07.2019
4818 Clear 11 1019 49 0 3.14 76.406 12:56 22.07.2019
4819 Clear 11 1019 49 0 3.14 76.406 12:36 22.07.2019
4820 Clear 14 1018 34 0 3.29 24.93 11:59 22.07.2019
4821 Clear 14 1018 34 0 3.29 24.93 11:41 22.07.2019
4822 Clear 14 1018 34 0 3.29 24.93 11:20 22.07.2019
4823 Clear 14 1018 34 0 3.29 24.93 10:41 22.07.2019
4824 Clear 14 1018 34 0 3.29 24.93 10:23 22.07.2019
4825 Clear 14 1018 34 0 3.29 24.93 09:42 22.07.2019
4826 Clear 14 1019 35 0 3.19 3.935 09:22 22.07.2019
4827 Clear 14 1019 35 0 3.19 3.935 08:44 22.07.2019
4828 Clear 14 1019 35 0 3.19 3.935 08:24 22.07.2019
4829 Clear 14 1019 35 0 3.19 3.935 07:54 22.07.2019
4830 Clear 14 1019 35 0 3.19 3.935 07:32 22.07.2019
4831 Clear 14 1019 35 0 3.19 3.935 06:42 22.07.2019
4832 Clear 12 1021 39 0 4.05 358.527 03:50 22.07.2019
4833 Clouds 9 1022 47 0 4.93 354.731 01:53 22.07.2019
4834 Clouds 9 1023 47 0 5.07 351.871 00:54 22.07.2019
4835 Clear 6 1022 58 0 3.78 349.002 00:24 22.07.2019
4836 Clear 6 1022 58 0 3.78 349.002 23:54 21.07.2019
4837 Clear 6 1022 58 0 3.78 349.002 23:28 21.07.2019
4838 Clear 6 1022 58 0 3.78 349.002 22:42 21.07.2019
4839 Clear 6 1022 58 0 3.78 349.002 22:22 21.07.2019
4840 Clear 6 1022 58 0 3.78 349.002 21:57 21.07.2019
4841 Clear 6 1022 58 0 3.78 349.002 21:37 21.07.2019
4842 Clear 2 1022 78 0 2.42 335.076 21:19 21.07.2019
4843 Clear 2 1022 78 0 2.09 331.777 20:44 21.07.2019
4844 Clear 2 1022 78 0 2.09 331.777 20:26 21.07.2019
4845 Clear 2 1022 78 0 2.09 331.777 19:55 21.07.2019
4846 Clear 2 1022 78 0 2.09 331.777 19:36 21.07.2019
4847 Clear 2 1022 78 0 2.09 331.777 19:18 21.07.2019
4848 Clear 2 1022 78 0 2.09 331.777 18:44 21.07.2019
4849 Clear 4 1019 71 0 3.67 2.387 18:25 21.07.2019
4850 Clear 4 1019 71 0 3.67 2.387 17:42 21.07.2019
4851 Clear 4 1019 71 0 3.67 2.387 17:20 21.07.2019
4852 Clear 4 1019 71 0 3.67 2.387 16:45 21.07.2019
4853 Clear 4 1019 71 0 3.67 2.387 16:25 21.07.2019
4854 Clear 4 1019 71 0 3.67 2.387 15:57 21.07.2019
4855 Clear 4 1019 71 0 3.67 2.387 15:36 21.07.2019
4856 Clouds 10 1016 57 0 7.89 22.686 15:18 21.07.2019
4857 Clouds 10 1016 57 0 7.89 22.686 14:41 21.07.2019
4858 Clouds 10 1016 57 0 7.89 22.686 14:22 21.07.2019
4859 Clouds 10 1016 57 0 7.89 22.686 13:45 21.07.2019
4860 Rain 10 1015 57 0 8.57 19.291 13:27 21.07.2019
4861 Rain 10 1015 57 0 8.57 19.291 12:43 21.07.2019
4862 Rain 19 1011 51 0 5.17 340.092 12:24 21.07.2019
4863 Rain 19 1011 51 0 5.17 340.092 11:47 21.07.2019
4864 Rain 19 1011 51 0 5.17 340.092 11:29 21.07.2019
4865 Rain 19 1011 51 0 5.17 340.092 10:57 21.07.2019
4866 Rain 19 1011 51 0 5.17 340.092 10:39 21.07.2019
4867 Rain 19 1011 51 0 5.17 340.092 10:20 21.07.2019
4868 Rain 19 1011 51 0 5.17 340.092 09:38 21.07.2019
4869 Rain 19 1011 51 0 5.17 340.092 09:38 21.07.2019
4870 Rain 17 1011 60 0 2.04 335.456 09:19 21.07.2019
4871 Rain 17 1011 58 0 1.99 32.597 08:41 21.07.2019
4872 Rain 17 1011 58 0 1.99 32.597 08:23 21.07.2019
4873 Rain 17 1011 58 0 1.99 32.597 07:35 21.07.2019
4874 Rain 17 1011 58 0 1.99 32.597 06:45 21.07.2019
4875 Rain 20 1012 41 0 4.83 352.164 05:28 21.07.2019
4876 Clouds 17 1013 39 0 2.6 226.811 02:27 21.07.2019
4877 Clouds 17 1013 39 0 2.53 225.674 00:57 21.07.2019
4878 Clouds 12 1015 49 0 2.46 211.032 00:24 21.07.2019
4879 Clouds 12 1015 49 0 2.46 211.032 23:59 20.07.2019
4880 Clouds 12 1015 49 0 2.46 211.032 23:39 20.07.2019
4881 Clouds 12 1015 49 0 2.46 211.032 23:19 20.07.2019
4882 Clouds 12 1015 49 0 2.46 211.032 22:42 20.07.2019
4883 Clouds 12 1015 49 0 2.46 211.032 22:21 20.07.2019
4884 Clouds 12 1015 49 0 2.46 211.032 21:45 20.07.2019
4885 Clouds 8 1016 60 0 2.91 197.856 21:25 20.07.2019
4886 Clouds 8 1016 60 0 2.91 197.856 20:56 20.07.2019
4887 Clouds 9 1017 57 0 2.73 203.816 20:38 20.07.2019
4888 Clouds 9 1017 57 0 2.73 203.816 20:38 20.07.2019
4889 Clouds 9 1017 57 0 2.73 203.816 20:18 20.07.2019
4890 Clouds 9 1017 57 0 2.73 203.816 19:42 20.07.2019
4891 Clouds 9 1017 57 0 2.73 203.816 19:19 20.07.2019
4892 Clouds 9 1017 57 0 2.73 203.816 18:40 20.07.2019
4893 Clouds 9 1017 50 0 2 214.675 18:20 20.07.2019
4894 Clouds 9 1017 50 0 2 214.675 17:48 20.07.2019
4895 Clouds 9 1017 50 0 2 214.675 17:20 20.07.2019
4896 Clouds 9 1017 50 0 2 214.675 16:44 20.07.2019
4897 Clouds 9 1017 50 0 2 214.675 16:26 20.07.2019
4898 Clouds 9 1017 50 0 2 214.675 15:57 20.07.2019
4899 Clouds 9 1017 50 0 2 214.675 15:38 20.07.2019
4900 Clouds 12 1017 48 0 1.29 133.679 15:19 20.07.2019
4901 Clouds 12 1017 48 0 1.29 133.679 14:47 20.07.2019
4902 Clouds 12 1017 48 0 1.29 133.679 14:22 20.07.2019
4903 Clouds 12 1017 48 0 1.29 133.679 13:39 20.07.2019
4904 Clouds 12 1017 48 0 1.19 138.091 13:20 20.07.2019
4905 Clouds 12 1017 48 0 1.19 138.091 12:54 20.07.2019
4906 Clear 17 1016 29 0 2.98 9.927 12:21 20.07.2019
4907 Clear 17 1016 29 0 2.98 9.927 11:56 20.07.2019
4908 Clear 17 1016 29 0 2.98 9.927 11:24 20.07.2019
4909 Clear 17 1016 29 0 2.98 9.927 10:55 20.07.2019
4910 Clear 17 1016 29 0 2.98 9.927 10:36 20.07.2019
4911 Clear 17 1016 29 0 2.98 9.927 10:18 20.07.2019
4912 Clear 17 1016 29 0 2.98 9.927 09:45 20.07.2019
4913 Clouds 15 1018 34 0 2.52 342.386 09:18 20.07.2019
4914 Clouds 15 1017 35 0 3.04 350.262 08:45 20.07.2019
4915 Clouds 15 1017 35 0 3.04 350.262 08:20 20.07.2019
4916 Clouds 15 1017 35 0 3.04 350.262 07:21 20.07.2019
4917 Clouds 15 1017 35 0 3.04 350.262 06:41 20.07.2019
4918 Clouds 11 1019 47 0 4.16 355.961 04:31 20.07.2019
4919 Clouds 11 1019 47 0 4.16 355.961 03:40 20.07.2019
4920 Clouds 9 1020 58 0 5.34 357.809 01:21 20.07.2019
4921 Clouds 9 1020 58 0 5.34 357.809 00:47 20.07.2019
4922 Clouds 7 1021 70 0 6.64 5.377 00:21 20.07.2019
4923 Clouds 7 1021 70 0 6.64 5.377 23:45 19.07.2019
4924 Clouds 7 1021 70 0 6.64 5.377 23:26 19.07.2019
4925 Clouds 7 1021 70 0 6.64 5.377 22:50 19.07.2019
4926 Clouds 7 1021 70 0 6.64 5.377 22:26 19.07.2019
4927 Clouds 7 1021 70 0 6.64 5.377 21:52 19.07.2019
4928 Clouds 7 1021 70 0 6.64 5.377 21:34 19.07.2019
4929 Clouds 2 1020 91 0 2.57 326.143 20:59 19.07.2019
4930 Clouds 2 1020 91 0 2.57 326.143 20:40 19.07.2019
4931 Clouds 2 1020 91 0 2.57 326.143 20:22 19.07.2019
4932 Clouds 2 1020 91 0 2.57 326.143 19:35 19.07.2019
4933 Clouds 2 1020 91 0 2.57 326.143 18:46 19.07.2019
4934 Clouds 4 1019 85 0 3.92 347.999 18:25 19.07.2019
4935 Clouds 4 1019 85 0 3.92 347.999 17:57 19.07.2019
4936 Clouds 4 1019 85 0 3.92 347.999 17:29 19.07.2019
4937 Clouds 4 1019 85 0 3.92 347.999 16:59 19.07.2019
4938 Clouds 4 1019 85 0 3.92 347.999 16:40 19.07.2019
4939 Clouds 4 1019 85 0 3.92 347.999 16:18 19.07.2019
4940 Clouds 4 1019 85 0 3.92 347.999 15:47 19.07.2019
4941 Clouds 4 1019 85 0 3.92 347.999 15:29 19.07.2019
4942 Clouds 8 1018 62 0 9.36 7.398 14:47 19.07.2019
4943 Clouds 8 1018 62 0 9.36 7.398 14:27 19.07.2019
4944 Clouds 8 1018 62 0 9.36 7.398 13:58 19.07.2019
4945 Clouds 8 1018 62 0 9.36 7.398 13:39 19.07.2019
4946 Clouds 9 1018 60 0 10.03 9.097 13:20 19.07.2019
4947 Clouds 9 1018 60 0 10.03 9.097 12:45 19.07.2019
4948 Clouds 9 1018 60 0 10.03 9.097 12:26 19.07.2019
4949 Clouds 10 1016 53 0 11.37 14.506 11:46 19.07.2019
4950 Clouds 10 1016 53 0 11.37 14.506 11:19 19.07.2019
4951 Clouds 10 1016 53 0 11.37 14.506 10:56 19.07.2019
4952 Clouds 10 1016 53 0 11.37 14.506 10:37 19.07.2019
4953 Clouds 10 1016 53 0 11.37 14.506 10:18 19.07.2019
4954 Clouds 10 1016 53 0 11.37 14.506 09:43 19.07.2019
4955 Clouds 10 1015 50 0 11.97 14.196 09:22 19.07.2019
4956 Clouds 11 1015 48 0 11.92 13.483 08:50 19.07.2019
4957 Clouds 11 1015 48 0 11.92 13.483 08:28 19.07.2019
4958 Clouds 11 1015 48 0 11.92 13.483 07:33 19.07.2019
4959 Clouds 11 1015 48 0 11.92 13.483 06:37 19.07.2019
4960 Clouds 11 1015 48 0 11.92 13.483 06:37 19.07.2019
4961 Clouds 9 1015 52 0 11.68 16.727 03:53 19.07.2019
4962 Clouds 8 1015 63 0 12.12 18.54 01:44 19.07.2019
4963 Clouds 8 1015 62 0 12.24 17.281 00:58 19.07.2019
4964 Clear 7 1015 65 0 12.07 15.487 00:21 19.07.2019
4965 Clear 7 1015 65 0 12.07 15.487 23:41 18.07.2019
4966 Clear 7 1015 65 0 12.07 15.487 23:23 18.07.2019
4967 Clear 7 1015 65 0 12.07 15.487 22:55 18.07.2019
4968 Clear 7 1015 65 0 12.07 15.487 22:36 18.07.2019
4969 Clear 7 1015 65 0 12.07 15.487 22:18 18.07.2019
4970 Clear 7 1015 65 0 12.07 15.487 21:39 18.07.2019
4971 Clouds 4 1015 87 0 5.84 357.938 21:19 18.07.2019
4972 Clear 4 1015 83 0 7.26 3.03 20:46 18.07.2019
4973 Clear 4 1015 83 0 7.26 3.03 20:25 18.07.2019
4974 Clear 4 1015 83 0 7.26 3.03 19:49 18.07.2019
4975 Clear 4 1015 83 0 7.26 3.03 19:27 18.07.2019
4976 Clear 4 1015 83 0 7.26 3.03 18:52 18.07.2019
4977 Clear 4 1014 82 0 7.16 2.499 18:23 18.07.2019
4978 Clear 4 1014 82 0 7.16 2.499 17:57 18.07.2019
4979 Clear 4 1014 82 0 7.16 2.499 17:37 18.07.2019
4980 Clear 4 1014 82 0 7.16 2.499 17:19 18.07.2019
4981 Clear 4 1014 82 0 7.16 2.499 16:49 18.07.2019
4982 Clear 4 1014 82 0 7.16 2.499 16:26 18.07.2019
4983 Clear 4 1014 82 0 7.16 2.499 15:58 18.07.2019
4984 Clear 4 1014 82 0 7.16 2.499 15:36 18.07.2019
4985 Clouds 8 1014 56 0 10.53 16.319 14:56 18.07.2019
4986 Clouds 8 1014 56 0 10.53 16.319 14:38 18.07.2019
4987 Clouds 8 1014 56 0 10.53 16.319 14:19 18.07.2019
4988 Clouds 8 1014 56 0 10.53 16.319 13:42 18.07.2019
4989 Clouds 8 1013 57 0 10.18 16.559 13:21 18.07.2019
4990 Clouds 8 1013 57 0 10.18 16.559 12:46 18.07.2019
4991 Clouds 10 1012 47 0 12.06 16.364 12:21 18.07.2019
4992 Clouds 10 1012 47 0 12.06 16.364 11:52 18.07.2019
4993 Clouds 10 1012 47 0 12.06 16.364 11:33 18.07.2019
4994 Clouds 10 1012 47 0 12.06 16.364 10:52 18.07.2019
4995 Clouds 10 1012 47 0 12.06 16.364 10:52 18.07.2019
4996 Clouds 10 1012 47 0 12.06 16.364 10:30 18.07.2019
4997 Clouds 10 1012 47 0 12.06 16.364 09:45 18.07.2019
4998 Clouds 9 1012 49 0 11.81 11.42 09:23 18.07.2019
4999 Clouds 9 1012 49 0 12.25 10.282 08:49 18.07.2019
5000 Clouds 9 1012 49 0 12.25 10.282 08:20 18.07.2019
5001 Clouds 9 1012 49 0 12.25 10.282 07:44 18.07.2019
5002 Clouds 9 1012 49 0 12.25 10.282 07:26 18.07.2019
5003 Clouds 9 1012 49 0 12.25 10.282 06:38 18.07.2019
5004 Clouds 8 1011 52 0 12.33 12.055 05:35 18.07.2019
5005 Clouds 7 1010 57 0 11.51 8.496 03:23 18.07.2019
5006 Clouds 7 1010 58 0 12.26 9.436 01:52 18.07.2019
5007 Clouds 7 1010 58 0 12.26 9.436 01:18 18.07.2019
5008 Clouds 6 1009 64 0 12.29 11.368 23:54 17.07.2019
5009 Clouds 6 1009 64 0 12.29 11.368 23:20 17.07.2019
5010 Clouds 6 1009 64 0 12.29 11.368 22:58 17.07.2019
5011 Clouds 6 1009 64 0 12.29 11.368 22:39 17.07.2019
5012 Clouds 6 1009 64 0 12.29 11.368 22:20 17.07.2019
5013 Clouds 6 1009 64 0 12.29 11.368 21:45 17.07.2019
5014 Clouds 6 1009 64 0 12.29 11.368 21:27 17.07.2019
5015 Clouds 5 1006 67 0 9.15 1.039 20:58 17.07.2019
5016 Clouds 5 1006 67 0 9.15 1.039 20:40 17.07.2019
5017 Clouds 5 1006 67 0 9.15 1.039 20:21 17.07.2019
5018 Clouds 5 1006 67 0 9.15 1.039 19:57 17.07.2019
5019 Clouds 5 1006 67 0 9.15 1.039 19:39 17.07.2019
5020 Clouds 5 1006 67 0 9.15 1.039 19:18 17.07.2019
5021 Clouds 5 1006 67 0 9.15 1.039 18:41 17.07.2019
5022 Rain 7 1005 65 0 10.54 15.062 18:20 17.07.2019
5023 Rain 7 1005 65 0 10.54 15.062 17:50 17.07.2019
5024 Rain 7 1005 65 0 10.54 15.062 17:27 17.07.2019
5025 Rain 7 1005 65 0 10.54 15.062 16:58 17.07.2019
5026 Rain 7 1005 65 0 10.54 15.062 16:38 17.07.2019
5027 Rain 7 1005 65 0 10.54 15.062 16:18 17.07.2019
5028 Rain 7 1005 65 0 10.54 15.062 15:51 17.07.2019
5029 Rain 7 1005 65 0 10.54 15.062 15:29 17.07.2019
5030 Rain 10 1004 75 0 9.6 25.345 14:55 17.07.2019
5031 Rain 10 1004 75 0 9.6 25.345 14:37 17.07.2019
5032 Rain 10 1004 75 0 9.6 25.345 14:18 17.07.2019
5033 Rain 10 1004 75 0 9.6 25.345 13:42 17.07.2019
5034 Rain 10 1004 85 0 9 23.065 13:24 17.07.2019
5035 Rain 10 1004 85 0 9 23.065 12:41 17.07.2019
5036 Clouds 12 1003 67 0 7.61 42.385 12:21 17.07.2019
5037 Clouds 12 1003 67 0 7.61 42.385 11:45 17.07.2019
5038 Clouds 12 1003 67 0 7.61 42.385 11:22 17.07.2019
5039 Clouds 12 1003 67 0 7.61 42.385 10:56 17.07.2019
5040 Clouds 12 1003 67 0 7.61 42.385 10:37 17.07.2019
5041 Clouds 12 1003 67 0 7.61 42.385 10:18 17.07.2019
5042 Clouds 12 1003 67 0 7.61 42.385 09:44 17.07.2019
5043 Clouds 15 1003 56 0 6.45 49.403 09:24 17.07.2019
5044 Clouds 15 1004 55 0 4.8 32.359 08:43 17.07.2019
5045 Clouds 15 1004 55 0 4.8 32.359 08:22 17.07.2019
5046 Clouds 15 1004 55 0 4.8 32.359 07:51 17.07.2019
5047 Clouds 15 1004 55 0 4.8 32.359 07:26 17.07.2019
5048 Clouds 15 1004 55 0 4.8 32.359 06:58 17.07.2019
5049 Clouds 15 1004 55 0 4.8 32.359 06:30 17.07.2019
5050 Clouds 16 1004 46 0 1.54 6.991 05:57 17.07.2019
5051 Clouds 16 1004 46 0 1.54 6.991 05:30 17.07.2019
5052 Clouds 16 1004 46 0 1.54 6.991 04:48 17.07.2019
5053 Clouds 16 1004 46 0 1.54 6.991 03:39 17.07.2019
5054 Clouds 16 1006 44 0 0.53 95.194 02:31 17.07.2019
5055 Clouds 16 1007 43 0 2.01 72.366 01:28 17.07.2019
5056 Clouds 16 1007 43 0 2.01 72.366 00:59 17.07.2019
5057 Clouds 16 1007 43 0 2.01 72.366 00:59 17.07.2019
5058 Clouds 16 1007 43 0 2.01 72.366 00:38 17.07.2019
5059 Clouds 14 1007 52 0 1.3 66.257 00:19 17.07.2019
5060 Clouds 14 1007 52 0 1.3 66.257 23:41 16.07.2019
5061 Clouds 14 1007 52 0 1.3 66.257 23:21 16.07.2019
5062 Clouds 14 1007 52 0 1.3 66.257 22:43 16.07.2019
5063 Clouds 14 1007 52 0 1.3 66.257 22:24 16.07.2019
5064 Clouds 14 1007 52 0 1.3 66.257 21:56 16.07.2019
5065 Clouds 14 1007 52 0 1.3 66.257 21:36 16.07.2019
5066 Clouds 9 1008 68 0 1.21 56.875 21:18 16.07.2019
5067 Clouds 10 1009 64 0 1.25 67.764 20:41 16.07.2019
5068 Clouds 10 1009 64 0 1.25 67.764 20:22 16.07.2019
5069 Clouds 10 1009 64 0 1.25 67.764 19:54 16.07.2019
5070 Clouds 10 1009 64 0 1.25 67.764 19:30 16.07.2019
5071 Clouds 10 1009 64 0 1.25 67.764 18:59 16.07.2019
5072 Clouds 10 1009 64 0 1.25 67.764 18:40 16.07.2019
5073 Clouds 10 1009 59 0 2.57 75.801 18:20 16.07.2019
5074 Clouds 10 1009 59 0 2.57 75.801 17:49 16.07.2019
5075 Clouds 10 1009 59 0 2.57 75.801 17:49 16.07.2019
5076 Clouds 10 1009 59 0 2.57 75.801 17:28 16.07.2019
5077 Clouds 10 1009 59 0 2.57 75.801 16:50 16.07.2019
5078 Clouds 10 1009 59 0 2.57 75.801 16:27 16.07.2019
5079 Clouds 10 1009 59 0 2.57 75.801 15:57 16.07.2019
5080 Clouds 10 1009 59 0 2.57 75.801 15:39 16.07.2019
5081 Clear 15 1009 45 0 4.5 75.368 15:19 16.07.2019
5082 Clear 15 1009 45 0 4.5 75.368 14:55 16.07.2019
5083 Clear 15 1009 45 0 4.5 75.368 14:36 16.07.2019
5084 Clear 15 1009 45 0 4.5 75.368 14:18 16.07.2019
5085 Clear 15 1009 45 0 4.5 75.368 13:38 16.07.2019
5086 Clouds 15 1009 45 0 4.94 71.62 13:18 16.07.2019
5087 Clouds 15 1009 45 0 4.94 71.62 12:43 16.07.2019
5088 Clouds 19 1009 33 0 4.77 48.416 12:20 16.07.2019
5089 Clouds 19 1009 33 0 4.77 48.416 11:55 16.07.2019
5090 Clouds 19 1009 33 0 4.77 48.416 11:36 16.07.2019
5091 Clouds 19 1009 33 0 4.77 48.416 11:36 16.07.2019
5092 Clouds 19 1009 33 0 4.77 48.416 11:18 16.07.2019
5093 Clouds 19 1009 33 0 4.77 48.416 11:18 16.07.2019
5094 Clouds 19 1009 33 0 4.77 48.416 10:44 16.07.2019
5095 Clouds 19 1009 33 0 4.77 48.416 10:20 16.07.2019
5096 Clouds 19 1009 33 0 4.77 48.416 09:44 16.07.2019
5097 Clear 19 1010 31 0 1.91 10.693 09:21 16.07.2019
5098 Clouds 19 1010 32 0 2.24 10.621 08:49 16.07.2019
5099 Clouds 19 1010 32 0 2.24 10.621 08:28 16.07.2019
5100 Clouds 19 1010 32 0 2.24 10.621 07:58 16.07.2019
5101 Clouds 19 1010 32 0 2.24 10.621 07:39 16.07.2019
5102 Clouds 19 1010 32 0 2.24 10.621 06:59 16.07.2019
5103 Clouds 19 1010 32 0 2.24 10.621 06:38 16.07.2019
5104 Clouds 17 1011 36 0 2.85 31.064 05:52 16.07.2019
5105 Clouds 17 1011 36 0 2.85 31.064 05:30 16.07.2019
5106 Clouds 17 1011 36 0 2.85 31.064 04:52 16.07.2019
5107 Clouds 17 1011 36 0 2.85 31.064 03:44 16.07.2019
5108 Clouds 15 1013 40 0 3.81 47.756 02:53 16.07.2019
5109 Clouds 15 1013 40 0 3.81 47.756 02:28 16.07.2019
5110 Clouds 15 1013 40 0 3.81 47.756 01:40 16.07.2019
5111 Clouds 15 1013 40 0 3.81 47.756 00:39 16.07.2019
5112 Clouds 12 1014 45 0 4.03 45.543 00:19 16.07.2019
5113 Clouds 12 1014 45 0 4.03 45.543 23:42 15.07.2019
5114 Clouds 12 1014 45 0 4.03 45.543 23:23 15.07.2019
5115 Clouds 12 1014 45 0 4.03 45.543 22:47 15.07.2019
5116 Clouds 12 1014 45 0 4.03 45.543 22:22 15.07.2019
5117 Clouds 12 1014 45 0 4.03 45.543 21:58 15.07.2019
5118 Clouds 12 1014 45 0 4.03 45.543 21:39 15.07.2019
5119 Clouds 11 1014 45 0 4.17 34.228 21:19 15.07.2019
5120 Clouds 11 1014 45 0 4.17 34.228 20:54 15.07.2019
5121 Clouds 11 1014 45 0 4.17 34.228 20:36 15.07.2019
5122 Clouds 11 1014 45 0 4.17 34.228 20:18 15.07.2019
5123 Clouds 11 1014 45 0 4.17 34.228 19:39 15.07.2019
5124 Clouds 11 1014 45 0 4.17 34.228 19:19 15.07.2019
5125 Clouds 11 1014 45 0 4.17 34.228 18:49 15.07.2019
5126 Clouds 12 1013 47 0 5.53 46.856 18:23 15.07.2019
5127 Clouds 12 1013 47 0 5.53 46.856 17:59 15.07.2019
5128 Clouds 12 1013 47 0 5.53 46.856 17:41 15.07.2019
5129 Clouds 12 1013 47 0 5.53 46.856 17:22 15.07.2019
5130 Clouds 12 1013 47 0 5.53 46.856 16:58 15.07.2019
5131 Clouds 12 1013 47 0 5.53 46.856 16:38 15.07.2019
5132 Clouds 12 1013 47 0 5.53 46.856 16:20 15.07.2019
5133 Clouds 12 1013 47 0 5.53 46.856 15:45 15.07.2019
5134 Clouds 12 1013 47 0 5.53 46.856 15:27 15.07.2019
5135 Clouds 16 1012 43 0 6.67 42.151 14:59 15.07.2019
5136 Clouds 16 1012 43 0 6.67 42.151 14:40 15.07.2019
5137 Clouds 16 1012 43 0 6.67 42.151 14:21 15.07.2019
5138 Clouds 16 1012 43 0 6.67 42.151 13:48 15.07.2019
5139 Clouds 16 1011 48 0 5.48 35.939 13:21 15.07.2019
5140 Clouds 16 1011 48 0 5.48 35.939 12:57 15.07.2019
5141 Clouds 16 1011 48 0 5.48 35.939 12:39 15.07.2019
5142 Clouds 18 1009 43 0 6.55 47.247 12:20 15.07.2019
5143 Clouds 18 1009 43 0 6.55 47.247 11:41 15.07.2019
5144 Clouds 18 1009 43 0 6.55 47.247 11:21 15.07.2019
5145 Clouds 18 1009 43 0 6.55 47.247 10:43 15.07.2019
5146 Clouds 18 1009 43 0 6.55 47.247 10:24 15.07.2019
5147 Clouds 18 1009 43 0 6.55 47.247 09:44 15.07.2019
5148 Clouds 21 1009 35 0 1.14 68.611 09:25 15.07.2019
5149 Clouds 22 1008 36 0 1.22 11.569 08:49 15.07.2019
5150 Clouds 22 1008 36 0 1.22 11.569 08:27 15.07.2019
5151 Clouds 22 1008 36 0 1.22 11.569 07:57 15.07.2019
5152 Clouds 22 1008 36 0 1.22 11.569 07:36 15.07.2019
5153 Clouds 22 1008 36 0 1.22 11.569 06:51 15.07.2019
5154 Clouds 22 1008 36 0 1.22 11.569 06:32 15.07.2019
5155 Clouds 20 1010 41 0 0.96 247.721 05:44 15.07.2019
5156 Clouds 20 1010 41 0 0.96 247.721 05:19 15.07.2019
5157 Clouds 20 1010 41 0 0.96 247.721 04:41 15.07.2019
5158 Clouds 20 1010 41 0 0.96 247.721 03:33 15.07.2019
5159 Clouds 17 1011 50 0 2.1 63.032 02:30 15.07.2019
5160 Clouds 17 1011 50 0 2.1 63.032 01:39 15.07.2019
5161 Clouds 17 1011 51 0 2.57 69.916 01:20 15.07.2019
5162 Clouds 17 1011 51 0 2.57 69.916 00:46 15.07.2019
5163 Clouds 15 1012 56 0 3.02 27.641 00:19 15.07.2019
5164 Clouds 15 1012 56 0 3.02 27.641 23:41 14.07.2019
5165 Clouds 15 1012 56 0 3.02 27.641 23:21 14.07.2019
5166 Clouds 15 1012 56 0 3.02 27.641 22:58 14.07.2019
5167 Clouds 15 1012 56 0 3.02 27.641 22:39 14.07.2019
5168 Clouds 15 1012 56 0 3.02 27.641 22:21 14.07.2019
5169 Clouds 15 1012 56 0 3.02 27.641 21:54 14.07.2019
5170 Clouds 15 1012 56 0 3.02 27.641 21:36 14.07.2019
5171 Clouds 14 1012 65 0 1.68 28.072 21:18 14.07.2019
5172 Clouds 14 1012 65 0 1.68 28.072 20:39 14.07.2019
5173 Clouds 14 1012 65 0 1.68 28.072 20:21 14.07.2019
5174 Clouds 14 1012 65 0 1.68 28.072 20:21 14.07.2019
5175 Clouds 14 1012 65 0 1.68 28.072 19:57 14.07.2019
5176 Clouds 14 1012 65 0 1.68 28.072 19:38 14.07.2019
5177 Clouds 14 1012 65 0 1.68 28.072 19:19 14.07.2019
5178 Clouds 14 1012 65 0 1.68 28.072 18:41 14.07.2019
5179 Clouds 13 1011 72 0 2.99 11.336 18:22 14.07.2019
5180 Clouds 13 1011 72 0 2.99 11.336 17:58 14.07.2019
5181 Clouds 13 1011 72 0 2.99 11.336 17:36 14.07.2019
5182 Clouds 13 1011 72 0 2.99 11.336 17:18 14.07.2019
5183 Clouds 13 1011 72 0 2.99 11.336 16:42 14.07.2019
5184 Clouds 13 1011 72 0 2.99 11.336 16:21 14.07.2019
5185 Clouds 13 1011 72 0 2.99 11.336 15:43 14.07.2019
5186 Clouds 18 1009 58 0 4.99 29.366 15:23 14.07.2019
5187 Clouds 18 1009 58 0 4.99 29.366 14:47 14.07.2019
5188 Clouds 18 1009 58 0 4.99 29.366 14:20 14.07.2019
5189 Clouds 18 1009 58 0 4.99 29.366 14:20 14.07.2019
5190 Clouds 18 1009 58 0 4.99 29.366 13:47 14.07.2019
5191 Clouds 17 1009 69 0 4.07 36.982 13:25 14.07.2019
5192 Clouds 17 1009 69 0 4.07 36.982 12:58 14.07.2019
5193 Clouds 17 1009 69 0 4.07 36.982 12:40 14.07.2019
5194 Rain 18 1007 72 0 3.59 46.76 12:19 14.07.2019
5195 Rain 18 1007 72 0 3.59 46.76 11:50 14.07.2019
5196 Rain 18 1007 72 0 3.59 46.76 11:22 14.07.2019
5197 Rain 18 1007 72 0 3.59 46.76 10:49 14.07.2019
5198 Rain 18 1007 72 0 3.59 46.76 10:21 14.07.2019
5199 Rain 18 1007 72 0 3.59 46.76 09:50 14.07.2019
5200 Rain 18 1007 72 0 3.59 46.76 09:30 14.07.2019
5201 Rain 21 1004 72 0 6.32 18.033 08:57 14.07.2019
5202 Rain 21 1004 72 0 6.32 18.033 08:39 14.07.2019
5203 Rain 21 1004 72 0 6.32 18.033 07:46 14.07.2019
5204 Rain 21 1004 72 0 6.32 18.033 07:22 14.07.2019
5205 Clouds 25 1002 46 0 1.64 282.903 05:47 14.07.2019
5206 Clouds 25 1002 46 0 1.64 282.903 05:25 14.07.2019
5207 Clouds 25 1002 46 0 1.64 282.903 03:41 14.07.2019
5208 Clouds 21 1003 58 0 1.41 222.132 03:23 14.07.2019
5209 Clouds 21 1003 58 0 1.41 222.132 02:24 14.07.2019
5210 Clouds 21 1003 58 0 1.41 222.132 02:24 14.07.2019
5211 Clouds 21 1003 58 0 1.41 222.132 01:57 14.07.2019
5212 Clouds 21 1003 57 0 1.8 222.548 01:30 14.07.2019
5213 Clouds 21 1003 57 0 1.8 222.548 00:42 14.07.2019
5214 Clear 17 1004 69 0 1.21 332.294 00:21 14.07.2019
5215 Clear 17 1004 69 0 1.21 332.294 23:59 13.07.2019
5216 Clear 17 1004 69 0 1.21 332.294 23:41 13.07.2019
5217 Clear 17 1004 69 0 1.21 332.294 23:22 13.07.2019
5218 Clear 17 1004 69 0 1.21 332.294 22:42 13.07.2019
5219 Clear 17 1004 69 0 1.21 332.294 22:22 13.07.2019
5220 Clear 17 1004 69 0 1.21 332.294 21:49 13.07.2019
5221 Clouds 14 1005 78 0 1.65 350.463 21:22 13.07.2019
5222 Clouds 14 1005 76 0 1.94 344.362 20:53 13.07.2019
5223 Clouds 14 1005 76 0 1.94 344.362 20:34 13.07.2019
5224 Clouds 14 1005 76 0 1.94 344.362 19:53 13.07.2019
5225 Clouds 14 1005 76 0 1.94 344.362 19:31 13.07.2019
5226 Clouds 14 1005 76 0 1.94 344.362 19:31 13.07.2019
5227 Clouds 14 1005 76 0 1.94 344.362 18:59 13.07.2019
5228 Clouds 14 1005 76 0 1.94 344.362 18:39 13.07.2019
5229 Clouds 15 1005 76 0 2.42 2.729 18:19 13.07.2019
5230 Clouds 15 1005 76 0 2.42 2.729 17:38 13.07.2019
5231 Clouds 15 1005 76 0 2.42 2.729 17:19 13.07.2019
5232 Clouds 15 1005 76 0 2.42 2.729 16:44 13.07.2019
5233 Clouds 15 1005 76 0 2.42 2.729 16:26 13.07.2019
5234 Clouds 15 1005 76 0 2.42 2.729 16:26 13.07.2019
5235 Clouds 15 1005 76 0 2.42 2.729 15:48 13.07.2019
5236 Clear 18 1005 65 0 4.98 8.625 15:24 13.07.2019
5237 Clear 18 1005 65 0 4.98 8.625 14:57 13.07.2019
5238 Clear 18 1005 65 0 4.98 8.625 14:39 13.07.2019
5239 Clear 18 1005 65 0 4.98 8.625 14:20 13.07.2019
5240 Clear 18 1005 65 0 4.98 8.625 13:43 13.07.2019
5241 Clouds 18 1005 67 0 4.44 14.227 13:19 13.07.2019
5242 Clouds 18 1005 67 0 4.44 14.227 12:41 13.07.2019
5243 Clouds 25 1005 55 0 6.56 21.563 12:23 13.07.2019
5244 Clouds 25 1005 55 0 6.56 21.563 11:57 13.07.2019
5245 Clouds 25 1005 55 0 6.56 21.563 11:37 13.07.2019
5246 Clouds 25 1005 55 0 6.56 21.563 11:18 13.07.2019
5247 Clouds 25 1005 55 0 6.56 21.563 10:40 13.07.2019
5248 Clouds 25 1005 55 0 6.56 21.563 10:22 13.07.2019
5249 Clouds 25 1005 55 0 6.56 21.563 09:42 13.07.2019
5250 Clouds 30 1005 29 0 1.71 82.23 09:24 13.07.2019
5251 Clouds 30 1005 28 0 1.52 20.552 08:55 13.07.2019
5252 Clouds 30 1005 28 0 1.52 20.552 08:27 13.07.2019
5253 Clouds 30 1005 28 0 1.52 20.552 07:53 13.07.2019
5254 Clouds 30 1005 28 0 1.52 20.552 07:25 13.07.2019
5255 Clouds 30 1005 28 0 1.52 20.552 06:31 13.07.2019
5256 Clear 29 1006 31 0 1.65 25.697 05:47 13.07.2019
5257 Clear 29 1006 31 0 1.65 25.697 04:40 13.07.2019
5258 Clear 29 1006 31 0 1.65 25.697 04:20 13.07.2019
5259 Clear 29 1006 31 0 1.65 25.697 03:41 13.07.2019
5260 Clouds 27 1006 36 0 2.46 23.581 03:18 13.07.2019
5261 Clouds 27 1006 36 0 2.46 23.581 01:53 13.07.2019
5262 Clouds 27 1006 36 0 2.26 11.852 01:21 13.07.2019
5263 Clouds 27 1006 36 0 2.26 11.852 00:59 13.07.2019
5264 Clouds 23 1006 43 0 0.22 358.704 00:21 13.07.2019
5265 Clouds 23 1006 43 0 0.22 358.704 23:55 12.07.2019
5266 Clouds 23 1006 43 0 0.22 358.704 23:34 12.07.2019
5267 Clouds 23 1006 43 0 0.22 358.704 22:59 12.07.2019
5268 Clouds 23 1006 43 0 0.22 358.704 22:40 12.07.2019
5269 Clouds 23 1006 43 0 0.22 358.704 22:22 12.07.2019
5270 Clouds 23 1006 43 0 0.22 358.704 21:42 12.07.2019
5271 Clouds 19 1006 59 0 0.89 235.276 21:21 12.07.2019
5272 Clouds 19 1006 59 0 0.89 235.276 20:52 12.07.2019
5273 Clouds 19 1006 59 0 0.89 235.276 20:23 12.07.2019
5274 Clouds 19 1006 59 0 0.89 235.276 19:44 12.07.2019
5275 Clouds 19 1006 59 0 0.89 235.276 19:26 12.07.2019
5276 Clouds 19 1006 59 0 0.89 235.276 18:58 12.07.2019
5277 Clouds 19 1006 59 0 0.89 235.276 18:37 12.07.2019
5278 Clouds 20 1006 52 0 1.72 139.428 18:19 12.07.2019
5279 Clouds 20 1006 52 0 1.72 139.428 17:46 12.07.2019
5280 Clouds 20 1006 52 0 1.72 139.428 17:27 12.07.2019
5281 Clouds 20 1006 52 0 1.72 139.428 16:40 12.07.2019
5282 Clouds 20 1006 52 0 1.72 139.428 16:20 12.07.2019
5283 Clouds 20 1006 52 0 1.72 139.428 15:41 12.07.2019
5284 Clouds 24 1006 42 0 3.46 146.687 15:21 12.07.2019
5285 Clouds 24 1006 42 0 3.46 146.687 14:56 12.07.2019
5286 Clouds 24 1006 42 0 3.46 146.687 14:38 12.07.2019
5287 Clouds 24 1006 42 0 3.46 146.687 14:19 12.07.2019
5288 Clouds 24 1006 42 0 3.46 146.687 13:39 12.07.2019
5289 Clouds 24 1006 40 0 2.95 147.758 12:59 12.07.2019
5290 Clouds 24 1006 40 0 2.95 147.758 12:40 12.07.2019
5291 Clouds 29 1007 28 0 2.12 182.298 12:20 12.07.2019
5292 Clouds 29 1007 28 0 2.12 182.298 11:44 12.07.2019
5293 Clouds 29 1007 28 0 2.12 182.298 11:22 12.07.2019
5294 Clouds 29 1007 28 0 2.12 182.298 10:44 12.07.2019
5295 Clouds 29 1007 28 0 2.12 182.298 10:24 12.07.2019
5296 Clouds 29 1007 28 0 2.12 182.298 09:54 12.07.2019
5297 Clouds 29 1007 28 0 2.12 182.298 09:31 12.07.2019
5298 Clouds 29 1008 29 0 2.68 194.016 08:59 12.07.2019
5299 Clouds 29 1008 29 0 2.68 194.016 08:41 12.07.2019
5300 Clouds 29 1008 29 0 2.68 194.016 08:19 12.07.2019
5301 Clouds 29 1008 29 0 2.68 194.016 07:46 12.07.2019
5302 Clouds 29 1008 29 0 2.68 194.016 07:26 12.07.2019
5303 Clouds 29 1008 29 0 2.68 194.016 06:29 12.07.2019
5304 Clouds 27 1010 33 0 2.64 189.366 05:48 12.07.2019
5305 Clouds 24 1011 41 0 2.37 119.571 03:23 12.07.2019
5306 Clouds 24 1011 41 0 2.37 119.571 01:45 12.07.2019
5307 Clouds 24 1011 40 0 2.26 125.854 01:26 12.07.2019
5308 Clouds 24 1011 40 0 2.26 125.854 00:30 12.07.2019
5309 Clouds 21 1012 53 0 1.47 80.026 23:50 11.07.2019
5310 Clouds 21 1012 53 0 1.47 80.026 23:26 11.07.2019
5311 Clouds 21 1012 53 0 1.47 80.026 22:59 11.07.2019
5312 Clouds 21 1012 53 0 1.47 80.026 22:39 11.07.2019
5313 Clouds 21 1012 53 0 1.47 80.026 22:21 11.07.2019
5314 Clouds 21 1012 53 0 1.47 80.026 21:42 11.07.2019
5315 Clouds 21 1012 53 0 1.47 80.026 21:42 11.07.2019
5316 Clouds 16 1011 69 0 1.02 63.056 21:19 11.07.2019
5317 Clouds 16 1011 69 0 1.02 63.056 20:55 11.07.2019
5318 Clouds 16 1011 69 0 1.02 63.056 20:37 11.07.2019
5319 Clouds 16 1011 69 0 1.02 63.056 20:18 11.07.2019
5320 Clouds 16 1011 69 0 1.02 63.056 19:44 11.07.2019
5321 Clouds 16 1011 69 0 1.02 63.056 19:24 11.07.2019
5322 Clouds 16 1011 69 0 1.02 63.056 18:53 11.07.2019
5323 Clouds 16 1011 69 0 1.02 63.056 18:33 11.07.2019
5324 Clouds 18 1011 59 0 1.78 2.131 17:58 11.07.2019
5325 Clouds 18 1011 59 0 1.78 2.131 17:58 11.07.2019
5326 Clouds 18 1011 59 0 1.78 2.131 17:40 11.07.2019
5327 Clouds 18 1011 59 0 1.78 2.131 17:22 11.07.2019
5328 Clouds 18 1011 59 0 1.78 2.131 16:45 11.07.2019
5329 Clouds 18 1011 59 0 1.78 2.131 16:22 11.07.2019
5330 Clouds 18 1011 59 0 1.78 2.131 15:44 11.07.2019
5331 Clouds 21 1010 52 0 3.68 47.816 15:25 11.07.2019
5332 Clouds 21 1010 52 0 3.68 47.816 14:59 11.07.2019
5333 Clouds 21 1010 52 0 3.68 47.816 14:40 11.07.2019
5334 Clouds 21 1010 52 0 3.68 47.816 14:20 11.07.2019
5335 Clouds 21 1010 52 0 3.68 47.816 13:45 11.07.2019
5336 Clouds 21 1010 56 0 2.67 44.317 13:26 11.07.2019
5337 Clouds 21 1010 56 0 2.67 44.317 13:26 11.07.2019
5338 Clouds 21 1010 56 0 2.67 44.317 12:42 11.07.2019
5339 Clouds 27 1009 32 0 2.39 26.019 12:23 11.07.2019
5340 Clouds 27 1009 32 0 2.39 26.019 11:52 11.07.2019
5341 Clouds 27 1009 32 0 2.39 26.019 11:30 11.07.2019
5342 Clouds 27 1009 32 0 2.39 26.019 10:59 11.07.2019
5343 Clouds 27 1009 32 0 2.39 26.019 10:41 11.07.2019
5344 Clouds 27 1009 32 0 2.39 26.019 10:18 11.07.2019
5345 Clouds 27 1009 32 0 2.39 26.019 09:44 11.07.2019
5346 Clouds 28 1008 26 0 3.65 307.369 09:24 11.07.2019
5347 Clear 29 1008 26 0 3.8 321.686 08:51 11.07.2019
5348 Clear 29 1008 26 0 3.8 321.686 08:24 11.07.2019
5349 Clear 29 1008 26 0 3.8 321.686 07:52 11.07.2019
5350 Clear 29 1008 26 0 3.8 321.686 07:32 11.07.2019
5351 Clear 29 1008 26 0 3.8 321.686 06:30 11.07.2019
5352 Clear 27 1008 33 0 2.46 351.116 05:48 11.07.2019
5353 Clear 27 1008 33 0 2.46 351.116 05:29 11.07.2019
5354 Clear 27 1008 33 0 2.46 351.116 04:53 11.07.2019
5355 Clouds 24 1008 48 0 1.33 346.006 02:40 11.07.2019
5356 Clouds 24 1008 48 0 2.11 343.879 01:27 11.07.2019
5357 Clouds 24 1008 48 0 2.11 343.879 00:27 11.07.2019
5358 Rain 20 1008 70 0 1.33 311.279 23:37 10.07.2019
5359 Rain 20 1008 70 0 1.33 311.279 23:18 10.07.2019
5360 Rain 20 1008 70 0 1.33 311.279 22:44 10.07.2019
5361 Rain 20 1008 70 0 1.33 311.279 22:20 10.07.2019
5362 Rain 20 1008 70 0 1.33 311.279 21:45 10.07.2019
5363 Rain 20 1008 70 0 1.33 311.279 21:26 10.07.2019
5364 Clouds 18 1006 70 0 2.24 331.708 20:57 10.07.2019
5365 Clouds 18 1006 70 0 2.24 331.708 20:39 10.07.2019
5366 Clouds 18 1006 70 0 2.24 331.708 20:19 10.07.2019
5367 Clouds 18 1006 70 0 2.24 331.708 19:53 10.07.2019
5368 Clouds 18 1006 70 0 2.24 331.708 19:22 10.07.2019
5369 Clouds 18 1006 70 0 2.24 331.708 18:58 10.07.2019
5370 Clouds 18 1006 70 0 2.24 331.708 18:39 10.07.2019
5371 Clear 18 1004 67 0 0.87 177.164 18:21 10.07.2019
5372 Clear 18 1004 67 0 0.87 177.164 17:42 10.07.2019
5373 Clear 18 1004 67 0 0.87 177.164 17:21 10.07.2019
5374 Clear 18 1004 67 0 0.87 177.164 16:38 10.07.2019
5375 Clear 18 1004 67 0 0.87 177.164 16:18 10.07.2019
5376 Clear 18 1004 67 0 0.87 177.164 15:45 10.07.2019
5377 Clear 24 1003 54 0 0.81 152.581 15:21 10.07.2019
5378 Clear 24 1003 54 0 0.81 152.581 14:41 10.07.2019
5379 Clear 24 1003 54 0 0.81 152.581 14:23 10.07.2019
5380 Clear 24 1003 54 0 0.81 152.581 14:23 10.07.2019
5381 Clear 24 1003 54 0 0.81 152.581 13:52 10.07.2019
5382 Clouds 24 1003 53 0 1.48 142.288 13:19 10.07.2019
5383 Clouds 24 1003 53 0 1.48 142.288 12:58 10.07.2019
5384 Clouds 24 1003 53 0 1.48 142.288 12:38 10.07.2019
5385 Clear 28 1002 35 0 1.74 152.994 12:19 10.07.2019
5386 Clear 28 1002 35 0 1.74 152.994 11:47 10.07.2019
5387 Clear 28 1002 35 0 1.74 152.994 11:21 10.07.2019
5388 Clear 28 1002 35 0 1.74 152.994 10:50 10.07.2019
5389 Clear 28 1002 35 0 1.74 152.994 10:23 10.07.2019
5390 Clear 28 1002 35 0 1.74 152.994 09:44 10.07.2019
5391 Clear 27 1002 37 0 1.42 153.056 09:21 10.07.2019
5392 Clear 27 1002 37 0 1.44 158.94 08:55 10.07.2019
5393 Clear 27 1002 37 0 1.44 158.94 08:37 10.07.2019
5394 Clear 27 1002 37 0 1.44 158.94 08:18 10.07.2019
5395 Clear 27 1002 37 0 1.44 158.94 07:42 10.07.2019
5396 Clear 27 1002 37 0 1.44 158.94 07:21 10.07.2019
5397 Clear 25 1004 42 0 2.44 164.504 06:21 10.07.2019
5398 Clear 25 1004 42 0 2.44 164.504 05:39 10.07.2019
5399 Clear 25 1004 42 0 2.44 164.504 04:29 10.07.2019
5400 Clouds 22 1005 56 0 2.58 123.197 01:25 10.07.2019
5401 Clouds 22 1005 56 0 2.58 123.197 00:42 10.07.2019
5402 Clouds 18 1006 68 0 1.27 106.548 23:42 09.07.2019
5403 Clouds 18 1006 68 0 1.27 106.548 23:22 09.07.2019
5404 Clouds 18 1006 68 0 1.27 106.548 22:54 09.07.2019
5405 Clouds 18 1006 68 0 1.27 106.548 22:36 09.07.2019
5406 Clouds 18 1006 68 0 1.27 106.548 22:18 09.07.2019
5407 Clouds 18 1006 68 0 1.27 106.548 21:43 09.07.2019
5408 Clear 15 1005 85 0 1.27 95.94 21:24 09.07.2019
5409 Clear 15 1005 85 0 1.44 89.563 20:43 09.07.2019
5410 Clear 15 1005 85 0 1.44 89.563 20:25 09.07.2019
5411 Clear 15 1005 85 0 1.44 89.563 19:43 09.07.2019
5412 Clear 15 1005 85 0 1.44 89.563 19:24 09.07.2019
5413 Clear 15 1005 85 0 1.44 89.563 18:49 09.07.2019
5414 Clear 15 1005 85 0 1.44 89.563 18:49 09.07.2019
5415 Clear 15 1005 85 0 1.44 89.563 18:27 09.07.2019
5416 Clear 15 1005 84 0 1.83 112.721 17:57 09.07.2019
5417 Clear 15 1005 84 0 1.83 112.721 17:39 09.07.2019
5418 Clear 15 1005 84 0 1.83 112.721 17:20 09.07.2019
5419 Clear 15 1005 84 0 1.83 112.721 16:50 09.07.2019
5420 Clear 15 1005 84 0 1.83 112.721 16:25 09.07.2019
5421 Clear 15 1005 84 0 1.83 112.721 15:55 09.07.2019
5422 Clear 15 1005 84 0 1.83 112.721 15:36 09.07.2019
5423 Clouds 20 1004 69 0 1.92 133.733 14:59 09.07.2019
5424 Clouds 20 1004 69 0 1.92 133.733 14:40 09.07.2019
5425 Clouds 20 1004 69 0 1.92 133.733 14:20 09.07.2019
5426 Clouds 20 1004 69 0 1.92 133.733 13:45 09.07.2019
5427 Clouds 20 1003 70 0 1.76 121.94 13:27 09.07.2019
5428 Clouds 20 1003 70 0 1.76 121.94 12:42 09.07.2019
5429 Clouds 23 1003 55 0 4.89 179.003 12:24 09.07.2019
5430 Clouds 23 1003 55 0 4.89 179.003 11:59 09.07.2019
5431 Clouds 23 1003 55 0 4.89 179.003 11:41 09.07.2019
5432 Clouds 23 1003 55 0 4.89 179.003 11:21 09.07.2019
5433 Clouds 23 1003 55 0 4.89 179.003 10:58 09.07.2019
5434 Clouds 23 1003 55 0 4.89 179.003 10:34 09.07.2019
5435 Clouds 23 1003 55 0 4.89 179.003 09:56 09.07.2019
5436 Clouds 23 1003 55 0 4.89 179.003 09:37 09.07.2019
5437 Rain 25 1002 50 0 6.12 186.653 09:18 09.07.2019
5438 Rain 25 1002 50 0 6.12 186.653 08:41 09.07.2019
5439 Clouds 15 1000 38 0 2.92 129.687 04:19 05.07.2019
5440 Clouds 15 1000 38 0 2.92 129.687 03:39 05.07.2019
5441 Clear 14 1001 43 0 1.9 156.956 03:19 05.07.2019
5442 Clear 14 1001 43 0 1.9 156.956 02:51 05.07.2019
5443 Clear 14 1001 43 0 1.9 156.956 01:55 05.07.2019
5444 Clear 14 1001 43 0 1.72 157.349 01:28 05.07.2019
5445 Clear 14 1001 43 0 1.72 157.349 00:51 05.07.2019
5446 Clear 14 1001 43 0 1.72 157.349 00:29 05.07.2019
5447 Clear 11 1002 52 0 1.33 115.174 23:39 04.07.2019
5448 Clear 11 1002 52 0 1.33 115.174 23:18 04.07.2019
5449 Clear 11 1002 52 0 1.33 115.174 22:41 04.07.2019
5450 Clear 11 1002 52 0 1.33 115.174 22:20 04.07.2019
5451 Clear 11 1002 52 0 1.33 115.174 21:44 04.07.2019
5452 Clouds 6 1002 69 0 1.04 104.882 21:26 04.07.2019
5453 Clouds 7 1003 64 0 1.26 93.881 20:59 04.07.2019
5454 Clouds 7 1003 64 0 1.26 93.881 20:38 04.07.2019
5455 Clouds 7 1003 64 0 1.26 93.881 20:19 04.07.2019
5456 Clouds 7 1003 64 0 1.26 93.881 20:19 04.07.2019
5457 Clouds 7 1003 64 0 1.26 93.881 19:41 04.07.2019
5458 Clouds 7 1003 64 0 1.26 93.881 19:22 04.07.2019
5459 Clouds 7 1003 64 0 1.26 93.881 18:55 04.07.2019
5460 Clouds 7 1003 64 0 1.26 93.881 18:36 04.07.2019
5461 Clouds 7 1004 63 0 1.15 101.732 18:18 04.07.2019
5462 Clouds 7 1004 63 0 1.15 101.732 17:41 04.07.2019
5463 Clouds 7 1004 63 0 1.15 101.732 17:18 04.07.2019
5464 Clouds 7 1004 63 0 1.15 101.732 15:55 04.07.2019
5465 Clouds 7 1004 63 0 1.15 101.732 15:36 04.07.2019
5466 Clouds 11 1004 52 0 1.73 89.038 15:18 04.07.2019
5467 Clouds 11 1004 52 0 1.73 89.038 14:40 04.07.2019
5468 Clouds 11 1004 52 0 1.73 89.038 14:20 04.07.2019
5469 Clouds 11 1004 52 0 1.73 89.038 14:20 04.07.2019
5470 Clouds 11 1004 52 0 1.73 89.038 13:57 04.07.2019
5471 Clouds 11 1004 52 0 1.73 89.038 13:57 04.07.2019
5472 Clouds 11 1004 52 0 1.73 89.038 13:39 04.07.2019
5473 Clouds 10 1004 54 0 2.02 75.785 13:20 04.07.2019
5474 Clouds 10 1004 54 0 2.02 75.785 12:40 04.07.2019
5475 Clouds 11 1005 46 0 1.55 89.557 12:21 04.07.2019
5476 Clouds 11 1005 46 0 1.55 89.557 11:57 04.07.2019
5477 Clouds 11 1005 46 0 1.55 89.557 11:37 04.07.2019
5478 Clouds 11 1005 46 0 1.55 89.557 11:18 04.07.2019
5479 Clouds 11 1005 46 0 1.55 89.557 10:39 04.07.2019
5480 Clouds 11 1005 46 0 1.55 89.557 10:18 04.07.2019
5481 Clouds 11 1005 46 0 1.55 89.557 09:39 04.07.2019
5482 Clouds 11 1006 48 0 1.13 67.851 09:20 04.07.2019
5483 Rain 12 1006 50 0 1.15 51.472 08:55 04.07.2019
5484 Rain 12 1006 50 0 1.15 51.472 08:19 04.07.2019
5485 Rain 12 1006 50 0 1.15 51.472 07:43 04.07.2019
5486 Rain 12 1006 50 0 1.15 51.472 07:21 04.07.2019
5487 Rain 12 1006 50 0 1.15 51.472 06:38 04.07.2019
5488 Rain 10 1008 57 0 2.34 5.725 05:50 04.07.2019
5489 Rain 10 1008 57 0 2.34 5.725 05:31 04.07.2019
5490 Clouds 9 1009 63 0 4.32 354.696 02:41 04.07.2019
5491 Clouds 9 1009 63 0 4.4 353.127 01:28 04.07.2019
5492 Clouds 9 1009 63 0 4.4 353.127 00:58 04.07.2019
5493 Clouds 8 1010 68 0 4.7 353.506 23:56 03.07.2019
5494 Clouds 8 1010 68 0 4.7 353.506 23:36 03.07.2019
5495 Clouds 8 1010 68 0 4.7 353.506 23:18 03.07.2019
5496 Clouds 8 1010 68 0 4.7 353.506 22:39 03.07.2019
5497 Clouds 8 1010 67 0 4.73 355.344 22:21 03.07.2019
5498 Clouds 8 1010 67 0 4.73 355.344 21:58 03.07.2019
5499 Clouds 8 1010 67 0 4.73 355.344 21:38 03.07.2019
5500 Clouds 4 1010 88 0 2.09 320.314 21:19 03.07.2019
5501 Clouds 4 1010 88 0 2.09 320.314 20:42 03.07.2019
5502 Clouds 4 1010 88 0 2.09 320.314 20:23 03.07.2019
5503 Clouds 4 1010 88 0 2.09 320.314 19:50 03.07.2019
5504 Clouds 4 1010 88 0 2.09 320.314 19:32 03.07.2019
5505 Clouds 4 1010 88 0 2.09 320.314 19:32 03.07.2019
5506 Clouds 4 1010 88 0 2.09 320.314 18:48 03.07.2019
5507 Clouds 4 1010 88 0 2.09 320.314 18:27 03.07.2019
5508 Clouds 5 1011 84 0 2.68 332.669 17:55 03.07.2019
5509 Clouds 5 1011 84 0 2.68 332.669 17:37 03.07.2019
5510 Clouds 5 1011 84 0 2.68 332.669 17:18 03.07.2019
5511 Clouds 5 1011 84 0 2.68 332.669 16:43 03.07.2019
5512 Clouds 5 1011 84 0 2.68 332.669 16:21 03.07.2019
5513 Clouds 5 1011 84 0 2.68 332.669 15:49 03.07.2019
5514 Clouds 5 1011 84 0 2.68 332.669 15:31 03.07.2019
5515 Clouds 9 1011 67 0 5.97 4.982 14:56 03.07.2019
5516 Clouds 9 1011 67 0 5.97 4.982 14:37 03.07.2019
5517 Clouds 9 1011 67 0 5.97 4.982 14:18 03.07.2019
5518 Clouds 8 1010 66 0 5.95 6.829 13:35 03.07.2019
5519 Clouds 8 1010 66 0 5.95 6.829 12:55 03.07.2019
5520 Clouds 9 1010 63 0 6.58 358.834 12:22 03.07.2019
5521 Clouds 9 1010 63 0 6.58 358.834 11:59 03.07.2019
5522 Clouds 9 1010 63 0 6.58 358.834 11:40 03.07.2019
5523 Clouds 9 1010 63 0 6.58 358.834 11:21 03.07.2019
5524 Clouds 9 1010 63 0 6.58 358.834 10:42 03.07.2019
5525 Clouds 9 1010 63 0 6.58 358.834 10:23 03.07.2019
5526 Clouds 9 1010 63 0 6.58 358.834 09:55 03.07.2019
5527 Clouds 9 1010 63 0 6.58 358.834 09:36 03.07.2019
5528 Clouds 9 1009 64 0 6.99 356.151 09:18 03.07.2019
5529 Clouds 9 1009 64 0 6.99 356.151 08:41 03.07.2019
5530 Clouds 9 1009 64 0 7.42 355.532 08:22 03.07.2019
5531 Clouds 9 1009 64 0 7.42 355.532 07:38 03.07.2019
5532 Clouds 9 1009 64 0 7.42 355.532 06:56 03.07.2019
5533 Clouds 9 1010 63 0 6.05 357.879 05:57 03.07.2019
5534 Clouds 9 1010 63 0 6.05 357.879 05:27 03.07.2019
5535 Clouds 9 1010 63 0 6.05 357.879 04:27 03.07.2019
5536 Clouds 9 1009 64 0 5.98 358.668 02:58 03.07.2019
5537 Clouds 9 1009 65 0 6.71 356.101 01:40 03.07.2019
5538 Clouds 9 1009 65 0 6.71 356.101 01:21 03.07.2019
5539 Clouds 9 1009 65 0 6.71 356.101 00:40 03.07.2019
5540 Clouds 7 1009 75 0 5 353.616 23:58 02.07.2019
5541 Clouds 7 1009 75 0 5 353.616 23:37 02.07.2019
5542 Clouds 7 1009 75 0 5 353.616 23:19 02.07.2019
5543 Clouds 7 1009 75 0 5 353.616 22:55 02.07.2019
5544 Clouds 7 1009 75 0 5 353.616 22:37 02.07.2019
5545 Clouds 7 1009 75 0 5 353.616 22:18 02.07.2019
5546 Clouds 7 1009 75 0 5 353.616 21:42 02.07.2019
5547 Clouds 7 1009 77 0 3.19 344.412 21:21 02.07.2019
5548 Clouds 7 1008 76 0 3.8 349.432 20:57 02.07.2019
5549 Clouds 7 1008 76 0 3.8 349.432 20:39 02.07.2019
5550 Clouds 7 1008 76 0 3.8 349.432 20:20 02.07.2019
5551 Clouds 7 1008 76 0 3.8 349.432 19:42 02.07.2019
5552 Clouds 7 1008 76 0 3.8 349.432 19:23 02.07.2019
5553 Clouds 7 1008 76 0 3.8 349.432 18:48 02.07.2019
5554 Clouds 7 1008 74 0 4 347.743 18:18 02.07.2019
5555 Clouds 7 1008 74 0 4 347.743 17:43 02.07.2019
5556 Clouds 7 1008 74 0 4 347.743 17:23 02.07.2019
5557 Clouds 7 1008 74 0 4 347.743 16:53 02.07.2019
5558 Clouds 7 1008 74 0 4 347.743 16:34 02.07.2019
5559 Clouds 7 1008 74 0 4 347.743 15:48 02.07.2019
5560 Clouds 7 1008 74 0 4 347.743 15:27 02.07.2019
5561 Clouds 8 1007 65 0 5.8 355.239 14:59 02.07.2019
5562 Clouds 8 1007 65 0 5.8 355.239 14:40 02.07.2019
5563 Clouds 8 1007 65 0 5.8 355.239 14:20 02.07.2019
5564 Clouds 8 1007 65 0 5.8 355.239 13:42 02.07.2019
5565 Clouds 9 1006 63 0 5.83 354.533 13:18 02.07.2019
5566 Clouds 9 1006 63 0 5.83 354.533 12:44 02.07.2019
5567 Clouds 12 1005 51 0 7.14 0.112 12:22 02.07.2019
5568 Clouds 12 1005 51 0 7.14 0.112 11:44 02.07.2019
5569 Clouds 12 1005 51 0 7.14 0.112 11:23 02.07.2019
5570 Clouds 12 1005 51 0 7.14 0.112 10:55 02.07.2019
5571 Clouds 12 1005 51 0 7.14 0.112 10:29 02.07.2019
5572 Clouds 12 1005 51 0 7.14 0.112 09:57 02.07.2019
5573 Clouds 15 1004 40 0 6.44 3.542 09:22 02.07.2019
5574 Clouds 15 1004 40 0 6.44 3.542 08:58 02.07.2019
5575 Clouds 14 1004 43 0 6.37 0.881 08:38 02.07.2019
5576 Clouds 14 1004 43 0 6.37 0.881 08:19 02.07.2019
5577 Clouds 14 1004 43 0 6.37 0.881 07:43 02.07.2019
5578 Clouds 14 1004 43 0 6.37 0.881 07:20 02.07.2019
5579 Clouds 14 1004 43 0 6.37 0.881 06:38 02.07.2019
5580 Rain 13 1005 53 0 4.4 4.123 05:35 02.07.2019
5581 Rain 8 1005 84 0 4.83 1.187 02:43 02.07.2019
5582 Rain 8 1005 85 0 4.26 358.83 00:31 02.07.2019
5583 Rain 12 1005 71 0 5.5 10.922 23:40 01.07.2019
5584 Rain 12 1005 71 0 5.5 10.922 23:19 01.07.2019
5585 Rain 12 1005 71 0 5.5 10.922 22:44 01.07.2019
5586 Rain 12 1005 71 0 5.5 10.922 22:26 01.07.2019
5587 Rain 12 1005 71 0 5.5 10.922 21:45 01.07.2019
5588 Rain 12 1004 82 0 2.83 322.757 21:25 01.07.2019
5589 Rain 11 1005 81 0 2.28 316.549 20:51 01.07.2019
5590 Rain 11 1005 81 0 2.28 316.549 20:21 01.07.2019
5591 Rain 11 1005 81 0 2.28 316.549 19:57 01.07.2019
5592 Rain 11 1005 81 0 2.28 316.549 19:39 01.07.2019
5593 Rain 11 1005 81 0 2.28 316.549 19:21 01.07.2019
5594 Rain 11 1005 81 0 2.28 316.549 18:50 01.07.2019
5595 Rain 11 1005 81 0 2.28 316.549 18:28 01.07.2019
5596 Clouds 10 1005 87 0 1.44 33.171 17:55 01.07.2019
5597 Clouds 10 1005 87 0 1.44 33.171 17:37 01.07.2019
5598 Clouds 10 1005 87 0 1.44 33.171 17:19 01.07.2019
5599 Clouds 10 1005 87 0 1.44 33.171 16:44 01.07.2019
5600 Clouds 10 1005 87 0 1.44 33.171 16:24 01.07.2019
5601 Clouds 10 1005 87 0 1.44 33.171 15:46 01.07.2019
5602 Clouds 14 1004 77 0 1.96 352.962 15:26 01.07.2019
5603 Clouds 14 1004 77 0 1.96 352.962 14:45 01.07.2019
5604 Clouds 14 1004 77 0 1.96 352.962 14:45 01.07.2019
5605 Clouds 14 1004 77 0 1.96 352.962 14:24 01.07.2019
5606 Clouds 14 1004 77 0 1.96 352.962 13:55 01.07.2019
5607 Clouds 14 1004 77 0 1.96 352.962 13:37 01.07.2019
5608 Clouds 14 1004 77 0 1.96 352.962 13:37 01.07.2019
5609 Clouds 14 1003 77 0 1.37 353.057 13:18 01.07.2019
5610 Clouds 14 1003 77 0 1.37 353.057 12:39 01.07.2019
5611 Clouds 14 1003 77 0 1.37 353.057 12:39 01.07.2019
5612 Rain 13 1003 86 0 1.79 12.213 12:20 01.07.2019
5613 Rain 13 1003 86 0 1.79 12.213 12:20 01.07.2019
5614 Rain 13 1003 86 0 1.79 12.213 11:56 01.07.2019
5615 Rain 13 1003 86 0 1.79 12.213 11:37 01.07.2019
5616 Rain 13 1003 86 0 1.79 12.213 11:18 01.07.2019
5617 Rain 13 1003 86 0 1.79 12.213 10:42 01.07.2019
5618 Rain 13 1003 86 0 1.79 12.213 10:20 01.07.2019
5619 Rain 13 1003 86 0 1.79 12.213 09:42 01.07.2019
5620 Rain 13 1004 84 0 2.38 332.65 09:24 01.07.2019
5621 Rain 17 1005 52 0 2.68 320.29 08:42 01.07.2019
5622 Rain 17 1005 52 0 2.68 320.29 08:21 01.07.2019
5623 Rain 17 1005 52 0 2.68 320.29 07:34 01.07.2019
5624 Rain 17 1005 52 0 2.68 320.29 06:48 01.07.2019
5625 Clouds 21 1006 32 0 3.75 233.582 04:44 01.07.2019
5626 Clouds 18 1006 39 0 4.76 203.293 01:20 01.07.2019
5627 Clouds 18 1006 39 0 4.76 203.293 00:41 01.07.2019
5628 Clouds 14 1009 53 0 1.89 201.79 00:20 01.07.2019
5629 Clouds 14 1009 53 0 1.89 201.79 23:25 30.06.2019
5630 Clouds 14 1009 53 0 1.89 201.79 22:58 30.06.2019
5631 Clouds 14 1009 53 0 1.89 201.79 22:37 30.06.2019
5632 Clouds 14 1009 53 0 1.89 201.79 22:18 30.06.2019
5633 Clouds 14 1009 53 0 1.89 201.79 21:41 30.06.2019
5634 Clouds 10 1010 72 0 0.71 281.673 21:18 30.06.2019
5635 Clouds 10 1010 72 0 0.71 281.673 20:42 30.06.2019
5636 Clouds 10 1010 71 0 0.65 280.511 20:23 30.06.2019
5637 Clouds 10 1010 71 0 0.65 280.511 19:55 30.06.2019
5638 Clouds 10 1010 71 0 0.65 280.511 19:37 30.06.2019
5639 Clouds 10 1010 71 0 0.65 280.511 19:18 30.06.2019
5640 Clear 10 1010 69 0 1.79 330.533 18:26 30.06.2019
5641 Clear 10 1010 69 0 1.79 330.533 17:56 30.06.2019
5642 Clear 10 1010 69 0 1.79 330.533 17:37 30.06.2019
5643 Clear 10 1010 69 0 1.79 330.533 17:18 30.06.2019
5644 Clear 10 1010 69 0 1.79 330.533 16:44 30.06.2019
5645 Clear 10 1010 69 0 1.79 330.533 16:25 30.06.2019
5646 Clear 10 1010 69 0 1.79 330.533 15:37 30.06.2019
5647 Clouds 15 1010 50 0 3.17 11.381 15:18 30.06.2019
5648 Clouds 15 1010 50 0 3.17 11.381 14:50 30.06.2019
5649 Clouds 15 1010 50 0 3.17 11.381 14:30 30.06.2019
5650 Clouds 15 1010 50 0 3.17 11.381 13:48 30.06.2019
5651 Clear 16 1010 51 0 3.11 19.258 13:29 30.06.2019
5652 Clear 16 1010 51 0 3.11 19.258 12:53 30.06.2019
5653 Clear 16 1010 51 0 3.11 19.258 12:28 30.06.2019
5654 Clouds 18 1009 42 0 4.68 14.027 11:58 30.06.2019
5655 Clouds 18 1009 42 0 4.68 14.027 11:39 30.06.2019
5656 Clouds 18 1009 42 0 4.68 14.027 11:19 30.06.2019
5657 Clouds 18 1009 42 0 4.68 14.027 10:45 30.06.2019
5658 Clouds 18 1009 42 0 4.68 14.027 10:20 30.06.2019
5659 Clouds 18 1009 42 0 4.68 14.027 09:59 30.06.2019
5660 Clouds 18 1009 42 0 4.68 14.027 09:41 30.06.2019
5661 Clouds 17 1010 42 0 5.39 17.167 09:19 30.06.2019
5662 Clouds 17 1010 42 0 5.68 17.698 08:40 30.06.2019
5663 Clouds 17 1010 42 0 5.68 17.698 08:21 30.06.2019
5664 Clouds 17 1010 42 0 5.68 17.698 07:42 30.06.2019
5665 Clouds 17 1010 42 0 5.68 17.698 07:22 30.06.2019
5666 Clouds 17 1010 42 0 5.68 17.698 06:37 30.06.2019
5667 Clouds 16 1011 42 0 5.06 14.338 03:32 30.06.2019
5668 Clouds 16 1011 42 0 5.06 14.338 03:32 30.06.2019
5669 Clear 13 1011 50 0 5.02 1.312 01:53 30.06.2019
5670 Clear 13 1011 50 0 5.05 0.556 00:47 30.06.2019
5671 Clear 9 1012 60 0 4.92 348.976 00:24 30.06.2019
5672 Clear 9 1012 60 0 4.92 348.976 23:48 29.06.2019
5673 Clear 9 1012 60 0 4.92 348.976 23:23 29.06.2019
5674 Clear 9 1012 60 0 4.92 348.976 22:48 29.06.2019
5675 Clear 9 1012 60 0 4.92 348.976 22:24 29.06.2019
5676 Clear 9 1012 60 0 5.52 348.981 21:55 29.06.2019
5677 Clear 7 1011 71 0 2.68 318.949 21:25 29.06.2019
5678 Clear 7 1011 71 0 2.68 318.949 21:25 29.06.2019
5679 Clear 7 1011 71 0 2.68 318.949 20:57 29.06.2019
5680 Clear 7 1011 71 0 2.68 318.949 20:36 29.06.2019
5681 Clear 7 1011 71 0 2.68 318.949 20:18 29.06.2019
5682 Clear 7 1011 71 0 2.68 318.949 19:42 29.06.2019
5683 Clear 7 1011 71 0 2.68 318.949 19:21 29.06.2019
5684 Clear 7 1011 71 0 2.68 318.949 18:47 29.06.2019
5685 Clear 8 1010 75 0 2.51 331.205 18:25 29.06.2019
5686 Clear 8 1010 75 0 2.51 331.205 17:40 29.06.2019
5687 Clear 8 1010 75 0 2.51 331.205 17:21 29.06.2019
5688 Clear 8 1010 75 0 2.51 331.205 16:45 29.06.2019
5689 Clear 8 1010 75 0 2.51 331.205 16:25 29.06.2019
5690 Clear 8 1010 75 0 2.51 331.205 15:37 29.06.2019
5691 Clear 13 1009 63 0 6.54 359.01 15:19 29.06.2019
5692 Clear 13 1009 63 0 6.54 359.01 14:41 29.06.2019
5693 Clear 13 1009 63 0 6.54 359.01 14:23 29.06.2019
5694 Clear 13 1009 63 0 6.54 359.01 13:44 29.06.2019
5695 Clear 14 1008 62 0 6.21 1.835 13:26 29.06.2019
5696 Clear 14 1008 62 0 6.21 1.835 12:45 29.06.2019
5697 Clear 14 1008 62 0 6.21 1.835 12:26 29.06.2019
5698 Clear 18 1008 51 0 7.27 20.321 11:51 29.06.2019
5699 Clear 18 1008 51 0 7.27 20.321 11:29 29.06.2019
5700 Clear 18 1008 51 0 7.27 20.321 10:52 29.06.2019
5701 Clear 18 1008 51 0 7.27 20.321 10:29 29.06.2019
5702 Clear 18 1008 51 0 7.27 20.321 09:58 29.06.2019
5703 Clear 18 1008 51 0 7.27 20.321 09:36 29.06.2019
5704 Clouds 19 1007 50 0 6.65 20.252 08:41 29.06.2019
5705 Clouds 20 1007 46 0 7.1 13.59 07:46 29.06.2019
5706 Clouds 20 1007 46 0 7.1 13.59 07:21 29.06.2019
5707 Clouds 20 1007 46 0 7.1 13.59 06:44 29.06.2019
5708 Clouds 19 1007 57 0 4.67 359.546 06:21 29.06.2019
5709 Rain 16 1008 71 0 3.78 39.924 02:37 29.06.2019
5710 Rain 15 1008 79 0 3.8 18.768 00:57 29.06.2019
5711 Rain 15 1008 72 0 4.39 16.679 00:23 29.06.2019
5712 Rain 15 1008 72 0 4.39 16.679 23:27 28.06.2019
5713 Rain 15 1008 72 0 4.39 16.679 22:57 28.06.2019
5714 Rain 15 1008 72 0 4.39 16.679 22:36 28.06.2019
5715 Rain 15 1008 72 0 4.39 16.679 21:48 28.06.2019
5716 Clouds 17 1007 65 0 2.63 1.024 21:24 28.06.2019
5717 Rain 16 1008 70 0 2.32 331.458 20:48 28.06.2019
5718 Rain 16 1008 70 0 2.32 331.458 20:27 28.06.2019
5719 Rain 16 1008 70 0 2.32 331.458 19:53 28.06.2019
5720 Rain 16 1008 70 0 2.32 331.458 19:28 28.06.2019
5721 Rain 16 1008 70 0 2.32 331.458 18:57 28.06.2019
5722 Rain 16 1008 70 0 2.32 331.458 18:38 28.06.2019
5723 Clouds 16 1007 67 0 2.64 357.545 18:20 28.06.2019
5724 Clouds 16 1007 67 0 2.64 357.545 17:30 28.06.2019
5725 Clouds 16 1007 67 0 2.64 357.545 16:51 28.06.2019
5726 Clouds 16 1007 67 0 2.64 357.545 16:27 28.06.2019
5727 Clouds 16 1007 67 0 2.64 357.545 15:48 28.06.2019
5728 Clouds 16 1007 67 0 2.64 357.545 15:48 28.06.2019
5729 Clear 21 1007 49 0 3.15 350.042 15:26 28.06.2019
5730 Clear 21 1007 49 0 3.15 350.042 14:56 28.06.2019
5731 Clear 21 1007 49 0 3.15 350.042 14:37 28.06.2019
5732 Clear 21 1007 49 0 3.15 350.042 14:18 28.06.2019
5733 Clear 21 1007 49 0 3.15 350.042 13:44 28.06.2019
5734 Clear 22 1007 47 0 3.57 358.22 13:21 28.06.2019
5735 Clear 22 1007 47 0 3.57 358.22 12:48 28.06.2019
5736 Clear 25 1008 31 0 5.79 17.793 11:56 28.06.2019
5737 Clear 25 1008 31 0 5.79 17.793 11:27 28.06.2019
5738 Clear 25 1008 31 0 5.79 17.793 10:47 28.06.2019
5739 Clear 25 1008 31 0 5.79 17.793 10:23 28.06.2019
5740 Clear 25 1008 31 0 5.79 17.793 10:23 28.06.2019
5741 Clear 25 1008 31 0 5.79 17.793 09:49 28.06.2019
5742 Clear 25 1008 31 0 5.79 17.793 09:31 28.06.2019
5743 Clouds 27 1007 27 0 6.82 20.974 08:50 28.06.2019
5744 Clouds 26 1007 30 0 7.19 20.445 08:27 28.06.2019
5745 Clouds 26 1007 30 0 7.19 20.445 07:58 28.06.2019
5746 Clouds 26 1007 30 0 7.19 20.445 07:40 28.06.2019
5747 Clouds 26 1007 30 0 7.19 20.445 06:33 28.06.2019
5748 Clouds 25 1009 31 0 4.21 21.19 02:56 28.06.2019
5749 Clouds 26 1009 26 0 5.86 11.216 00:45 28.06.2019
5750 Clouds 23 1008 37 0 2.09 321.661 23:58 27.06.2019
5751 Clouds 23 1008 37 0 2.09 321.661 23:40 27.06.2019
5752 Clouds 23 1008 37 0 2.09 321.661 23:21 27.06.2019
5753 Clouds 23 1008 37 0 2.09 321.661 22:42 27.06.2019
5754 Clouds 23 1008 37 0 2.09 321.661 22:24 27.06.2019
5755 Clouds 23 1008 37 0 2.09 321.661 21:57 27.06.2019
5756 Clouds 23 1008 37 0 2.09 321.661 21:38 27.06.2019
5757 Clouds 18 1008 51 0 1.72 334.802 21:19 27.06.2019
5758 Clouds 19 1009 48 0 1.83 331.64 20:45 27.06.2019
5759 Clouds 19 1009 48 0 1.83 331.64 20:26 27.06.2019
5760 Clouds 19 1009 48 0 1.83 331.64 19:47 27.06.2019
5761 Clouds 19 1009 48 0 1.83 331.64 19:27 27.06.2019
5762 Clouds 19 1009 48 0 1.83 331.64 18:51 27.06.2019
5763 Clouds 19 1009 48 0 1.83 331.64 18:30 27.06.2019
5764 Clouds 18 1008 43 0 1.99 346.229 17:47 27.06.2019
5765 Clouds 18 1008 43 0 1.99 346.229 17:24 27.06.2019
5766 Clouds 18 1008 43 0 1.99 346.229 16:55 27.06.2019
5767 Clouds 18 1008 43 0 1.99 346.229 16:37 27.06.2019
5768 Clouds 18 1008 43 0 1.99 346.229 16:18 27.06.2019
5769 Clouds 18 1008 43 0 1.99 346.229 15:44 27.06.2019
5770 Clouds 23 1008 34 0 2.81 1.364 15:21 27.06.2019
5771 Clouds 23 1008 34 0 2.81 1.364 14:46 27.06.2019
5772 Clouds 23 1008 34 0 2.81 1.364 14:28 27.06.2019
5773 Clouds 23 1008 34 0 2.81 1.364 13:49 27.06.2019
5774 Clouds 24 1008 34 0 2.7 0.784 13:30 27.06.2019
5775 Clouds 24 1008 34 0 2.7 0.784 12:53 27.06.2019
5776 Clouds 24 1008 34 0 2.7 0.784 12:35 27.06.2019
5777 Clouds 26 1007 25 0 3.19 3.859 11:57 27.06.2019
5778 Clouds 26 1007 25 0 3.19 3.859 11:39 27.06.2019
5779 Clouds 26 1007 25 0 3.19 3.859 11:20 27.06.2019
5780 Clouds 26 1007 25 0 3.19 3.859 10:44 27.06.2019
5781 Clouds 26 1007 25 0 3.19 3.859 10:21 27.06.2019
5782 Clouds 26 1007 25 0 3.19 3.859 09:54 27.06.2019
5783 Clear 27 1008 20 0 1.47 271.562 09:22 27.06.2019
5784 Clear 27 1008 20 0 1.47 271.562 08:52 27.06.2019
5785 Clear 28 1008 20 0 1.85 341.075 08:31 27.06.2019
5786 Clear 28 1008 20 0 1.85 341.075 07:57 27.06.2019
5787 Clear 28 1008 20 0 1.85 341.075 07:30 27.06.2019
5788 Clear 28 1008 20 0 1.85 341.075 06:51 27.06.2019
5789 Clear 27 1008 22 0 1.28 230.796 06:24 27.06.2019
5790 Clear 25 1009 27 0 1.11 265.668 02:45 27.06.2019
5791 Clear 25 1009 27 0 1.11 265.668 01:50 27.06.2019
5792 Clear 25 1009 28 0 1.32 260.694 00:58 27.06.2019
5793 Clear 25 1009 28 0 1.32 260.694 00:39 27.06.2019
5794 Clear 22 1009 35 0 0.55 251.794 00:18 27.06.2019
5795 Clear 22 1009 35 0 0.55 251.794 23:40 26.06.2019
5796 Clear 22 1009 35 0 0.55 251.794 23:21 26.06.2019
5797 Clear 22 1009 35 0 0.55 251.794 22:45 26.06.2019
5798 Clear 22 1009 35 0 0.55 251.794 22:26 26.06.2019
5799 Clear 22 1009 35 0 0.55 251.794 21:59 26.06.2019
5800 Clear 22 1009 35 0 0.55 251.794 21:38 26.06.2019
5801 Clear 17 1010 53 0 0.83 348.745 21:19 26.06.2019
5802 Clear 17 1010 53 0 0.83 348.745 21:19 26.06.2019
5803 Clouds 17 1010 52 0 0.76 38.636 20:44 26.06.2019
5804 Clouds 17 1010 52 0 0.76 38.636 20:26 26.06.2019
5805 Clouds 17 1010 52 0 0.76 38.636 19:50 26.06.2019
5806 Clouds 17 1010 52 0 0.76 38.636 19:31 26.06.2019
5807 Clouds 17 1010 52 0 0.76 38.636 18:57 26.06.2019
5808 Clouds 17 1010 52 0 0.76 38.636 18:39 26.06.2019
5809 Clouds 16 1010 48 0 1.07 344.135 18:19 26.06.2019
5810 Clouds 16 1010 48 0 1.07 344.135 17:46 26.06.2019
5811 Clouds 16 1010 48 0 1.07 344.135 17:27 26.06.2019
5812 Clouds 16 1010 48 0 1.07 344.135 16:52 26.06.2019
5813 Clouds 16 1010 48 0 1.07 344.135 16:29 26.06.2019
5814 Clouds 16 1010 48 0 1.07 344.135 16:29 26.06.2019
5815 Clouds 16 1010 48 0 1.07 344.135 15:53 26.06.2019
5816 Clouds 16 1010 48 0 1.07 344.135 15:28 26.06.2019
5817 Clouds 22 1010 39 0 1.11 295.686 14:57 26.06.2019
5818 Clouds 22 1010 39 0 1.11 295.686 14:37 26.06.2019
5819 Clouds 22 1010 39 0 1.11 295.686 14:18 26.06.2019
5820 Clouds 22 1010 39 0 1.11 295.686 13:39 26.06.2019
5821 Clouds 23 1010 41 0 1.26 158.443 13:18 26.06.2019
5822 Clouds 23 1010 41 0 1.26 158.443 12:40 26.06.2019
5823 Clouds 26 1009 27 0 1.35 158.859 12:19 26.06.2019
5824 Clouds 26 1009 27 0 1.35 158.859 11:25 26.06.2019
5825 Clouds 26 1009 27 0 1.35 158.859 11:25 26.06.2019
5826 Clouds 26 1009 27 0 1.35 158.859 10:56 26.06.2019
5827 Clouds 26 1009 27 0 1.35 158.859 10:38 26.06.2019
5828 Clouds 26 1009 27 0 1.35 158.859 10:19 26.06.2019
5829 Clouds 26 1009 27 0 1.35 158.859 09:36 26.06.2019
5830 Clouds 26 1009 26 0 2.86 185.341 09:18 26.06.2019
5831 Clouds 26 1010 27 0 1.22 136.961 08:23 26.06.2019
5832 Clouds 26 1010 27 0 1.22 136.961 07:59 26.06.2019
5833 Clouds 26 1010 27 0 1.22 136.961 07:41 26.06.2019
5834 Clouds 26 1010 27 0 1.22 136.961 06:33 26.06.2019
5835 Clouds 24 1010 36 0 3.38 163.652 03:33 26.06.2019
5836 Clouds 23 1011 41 0 2.14 152.61 00:41 26.06.2019
5837 Clouds 20 1011 53 0 1.21 94.902 00:18 26.06.2019
5838 Clouds 20 1011 53 0 1.21 94.902 23:39 25.06.2019
5839 Clouds 20 1011 53 0 1.21 94.902 23:20 25.06.2019
5840 Clouds 20 1011 53 0 1.21 94.902 22:42 25.06.2019
5841 Clouds 20 1011 53 0 1.21 94.902 22:23 25.06.2019
5842 Clouds 20 1011 53 0 1.21 94.902 21:47 25.06.2019
5843 Clouds 20 1011 53 0 1.21 94.902 21:27 25.06.2019
5844 Clouds 16 1011 71 0 1 98.69 20:59 25.06.2019
5845 Rain 15 1011 81 0 1.23 114.54 20:37 25.06.2019
5846 Rain 15 1011 81 0 1.23 114.54 20:18 25.06.2019
5847 Rain 15 1011 81 0 1.23 114.54 19:44 25.06.2019
5848 Rain 15 1011 81 0 1.23 114.54 19:22 25.06.2019
5849 Rain 15 1011 81 0 1.23 114.54 18:43 25.06.2019
5850 Rain 15 1011 84 0 2.16 11.596 18:24 25.06.2019
5851 Rain 15 1011 84 0 2.16 11.596 17:49 25.06.2019
5852 -273 0 0 0 0 0 17:49 25.06.2019
5853 Rain 15 1011 84 0 2.16 11.596 17:28 25.06.2019
5854 -273 0 0 0 0 0 17:28 25.06.2019
5855 Rain 15 1011 84 0 2.16 11.596 16:55 25.06.2019
5856 Rain 15 1011 84 0 2.16 11.596 16:55 25.06.2019
5857 Rain 15 1011 84 0 2.16 11.596 16:37 25.06.2019
5858 Rain 15 1011 84 0 2.16 11.596 16:18 25.06.2019
5859 Rain 15 1011 84 0 2.16 11.596 15:39 25.06.2019
5860 Rain 18 1010 65 0 1.34 313.069 15:20 25.06.2019
5861 Rain 18 1010 65 0 1.34 313.069 14:51 25.06.2019
5862 Rain 18 1010 65 0 1.34 313.069 14:51 25.06.2019
5863 Rain 18 1010 65 0 1.34 313.069 14:32 25.06.2019
5864 Rain 18 1010 65 0 1.34 313.069 13:43 25.06.2019
5865 Rain 19 1010 56 0 2.39 302.171 13:24 25.06.2019
5866 Rain 19 1010 56 0 2.39 302.171 12:43 25.06.2019
5867 Clouds 23 1009 39 0 2.27 198.14 12:24 25.06.2019
5868 Clouds 23 1009 39 0 2.27 198.14 11:47 25.06.2019
5869 Clouds 23 1009 39 0 2.27 198.14 11:26 25.06.2019
5870 Clouds 23 1009 39 0 2.27 198.14 10:59 25.06.2019
5871 Clouds 23 1009 39 0 2.27 198.14 10:38 25.06.2019
5872 Clouds 23 1009 39 0 2.27 198.14 10:19 25.06.2019
5873 Clouds 23 1009 39 0 2.27 198.14 09:40 25.06.2019
5874 Rain 23 1009 41 0 4.25 157.656 09:22 25.06.2019
5875 Rain 23 1009 41 0 4.25 157.656 08:59 25.06.2019
5876 Rain 23 1009 41 0 4.25 157.656 08:31 25.06.2019
5877 Clouds 23 1009 42 0 3.25 158.886 07:52 25.06.2019
5878 Clouds 23 1009 42 0 3.25 158.886 07:31 25.06.2019
5879 Clouds 23 1009 42 0 3.25 158.886 06:52 25.06.2019
5880 Clouds 22 1009 45 0 5.02 126.879 06:25 25.06.2019
5881 Clouds 18 1009 61 0 1.08 109.188 02:45 25.06.2019
5882 Clouds 20 1009 54 0 1.78 95.739 01:26 25.06.2019
5883 Rain 17 1008 67 0 1.2 60.309 00:28 25.06.2019
5884 Rain 17 1008 67 0 1.2 60.309 23:53 24.06.2019
5885 Rain 17 1008 67 0 1.2 60.309 23:33 24.06.2019
5886 Rain 17 1008 67 0 1.2 60.309 22:59 24.06.2019
5887 Rain 17 1008 67 0 1.2 60.309 22:38 24.06.2019
5888 Rain 17 1008 67 0 1.2 60.309 22:18 24.06.2019
5889 Rain 17 1008 67 0 1.2 60.309 21:38 24.06.2019
5890 Clouds 15 1008 74 0 0.88 4.123 21:18 24.06.2019
5891 Clouds 15 1008 74 0 0.88 4.123 20:54 24.06.2019
5892 Rain 15 1007 76 0 1.18 66.744 20:36 24.06.2019
5893 Rain 15 1007 76 0 1.18 66.744 20:18 24.06.2019
5894 Rain 15 1007 76 0 1.18 66.744 19:41 24.06.2019
5895 Rain 15 1007 76 0 1.18 66.744 19:21 24.06.2019
5896 Rain 15 1007 76 0 1.18 66.744 18:43 24.06.2019
5897 Rain 14 1007 77 0 1.08 107.597 18:24 24.06.2019
5898 Rain 14 1007 77 0 1.08 107.597 17:42 24.06.2019
5899 Rain 14 1007 77 0 1.08 107.597 17:24 24.06.2019
5900 Rain 14 1007 77 0 1.08 107.597 16:45 24.06.2019
5901 Rain 14 1007 77 0 1.08 107.597 16:20 24.06.2019
5902 Rain 14 1007 77 0 1.08 107.597 15:46 24.06.2019
5903 Rain 14 1007 77 0 1.08 107.597 15:27 24.06.2019
5904 Rain 16 1007 72 0 0.93 214.343 14:43 24.06.2019
5905 Rain 16 1007 72 0 0.93 214.343 14:24 24.06.2019
5906 Rain 16 1007 72 0 0.93 214.343 13:46 24.06.2019
5907 Rain 19 1007 70 0 0.48 90.361 13:24 24.06.2019
5908 Rain 19 1007 70 0 0.48 90.361 12:43 24.06.2019
5909 Rain 19 1006 61 0 6.77 170.663 12:21 24.06.2019
5910 Rain 19 1006 61 0 6.77 170.663 11:46 24.06.2019
5911 Rain 19 1006 61 0 6.77 170.663 11:28 24.06.2019
5912 Rain 19 1006 61 0 6.77 170.663 10:55 24.06.2019
5913 -273 0 0 0 0 0 10:36 24.06.2019
5914 Rain 19 1006 61 0 6.77 170.663 10:18 24.06.2019
5915 Rain 19 1006 61 0 6.77 170.663 09:43 24.06.2019
5916 Clouds 26 1006 31 0 3.15 76.228 09:19 24.06.2019
5917 Clouds 26 1006 31 0 3.15 76.228 08:50 24.06.2019
5918 Clouds 27 1005 24 0 4.1 19.919 08:20 24.06.2019
5919 Clouds 27 1005 24 0 4.1 19.919 07:41 24.06.2019
5920 Clouds 27 1005 24 0 4.1 19.919 07:23 24.06.2019
5921 Clear 26 1006 26 0 6.23 24.148 06:24 24.06.2019
5922 Clear 26 1006 26 0 6.23 24.148 05:52 24.06.2019
5923 Clear 26 1006 26 0 6.23 24.148 04:58 24.06.2019
5924 Clear 26 1006 26 0 6.23 24.148 03:54 24.06.2019
5925 Clouds 25 1007 30 0 6.11 32.36 02:52 24.06.2019
5926 Clouds 25 1007 30 0 6.11 32.36 01:55 24.06.2019
5927 Clouds 25 1007 30 0 6.11 32.36 01:36 24.06.2019
5928 Clear 25 1007 29 0 6.55 29.148 00:55 24.06.2019
5929 Clear 25 1007 29 0 6.55 29.148 00:37 24.06.2019
5930 Clear 22 1007 42 0 3.71 18.259 00:18 24.06.2019
5931 Clear 22 1007 42 0 3.71 18.259 23:41 23.06.2019
5932 Clear 22 1007 42 0 3.71 18.259 23:20 23.06.2019
5933 Clear 22 1007 42 0 3.71 18.259 22:42 23.06.2019
5934 Clear 22 1007 42 0 3.71 18.259 22:20 23.06.2019
5935 Clear 22 1007 42 0 3.71 18.259 21:43 23.06.2019
5936 Rain 18 1007 56 0 2.16 16.908 21:23 23.06.2019
5937 Rain 18 1007 56 0 2.16 16.908 20:52 23.06.2019
5938 Rain 18 1008 57 0 2.11 35.045 20:32 23.06.2019
5939 Rain 18 1008 57 0 2.11 35.045 19:57 23.06.2019
5940 Rain 18 1008 57 0 2.11 35.045 19:39 23.06.2019
5941 Rain 18 1008 57 0 2.11 35.045 19:19 23.06.2019
5942 Rain 18 1008 57 0 2.11 35.045 18:44 23.06.2019
5943 Clear 18 1007 53 0 2.7 59.545 18:20 23.06.2019
5944 Clear 18 1007 53 0 2.7 59.545 17:44 23.06.2019
5945 Clear 18 1007 53 0 2.7 59.545 17:24 23.06.2019
5946 Clear 18 1007 53 0 2.7 59.545 16:46 23.06.2019
5947 Clear 18 1007 53 0 2.7 59.545 16:26 23.06.2019
5948 Clear 18 1007 53 0 2.7 59.545 15:58 23.06.2019
5949 Clear 18 1007 53 0 2.7 59.545 15:37 23.06.2019
5950 Clouds 22 1007 42 0 2.31 314.019 15:18 23.06.2019
5951 Clouds 22 1007 42 0 2.31 314.019 14:39 23.06.2019
5952 Clouds 22 1007 42 0 2.31 314.019 14:21 23.06.2019
5953 Clouds 22 1007 42 0 2.31 314.019 13:46 23.06.2019
5954 Rain 21 1007 50 0 1.84 324.216 13:21 23.06.2019
5955 Rain 21 1007 50 0 1.84 324.216 12:59 23.06.2019
5956 Rain 21 1007 50 0 1.84 324.216 12:41 23.06.2019
5957 Clouds 26 1006 33 0 2.24 105.412 12:19 23.06.2019
5958 Clouds 26 1006 33 0 2.24 105.412 11:47 23.06.2019
5959 Clouds 26 1006 33 0 2.24 105.412 11:27 23.06.2019
5960 Clouds 26 1006 33 0 2.24 105.412 10:50 23.06.2019
5961 Clouds 26 1006 33 0 2.24 105.412 10:21 23.06.2019
5962 Clouds 26 1006 33 0 2.24 105.412 09:58 23.06.2019
5963 Clouds 27 1006 29 0 2.38 132.5 09:24 23.06.2019
5964 Clouds 27 1006 29 0 2.38 132.5 08:54 23.06.2019
5965 Clouds 27 1006 29 0 2.38 132.5 08:54 23.06.2019
5966 Clouds 27 1006 29 0 2.38 132.5 08:36 23.06.2019
5967 Clouds 28 1006 26 0 2.73 82.268 08:18 23.06.2019
5968 Clouds 28 1006 26 0 2.73 82.268 07:44 23.06.2019
5969 Clouds 28 1006 26 0 2.73 82.268 07:18 23.06.2019
5970 Clouds 28 1006 26 0 2.73 82.268 06:52 23.06.2019
5971 Clouds 27 1006 27 0 2.71 63.983 05:53 23.06.2019
5972 Clouds 25 1007 34 0 3.1 86.693 02:52 23.06.2019
5973 Clouds 25 1007 34 0 3.1 86.693 01:42 23.06.2019
5974 Clouds 25 1007 34 0 1.94 70.929 01:24 23.06.2019
5975 Clouds 25 1007 34 0 1.94 70.929 00:32 23.06.2019
5976 Clouds 23 1007 39 0 1.58 42.159 23:49 22.06.2019
5977 Clouds 23 1007 39 0 1.58 42.159 23:26 22.06.2019
5978 Clouds 23 1007 39 0 1.58 42.159 22:47 22.06.2019
5979 Clouds 23 1007 39 0 1.58 42.159 22:29 22.06.2019
5980 Clouds 23 1007 39 0 1.58 42.159 21:59 22.06.2019
5981 Clouds 23 1007 39 0 1.58 42.159 21:36 22.06.2019
5982 Clouds 20 1007 45 0 1.1 57.079 21:18 22.06.2019
5983 Clouds 20 1008 45 0 1.03 51.201 20:46 22.06.2019
5984 Clouds 20 1008 45 0 1.03 51.201 20:24 22.06.2019
5985 Clouds 20 1008 45 0 1.03 51.201 19:42 22.06.2019
5986 Clouds 20 1008 45 0 1.03 51.201 19:22 22.06.2019
5987 Clouds 20 1008 45 0 1.03 51.201 18:43 22.06.2019
5988 Clouds 18 1008 43 0 1.09 90.683 18:25 22.06.2019
5989 Clouds 18 1008 43 0 1.09 90.683 17:46 22.06.2019
5990 Clouds 18 1008 43 0 1.09 90.683 17:28 22.06.2019
5991 Clouds 18 1008 43 0 1.09 90.683 16:47 22.06.2019
5992 Clouds 18 1008 43 0 1.09 90.683 16:24 22.06.2019
5993 Clouds 18 1008 43 0 1.09 90.683 15:49 22.06.2019
5994 Clouds 18 1008 43 0 1.09 90.683 15:29 22.06.2019
5995 Clouds 23 1008 38 0 1.42 124.226 14:53 22.06.2019
5996 Clouds 23 1008 38 0 1.42 124.226 14:34 22.06.2019
5997 Clouds 23 1008 38 0 1.42 124.226 13:58 22.06.2019
5998 Clouds 23 1008 38 0 1.42 124.226 13:40 22.06.2019
5999 Clouds 23 1008 37 0 1.85 130.047 13:19 22.06.2019
6000 Clouds 23 1008 37 0 1.85 130.047 12:47 22.06.2019
6001 Clouds 23 1008 37 0 1.85 130.047 12:29 22.06.2019
6002 Clouds 27 1007 25 0 4.6 140.891 11:53 22.06.2019
6003 Clouds 27 1007 25 0 4.6 140.891 11:29 22.06.2019
6004 Clouds 27 1007 25 0 4.6 140.891 10:48 22.06.2019
6005 Clouds 27 1007 25 0 4.6 140.891 10:19 22.06.2019
6006 Clouds 27 1007 25 0 4.6 140.891 09:46 22.06.2019
6007 Clouds 27 1008 25 0 2.4 166.074 09:18 22.06.2019
6008 Clouds 27 1008 26 0 2.51 172.428 08:41 22.06.2019
6009 Clouds 27 1008 26 0 2.51 172.428 08:19 22.06.2019
6010 Clouds 27 1008 26 0 2.51 172.428 07:30 22.06.2019
6011 Clouds 27 1008 26 0 2.51 172.428 06:46 22.06.2019
6012 Clouds 27 1008 26 0 3.28 106.989 04:53 22.06.2019
6013 Clouds 23 1009 37 0 1.43 91.16 02:32 22.06.2019
6014 Clouds 23 1009 37 0 1.44 92.984 00:59 22.06.2019
6015 Clouds 23 1009 37 0 1.44 92.984 00:35 22.06.2019
6016 Clouds 21 1009 45 0 0.92 107.391 23:59 21.06.2019
6017 Clouds 21 1009 45 0 0.92 107.391 23:39 21.06.2019
6018 Clouds 21 1009 45 0 0.92 107.391 23:19 21.06.2019
6019 Clouds 21 1009 45 0 0.92 107.391 22:43 21.06.2019
6020 Clouds 21 1009 45 0 0.92 107.391 22:23 21.06.2019
6021 Clouds 21 1009 45 0 0.92 107.391 21:40 21.06.2019
6022 Clouds 19 1010 49 0 0.35 80.162 21:22 21.06.2019
6023 Clouds 19 1010 49 0 0.35 80.162 20:53 21.06.2019
6024 Clouds 20 1010 43 0 0.98 177.182 20:27 21.06.2019
6025 Clouds 20 1010 43 0 0.98 177.182 19:58 21.06.2019
6026 Clouds 20 1010 43 0 0.98 177.182 19:30 21.06.2019
6027 Clouds 20 1010 43 0 0.98 177.182 18:48 21.06.2019
6028 Clouds 20 1010 43 0 0.98 177.182 18:28 21.06.2019
6029 Clouds 21 1010 40 0 1.01 172.889 17:46 21.06.2019
6030 Clouds 21 1010 40 0 1.01 172.889 17:27 21.06.2019
6031 Clouds 21 1010 40 0 1.01 172.889 16:40 21.06.2019
6032 Clouds 21 1010 40 0 1.01 172.889 16:21 21.06.2019
6033 Clouds 21 1010 40 0 1.01 172.889 15:39 21.06.2019
6034 Clouds 23 1010 40 0 1.77 211.252 15:20 21.06.2019
6035 Clouds 23 1010 40 0 1.77 211.252 14:47 21.06.2019
6036 Clouds 23 1010 40 0 1.77 211.252 14:28 21.06.2019
6037 Clouds 23 1010 40 0 1.77 211.252 13:46 21.06.2019
6038 Clouds 23 1010 37 0 2.41 194.636 13:27 21.06.2019
6039 Clouds 23 1010 37 0 2.41 194.636 12:54 21.06.2019
6040 Clouds 27 1009 25 0 2.6 170.201 12:24 21.06.2019
6041 Clouds 27 1009 25 0 2.6 170.201 11:59 21.06.2019
6042 Clouds 27 1009 25 0 2.6 170.201 11:40 21.06.2019
6043 Clouds 27 1009 25 0 2.6 170.201 11:22 21.06.2019
6044 Clouds 27 1009 25 0 2.6 170.201 10:48 21.06.2019
6045 Clouds 27 1009 25 0 2.6 170.201 10:21 21.06.2019
6046 Clouds 27 1009 25 0 2.6 170.201 09:56 21.06.2019
6047 Clouds 27 1009 25 0 2.6 170.201 09:38 21.06.2019
6048 Clear 27 1009 22 0 1.48 116.323 09:18 21.06.2019
6049 Clear 27 1009 22 0 1.48 116.323 08:42 21.06.2019
6050 Clear 27 1009 23 0 1.02 137.262 08:22 21.06.2019
6051 Clear 27 1009 23 0 1.02 137.262 07:46 21.06.2019
6052 Clear 27 1009 23 0 1.02 137.262 07:26 21.06.2019
6053 Clear 27 1009 23 0 1.02 137.262 06:42 21.06.2019
6054 Clear 26 1010 25 0 3.49 71.565 06:18 21.06.2019
6055 Clear 26 1010 25 0 3.49 71.565 04:57 21.06.2019
6056 Clear 26 1010 25 0 3.49 71.565 03:58 21.06.2019
6057 Clear 26 1010 25 0 3.49 71.565 03:32 21.06.2019
6058 Clouds 24 1011 30 0 5.59 64.906 02:44 21.06.2019
6059 Clouds 24 1011 30 0 5.59 64.906 01:38 21.06.2019
6060 Clouds 24 1011 29 0 5.6 53.328 00:53 21.06.2019
6061 Clouds 20 1012 39 0 4.08 51.702 00:19 21.06.2019
6062 Clouds 20 1012 39 0 4.08 51.702 23:42 20.06.2019
6063 Clouds 20 1012 39 0 4.08 51.702 23:21 20.06.2019
6064 Clouds 20 1012 39 0 4.08 51.702 22:46 20.06.2019
6065 Clouds 20 1012 39 0 4.08 51.702 22:27 20.06.2019
6066 Clouds 20 1012 39 0 4.08 51.702 21:57 20.06.2019
6067 Clouds 20 1012 39 0 4.08 51.702 21:39 20.06.2019
6068 Clouds 16 1012 56 0 3.21 23.342 21:19 20.06.2019
6069 Clouds 16 1012 56 0 3.21 23.342 20:47 20.06.2019
6070 Clouds 16 1012 54 0 3.1 42.631 20:26 20.06.2019
6071 Clouds 16 1012 54 0 3.1 42.631 19:58 20.06.2019
6072 Clouds 16 1012 54 0 3.1 42.631 19:39 20.06.2019
6073 Clouds 16 1012 54 0 3.1 42.631 19:18 20.06.2019
6074 Clouds 16 1012 54 0 3.1 42.631 18:43 20.06.2019
6075 Clouds 17 1011 53 0 4.35 29.995 18:23 20.06.2019
6076 Clouds 17 1011 53 0 4.35 29.995 17:53 20.06.2019
6077 Clouds 17 1011 53 0 4.35 29.995 17:35 20.06.2019
6078 Clouds 17 1011 53 0 4.35 29.995 16:55 20.06.2019
6079 Clouds 17 1011 53 0 4.35 29.995 16:36 20.06.2019
6080 Clouds 17 1011 53 0 4.35 29.995 16:18 20.06.2019
6081 Clouds 17 1011 53 0 4.35 29.995 16:18 20.06.2019
6082 Clouds 17 1011 53 0 4.35 29.995 15:41 20.06.2019
6083 Clouds 22 1011 41 0 5.02 1.428 15:22 20.06.2019
6084 Clouds 22 1011 41 0 5.02 1.428 14:46 20.06.2019
6085 Clouds 22 1011 41 0 5.02 1.428 14:23 20.06.2019
6086 Clouds 22 1011 41 0 5.02 1.428 14:23 20.06.2019
6087 Clouds 22 1011 41 0 5.02 1.428 13:41 20.06.2019
6088 Clouds 21 1011 42 0 4.19 347.799 13:21 20.06.2019
6089 Clouds 21 1011 42 0 4.19 347.799 12:50 20.06.2019
6090 Clouds 25 1010 31 0 8.32 6.478 12:25 20.06.2019
6091 Clouds 25 1010 31 0 8.32 6.478 11:55 20.06.2019
6092 Clouds 25 1010 31 0 8.32 6.478 11:37 20.06.2019
6093 Clouds 25 1010 31 0 8.32 6.478 11:18 20.06.2019
6094 Clouds 25 1010 31 0 8.32 6.478 10:41 20.06.2019
6095 Clouds 25 1010 31 0 8.32 6.478 10:21 20.06.2019
6096 Clouds 25 1010 31 0 8.32 6.478 09:40 20.06.2019
6097 Clouds 25 1009 30 0 7.82 18.905 09:22 20.06.2019
6098 Clouds 25 1009 29 0 7.65 22.675 08:47 20.06.2019
6099 Clouds 25 1009 29 0 7.65 22.675 08:27 20.06.2019
6100 Clouds 25 1009 29 0 7.65 22.675 07:55 20.06.2019
6101 Clouds 25 1009 29 0 7.65 22.675 07:30 20.06.2019
6102 Clouds 25 1009 29 0 7.65 22.675 06:43 20.06.2019
6103 Clouds 27 1010 25 0 7.85 15.596 06:18 20.06.2019
6104 Clouds 27 1010 25 0 7.85 15.596 03:37 20.06.2019
6105 Clouds 26 1010 22 0 3.53 17.006 00:43 20.06.2019
6106 Clouds 23 1010 30 0 0.98 351.687 00:24 20.06.2019
6107 Clouds 23 1010 30 0 0.98 351.687 23:42 19.06.2019
6108 Clouds 23 1010 30 0 0.98 351.687 23:23 19.06.2019
6109 Clouds 23 1010 30 0 0.98 351.687 22:48 19.06.2019
6110 Clouds 23 1010 30 0 0.98 351.687 22:20 19.06.2019
6111 Clouds 23 1010 30 0 0.98 351.687 21:55 19.06.2019
6112 Clouds 23 1010 30 0 0.98 351.687 21:36 19.06.2019
6113 Clouds 18 1009 45 0 0.36 60.93 21:18 19.06.2019
6114 Clouds 18 1009 45 0 0.36 60.93 20:39 19.06.2019
6115 Clouds 18 1009 45 0 0.36 60.93 20:20 19.06.2019
6116 Clouds 18 1009 45 0 0.36 60.93 19:42 19.06.2019
6117 Clouds 18 1009 45 0 0.36 60.93 19:23 19.06.2019
6118 Clouds 18 1009 45 0 0.36 60.93 18:55 19.06.2019
6119 Clouds 17 1009 39 0 0.88 77.91 18:22 19.06.2019
6120 Clouds 17 1009 39 0 0.88 77.91 17:42 19.06.2019
6121 Clouds 17 1009 39 0 0.88 77.91 17:24 19.06.2019
6122 Clouds 17 1009 39 0 0.88 77.91 16:43 19.06.2019
6123 Clouds 17 1009 39 0 0.88 77.91 16:22 19.06.2019
6124 Clouds 17 1009 39 0 0.88 77.91 15:58 19.06.2019
6125 Clouds 17 1009 39 0 0.88 77.91 15:40 19.06.2019
6126 Clear 23 1009 38 0 1.24 311.741 15:19 19.06.2019
6127 Clear 23 1009 38 0 1.24 311.741 14:42 19.06.2019
6128 Clear 23 1009 38 0 1.24 311.741 14:22 19.06.2019
6129 Clear 23 1009 38 0 1.24 311.741 13:43 19.06.2019
6130 Clear 23 1009 35 0 1.84 318.976 13:25 19.06.2019
6131 Clear 23 1009 35 0 1.84 318.976 12:48 19.06.2019
6132 Clear 27 1008 22 0 1.78 256.472 12:22 19.06.2019
6133 -273 0 0 0 0 0 11:58 19.06.2019
6134 Clear 27 1008 22 0 1.78 256.472 11:38 19.06.2019
6135 Clear 27 1008 22 0 1.78 256.472 11:20 19.06.2019
6136 Clear 27 1008 22 0 1.78 256.472 10:45 19.06.2019
6137 Clear 27 1008 22 0 1.78 256.472 10:27 19.06.2019
6138 Clear 27 1008 22 0 1.78 256.472 09:50 19.06.2019
6139 Clear 27 1009 21 0 1.81 226.435 09:23 19.06.2019
6140 Clear 27 1009 21 0 1.81 226.435 08:58 19.06.2019
6141 Clear 27 1009 21 0 2.18 226.64 08:38 19.06.2019
6142 Clear 27 1009 21 0 2.18 226.64 08:19 19.06.2019
6143 Clear 27 1009 21 0 2.18 226.64 07:43 19.06.2019
6144 Clear 27 1009 21 0 2.18 226.64 07:21 19.06.2019
6145 Clear 27 1009 21 0 2.18 226.64 06:36 19.06.2019
6146 Clear 25 1010 23 0 3.05 203.134 06:18 19.06.2019
6147 Clear 25 1010 23 0 3.05 203.134 05:24 19.06.2019
6148 Clear 25 1010 23 0 3.05 203.134 03:53 19.06.2019
6149 Clouds 22 1011 30 0 1.59 179.243 02:40 19.06.2019
6150 Clouds 22 1011 30 0 1.59 179.243 01:39 19.06.2019
6151 Clouds 22 1011 29 0 2.03 186.278 00:55 19.06.2019
6152 Clouds 22 1011 29 0 2.03 186.278 00:36 19.06.2019
6153 Clouds 17 1011 42 0 0.34 122.367 00:18 19.06.2019
6154 Clouds 17 1011 42 0 0.34 122.367 23:42 18.06.2019
6155 Clouds 17 1011 42 0 0.34 122.367 23:23 18.06.2019
6156 Clouds 17 1011 42 0 0.34 122.367 22:41 18.06.2019
6157 Clouds 17 1011 42 0 0.34 122.367 22:22 18.06.2019
6158 Clouds 17 1011 42 0 0.34 122.367 21:44 18.06.2019
6159 Clear 13 1012 59 0 0.31 51.801 21:23 18.06.2019
6160 Clear 13 1012 59 0 0.31 51.801 21:23 18.06.2019
6161 Clear 13 1012 59 0 0.31 51.801 20:59 18.06.2019
6162 Clear 13 1012 57 0 0.56 4.21 20:40 18.06.2019
6163 Clear 13 1012 57 0 0.56 4.21 20:21 18.06.2019
6164 Clear 13 1012 57 0 0.56 4.21 19:40 18.06.2019
6165 Clear 13 1012 57 0 0.56 4.21 19:22 18.06.2019
6166 Clear 13 1012 57 0 0.56 4.21 18:55 18.06.2019
6167 Clear 13 1012 52 0 1.42 347.497 18:25 18.06.2019
6168 Clear 13 1012 52 0 1.42 347.497 17:55 18.06.2019
6169 Clear 13 1012 52 0 1.42 347.497 17:36 18.06.2019
6170 Clear 13 1012 52 0 1.42 347.497 17:18 18.06.2019
6171 Clear 13 1012 52 0 1.42 347.497 16:42 18.06.2019
6172 Clear 13 1012 52 0 1.42 347.497 16:22 18.06.2019
6173 Clear 13 1012 52 0 1.42 347.497 15:42 18.06.2019
6174 Clear 18 1012 41 0 1.85 17.016 15:23 18.06.2019
6175 Clear 18 1012 41 0 1.85 17.016 14:57 18.06.2019
6176 Clear 18 1012 41 0 1.85 17.016 14:39 18.06.2019
6177 Clear 18 1012 41 0 1.85 17.016 14:19 18.06.2019
6178 Clear 18 1012 41 0 1.85 17.016 13:50 18.06.2019
6179 Clear 19 1012 39 0 2.19 1.622 13:31 18.06.2019
6180 Clear 19 1012 39 0 2.19 1.622 12:46 18.06.2019
6181 Clear 19 1012 39 0 2.19 1.622 12:28 18.06.2019
6182 Clear 22 1011 26 0 3.76 32.926 11:56 18.06.2019
6183 Clear 22 1011 26 0 3.76 32.926 11:38 18.06.2019
6184 Clear 22 1011 26 0 3.76 32.926 11:20 18.06.2019
6185 Clear 22 1011 26 0 3.76 32.926 10:43 18.06.2019
6186 Clear 22 1011 26 0 3.76 32.926 10:22 18.06.2019
6187 Clear 22 1011 26 0 3.76 32.926 09:52 18.06.2019
6188 Clear 21 1012 25 0 4.09 25.067 09:25 18.06.2019
6189 Clear 21 1012 25 0 4.09 25.067 08:58 18.06.2019
6190 Clear 21 1012 25 0 4.09 25.067 08:58 18.06.2019
6191 Clear 21 1012 25 0 4.09 25.067 08:39 18.06.2019
6192 Clear 21 1012 25 0 3.95 22.69 08:20 18.06.2019
6193 Clear 21 1012 25 0 3.95 22.69 07:27 18.06.2019
6194 Clear 21 1012 25 0 3.95 22.69 06:59 18.06.2019
6195 Clear 19 1013 29 0 4.06 22.499 05:28 18.06.2019
6196 Clear 19 1013 29 0 4.06 22.499 04:23 18.06.2019
6197 Clear 16 1015 36 0 4.35 24.017 02:51 18.06.2019
6198 Clear 16 1015 36 0 4.35 24.017 01:49 18.06.2019
6199 Clouds 17 1015 37 0 3.89 20.254 01:24 18.06.2019
6200 Clouds 17 1015 37 0 3.89 20.254 00:41 18.06.2019
6201 Clouds 13 1016 45 0 2.76 358.482 00:23 18.06.2019
6202 Clouds 13 1016 45 0 2.76 358.482 23:39 17.06.2019
6203 Clouds 13 1016 45 0 2.76 358.482 23:19 17.06.2019
6204 Clouds 13 1016 45 0 2.76 358.482 23:19 17.06.2019
6205 Clouds 13 1016 45 0 2.76 358.482 22:42 17.06.2019
6206 Clouds 13 1016 45 0 2.76 358.482 22:22 17.06.2019
6207 Clouds 13 1016 45 0 2.76 358.482 21:58 17.06.2019
6208 Clouds 13 1016 45 0 2.76 358.482 21:40 17.06.2019
6209 Clouds 10 1016 60 0 1.93 344.597 21:20 17.06.2019
6210 Clouds 10 1016 60 0 1.93 344.597 20:36 17.06.2019
6211 Clouds 11 1016 59 0 2.07 339.072 20:18 17.06.2019
6212 Clouds 11 1016 59 0 2.07 339.072 20:18 17.06.2019
6213 Clouds 11 1016 59 0 2.07 339.072 19:41 17.06.2019
6214 Clouds 11 1016 59 0 2.07 339.072 19:22 17.06.2019
6215 Clouds 11 1016 59 0 2.07 339.072 18:57 17.06.2019
6216 Clouds 11 1016 59 0 2.07 339.072 18:37 17.06.2019
6217 Clouds 11 1016 60 0 2.57 332.656 18:18 17.06.2019
6218 Clouds 11 1016 60 0 2.57 332.656 17:44 17.06.2019
6219 Clouds 11 1016 60 0 2.57 332.656 17:26 17.06.2019
6220 Clouds 11 1016 60 0 2.57 332.656 16:47 17.06.2019
6221 Clouds 11 1016 60 0 2.57 332.656 16:29 17.06.2019
6222 Clouds 11 1016 60 0 2.57 332.656 15:57 17.06.2019
6223 Clouds 11 1016 60 0 2.57 332.656 15:38 17.06.2019
6224 -273 0 0 0 0 0 15:19 17.06.2019
6225 Clouds 16 1015 48 0 7.19 18.18 14:51 17.06.2019
6226 Clouds 16 1015 48 0 7.19 18.18 14:31 17.06.2019
6227 Clouds 16 1015 48 0 7.19 18.18 13:54 17.06.2019
6228 Clouds 17 1014 46 0 7.23 17.355 13:36 17.06.2019
6229 Clouds 17 1014 46 0 7.23 17.355 13:18 17.06.2019
6230 Clouds 17 1014 46 0 7.23 17.355 12:32 17.06.2019
6231 Clouds 21 1013 40 0 8.46 24.481 11:58 17.06.2019
6232 -273 0 0 0 0 0 11:38 17.06.2019
6233 Clouds 21 1013 40 0 8.46 24.481 11:18 17.06.2019
6234 Clouds 21 1013 40 0 8.46 24.481 10:44 17.06.2019
6235 Clouds 21 1013 40 0 8.46 24.481 10:25 17.06.2019
6236 Clouds 21 1013 40 0 8.46 24.481 09:55 17.06.2019
6237 Clouds 21 1013 40 0 8.46 24.481 09:31 17.06.2019
6238 Clouds 23 1012 38 0 9.11 17.659 08:44 17.06.2019
6239 Clouds 23 1012 38 0 9.11 17.659 08:24 17.06.2019
6240 Clouds 23 1012 38 0 9.11 17.659 07:51 17.06.2019
6241 Clouds 23 1012 38 0 9.11 17.659 07:32 17.06.2019
6242 Clouds 23 1012 38 0 9.11 17.659 06:50 17.06.2019
6243 Clear 23 1012 35 0 9.23 20.667 05:55 17.06.2019
6244 Clear 23 1012 35 0 9.23 20.667 04:59 17.06.2019
6245 Clear 23 1012 35 0 9.23 20.667 04:23 17.06.2019
6246 Clear 23 1012 35 0 9.23 20.667 03:30 17.06.2019
6247 Clouds 21 1012 38 0 7.91 20.068 02:43 17.06.2019
6248 Clouds 21 1012 38 0 7.91 20.068 02:25 17.06.2019
6249 Clouds 21 1012 38 0 7.91 20.068 01:35 17.06.2019
6250 Clouds 21 1012 36 0 7.74 21.154 00:57 17.06.2019
6251 Clouds 21 1012 36 0 7.74 21.154 00:36 17.06.2019
6252 Clouds 20 1011 36 0 3.73 340.842 00:18 17.06.2019
6253 Clouds 20 1011 36 0 3.73 340.842 23:39 16.06.2019
6254 Clouds 20 1011 36 0 3.73 340.842 23:19 16.06.2019
6255 Clouds 20 1011 36 0 3.73 340.842 22:44 16.06.2019
6256 Clouds 20 1011 36 0 3.73 340.842 22:20 16.06.2019
6257 Clouds 20 1011 36 0 3.73 340.842 21:57 16.06.2019
6258 Clouds 20 1011 36 0 3.73 340.842 21:39 16.06.2019
6259 Clouds 18 1011 32 0 1.78 316.638 21:20 16.06.2019
6260 Clouds 17 1011 38 0 1.61 313.188 20:40 16.06.2019
6261 Clouds 17 1011 38 0 1.61 313.188 20:19 16.06.2019
6262 Clouds 17 1011 38 0 1.61 313.188 19:58 16.06.2019
6263 Clouds 17 1011 38 0 1.61 313.188 19:39 16.06.2019
6264 Clouds 17 1011 38 0 1.61 313.188 19:21 16.06.2019
6265 Clouds 17 1011 38 0 1.61 313.188 18:57 16.06.2019
6266 Clouds 17 1011 38 0 1.61 313.188 18:36 16.06.2019
6267 Clear 17 1010 31 0 1.19 175.76 18:18 16.06.2019
6268 Clear 17 1010 31 0 1.19 175.76 17:42 16.06.2019
6269 Clear 17 1010 31 0 1.19 175.76 17:21 16.06.2019
6270 Clear 17 1010 31 0 1.19 175.76 16:56 16.06.2019
6271 Clear 17 1010 31 0 1.19 175.76 16:38 16.06.2019
6272 Clear 17 1010 31 0 1.19 175.76 16:19 16.06.2019
6273 Clear 17 1010 31 0 1.19 175.76 15:41 16.06.2019
6274 Clear 17 1010 31 0 1.19 175.76 15:41 16.06.2019
6275 Clear 23 1009 29 0 1.08 209.401 15:23 16.06.2019
6276 Clear 23 1009 29 0 1.08 209.401 14:42 16.06.2019
6277 Clear 23 1009 29 0 1.08 209.401 14:23 16.06.2019
6278 Clear 23 1009 29 0 1.08 209.401 14:23 16.06.2019
6279 Clear 23 1009 29 0 1.08 209.401 13:51 16.06.2019
6280 Clear 23 1009 29 0 1.08 209.401 13:26 16.06.2019
6281 Clear 23 1009 31 0 0.87 201.607 12:57 16.06.2019
6282 Clear 23 1009 31 0 0.87 201.607 12:38 16.06.2019
6283 Clear 27 1009 16 0 2.76 238.887 12:18 16.06.2019
6284 Clear 27 1009 16 0 2.76 238.887 11:44 16.06.2019
6285 Clear 27 1009 16 0 2.76 238.887 11:19 16.06.2019
6286 Clear 27 1009 16 0 2.76 238.887 10:45 16.06.2019
6287 Clear 27 1009 16 0 2.76 238.887 10:21 16.06.2019
6288 Clear 27 1009 16 0 2.76 238.887 09:48 16.06.2019
6289 Clouds 27 1009 16 0 3.71 224.913 09:26 16.06.2019
6290 Clouds 27 1009 17 0 3.43 224.126 08:57 16.06.2019
6291 Clouds 27 1009 17 0 3.43 224.126 08:38 16.06.2019
6292 Clouds 27 1009 17 0 3.43 224.126 08:18 16.06.2019
6293 Clouds 27 1009 17 0 3.43 224.126 07:43 16.06.2019
6294 Clouds 27 1009 17 0 3.43 224.126 06:57 16.06.2019
6295 Clouds 27 1009 17 0 3.43 224.126 06:37 16.06.2019
6296 Clouds 27 1010 19 0 4.19 208.651 05:43 16.06.2019
6297 Clouds 27 1010 19 0 4.19 208.651 04:36 16.06.2019
6298 Clouds 27 1010 19 0 4.19 208.651 03:54 16.06.2019
6299 Clouds 27 1010 19 0 4.19 208.651 03:31 16.06.2019
6300 Clouds 25 1010 19 0 3.55 196.231 02:26 16.06.2019
6301 Clouds 25 1010 19 0 3.55 196.231 01:42 16.06.2019
6302 Clouds 25 1010 19 0 3.55 196.231 01:24 16.06.2019
6303 Clouds 25 1010 19 0 3.74 203.916 00:40 16.06.2019
6304 Clouds 21 1011 24 0 1.09 224.666 00:20 16.06.2019
6305 Clouds 21 1011 24 0 1.09 224.666 23:43 15.06.2019
6306 Clouds 21 1011 24 0 1.09 224.666 23:25 15.06.2019
6307 Clouds 21 1011 24 0 1.09 224.666 22:50 15.06.2019
6308 Clouds 21 1011 24 0 1.09 224.666 22:27 15.06.2019
6309 Clouds 21 1011 24 0 1.09 224.666 21:49 15.06.2019
6310 Clouds 21 1011 24 0 1.09 224.666 21:29 15.06.2019
6311 Clear 15 1011 32 0 1.97 191.413 20:59 15.06.2019
6312 Clear 15 1011 32 0 1.97 191.413 20:40 15.06.2019
6313 Clear 15 1011 32 0 1.97 191.413 20:19 15.06.2019
6314 Clear 15 1011 32 0 1.97 191.413 19:42 15.06.2019
6315 Clear 15 1011 32 0 1.97 191.413 19:23 15.06.2019
6316 Clear 15 1011 32 0 1.97 191.413 18:40 15.06.2019
6317 Clear 15 1010 29 0 1.81 200.27 18:21 15.06.2019
6318 Clear 15 1010 29 0 1.81 200.27 17:43 15.06.2019
6319 Clear 15 1010 29 0 1.81 200.27 17:43 15.06.2019
6320 Clear 15 1010 29 0 1.81 200.27 17:23 15.06.2019
6321 Clear 15 1010 29 0 1.81 200.27 16:48 15.06.2019
6322 Clear 15 1010 29 0 1.81 200.27 16:20 15.06.2019
6323 Clear 15 1010 29 0 1.81 200.27 15:44 15.06.2019
6324 Clear 21 1009 28 0 3.22 230.782 15:23 15.06.2019
6325 Clear 21 1009 28 0 3.22 230.782 14:43 15.06.2019
6326 Clear 21 1009 28 0 3.22 230.782 14:19 15.06.2019
6327 Clear 21 1009 28 0 3.22 230.782 13:58 15.06.2019
6328 Clear 21 1009 28 0 3.22 230.782 13:40 15.06.2019
6329 Clear 21 1009 28 0 3.22 230.782 13:19 15.06.2019
6330 Clear 21 1009 28 0 3.22 230.782 12:50 15.06.2019
6331 Clear 25 1009 18 0 4.3 206.297 12:26 15.06.2019
6332 Clear 25 1009 18 0 3.89 203.274 11:53 15.06.2019
6333 Clear 25 1009 18 0 3.89 203.274 11:53 15.06.2019
6334 Clear 25 1009 18 0 3.89 203.274 11:33 15.06.2019
6335 Clear 25 1009 21 0 3.06 225.542 10:54 15.06.2019
6336 Clear 25 1009 21 0 3.06 225.542 10:36 15.06.2019
6337 Clear 25 1009 21 0 3.06 225.542 10:18 15.06.2019
6338 Clear 25 1009 21 0 3.06 225.542 09:42 15.06.2019
6339 Clear 24 1008 23 0 3.14 221.22 09:21 15.06.2019
6340 Clear 24 1008 23 0 3.14 221.22 08:46 15.06.2019
6341 Clear 24 1008 23 0 3.14 221.22 08:27 15.06.2019
6342 Clear 24 1008 23 0 3.14 221.22 07:43 15.06.2019
6343 Clear 24 1008 23 0 3.14 221.22 07:21 15.06.2019
6344 Clear 24 1008 23 0 3.14 221.22 07:21 15.06.2019
6345 Clear 24 1008 23 0 3.14 221.22 06:39 15.06.2019
6346 Clear 23 1009 25 0 2.49 195.781 05:59 15.06.2019
6347 Clear 23 1009 25 0 2.49 195.781 05:24 15.06.2019
6348 Clear 23 1009 25 0 2.49 195.781 04:42 15.06.2019
6349 Clear 23 1009 25 0 2.49 195.781 04:42 15.06.2019
6350 -273 0 0 0 0 0 03:42 15.06.2019
6351 Clear 19 1010 35 0 1.57 150.305 02:55 15.06.2019
6352 Clear 19 1010 35 0 1.57 150.305 02:21 15.06.2019
6353 Clear 19 1010 35 0 1.57 150.305 01:43 15.06.2019
6354 Clear 19 1010 35 0 1.57 150.305 00:56 15.06.2019
6355 Clear 19 1010 35 0 1.57 150.305 00:37 15.06.2019
6356 Clear 16 1011 49 0 1.71 45.901 23:54 14.06.2019
6357 Clear 15 1012 47 0 2.14 36.982 23:26 14.06.2019
6358 Clear 15 1012 47 0 2.14 36.982 22:45 14.06.2019
6359 Clear 15 1012 47 0 2.14 36.982 22:23 14.06.2019
6360 Clear 15 1012 47 0 2.14 36.982 21:59 14.06.2019
6361 Clear 15 1012 47 0 2.14 36.982 21:40 14.06.2019
6362 Clear 12 1011 60 0 2.07 24.069 21:21 14.06.2019
6363 Clear 12 1011 60 0 2.07 24.069 20:42 14.06.2019
6364 Clear 12 1011 60 0 2.07 24.069 20:18 14.06.2019
6365 Clear 12 1011 60 0 2.07 24.069 19:54 14.06.2019
6366 Clear 12 1011 60 0 2.07 24.069 19:36 14.06.2019
6367 Clear 12 1011 60 0 2.07 24.069 19:18 14.06.2019
6368 Clear 12 1011 60 0 2.07 24.069 18:42 14.06.2019
6369 Clear 12 1012 56 0 3.02 64.081 18:24 14.06.2019
6370 Clear 12 1012 56 0 3.02 64.081 18:24 14.06.2019
6371 Clear 12 1012 56 0 3.02 64.081 17:55 14.06.2019
6372 Clear 12 1012 56 0 3.02 64.081 17:36 14.06.2019
6373 Clear 12 1012 56 0 3.02 64.081 17:18 14.06.2019
6374 Clear 12 1012 56 0 3.02 64.081 16:44 14.06.2019
6375 Clear 12 1012 56 0 3.02 64.081 16:20 14.06.2019
6376 Clear 12 1012 56 0 3.02 64.081 16:20 14.06.2019
6377 Clear 12 1012 56 0 3.02 64.081 16:20 14.06.2019
6378 Clear 12 1012 56 0 3.02 64.081 15:42 14.06.2019
6379 Clear 12 1012 56 0 3.02 64.081 15:42 14.06.2019
6380 Clouds 17 1010 42 0 4.14 48.379 15:24 14.06.2019
6381 Clouds 17 1010 42 0 4.14 48.379 15:24 14.06.2019
6382 Clouds 17 1010 42 0 4.14 48.379 14:59 14.06.2019
6383 Clouds 17 1010 42 0 4.14 48.379 14:59 14.06.2019
6384 Clouds 17 1010 42 0 4.14 48.379 14:59 14.06.2019
6385 Clouds 17 1010 42 0 4.14 48.379 14:40 14.06.2019
6386 Clouds 17 1010 42 0 4.14 48.379 14:21 14.06.2019
6387 Clouds 18 1010 39 0 4.02 45.907 13:42 14.06.2019
6388 Clouds 18 1010 39 0 4.02 45.907 13:24 14.06.2019
6389 Clouds 18 1010 39 0 4.02 45.907 12:44 14.06.2019
6390 Clouds 20 1010 30 0 2.78 281.649 12:26 14.06.2019
6391 Clouds 20 1010 30 0 2.78 281.649 11:58 14.06.2019
6392 Clouds 20 1010 30 0 2.78 281.649 11:39 14.06.2019
6393 Clouds 20 1010 30 0 2.78 281.649 11:20 14.06.2019
6394 Clouds 20 1010 30 0 2.78 281.649 10:44 14.06.2019
6395 Clouds 20 1010 30 0 2.78 281.649 10:20 14.06.2019
6396 Clouds 20 1010 30 0 2.78 281.649 09:46 14.06.2019
6397 Clouds 20 1011 37 0 3.7 285.119 09:24 14.06.2019
6398 Clouds 20 1011 37 0 3.7 285.119 08:47 14.06.2019
6399 Clouds 20 1011 37 0 3.7 285.119 08:19 14.06.2019
6400 Clouds 20 1011 37 0 3.7 285.119 07:51 14.06.2019
6401 Clouds 20 1011 37 0 3.7 285.119 07:22 14.06.2019
6402 Clouds 20 1011 37 0 3.7 285.119 06:39 14.06.2019
6403 Clouds 18 1011 41 0 0.91 246.635 05:58 14.06.2019
6404 Clouds 18 1011 41 0 0.91 246.635 05:33 14.06.2019
6405 Clouds 18 1011 41 0 0.91 246.635 04:48 14.06.2019
6406 Clouds 18 1011 41 0 0.91 246.635 03:56 14.06.2019
6407 Clouds 15 1012 50 0 2.24 41.691 03:26 14.06.2019
6408 Clouds 15 1012 50 0 2.24 41.691 02:56 14.06.2019
6409 Clouds 15 1012 50 0 2.24 41.691 02:27 14.06.2019
6410 Clouds 15 1012 50 0 2.24 41.691 01:26 14.06.2019
6411 Clouds 15 1012 50 0 2.24 41.691 00:36 14.06.2019
6412 Clouds 11 1013 56 0 3.42 19.31 00:18 14.06.2019
6413 Clouds 11 1013 56 0 3.42 19.31 23:47 13.06.2019
6414 Clouds 11 1013 56 0 3.42 19.31 23:22 13.06.2019
6415 Clouds 11 1013 56 0 3.42 19.31 22:40 13.06.2019
6416 Clouds 11 1013 56 0 3.42 19.31 22:22 13.06.2019
6417 Clouds 11 1013 56 0 3.42 19.31 21:56 13.06.2019
6418 Clouds 11 1013 56 0 3.42 19.31 21:36 13.06.2019
6419 Clouds 11 1013 56 0 3.42 19.31 21:36 13.06.2019
6420 Clouds 10 1011 63 0 3.74 15.021 21:18 13.06.2019
6421 Clouds 10 1011 63 0 3.74 15.021 20:42 13.06.2019
6422 Clouds 10 1011 63 0 3.74 15.021 20:20 13.06.2019
6423 Clouds 10 1011 63 0 3.74 15.021 20:20 13.06.2019
6424 Clouds 10 1011 63 0 3.74 15.021 19:43 13.06.2019
6425 Clouds 10 1011 63 0 3.74 15.021 19:24 13.06.2019
6426 Clouds 10 1011 63 0 3.74 15.021 18:58 13.06.2019
6427 Clouds 10 1011 63 0 3.74 15.021 18:40 13.06.2019
6428 Clouds 12 1009 64 0 3.6 13.441 18:22 13.06.2019
6429 Clouds 12 1009 64 0 3.6 13.441 17:44 13.06.2019
6430 Clouds 12 1009 64 0 3.6 13.441 17:21 13.06.2019
6431 Clouds 12 1009 64 0 3.6 13.441 16:58 13.06.2019
6432 Clouds 12 1009 64 0 3.6 13.441 16:38 13.06.2019
6433 Clouds 12 1009 64 0 3.6 13.441 16:18 13.06.2019
6434 Clouds 12 1009 64 0 3.6 13.441 15:41 13.06.2019
6435 Clouds 18 1007 45 0 3.67 319.211 15:22 13.06.2019
6436 Clouds 18 1007 45 0 3.67 319.211 14:49 13.06.2019
6437 Clouds 18 1007 45 0 3.67 319.211 14:31 13.06.2019
6438 Clouds 18 1007 45 0 3.67 319.211 13:55 13.06.2019
6439 Clouds 18 1007 45 0 3.67 319.211 13:37 13.06.2019
6440 Clouds 18 1007 45 0 3.67 319.211 13:19 13.06.2019
6441 Clouds 18 1007 45 0 3.67 319.211 12:40 13.06.2019
6442 Clouds 23 1004 33 0 7.46 287.087 12:21 13.06.2019
6443 Clouds 23 1004 33 0 7.46 287.087 11:45 13.06.2019
6444 Clouds 23 1004 33 0 7.46 287.087 11:26 13.06.2019
6445 Clouds 23 1004 33 0 7.46 287.087 10:51 13.06.2019
6446 Clouds 23 1004 33 0 7.46 287.087 10:31 13.06.2019
6447 Clouds 23 1004 33 0 7.46 287.087 09:56 13.06.2019
6448 Clouds 23 1004 33 0 7.46 287.087 09:38 13.06.2019
6449 Clear 25 1002 19 0 7.39 209.031 09:20 13.06.2019
6450 Clear 25 1002 19 0 7.39 209.031 08:43 13.06.2019
6451 Clear 25 1002 19 0 7.39 209.031 08:22 13.06.2019
6452 Clear 25 1002 19 0 7.39 209.031 07:41 13.06.2019
6453 Clear 25 1002 19 0 7.39 209.031 07:22 13.06.2019
6454 Clear 25 1002 19 0 7.39 209.031 06:45 13.06.2019
6455 Clear 24 1002 21 0 8.55 200.984 06:22 13.06.2019
6456 Clear 24 1002 21 0 8.55 200.984 05:53 13.06.2019
6457 Clear 24 1002 21 0 8.55 200.984 05:35 13.06.2019
6458 Clear 24 1002 21 0 8.55 200.984 03:57 13.06.2019
6459 Clear 22 1002 27 0 9.35 205.864 02:23 13.06.2019
6460 Clear 22 1002 27 0 9.35 205.864 00:46 13.06.2019
6461 Clear 18 1003 34 0 8.49 197.163 23:49 12.06.2019
6462 Clear 18 1003 34 0 8.49 197.163 23:22 12.06.2019
6463 Clear 18 1003 34 0 8.49 197.163 22:43 12.06.2019
6464 Clear 18 1003 34 0 8.49 197.163 22:24 12.06.2019
6465 Clear 18 1003 34 0 8.49 197.163 21:56 12.06.2019
6466 Clear 18 1003 34 0 8.49 197.163 21:36 12.06.2019
6467 Clear 15 1002 35 0 5.84 190.392 21:18 12.06.2019
6468 Clear 15 1002 35 0 5.84 190.392 20:37 12.06.2019
6469 Clear 15 1002 35 0 5.84 190.392 20:19 12.06.2019
6470 Clear 15 1002 35 0 5.84 190.392 19:42 12.06.2019
6471 Clear 15 1002 35 0 5.84 190.392 19:23 12.06.2019
6472 Clear 15 1002 35 0 5.84 190.392 18:55 12.06.2019
6473 Clear 15 1002 35 0 5.84 190.392 18:37 12.06.2019
6474 Clear 17 1001 33 0 5.43 193.288 18:18 12.06.2019
6475 Clear 17 1001 33 0 5.43 193.288 17:43 12.06.2019
6476 Clear 17 1001 33 0 5.43 193.288 17:20 12.06.2019
6477 Clear 17 1001 33 0 5.43 193.288 16:42 12.06.2019
6478 Clear 17 1001 33 0 5.43 193.288 16:23 12.06.2019
6479 Clear 17 1001 33 0 5.43 193.288 15:52 12.06.2019
6480 Clear 17 1001 33 0 5.43 193.288 15:32 12.06.2019
6481 Clear 21 1000 29 0 3.45 195.621 14:46 12.06.2019
6482 Clear 21 1000 29 0 3.45 195.621 14:27 12.06.2019
6483 Clear 21 1000 29 0 3.45 195.621 13:44 12.06.2019
6484 Clear 21 1001 30 0 3.67 196.089 13:20 12.06.2019
6485 Clear 21 1001 30 0 3.67 196.089 12:59 12.06.2019
6486 Clear 21 1001 30 0 3.67 196.089 12:38 12.06.2019
6487 Clear 21 1001 30 0 3.67 196.089 12:38 12.06.2019
6488 Clear 21 1001 30 0 3.67 196.089 12:38 12.06.2019
6489 Clear 25 1000 18 0 5.14 197.359 12:19 12.06.2019
6490 Clear 25 1000 18 0 5.14 197.359 12:19 12.06.2019
6491 Clear 25 1000 18 0 5.14 197.359 11:47 12.06.2019
6492 Clear 25 1000 18 0 5.14 197.359 11:28 12.06.2019
6493 Clear 25 1000 18 0 5.14 197.359 10:52 12.06.2019
6494 Clear 25 1000 18 0 5.14 197.359 10:31 12.06.2019
6495 Clear 25 1000 18 0 5.14 197.359 09:55 12.06.2019
6496 -273 0 0 0 0 0 09:37 12.06.2019
6497 Clear 25 999 18 0 6.21 191.263 09:18 12.06.2019
6498 Clear 25 999 18 0 6.21 191.263 08:25 12.06.2019
6499 Clear 25 999 18 0 6.21 191.263 07:52 12.06.2019
6500 Clear 25 999 18 0 6.21 191.263 06:55 12.06.2019
6501 Clear 24 1000 21 0 7.27 193.186 05:54 12.06.2019
6502 Clear 24 1000 21 0 7.27 193.186 05:24 12.06.2019
6503 Clear 22 1002 26 0 7.53 192.815 02:19 12.06.2019
6504 Clouds 22 1002 25 0 7.88 192.476 00:41 12.06.2019
6505 Clear 18 1003 35 0 6.53 191.131 23:53 11.06.2019
6506 Clear 18 1003 35 0 6.53 191.131 23:34 11.06.2019
6507 Clear 18 1003 34 0 7.03 189.155 22:45 11.06.2019
6508 Clear 18 1003 34 0 7.03 189.155 22:24 11.06.2019
6509 Clear 18 1003 34 0 7.03 189.155 22:24 11.06.2019
6510 Clear 18 1003 34 0 7.03 189.155 21:59 11.06.2019
6511 Clear 18 1003 34 0 7.03 189.155 21:40 11.06.2019
6512 Clear 15 1004 41 0 5.14 190.214 21:22 11.06.2019
6513 Clear 15 1004 41 0 5.14 190.214 20:57 11.06.2019
6514 Clear 15 1004 41 0 5.14 190.214 20:39 11.06.2019
6515 Clear 15 1004 41 0 5.14 190.214 20:21 11.06.2019
6516 Clear 15 1004 41 0 5.14 190.214 19:50 11.06.2019
6517 -273 0 0 0 0 0 19:28 11.06.2019
6518 Clear 15 1004 41 0 5.14 190.214 18:48 11.06.2019
6519 Clear 16 1003 40 0 5.24 190.519 18:20 11.06.2019
6520 Clear 16 1003 40 0 5.24 190.519 17:41 11.06.2019
6521 Clear 16 1003 40 0 5.24 190.519 17:20 11.06.2019
6522 Clear 16 1003 40 0 5.24 190.519 16:43 11.06.2019
6523 Clear 16 1003 40 0 5.24 190.519 16:24 11.06.2019
6524 Clear 16 1003 40 0 5.24 190.519 15:44 11.06.2019
6525 Clear 21 1003 34 0 5.9 184.653 15:25 11.06.2019
6526 Clear 21 1003 34 0 5.9 184.653 14:58 11.06.2019
6527 Clear 21 1003 34 0 5.9 184.653 14:39 11.06.2019
6528 Clear 21 1003 34 0 5.9 184.653 14:19 11.06.2019
6529 Clear 21 1003 34 0 5.9 184.653 13:43 11.06.2019
6530 Clear 21 1003 34 0 5.9 184.653 13:21 11.06.2019
6531 Clear 21 1002 34 0 5.45 182.554 12:42 11.06.2019
6532 Clear 24 1002 25 0 7.45 195.136 12:22 11.06.2019
6533 Clear 24 1002 25 0 7.45 195.136 11:56 11.06.2019
6534 Clear 24 1002 25 0 7.45 195.136 11:33 11.06.2019
6535 Clear 24 1002 25 0 7.45 195.136 10:57 11.06.2019
6536 -273 0 0 0 0 0 10:39 11.06.2019
6537 Clear 24 1002 25 0 7.45 195.136 10:19 11.06.2019
6538 Clear 24 1002 25 0 7.45 195.136 09:43 11.06.2019
6539 Clear 25 1002 23 0 7.46 194.835 09:23 11.06.2019
6540 Clear 25 1002 23 0 7.46 194.835 08:41 11.06.2019
6541 Clear 25 1002 23 0 7.46 194.835 08:22 11.06.2019
6542 Clear 25 1002 23 0 7.46 194.835 07:34 11.06.2019
6543 Clear 25 1002 24 0 7.31 199.712 06:54 11.06.2019
6544 Clear 25 1003 24 0 7.5 198.44 06:23 11.06.2019
6545 Clear 25 1003 24 0 7.5 198.44 04:48 11.06.2019
6546 Clear 23 1004 26 0 5.96 210.105 02:27 11.06.2019
6547 Clear 23 1004 26 0 6.84 207.831 01:23 11.06.2019
6548 Clear 23 1004 26 0 6.84 207.831 00:44 11.06.2019
6549 Clear 20 1005 36 0 4.21 213.49 23:47 10.06.2019
6550 Clear 20 1006 36 0 4.46 212.984 23:21 10.06.2019
6551 Clear 20 1006 36 0 4.46 212.984 22:47 10.06.2019
6552 Clear 20 1006 36 0 4.46 212.984 22:29 10.06.2019
6553 Clear 20 1006 36 0 4.46 212.984 21:58 10.06.2019
6554 Clear 20 1006 36 0 4.46 212.984 21:39 10.06.2019
6555 Clouds 16 1006 43 0 2.2 212.038 21:21 10.06.2019
6556 Clouds 16 1006 43 0 2.2 212.038 20:44 10.06.2019
6557 Clouds 16 1006 43 0 2.2 212.038 20:23 10.06.2019
6558 Clouds 16 1006 43 0 2.2 212.038 19:51 10.06.2019
6559 Clouds 16 1006 43 0 2.2 212.038 19:26 10.06.2019
6560 Clouds 16 1006 43 0 2.2 212.038 18:59 10.06.2019
6561 Clouds 16 1006 43 0 2.2 212.038 18:40 10.06.2019
6562 Clouds 17 1005 40 0 2.46 230.77 18:20 10.06.2019
6563 Clouds 17 1005 40 0 2.46 230.77 17:54 10.06.2019
6564 Clouds 17 1005 40 0 2.46 230.77 17:36 10.06.2019
6565 Clouds 17 1005 40 0 2.46 230.77 17:18 10.06.2019
6566 Clouds 17 1005 40 0 2.46 230.77 16:42 10.06.2019
6567 Clouds 17 1005 40 0 2.46 230.77 16:22 10.06.2019
6568 Clouds 17 1005 40 0 2.46 230.77 15:41 10.06.2019
6569 Clouds 22 1004 32 0 3.7 229.323 15:23 10.06.2019
6570 Clouds 22 1004 32 0 3.7 229.323 14:49 10.06.2019
6571 Clouds 22 1004 32 0 3.7 229.323 14:31 10.06.2019
6572 Clouds 22 1004 32 0 3.7 229.323 13:59 10.06.2019
6573 Clouds 22 1004 32 0 3.7 229.323 13:40 10.06.2019
6574 Clouds 22 1004 32 0 3.7 229.323 13:20 10.06.2019
6575 Clouds 22 1005 32 0 3.58 228.686 12:42 10.06.2019
6576 Clouds 26 1004 20 0 5.96 233.113 12:23 10.06.2019
6577 Clouds 26 1004 20 0 5.96 233.113 11:43 10.06.2019
6578 Clouds 26 1004 20 0 5.96 233.113 11:23 10.06.2019
6579 Clouds 26 1004 20 0 5.96 233.113 10:42 10.06.2019
6580 Clouds 26 1004 20 0 5.96 233.113 10:20 10.06.2019
6581 Clouds 26 1004 20 0 5.96 233.113 09:57 10.06.2019
6582 Clouds 26 1004 20 0 5.96 233.113 09:38 10.06.2019
6583 Clear 27 1004 17 0 4.36 248.562 09:19 10.06.2019
6584 Clear 27 1004 17 0 4.36 248.562 08:43 10.06.2019
6585 Clear 27 1004 17 0 4.36 248.562 08:18 10.06.2019
6586 Clear 27 1004 18 0 3.39 244.745 06:56 10.06.2019
6587 Clear 26 1005 17 0 3.11 188.708 04:28 10.06.2019
6588 Clear 24 1006 20 0 3.2 171.186 01:58 10.06.2019
6589 Clear 24 1006 20 0 3.2 171.186 01:26 10.06.2019
6590 Clear 24 1006 20 0 3.2 171.186 00:56 10.06.2019
6591 Clear 20 1007 25 0 1.4 131.494 00:19 10.06.2019
6592 Clear 20 1007 25 0 1.4 131.494 23:42 09.06.2019
6593 Clear 20 1007 25 0 1.4 131.494 23:19 09.06.2019
6594 Clear 20 1007 25 0 1.4 131.494 22:44 09.06.2019
6595 Clear 20 1007 25 0 1.4 131.494 22:25 09.06.2019
6596 Clear 20 1007 25 0 1.4 131.494 21:45 09.06.2019
6597 Clear 16 1007 34 0 1.36 120.957 21:23 09.06.2019
6598 Clear 16 1007 34 0 1.36 120.957 20:44 09.06.2019
6599 Clear 16 1007 34 0 1.36 120.957 20:23 09.06.2019
6600 Clear 16 1007 34 0 1.36 120.957 19:56 09.06.2019
6601 Clear 16 1007 34 0 1.36 120.957 19:36 09.06.2019
6602 Clear 16 1007 31 0 1.9 154.983 19:18 09.06.2019
6603 Clear 16 1007 31 0 1.9 154.983 18:41 09.06.2019
6604 Clear 16 1007 28 0 1.12 112.24 18:23 09.06.2019
6605 Clear 16 1007 28 0 1.12 112.24 17:48 09.06.2019
6606 Clear 16 1007 28 0 1.12 112.24 17:27 09.06.2019
6607 Clear 16 1007 28 0 1.12 112.24 16:55 09.06.2019
6608 Clear 16 1007 28 0 1.12 112.24 16:37 09.06.2019
6609 Clear 16 1007 28 0 1.12 112.24 16:19 09.06.2019
6610 Clear 16 1007 28 0 1.12 112.24 15:47 09.06.2019
6611 Clear 16 1007 28 0 1.12 112.24 15:27 09.06.2019
6612 Clear 21 1007 29 0 0.47 32.64 14:46 09.06.2019
6613 Clear 21 1007 29 0 0.47 32.64 14:46 09.06.2019
6614 Clear 21 1007 29 0 0.47 32.64 14:25 09.06.2019
6615 Clear 21 1007 29 0 0.47 32.64 13:56 09.06.2019
6616 Clear 21 1007 29 0 0.47 32.64 13:35 09.06.2019
6617 Clouds 21 1007 25 0 1.95 65.301 12:43 09.06.2019
6618 Clouds 24 1008 14 0 0.72 118.463 12:25 09.06.2019
6619 Clouds 24 1008 14 0 0.72 118.463 11:47 09.06.2019
6620 Clouds 24 1008 14 0 0.72 118.463 11:28 09.06.2019
6621 Clouds 24 1007 15 0 0.95 126.736 10:46 09.06.2019
6622 Clouds 24 1007 15 0 0.95 126.736 10:46 09.06.2019
6623 Clouds 24 1007 15 0 0.95 126.736 10:24 09.06.2019
6624 Clouds 24 1007 15 0 0.95 126.736 10:24 09.06.2019
6625 Clouds 24 1007 15 0 0.95 126.736 09:42 09.06.2019
6626 Clear 24 1008 16 0 1.72 128.712 09:24 09.06.2019
6627 Clear 24 1008 15 0 1.94 125.854 08:55 09.06.2019
6628 Clear 24 1008 15 0 1.94 125.854 08:36 09.06.2019
6629 Clear 24 1008 15 0 1.94 125.854 07:50 09.06.2019
6630 Clear 24 1008 15 0 1.94 125.854 06:30 09.06.2019
6631 Clear 23 1009 18 0 2.81 118.283 05:34 09.06.2019
6632 Clear 22 1010 22 0 2.71 118.896 01:58 09.06.2019
6633 Clear 22 1010 22 0 2.71 118.896 01:36 09.06.2019
6634 Clear 22 1010 22 0 2.75 119.667 01:18 09.06.2019
6635 Clear 18 1011 28 0 1.46 92.048 00:22 09.06.2019
6636 Clear 18 1011 28 0 1.46 92.048 23:40 08.06.2019
6637 Clear 18 1011 28 0 1.46 92.048 23:22 08.06.2019
6638 Clear 18 1011 28 0 1.46 92.048 22:44 08.06.2019
6639 Clear 18 1011 28 0 1.46 92.048 22:25 08.06.2019
6640 Clear 18 1011 28 0 1.46 92.048 21:56 08.06.2019
6641 Clear 18 1011 28 0 1.46 92.048 21:38 08.06.2019
6642 Clear 13 1011 39 0 1.18 100.488 21:19 08.06.2019
6643 Clear 13 1011 39 0 1.18 100.488 20:42 08.06.2019
6644 Clear 13 1011 39 0 1.18 100.488 20:21 08.06.2019
6645 Clear 13 1011 39 0 1.18 100.488 19:43 08.06.2019
6646 Clear 13 1011 39 0 1.18 100.488 19:23 08.06.2019
6647 Clear 13 1011 38 0 1.26 98.091 18:59 08.06.2019
6648 Clear 13 1011 38 0 1.26 98.091 18:40 08.06.2019
6649 Clear 15 1011 32 0 3.47 128.753 18:20 08.06.2019
6650 Clear 15 1011 32 0 3.47 128.753 17:42 08.06.2019
6651 Clear 15 1011 32 0 3.47 128.753 17:19 08.06.2019
6652 Clear 15 1011 32 0 3.47 128.753 16:47 08.06.2019
6653 Clear 15 1011 32 0 3.47 128.753 16:28 08.06.2019
6654 Clear 15 1011 32 0 3.47 128.753 15:49 08.06.2019